<?xml version='1.0' encoding='UTF-8'?><gpx version="1.1" creator="JPX - https://github.com/jenetics/jpx" xmlns="http://www.topografix.com/GPX/1/1"><trk><trkseg><trkpt lat="44.1850109" lon="12.1148336"><ele>28.0</ele><time>2026-04-28T06:40:27.69Z</time></trkpt><trkpt lat="44.1851267" lon="12.1145917"><ele>28.0</ele><time>2026-04-28T06:40:36.647Z</time></trkpt><trkpt lat="44.1851617" lon="12.1144933"><ele>28.0</ele><time>2026-04-28T06:40:41.646Z</time></trkpt><trkpt lat="44.185125" lon="12.1144"><ele>28.0</ele><time>2026-04-28T06:40:43.647Z</time></trkpt><trkpt lat="44.185035" lon="12.1142733"><ele>28.000000000000004</ele><time>2026-04-28T06:40:48.154Z</time></trkpt><trkpt lat="44.1850367" lon="12.114165"><ele>28.0</ele><time>2026-04-28T06:40:49.155Z</time></trkpt><trkpt lat="44.1851033" lon="12.1140583"><ele>28.0</ele><time>2026-04-28T06:40:51.655Z</time></trkpt><trkpt lat="44.1851417" lon="12.1139767"><ele>28.0</ele><time>2026-04-28T06:40:52.654Z</time></trkpt><trkpt lat="44.185205" lon="12.1139467"><ele>28.000000000000004</ele><time>2026-04-28T06:40:54.655Z</time></trkpt><trkpt lat="44.1852767" lon="12.1139183"><ele>28.0</ele><time>2026-04-28T06:40:56.654Z</time></trkpt><trkpt lat="44.185335" lon="12.1139667"><ele>28.0</ele><time>2026-04-28T06:40:59.654Z</time></trkpt><trkpt lat="44.1854283" lon="12.11407"><ele>27.999999999999996</ele><time>2026-04-28T06:41:02.641Z</time></trkpt><trkpt lat="44.1855" lon="12.1141283"><ele>27.999999999999996</ele><time>2026-04-28T06:41:04.64Z</time></trkpt><trkpt lat="44.1855583" lon="12.1141883"><ele>28.0</ele><time>2026-04-28T06:41:06.64Z</time></trkpt><trkpt lat="44.1856367" lon="12.1142567"><ele>28.0</ele><time>2026-04-28T06:41:08.641Z</time></trkpt><trkpt lat="44.1857167" lon="12.11432"><ele>28.000000000000004</ele><time>2026-04-28T06:41:10.642Z</time></trkpt><trkpt lat="44.185795" lon="12.1143833"><ele>28.0</ele><time>2026-04-28T06:41:12.641Z</time></trkpt><trkpt lat="44.1858683" lon="12.1144217"><ele>28.0</ele><time>2026-04-28T06:41:14.642Z</time></trkpt><trkpt lat="44.1859417" lon="12.1144883"><ele>28.0</ele><time>2026-04-28T06:41:16.642Z</time></trkpt><trkpt lat="44.18602" lon="12.1145467"><ele>28.000000000000004</ele><time>2026-04-28T06:41:18.642Z</time></trkpt><trkpt lat="44.186095" lon="12.1145983"><ele>28.0</ele><time>2026-04-28T06:41:20.642Z</time></trkpt><trkpt lat="44.18617" lon="12.114655"><ele>28.0</ele><time>2026-04-28T06:41:22.641Z</time></trkpt><trkpt lat="44.1862533" lon="12.1147133"><ele>27.999999999999996</ele><time>2026-04-28T06:41:24.642Z</time></trkpt><trkpt lat="44.186335" lon="12.1147717"><ele>27.999999999999996</ele><time>2026-04-28T06:41:26.642Z</time></trkpt><trkpt lat="44.1864217" lon="12.1148383"><ele>28.0</ele><time>2026-04-28T06:41:28.642Z</time></trkpt><trkpt lat="44.18651" lon="12.1149067"><ele>28.0</ele><time>2026-04-28T06:41:30.642Z</time></trkpt><trkpt lat="44.1865967" lon="12.1149733"><ele>28.0</ele><time>2026-04-28T06:41:32.641Z</time></trkpt><trkpt lat="44.1866717" lon="12.115035"><ele>27.999999999999996</ele><time>2026-04-28T06:41:34.641Z</time></trkpt><trkpt lat="44.1867383" lon="12.115125"><ele>27.999999999999996</ele><time>2026-04-28T06:41:36.642Z</time></trkpt><trkpt lat="44.1867933" lon="12.1152283"><ele>28.0</ele><time>2026-04-28T06:41:38.641Z</time></trkpt><trkpt lat="44.186845" lon="12.115355"><ele>28.0</ele><time>2026-04-28T06:41:40.641Z</time></trkpt><trkpt lat="44.1868117" lon="12.1154867"><ele>28.000000000000004</ele><time>2026-04-28T06:41:44.641Z</time></trkpt><trkpt lat="44.1867533" lon="12.1155667"><ele>28.0</ele><time>2026-04-28T06:41:47.642Z</time></trkpt><trkpt lat="44.186725" lon="12.1156633"><ele>28.0</ele><time>2026-04-28T06:41:49.641Z</time></trkpt><trkpt lat="44.1866733" lon="12.1157483"><ele>28.0</ele><time>2026-04-28T06:41:51.641Z</time></trkpt><trkpt lat="44.186635" lon="12.115855"><ele>28.000000000000004</ele><time>2026-04-28T06:41:53.641Z</time></trkpt><trkpt lat="44.186585" lon="12.115935"><ele>28.0</ele><time>2026-04-28T06:41:55.642Z</time></trkpt><trkpt lat="44.186545" lon="12.1160433"><ele>28.2</ele><time>2026-04-28T06:41:57.641Z</time></trkpt><trkpt lat="44.1865033" lon="12.1161617"><ele>28.4</ele><time>2026-04-28T06:41:59.642Z</time></trkpt><trkpt lat="44.1864583" lon="12.116265"><ele>28.599999999999998</ele><time>2026-04-28T06:42:01.641Z</time></trkpt><trkpt lat="44.186415" lon="12.1163617"><ele>28.799999999999997</ele><time>2026-04-28T06:42:03.642Z</time></trkpt><trkpt lat="44.1863717" lon="12.1164633"><ele>29.0</ele><time>2026-04-28T06:42:08.645Z</time></trkpt><trkpt lat="44.186445" lon="12.116845"><ele>29.0</ele><time>2026-04-28T06:42:09.645Z</time></trkpt><trkpt lat="44.1864083" lon="12.1169583"><ele>29.0</ele><time>2026-04-28T06:42:13.644Z</time></trkpt><trkpt lat="44.1861567" lon="12.11705"><ele>29.0</ele><time>2026-04-28T06:42:18.14Z</time></trkpt><trkpt lat="44.1861533" lon="12.1171933"><ele>29.0</ele><time>2026-04-28T06:42:19.141Z</time></trkpt><trkpt lat="44.18616" lon="12.117325"><ele>29.0</ele><time>2026-04-28T06:42:20.64Z</time></trkpt><trkpt lat="44.1863483" lon="12.1173333"><ele>29.0</ele><time>2026-04-28T06:42:21.641Z</time></trkpt><trkpt lat="44.1863567" lon="12.1174533"><ele>29.0</ele><time>2026-04-28T06:42:23.641Z</time></trkpt><trkpt lat="44.1861867" lon="12.117805"><ele>28.999999999999996</ele><time>2026-04-28T06:42:24.64Z</time></trkpt><trkpt lat="44.1861983" lon="12.1179383"><ele>29.0</ele><time>2026-04-28T06:42:25.64Z</time></trkpt><trkpt lat="44.1862017" lon="12.118095"><ele>29.0</ele><time>2026-04-28T06:42:27.64Z</time></trkpt><trkpt lat="44.186215" lon="12.1181883"><ele>29.0</ele><time>2026-04-28T06:42:28.641Z</time></trkpt><trkpt lat="44.186235" lon="12.118295"><ele>28.999999999999996</ele><time>2026-04-28T06:42:29.64Z</time></trkpt><trkpt lat="44.1862633" lon="12.1184083"><ele>29.0</ele><time>2026-04-28T06:42:30.64Z</time></trkpt><trkpt lat="44.1862933" lon="12.118505"><ele>29.0</ele><time>2026-04-28T06:42:31.641Z</time></trkpt><trkpt lat="44.1863433" lon="12.1186417"><ele>29.0</ele><time>2026-04-28T06:42:33.64Z</time></trkpt><trkpt lat="44.1864117" lon="12.1187983"><ele>29.0</ele><time>2026-04-28T06:42:35.64Z</time></trkpt><trkpt lat="44.1864717" lon="12.1189417"><ele>29.0</ele><time>2026-04-28T06:42:37.641Z</time></trkpt><trkpt lat="44.1865133" lon="12.1190117"><ele>29.0</ele><time>2026-04-28T06:42:38.641Z</time></trkpt><trkpt lat="44.1865567" lon="12.1191183"><ele>29.0</ele><time>2026-04-28T06:42:39.64Z</time></trkpt><trkpt lat="44.1866383" lon="12.1192517"><ele>29.0</ele><time>2026-04-28T06:42:41.64Z</time></trkpt><trkpt lat="44.18668" lon="12.1193233"><ele>29.0</ele><time>2026-04-28T06:42:42.641Z</time></trkpt><trkpt lat="44.186745" lon="12.11944"><ele>29.0</ele><time>2026-04-28T06:42:44.641Z</time></trkpt><trkpt lat="44.1867933" lon="12.1195417"><ele>29.0</ele><time>2026-04-28T06:42:46.64Z</time></trkpt><trkpt lat="44.186825" lon="12.119655"><ele>29.0</ele><time>2026-04-28T06:42:48.64Z</time></trkpt><trkpt lat="44.1868633" lon="12.1197683"><ele>29.0</ele><time>2026-04-28T06:42:50.641Z</time></trkpt><trkpt lat="44.1868983" lon="12.1198817"><ele>29.0</ele><time>2026-04-28T06:42:52.641Z</time></trkpt><trkpt lat="44.18692" lon="12.120005"><ele>29.0</ele><time>2026-04-28T06:42:54.641Z</time></trkpt><trkpt lat="44.1869317" lon="12.120135"><ele>29.0</ele><time>2026-04-28T06:42:56.64Z</time></trkpt><trkpt lat="44.186935" lon="12.12027"><ele>29.0</ele><time>2026-04-28T06:42:58.64Z</time></trkpt><trkpt lat="44.186945" lon="12.1203767"><ele>29.0</ele><time>2026-04-28T06:43:00.64Z</time></trkpt><trkpt lat="44.1869833" lon="12.120515"><ele>29.0</ele><time>2026-04-28T06:43:03.64Z</time></trkpt><trkpt lat="44.187065" lon="12.1205633"><ele>29.0</ele><time>2026-04-28T06:43:05.64Z</time></trkpt><trkpt lat="44.1871633" lon="12.120655"><ele>29.0</ele><time>2026-04-28T06:43:07.641Z</time></trkpt><trkpt lat="44.1872183" lon="12.1207067"><ele>29.2</ele><time>2026-04-28T06:43:08.641Z</time></trkpt><trkpt lat="44.18727" lon="12.1207617"><ele>29.4</ele><time>2026-04-28T06:43:09.641Z</time></trkpt><trkpt lat="44.18736" lon="12.1208533"><ele>29.6</ele><time>2026-04-28T06:43:11.64Z</time></trkpt><trkpt lat="44.18745" lon="12.1209317"><ele>29.8</ele><time>2026-04-28T06:43:13.641Z</time></trkpt><trkpt lat="44.1875417" lon="12.1210133"><ele>30.0</ele><time>2026-04-28T06:43:15.641Z</time></trkpt><trkpt lat="44.1876317" lon="12.1210883"><ele>30.0</ele><time>2026-04-28T06:43:17.641Z</time></trkpt><trkpt lat="44.1876917" lon="12.121145"><ele>30.0</ele><time>2026-04-28T06:43:19.641Z</time></trkpt><trkpt lat="44.1877417" lon="12.121225"><ele>30.0</ele><time>2026-04-28T06:43:23.64Z</time></trkpt><trkpt lat="44.1877717" lon="12.1213233"><ele>30.0</ele><time>2026-04-28T06:43:29.641Z</time></trkpt><trkpt lat="44.1877867" lon="12.12141"><ele>30.0</ele><time>2026-04-28T06:43:31.641Z</time></trkpt><trkpt lat="44.187835" lon="12.1215033"><ele>30.0</ele><time>2026-04-28T06:43:34.641Z</time></trkpt><trkpt lat="44.1879033" lon="12.1215333"><ele>30.0</ele><time>2026-04-28T06:43:36.641Z</time></trkpt><trkpt lat="44.18799" lon="12.12155"><ele>30.0</ele><time>2026-04-28T06:43:38.641Z</time></trkpt><trkpt lat="44.1880933" lon="12.1215533"><ele>30.0</ele><time>2026-04-28T06:43:40.64Z</time></trkpt><trkpt lat="44.1882083" lon="12.1215917"><ele>30.0</ele><time>2026-04-28T06:43:42.641Z</time></trkpt><trkpt lat="44.1883217" lon="12.121655"><ele>30.0</ele><time>2026-04-28T06:43:44.641Z</time></trkpt><trkpt lat="44.18843" lon="12.1217267"><ele>30.0</ele><time>2026-04-28T06:43:46.641Z</time></trkpt><trkpt lat="44.1885317" lon="12.1217967"><ele>30.0</ele><time>2026-04-28T06:43:48.64Z</time></trkpt><trkpt lat="44.1886217" lon="12.121865"><ele>30.0</ele><time>2026-04-28T06:43:50.641Z</time></trkpt><trkpt lat="44.18872" lon="12.1219333"><ele>30.0</ele><time>2026-04-28T06:43:52.641Z</time></trkpt><trkpt lat="44.1888217" lon="12.122005"><ele>30.0</ele><time>2026-04-28T06:43:54.641Z</time></trkpt><trkpt lat="44.188925" lon="12.12207"><ele>29.75</ele><time>2026-04-28T06:43:56.641Z</time></trkpt><trkpt lat="44.1890233" lon="12.1221117"><ele>29.5</ele><time>2026-04-28T06:43:58.641Z</time></trkpt><trkpt lat="44.1891367" lon="12.1221517"><ele>29.25</ele><time>2026-04-28T06:44:00.64Z</time></trkpt><trkpt lat="44.1892517" lon="12.1222217"><ele>29.0</ele><time>2026-04-28T06:44:02.641Z</time></trkpt><trkpt lat="44.18935" lon="12.1222967"><ele>29.0</ele><time>2026-04-28T06:44:04.64Z</time></trkpt><trkpt lat="44.1894467" lon="12.1223633"><ele>29.0</ele><time>2026-04-28T06:44:06.64Z</time></trkpt><trkpt lat="44.18955" lon="12.1224233"><ele>29.0</ele><time>2026-04-28T06:44:08.64Z</time></trkpt><trkpt lat="44.189655" lon="12.1224817"><ele>29.0</ele><time>2026-04-28T06:44:10.64Z</time></trkpt><trkpt lat="44.1897683" lon="12.122545"><ele>28.799999999999997</ele><time>2026-04-28T06:44:12.641Z</time></trkpt><trkpt lat="44.1898833" lon="12.1226333"><ele>28.599999999999998</ele><time>2026-04-28T06:44:14.641Z</time></trkpt><trkpt lat="44.1899433" lon="12.122675"><ele>28.4</ele><time>2026-04-28T06:44:15.641Z</time></trkpt><trkpt lat="44.1900133" lon="12.1227233"><ele>28.2</ele><time>2026-04-28T06:44:17.64Z</time></trkpt><trkpt lat="44.1901017" lon="12.1227933"><ele>28.0</ele><time>2026-04-28T06:44:19.64Z</time></trkpt><trkpt lat="44.1901933" lon="12.122855"><ele>28.000000000000004</ele><time>2026-04-28T06:44:21.641Z</time></trkpt><trkpt lat="44.19029" lon="12.1229133"><ele>28.0</ele><time>2026-04-28T06:44:23.64Z</time></trkpt><trkpt lat="44.190385" lon="12.1229817"><ele>28.0</ele><time>2026-04-28T06:44:25.64Z</time></trkpt><trkpt lat="44.1903917" lon="12.1230717"><ele>28.0</ele><time>2026-04-28T06:44:28.641Z</time></trkpt><trkpt lat="44.19036" lon="12.1231617"><ele>28.000000000000004</ele><time>2026-04-28T06:44:30.64Z</time></trkpt><trkpt lat="44.1903367" lon="12.1232517"><ele>28.0</ele><time>2026-04-28T06:44:32.64Z</time></trkpt><trkpt lat="44.190305" lon="12.123355"><ele>28.0</ele><time>2026-04-28T06:44:34.64Z</time></trkpt><trkpt lat="44.1902783" lon="12.1234967"><ele>27.999999999999996</ele><time>2026-04-28T06:44:36.641Z</time></trkpt><trkpt lat="44.1902717" lon="12.1236467"><ele>27.999999999999996</ele><time>2026-04-28T06:44:38.64Z</time></trkpt><trkpt lat="44.1902517" lon="12.123805"><ele>28.0</ele><time>2026-04-28T06:44:40.641Z</time></trkpt><trkpt lat="44.190245" lon="12.1239683"><ele>28.0</ele><time>2026-04-28T06:44:42.64Z</time></trkpt><trkpt lat="44.1902467" lon="12.1240617"><ele>28.0</ele><time>2026-04-28T06:44:43.641Z</time></trkpt><trkpt lat="44.1902517" lon="12.1242567"><ele>27.999999999999996</ele><time>2026-04-28T06:44:45.64Z</time></trkpt><trkpt lat="44.1902433" lon="12.1244117"><ele>27.999999999999996</ele><time>2026-04-28T06:44:47.64Z</time></trkpt><trkpt lat="44.1902383" lon="12.124505"><ele>28.0</ele><time>2026-04-28T06:44:48.641Z</time></trkpt><trkpt lat="44.1902467" lon="12.1246717"><ele>28.0</ele><time>2026-04-28T06:44:49.64Z</time></trkpt><trkpt lat="44.19024" lon="12.1247667"><ele>28.000000000000004</ele><time>2026-04-28T06:44:50.641Z</time></trkpt><trkpt lat="44.19024" lon="12.1248617"><ele>28.0</ele><time>2026-04-28T06:44:51.64Z</time></trkpt><trkpt lat="44.1902383" lon="12.1249533"><ele>28.0</ele><time>2026-04-28T06:44:52.64Z</time></trkpt><trkpt lat="44.190235" lon="12.1250417"><ele>28.0</ele><time>2026-04-28T06:44:53.64Z</time></trkpt><trkpt lat="44.1902133" lon="12.12518"><ele>28.000000000000004</ele><time>2026-04-28T06:44:55.641Z</time></trkpt><trkpt lat="44.1901783" lon="12.1253167"><ele>28.0</ele><time>2026-04-28T06:44:57.641Z</time></trkpt><trkpt lat="44.1901233" lon="12.12545"><ele>28.333333333333336</ele><time>2026-04-28T06:44:59.64Z</time></trkpt><trkpt lat="44.19007" lon="12.12556"><ele>28.666666666666668</ele><time>2026-04-28T06:45:01.64Z</time></trkpt><trkpt lat="44.1900083" lon="12.1256783"><ele>29.0</ele><time>2026-04-28T06:45:03.641Z</time></trkpt><trkpt lat="44.1899767" lon="12.1257633"><ele>29.333333333333336</ele><time>2026-04-28T06:45:04.641Z</time></trkpt><trkpt lat="44.1899433" lon="12.1258633"><ele>29.666666666666668</ele><time>2026-04-28T06:45:05.64Z</time></trkpt><trkpt lat="44.1899067" lon="12.1259467"><ele>30.0</ele><time>2026-04-28T06:45:06.641Z</time></trkpt><trkpt lat="44.18988" lon="12.1260417"><ele>30.4</ele><time>2026-04-28T06:45:07.641Z</time></trkpt><trkpt lat="44.1898217" lon="12.1261617"><ele>30.8</ele><time>2026-04-28T06:45:09.642Z</time></trkpt><trkpt lat="44.1897767" lon="12.12629"><ele>31.200000000000003</ele><time>2026-04-28T06:45:11.642Z</time></trkpt><trkpt lat="44.1897583" lon="12.1264233"><ele>31.6</ele><time>2026-04-28T06:45:13.641Z</time></trkpt><trkpt lat="44.1897467" lon="12.1265617"><ele>32.0</ele><time>2026-04-28T06:45:15.641Z</time></trkpt><trkpt lat="44.1897167" lon="12.1267067"><ele>31.999999999999996</ele><time>2026-04-28T06:45:17.642Z</time></trkpt><trkpt lat="44.18968" lon="12.1268117"><ele>32.0</ele><time>2026-04-28T06:45:19.642Z</time></trkpt><trkpt lat="44.189695" lon="12.126915"><ele>32.0</ele><time>2026-04-28T06:45:21.642Z</time></trkpt><trkpt lat="44.1897067" lon="12.1270417"><ele>32.0</ele><time>2026-04-28T06:45:23.641Z</time></trkpt><trkpt lat="44.18971" lon="12.1271783"><ele>31.999999999999996</ele><time>2026-04-28T06:45:25.642Z</time></trkpt><trkpt lat="44.1897083" lon="12.12731"><ele>32.0</ele><time>2026-04-28T06:45:27.641Z</time></trkpt><trkpt lat="44.189705" lon="12.1274333"><ele>31.999999999999996</ele><time>2026-04-28T06:45:29.642Z</time></trkpt><trkpt lat="44.189685" lon="12.1275633"><ele>32.0</ele><time>2026-04-28T06:45:31.641Z</time></trkpt><trkpt lat="44.1896633" lon="12.127685"><ele>32.0</ele><time>2026-04-28T06:45:33.641Z</time></trkpt><trkpt lat="44.1896117" lon="12.1277983"><ele>32.0</ele><time>2026-04-28T06:45:36.642Z</time></trkpt><trkpt lat="44.1895817" lon="12.1278967"><ele>31.999999999999996</ele><time>2026-04-28T06:45:38.641Z</time></trkpt><trkpt lat="44.1895733" lon="12.12801"><ele>32.0</ele><time>2026-04-28T06:45:40.641Z</time></trkpt><trkpt lat="44.1895333" lon="12.1281033"><ele>32.0</ele><time>2026-04-28T06:45:42.642Z</time></trkpt><trkpt lat="44.189495" lon="12.1281983"><ele>32.0</ele><time>2026-04-28T06:45:44.641Z</time></trkpt><trkpt lat="44.1894417" lon="12.128285"><ele>32.0</ele><time>2026-04-28T06:45:46.642Z</time></trkpt><trkpt lat="44.1893533" lon="12.1283733"><ele>32.0</ele><time>2026-04-28T06:45:48.642Z</time></trkpt><trkpt lat="44.1892383" lon="12.1284367"><ele>32.0</ele><time>2026-04-28T06:45:50.642Z</time></trkpt><trkpt lat="44.18917" lon="12.1284617"><ele>31.8</ele><time>2026-04-28T06:45:51.641Z</time></trkpt><trkpt lat="44.189105" lon="12.1284817"><ele>31.6</ele><time>2026-04-28T06:45:52.641Z</time></trkpt><trkpt lat="44.1889933" lon="12.1285033"><ele>31.400000000000002</ele><time>2026-04-28T06:45:54.641Z</time></trkpt><trkpt lat="44.188895" lon="12.12852"><ele>31.200000000000003</ele><time>2026-04-28T06:45:56.642Z</time></trkpt><trkpt lat="44.1888317" lon="12.1285217"><ele>31.0</ele><time>2026-04-28T06:45:57.642Z</time></trkpt><trkpt lat="44.188715" lon="12.1285317"><ele>31.0</ele><time>2026-04-28T06:45:59.641Z</time></trkpt><trkpt lat="44.1885933" lon="12.1285383"><ele>31.0</ele><time>2026-04-28T06:46:01.642Z</time></trkpt><trkpt lat="44.18849" lon="12.1285367"><ele>31.0</ele><time>2026-04-28T06:46:03.642Z</time></trkpt><trkpt lat="44.18839" lon="12.1285483"><ele>31.0</ele><time>2026-04-28T06:46:05.641Z</time></trkpt><trkpt lat="44.1882817" lon="12.1285667"><ele>31.0</ele><time>2026-04-28T06:46:07.641Z</time></trkpt><trkpt lat="44.1882183" lon="12.1285733"><ele>31.25</ele><time>2026-04-28T06:46:08.641Z</time></trkpt><trkpt lat="44.1881483" lon="12.12858"><ele>31.5</ele><time>2026-04-28T06:46:09.641Z</time></trkpt><trkpt lat="44.1880667" lon="12.128575"><ele>31.75</ele><time>2026-04-28T06:46:13.643Z</time></trkpt><trkpt lat="44.1878483" lon="12.128545"><ele>32.0</ele><time>2026-04-28T06:46:14.642Z</time></trkpt><trkpt lat="44.1878767" lon="12.1286667"><ele>31.999999999999996</ele><time>2026-04-28T06:46:16.642Z</time></trkpt><trkpt lat="44.1878717" lon="12.1288117"><ele>32.0</ele><time>2026-04-28T06:46:18.642Z</time></trkpt><trkpt lat="44.1878583" lon="12.1289583"><ele>32.0</ele><time>2026-04-28T06:46:20.643Z</time></trkpt><trkpt lat="44.1878267" lon="12.12908"><ele>32.0</ele><time>2026-04-28T06:46:21.642Z</time></trkpt><trkpt lat="44.1878117" lon="12.1291717"><ele>31.999999999999996</ele><time>2026-04-28T06:46:22.642Z</time></trkpt><trkpt lat="44.1878017" lon="12.1292783"><ele>32.0</ele><time>2026-04-28T06:46:23.643Z</time></trkpt><trkpt lat="44.1878" lon="12.1293917"><ele>31.71428571428571</ele><time>2026-04-28T06:46:24.643Z</time></trkpt><trkpt lat="44.1877967" lon="12.12949"><ele>31.428571428571423</ele><time>2026-04-28T06:46:25.642Z</time></trkpt><trkpt lat="44.187795" lon="12.1295867"><ele>31.142857142857142</ele><time>2026-04-28T06:46:26.643Z</time></trkpt><trkpt lat="44.1877917" lon="12.12968"><ele>30.857142857142854</ele><time>2026-04-28T06:46:27.643Z</time></trkpt><trkpt lat="44.1877867" lon="12.1297717"><ele>30.57142857142857</ele><time>2026-04-28T06:46:28.642Z</time></trkpt><trkpt lat="44.1877867" lon="12.1298717"><ele>30.285714285714285</ele><time>2026-04-28T06:46:29.643Z</time></trkpt><trkpt lat="44.1877817" lon="12.1299617"><ele>30.0</ele><time>2026-04-28T06:46:30.642Z</time></trkpt><trkpt lat="44.18777" lon="12.1300483"><ele>29.833333333333332</ele><time>2026-04-28T06:46:31.643Z</time></trkpt><trkpt lat="44.18777" lon="12.1301383"><ele>29.666666666666664</ele><time>2026-04-28T06:46:32.642Z</time></trkpt><trkpt lat="44.18777" lon="12.130315"><ele>29.5</ele><time>2026-04-28T06:46:34.643Z</time></trkpt><trkpt lat="44.187765" lon="12.130485"><ele>29.333333333333332</ele><time>2026-04-28T06:46:36.643Z</time></trkpt><trkpt lat="44.1877683" lon="12.13058"><ele>29.166666666666664</ele><time>2026-04-28T06:46:37.643Z</time></trkpt><trkpt lat="44.187775" lon="12.1306717"><ele>29.0</ele><time>2026-04-28T06:46:38.642Z</time></trkpt><trkpt lat="44.187785" lon="12.1308433"><ele>29.0</ele><time>2026-04-28T06:46:40.643Z</time></trkpt><trkpt lat="44.1877933" lon="12.1310067"><ele>29.0</ele><time>2026-04-28T06:46:42.642Z</time></trkpt><trkpt lat="44.18779" lon="12.1311683"><ele>29.0</ele><time>2026-04-28T06:46:44.643Z</time></trkpt><trkpt lat="44.18779" lon="12.1313117"><ele>29.0</ele><time>2026-04-28T06:46:46.643Z</time></trkpt><trkpt lat="44.1877883" lon="12.1314583"><ele>29.0</ele><time>2026-04-28T06:46:48.642Z</time></trkpt><trkpt lat="44.187785" lon="12.1315983"><ele>29.0</ele><time>2026-04-28T06:46:50.643Z</time></trkpt><trkpt lat="44.1877917" lon="12.1317483"><ele>29.0</ele><time>2026-04-28T06:46:52.643Z</time></trkpt><trkpt lat="44.18779" lon="12.131885"><ele>29.0</ele><time>2026-04-28T06:46:54.643Z</time></trkpt><trkpt lat="44.187785" lon="12.1320633"><ele>29.0</ele><time>2026-04-28T06:46:57.643Z</time></trkpt><trkpt lat="44.1877817" lon="12.1321767"><ele>29.0</ele><time>2026-04-28T06:46:59.642Z</time></trkpt><trkpt lat="44.1877883" lon="12.1322983"><ele>28.799999999999997</ele><time>2026-04-28T06:47:01.642Z</time></trkpt><trkpt lat="44.1877867" lon="12.1324167"><ele>28.599999999999998</ele><time>2026-04-28T06:47:03.643Z</time></trkpt><trkpt lat="44.1877733" lon="12.132545"><ele>28.4</ele><time>2026-04-28T06:47:05.642Z</time></trkpt><trkpt lat="44.1877717" lon="12.1326767"><ele>28.2</ele><time>2026-04-28T06:47:07.642Z</time></trkpt><trkpt lat="44.1878083" lon="12.132805"><ele>28.0</ele><time>2026-04-28T06:47:09.643Z</time></trkpt><trkpt lat="44.1878367" lon="12.1329333"><ele>28.0</ele><time>2026-04-28T06:47:11.642Z</time></trkpt><trkpt lat="44.1878467" lon="12.133075"><ele>27.999999999999996</ele><time>2026-04-28T06:47:13.642Z</time></trkpt><trkpt lat="44.1878567" lon="12.1332133"><ele>27.999999999999996</ele><time>2026-04-28T06:47:15.642Z</time></trkpt><trkpt lat="44.1878667" lon="12.133355"><ele>28.0</ele><time>2026-04-28T06:47:17.643Z</time></trkpt><trkpt lat="44.1878717" lon="12.133495"><ele>28.0</ele><time>2026-04-28T06:47:19.642Z</time></trkpt><trkpt lat="44.1878783" lon="12.1336383"><ele>27.799999999999997</ele><time>2026-04-28T06:47:21.643Z</time></trkpt><trkpt lat="44.1878883" lon="12.1337817"><ele>27.599999999999998</ele><time>2026-04-28T06:47:23.643Z</time></trkpt><trkpt lat="44.1879" lon="12.133915"><ele>27.400000000000002</ele><time>2026-04-28T06:47:25.643Z</time></trkpt><trkpt lat="44.1879017" lon="12.1340417"><ele>27.200000000000003</ele><time>2026-04-28T06:47:27.643Z</time></trkpt><trkpt lat="44.1879" lon="12.1342517"><ele>27.0</ele><time>2026-04-28T06:47:30.643Z</time></trkpt><trkpt lat="44.1879083" lon="12.1343483"><ele>27.0</ele><time>2026-04-28T06:47:31.643Z</time></trkpt><trkpt lat="44.1879167" lon="12.1345117"><ele>27.000000000000004</ele><time>2026-04-28T06:47:33.643Z</time></trkpt><trkpt lat="44.1879167" lon="12.1346533"><ele>27.000000000000004</ele><time>2026-04-28T06:47:35.643Z</time></trkpt><trkpt lat="44.187915" lon="12.134805"><ele>27.0</ele><time>2026-04-28T06:47:37.643Z</time></trkpt><trkpt lat="44.1879117" lon="12.1349317"><ele>27.0</ele><time>2026-04-28T06:47:39.643Z</time></trkpt><trkpt lat="44.1879117" lon="12.13507"><ele>27.0</ele><time>2026-04-28T06:47:41.643Z</time></trkpt><trkpt lat="44.1879133" lon="12.1352083"><ele>27.000000000000004</ele><time>2026-04-28T06:47:43.642Z</time></trkpt><trkpt lat="44.187915" lon="12.1353517"><ele>27.000000000000004</ele><time>2026-04-28T06:47:45.642Z</time></trkpt><trkpt lat="44.1878933" lon="12.1354967"><ele>27.0</ele><time>2026-04-28T06:47:47.642Z</time></trkpt><trkpt lat="44.187845" lon="12.1356317"><ele>27.0</ele><time>2026-04-28T06:47:49.643Z</time></trkpt><trkpt lat="44.18779" lon="12.135675"><ele>27.0</ele><time>2026-04-28T06:47:51.643Z</time></trkpt><trkpt lat="44.1877283" lon="12.1356483"><ele>27.0</ele><time>2026-04-28T06:47:53.643Z</time></trkpt><trkpt lat="44.18764" lon="12.1355933"><ele>27.0</ele><time>2026-04-28T06:47:55.643Z</time></trkpt><trkpt lat="44.1875517" lon="12.1355733"><ele>27.0</ele><time>2026-04-28T06:47:57.643Z</time></trkpt><trkpt lat="44.1874633" lon="12.13557"><ele>27.0</ele><time>2026-04-28T06:47:59.643Z</time></trkpt><trkpt lat="44.1873683" lon="12.1355617"><ele>27.0</ele><time>2026-04-28T06:48:01.643Z</time></trkpt><trkpt lat="44.18728" lon="12.1355583"><ele>26.8</ele><time>2026-04-28T06:48:03.642Z</time></trkpt><trkpt lat="44.1871817" lon="12.13555"><ele>26.6</ele><time>2026-04-28T06:48:05.643Z</time></trkpt><trkpt lat="44.18708" lon="12.13554"><ele>26.400000000000002</ele><time>2026-04-28T06:48:07.643Z</time></trkpt><trkpt lat="44.1869817" lon="12.1355317"><ele>26.200000000000003</ele><time>2026-04-28T06:48:09.643Z</time></trkpt><trkpt lat="44.1868883" lon="12.135525"><ele>26.0</ele><time>2026-04-28T06:48:11.643Z</time></trkpt><trkpt lat="44.186805" lon="12.1355317"><ele>26.0</ele><time>2026-04-28T06:48:13.642Z</time></trkpt><trkpt lat="44.1867267" lon="12.1355417"><ele>26.0</ele><time>2026-04-28T06:48:15.643Z</time></trkpt><trkpt lat="44.186635" lon="12.1355483"><ele>26.0</ele><time>2026-04-28T06:48:17.643Z</time></trkpt><trkpt lat="44.186535" lon="12.1355533"><ele>26.0</ele><time>2026-04-28T06:48:19.642Z</time></trkpt><trkpt lat="44.1864217" lon="12.1355483"><ele>26.0</ele><time>2026-04-28T06:48:21.643Z</time></trkpt><trkpt lat="44.186305" lon="12.1355533"><ele>26.200000000000003</ele><time>2026-04-28T06:48:23.643Z</time></trkpt><trkpt lat="44.186195" lon="12.1355617"><ele>26.400000000000002</ele><time>2026-04-28T06:48:25.643Z</time></trkpt><trkpt lat="44.1860933" lon="12.1355517"><ele>26.6</ele><time>2026-04-28T06:48:27.643Z</time></trkpt><trkpt lat="44.1859817" lon="12.1355267"><ele>26.8</ele><time>2026-04-28T06:48:29.642Z</time></trkpt><trkpt lat="44.1858733" lon="12.135515"><ele>27.0</ele><time>2026-04-28T06:48:31.643Z</time></trkpt><trkpt lat="44.18577" lon="12.1355"><ele>26.8</ele><time>2026-04-28T06:48:33.643Z</time></trkpt><trkpt lat="44.1856533" lon="12.135495"><ele>26.6</ele><time>2026-04-28T06:48:35.643Z</time></trkpt><trkpt lat="44.1855433" lon="12.1354967"><ele>26.400000000000002</ele><time>2026-04-28T06:48:37.642Z</time></trkpt><trkpt lat="44.1854617" lon="12.1354817"><ele>26.200000000000003</ele><time>2026-04-28T06:48:39.642Z</time></trkpt><trkpt lat="44.1853817" lon="12.1354633"><ele>26.0</ele><time>2026-04-28T06:48:41.643Z</time></trkpt><trkpt lat="44.185285" lon="12.1354433"><ele>26.0</ele><time>2026-04-28T06:48:43.643Z</time></trkpt><trkpt lat="44.1851883" lon="12.1354267"><ele>26.0</ele><time>2026-04-28T06:48:45.643Z</time></trkpt><trkpt lat="44.1850817" lon="12.135415"><ele>26.0</ele><time>2026-04-28T06:48:47.642Z</time></trkpt><trkpt lat="44.1849733" lon="12.1354"><ele>26.0</ele><time>2026-04-28T06:48:49.643Z</time></trkpt><trkpt lat="44.18486" lon="12.135375"><ele>26.0</ele><time>2026-04-28T06:48:51.642Z</time></trkpt><trkpt lat="44.1847467" lon="12.13535"><ele>26.200000000000003</ele><time>2026-04-28T06:48:53.643Z</time></trkpt><trkpt lat="44.18464" lon="12.13532"><ele>26.400000000000002</ele><time>2026-04-28T06:48:55.642Z</time></trkpt><trkpt lat="44.1845417" lon="12.1352933"><ele>26.6</ele><time>2026-04-28T06:48:57.643Z</time></trkpt><trkpt lat="44.1844367" lon="12.1352883"><ele>26.8</ele><time>2026-04-28T06:48:59.642Z</time></trkpt><trkpt lat="44.1843517" lon="12.1352683"><ele>27.0</ele><time>2026-04-28T06:49:01.642Z</time></trkpt><trkpt lat="44.1842467" lon="12.1352433"><ele>27.0</ele><time>2026-04-28T06:49:03.643Z</time></trkpt><trkpt lat="44.1841517" lon="12.135225"><ele>27.000000000000004</ele><time>2026-04-28T06:49:05.642Z</time></trkpt><trkpt lat="44.184065" lon="12.1352083"><ele>27.000000000000004</ele><time>2026-04-28T06:49:07.643Z</time></trkpt><trkpt lat="44.18398" lon="12.1351917"><ele>27.0</ele><time>2026-04-28T06:49:09.642Z</time></trkpt><trkpt lat="44.1838867" lon="12.1351717"><ele>27.0</ele><time>2026-04-28T06:49:11.643Z</time></trkpt><trkpt lat="44.1837933" lon="12.1351583"><ele>27.166666666666668</ele><time>2026-04-28T06:49:13.643Z</time></trkpt><trkpt lat="44.1837033" lon="12.13514"><ele>27.333333333333336</ele><time>2026-04-28T06:49:15.643Z</time></trkpt><trkpt lat="44.1836183" lon="12.1351333"><ele>27.5</ele><time>2026-04-28T06:49:17.643Z</time></trkpt><trkpt lat="44.183535" lon="12.135125"><ele>27.666666666666668</ele><time>2026-04-28T06:49:19.643Z</time></trkpt><trkpt lat="44.1834567" lon="12.1350583"><ele>27.833333333333336</ele><time>2026-04-28T06:49:21.643Z</time></trkpt><trkpt lat="44.183385" lon="12.13498"><ele>28.0</ele><time>2026-04-28T06:49:23.643Z</time></trkpt><trkpt lat="44.1832933" lon="12.1349683"><ele>28.0</ele><time>2026-04-28T06:49:25.643Z</time></trkpt><trkpt lat="44.1831917" lon="12.1350433"><ele>28.0</ele><time>2026-04-28T06:49:27.643Z</time></trkpt><trkpt lat="44.1831033" lon="12.13517"><ele>28.0</ele><time>2026-04-28T06:49:29.643Z</time></trkpt><trkpt lat="44.1830067" lon="12.1352517"><ele>28.0</ele><time>2026-04-28T06:49:31.642Z</time></trkpt><trkpt lat="44.1829233" lon="12.1353367"><ele>28.2</ele><time>2026-04-28T06:49:33.643Z</time></trkpt><trkpt lat="44.1828583" lon="12.13544"><ele>28.4</ele><time>2026-04-28T06:49:35.643Z</time></trkpt><trkpt lat="44.1827833" lon="12.1355417"><ele>28.599999999999998</ele><time>2026-04-28T06:49:37.642Z</time></trkpt><trkpt lat="44.18271" lon="12.1356417"><ele>28.799999999999997</ele><time>2026-04-28T06:49:39.643Z</time></trkpt><trkpt lat="44.1826283" lon="12.13571"><ele>29.0</ele><time>2026-04-28T06:49:41.643Z</time></trkpt><trkpt lat="44.1825417" lon="12.1357383"><ele>29.000000000000004</ele><time>2026-04-28T06:49:43.643Z</time></trkpt><trkpt lat="44.182475" lon="12.1357333"><ele>29.0</ele><time>2026-04-28T06:49:45.642Z</time></trkpt><trkpt lat="44.1824" lon="12.1357017"><ele>29.000000000000004</ele><time>2026-04-28T06:49:47.642Z</time></trkpt><trkpt lat="44.1823317" lon="12.1356717"><ele>29.000000000000004</ele><time>2026-04-28T06:49:49.643Z</time></trkpt><trkpt lat="44.182255" lon="12.135635"><ele>29.0</ele><time>2026-04-28T06:49:51.643Z</time></trkpt><trkpt lat="44.1821867" lon="12.1355933"><ele>29.000000000000004</ele><time>2026-04-28T06:49:53.642Z</time></trkpt><trkpt lat="44.182125" lon="12.135555"><ele>29.000000000000004</ele><time>2026-04-28T06:49:55.643Z</time></trkpt><trkpt lat="44.182065" lon="12.1355183"><ele>28.999999999999996</ele><time>2026-04-28T06:49:57.642Z</time></trkpt><trkpt lat="44.1819983" lon="12.1354783"><ele>29.0</ele><time>2026-04-28T06:49:59.642Z</time></trkpt><trkpt lat="44.1819317" lon="12.1354267"><ele>29.0</ele><time>2026-04-28T06:50:01.643Z</time></trkpt><trkpt lat="44.181875" lon="12.1353683"><ele>29.0</ele><time>2026-04-28T06:50:03.643Z</time></trkpt><trkpt lat="44.1818167" lon="12.1352733"><ele>28.999999999999996</ele><time>2026-04-28T06:50:05.643Z</time></trkpt><trkpt lat="44.1818333" lon="12.1351817"><ele>29.0</ele><time>2026-04-28T06:50:07.643Z</time></trkpt><trkpt lat="44.1818617" lon="12.13508"><ele>28.999999999999996</ele><time>2026-04-28T06:50:09.642Z</time></trkpt><trkpt lat="44.1819017" lon="12.1349667"><ele>29.0</ele><time>2026-04-28T06:50:11.643Z</time></trkpt><trkpt lat="44.1819333" lon="12.1348517"><ele>29.0</ele><time>2026-04-28T06:50:13.642Z</time></trkpt><trkpt lat="44.18196" lon="12.1347433"><ele>29.0</ele><time>2026-04-28T06:50:15.642Z</time></trkpt><trkpt lat="44.182" lon="12.1346383"><ele>28.999999999999996</ele><time>2026-04-28T06:50:17.643Z</time></trkpt><trkpt lat="44.18204" lon="12.1345433"><ele>29.0</ele><time>2026-04-28T06:50:19.643Z</time></trkpt><trkpt lat="44.18207" lon="12.1344233"><ele>29.0</ele><time>2026-04-28T06:50:21.642Z</time></trkpt><trkpt lat="44.1821017" lon="12.1343017"><ele>29.0</ele><time>2026-04-28T06:50:23.642Z</time></trkpt><trkpt lat="44.1821467" lon="12.1341783"><ele>29.0</ele><time>2026-04-28T06:50:25.642Z</time></trkpt><trkpt lat="44.18218" lon="12.1340667"><ele>29.0</ele><time>2026-04-28T06:50:27.643Z</time></trkpt><trkpt lat="44.1822133" lon="12.1339417"><ele>29.0</ele><time>2026-04-28T06:50:29.643Z</time></trkpt><trkpt lat="44.18225" lon="12.1338283"><ele>29.000000000000004</ele><time>2026-04-28T06:50:31.642Z</time></trkpt><trkpt lat="44.18227" lon="12.1337417"><ele>29.0</ele><time>2026-04-28T06:50:33.643Z</time></trkpt><trkpt lat="44.1823183" lon="12.1336267"><ele>29.000000000000004</ele><time>2026-04-28T06:50:36.643Z</time></trkpt><trkpt lat="44.1823417" lon="12.1335333"><ele>29.000000000000004</ele><time>2026-04-28T06:50:38.642Z</time></trkpt><trkpt lat="44.18229" lon="12.13347"><ele>29.0</ele><time>2026-04-28T06:50:42.643Z</time></trkpt><trkpt lat="44.1822233" lon="12.1334583"><ele>29.000000000000004</ele><time>2026-04-28T06:50:44.642Z</time></trkpt><trkpt lat="44.18216" lon="12.1334333"><ele>29.000000000000004</ele><time>2026-04-28T06:50:46.643Z</time></trkpt><trkpt lat="44.1820867" lon="12.1334217"><ele>28.999999999999996</ele><time>2026-04-28T06:50:48.643Z</time></trkpt><trkpt lat="44.1820217" lon="12.1334167"><ele>29.0</ele><time>2026-04-28T06:50:50.642Z</time></trkpt><trkpt lat="44.181955" lon="12.1334167"><ele>29.0</ele><time>2026-04-28T06:50:52.643Z</time></trkpt><trkpt lat="44.181875" lon="12.13342"><ele>29.0</ele><time>2026-04-28T06:50:54.642Z</time></trkpt><trkpt lat="44.1817817" lon="12.1334183"><ele>28.999999999999996</ele><time>2026-04-28T06:50:56.642Z</time></trkpt><trkpt lat="44.18171" lon="12.1334117"><ele>29.0</ele><time>2026-04-28T06:50:58.643Z</time></trkpt><trkpt lat="44.181635" lon="12.1334083"><ele>28.999999999999996</ele><time>2026-04-28T06:51:00.642Z</time></trkpt><trkpt lat="44.1815467" lon="12.1333933"><ele>29.0</ele><time>2026-04-28T06:51:02.643Z</time></trkpt><trkpt lat="44.1814817" lon="12.13339"><ele>29.0</ele><time>2026-04-28T06:51:03.643Z</time></trkpt><trkpt lat="44.18137" lon="12.1333833"><ele>29.0</ele><time>2026-04-28T06:51:05.643Z</time></trkpt><trkpt lat="44.1812783" lon="12.1333933"><ele>28.999999999999996</ele><time>2026-04-28T06:51:07.642Z</time></trkpt><trkpt lat="44.1812117" lon="12.133385"><ele>29.0</ele><time>2026-04-28T06:51:09.643Z</time></trkpt><trkpt lat="44.1811317" lon="12.13337"><ele>28.999999999999996</ele><time>2026-04-28T06:51:12.642Z</time></trkpt><trkpt lat="44.1810583" lon="12.133365"><ele>29.0</ele><time>2026-04-28T06:51:15.643Z</time></trkpt><trkpt lat="44.18099" lon="12.133295"><ele>29.0</ele><time>2026-04-28T06:51:18.642Z</time></trkpt><trkpt lat="44.18093" lon="12.1332167"><ele>29.0</ele><time>2026-04-28T06:51:21.642Z</time></trkpt><trkpt lat="44.1808567" lon="12.1331933"><ele>28.999999999999996</ele><time>2026-04-28T06:51:23.643Z</time></trkpt><trkpt lat="44.1807817" lon="12.1331783"><ele>29.0</ele><time>2026-04-28T06:51:26.643Z</time></trkpt><trkpt lat="44.1807067" lon="12.13317"><ele>28.799999999999997</ele><time>2026-04-28T06:51:29.642Z</time></trkpt><trkpt lat="44.1806283" lon="12.1331483"><ele>28.599999999999998</ele><time>2026-04-28T06:51:32.643Z</time></trkpt><trkpt lat="44.180565" lon="12.1331467"><ele>28.4</ele><time>2026-04-28T06:51:34.643Z</time></trkpt><trkpt lat="44.1804267" lon="12.1331783"><ele>28.2</ele><time>2026-04-28T06:51:36.643Z</time></trkpt><trkpt lat="44.18034" lon="12.1333267"><ele>28.0</ele><time>2026-04-28T06:51:50.642Z</time></trkpt><trkpt lat="44.180325" lon="12.133425"><ele>28.0</ele><time>2026-04-28T06:51:55.643Z</time></trkpt><trkpt lat="44.1803233" lon="12.13352"><ele>27.999999999999996</ele><time>2026-04-28T06:51:59.643Z</time></trkpt><trkpt lat="44.1803533" lon="12.13365"><ele>27.999999999999996</ele><time>2026-04-28T06:52:11.642Z</time></trkpt><trkpt lat="44.1803867" lon="12.1334667"><ele>28.0</ele><time>2026-04-28T06:52:22.642Z</time></trkpt><trkpt lat="44.18036" lon="12.1333483"><ele>28.0</ele><time>2026-04-28T06:52:25.643Z</time></trkpt><trkpt lat="44.1803667" lon="12.1332117"><ele>27.799999999999997</ele><time>2026-04-28T06:52:28.643Z</time></trkpt><trkpt lat="44.180365" lon="12.133095"><ele>27.599999999999998</ele><time>2026-04-28T06:52:30.643Z</time></trkpt><trkpt lat="44.1803583" lon="12.13297"><ele>27.400000000000002</ele><time>2026-04-28T06:52:32.643Z</time></trkpt><trkpt lat="44.1803633" lon="12.1328533"><ele>27.200000000000003</ele><time>2026-04-28T06:52:34.643Z</time></trkpt><trkpt lat="44.180355" lon="12.13272"><ele>27.0</ele><time>2026-04-28T06:52:37.643Z</time></trkpt><trkpt lat="44.1803717" lon="12.1325867"><ele>27.0</ele><time>2026-04-28T06:52:40.643Z</time></trkpt><trkpt lat="44.1803833" lon="12.13248"><ele>27.0</ele><time>2026-04-28T06:52:42.643Z</time></trkpt><trkpt lat="44.180405" lon="12.1323783"><ele>27.0</ele><time>2026-04-28T06:52:44.643Z</time></trkpt><trkpt lat="44.1804383" lon="12.1322983"><ele>27.0</ele><time>2026-04-28T06:52:46.643Z</time></trkpt><trkpt lat="44.1805183" lon="12.1322567"><ele>27.0</ele><time>2026-04-28T06:52:49.642Z</time></trkpt><trkpt lat="44.1805867" lon="12.132205"><ele>27.0</ele><time>2026-04-28T06:52:51.643Z</time></trkpt><trkpt lat="44.18065" lon="12.1321983"><ele>27.0</ele><time>2026-04-28T06:52:53.642Z</time></trkpt><trkpt lat="44.1807133" lon="12.1321817"><ele>27.166666666666668</ele><time>2026-04-28T06:52:55.642Z</time></trkpt><trkpt lat="44.1808067" lon="12.1321967"><ele>27.333333333333336</ele><time>2026-04-28T06:52:58.642Z</time></trkpt><trkpt lat="44.1808783" lon="12.1321783"><ele>27.5</ele><time>2026-04-28T06:52:59.642Z</time></trkpt><trkpt lat="44.1808567" lon="12.132275"><ele>27.666666666666668</ele><time>2026-04-28T06:53:05.642Z</time></trkpt><trkpt lat="44.180865" lon="12.1323767"><ele>27.833333333333336</ele><time>2026-04-28T06:53:08.643Z</time></trkpt><trkpt lat="44.1808683" lon="12.1324717"><ele>28.0</ele><time>2026-04-28T06:53:10.643Z</time></trkpt><trkpt lat="44.180845" lon="12.1325817"><ele>28.166666666666668</ele><time>2026-04-28T06:53:13.643Z</time></trkpt><trkpt lat="44.1808367" lon="12.1326917"><ele>28.333333333333336</ele><time>2026-04-28T06:53:16.642Z</time></trkpt><trkpt lat="44.1808217" lon="12.13278"><ele>28.5</ele><time>2026-04-28T06:53:18.643Z</time></trkpt><trkpt lat="44.18082" lon="12.1329267"><ele>28.666666666666664</ele><time>2026-04-28T06:53:21.642Z</time></trkpt><trkpt lat="44.18082" lon="12.1330217"><ele>28.833333333333332</ele><time>2026-04-28T06:53:24.642Z</time></trkpt><trkpt lat="44.180825" lon="12.1331133"><ele>29.0</ele><time>2026-04-28T06:53:26.643Z</time></trkpt><trkpt lat="44.1808617" lon="12.1332083"><ele>28.999999999999996</ele><time>2026-04-28T06:53:28.642Z</time></trkpt><trkpt lat="44.1809283" lon="12.1332533"><ele>29.0</ele><time>2026-04-28T06:53:31.643Z</time></trkpt><trkpt lat="44.1810217" lon="12.133295"><ele>29.0</ele><time>2026-04-28T06:53:34.642Z</time></trkpt><trkpt lat="44.1811083" lon="12.1333467"><ele>29.0</ele><time>2026-04-28T06:53:36.642Z</time></trkpt><trkpt lat="44.1811967" lon="12.133375"><ele>28.999999999999996</ele><time>2026-04-28T06:53:38.644Z</time></trkpt><trkpt lat="44.1812833" lon="12.1333833"><ele>29.0</ele><time>2026-04-28T06:53:40.644Z</time></trkpt><trkpt lat="44.181375" lon="12.13338"><ele>29.0</ele><time>2026-04-28T06:53:42.644Z</time></trkpt><trkpt lat="44.1814617" lon="12.13337"><ele>29.0</ele><time>2026-04-28T06:53:44.643Z</time></trkpt><trkpt lat="44.1815667" lon="12.1334017"><ele>29.0</ele><time>2026-04-28T06:53:46.644Z</time></trkpt><trkpt lat="44.18166" lon="12.133405"><ele>29.0</ele><time>2026-04-28T06:53:48.643Z</time></trkpt><trkpt lat="44.1817683" lon="12.13341"><ele>29.0</ele><time>2026-04-28T06:53:50.644Z</time></trkpt><trkpt lat="44.1818733" lon="12.1334217"><ele>28.999999999999996</ele><time>2026-04-28T06:53:52.643Z</time></trkpt><trkpt lat="44.18198" lon="12.1334317"><ele>29.0</ele><time>2026-04-28T06:53:54.644Z</time></trkpt><trkpt lat="44.1820767" lon="12.1334283"><ele>29.0</ele><time>2026-04-28T06:53:56.644Z</time></trkpt><trkpt lat="44.1821683" lon="12.133475"><ele>29.0</ele><time>2026-04-28T06:53:58.644Z</time></trkpt><trkpt lat="44.1822333" lon="12.1335"><ele>28.999999999999996</ele><time>2026-04-28T06:54:00.644Z</time></trkpt><trkpt lat="44.1822017" lon="12.1336017"><ele>29.0</ele><time>2026-04-28T06:54:06.644Z</time></trkpt><trkpt lat="44.1821683" lon="12.1336883"><ele>29.0</ele><time>2026-04-28T06:54:08.644Z</time></trkpt><trkpt lat="44.1821933" lon="12.1338817"><ele>29.0</ele><time>2026-04-28T06:54:10.644Z</time></trkpt><trkpt lat="44.18213" lon="12.1339967"><ele>29.0</ele><time>2026-04-28T06:54:12.644Z</time></trkpt><trkpt lat="44.1820733" lon="12.134095"><ele>29.0</ele><time>2026-04-28T06:54:14.643Z</time></trkpt><trkpt lat="44.1820267" lon="12.1341983"><ele>29.0</ele><time>2026-04-28T06:54:16.644Z</time></trkpt><trkpt lat="44.18199" lon="12.1343183"><ele>29.0</ele><time>2026-04-28T06:54:18.644Z</time></trkpt><trkpt lat="44.18196" lon="12.1344283"><ele>29.0</ele><time>2026-04-28T06:54:20.643Z</time></trkpt><trkpt lat="44.181925" lon="12.134515"><ele>29.0</ele><time>2026-04-28T06:54:22.644Z</time></trkpt><trkpt lat="44.1818867" lon="12.13461"><ele>29.0</ele><time>2026-04-28T06:54:24.644Z</time></trkpt><trkpt lat="44.1818083" lon="12.1347933"><ele>29.0</ele><time>2026-04-28T06:54:26.644Z</time></trkpt><trkpt lat="44.181805" lon="12.1349267"><ele>28.999999999999996</ele><time>2026-04-28T06:54:27.643Z</time></trkpt><trkpt lat="44.1817883" lon="12.13503"><ele>29.0</ele><time>2026-04-28T06:54:29.644Z</time></trkpt><trkpt lat="44.1816983" lon="12.1349867"><ele>29.0</ele><time>2026-04-28T06:54:32.643Z</time></trkpt><trkpt lat="44.1816183" lon="12.13493"><ele>29.0</ele><time>2026-04-28T06:54:34.644Z</time></trkpt><trkpt lat="44.1815367" lon="12.1348783"><ele>28.999999999999996</ele><time>2026-04-28T06:54:36.643Z</time></trkpt><trkpt lat="44.181455" lon="12.134835"><ele>29.0</ele><time>2026-04-28T06:54:38.643Z</time></trkpt><trkpt lat="44.18138" lon="12.134775"><ele>29.166666666666664</ele><time>2026-04-28T06:54:40.644Z</time></trkpt><trkpt lat="44.1813" lon="12.1347217"><ele>29.333333333333332</ele><time>2026-04-28T06:54:42.643Z</time></trkpt><trkpt lat="44.1812233" lon="12.13468"><ele>29.5</ele><time>2026-04-28T06:54:44.644Z</time></trkpt><trkpt lat="44.18114" lon="12.1346283"><ele>29.666666666666664</ele><time>2026-04-28T06:54:46.644Z</time></trkpt><trkpt lat="44.1810617" lon="12.1345767"><ele>29.833333333333332</ele><time>2026-04-28T06:54:48.644Z</time></trkpt><trkpt lat="44.18097" lon="12.13453"><ele>30.0</ele><time>2026-04-28T06:54:50.643Z</time></trkpt><trkpt lat="44.18089" lon="12.1344783"><ele>30.0</ele><time>2026-04-28T06:54:52.643Z</time></trkpt><trkpt lat="44.1808067" lon="12.13444"><ele>30.0</ele><time>2026-04-28T06:54:54.644Z</time></trkpt><trkpt lat="44.1807333" lon="12.1343867"><ele>30.0</ele><time>2026-04-28T06:54:56.644Z</time></trkpt><trkpt lat="44.1806533" lon="12.1343283"><ele>30.0</ele><time>2026-04-28T06:54:58.644Z</time></trkpt><trkpt lat="44.1805867" lon="12.134275"><ele>30.0</ele><time>2026-04-28T06:55:00.643Z</time></trkpt><trkpt lat="44.1805183" lon="12.134235"><ele>30.0</ele><time>2026-04-28T06:55:02.644Z</time></trkpt><trkpt lat="44.1804617" lon="12.13419"><ele>29.8</ele><time>2026-04-28T06:55:04.643Z</time></trkpt><trkpt lat="44.1803867" lon="12.1341533"><ele>29.6</ele><time>2026-04-28T06:55:07.643Z</time></trkpt><trkpt lat="44.1802833" lon="12.134085"><ele>29.4</ele><time>2026-04-28T06:55:11.644Z</time></trkpt><trkpt lat="44.1803017" lon="12.1339533"><ele>29.2</ele><time>2026-04-28T06:56:59.644Z</time></trkpt><trkpt lat="44.1803333" lon="12.1338467"><ele>29.0</ele><time>2026-04-28T07:04:49.643Z</time></trkpt><trkpt lat="44.1804317" lon="12.1337933"><ele>28.999999999999996</ele><time>2026-04-28T07:08:09.643Z</time></trkpt><trkpt lat="44.18034" lon="12.1337767"><ele>29.0</ele><time>2026-04-28T07:11:38.641Z</time></trkpt><trkpt lat="44.18029" lon="12.133845"><ele>29.0</ele><time>2026-04-28T07:11:42.642Z</time></trkpt><trkpt lat="44.1802767" lon="12.1339417"><ele>29.0</ele><time>2026-04-28T07:11:45.641Z</time></trkpt><trkpt lat="44.1803067" lon="12.1340283"><ele>28.999999999999996</ele><time>2026-04-28T07:11:52.641Z</time></trkpt><trkpt lat="44.18036" lon="12.1341117"><ele>29.0</ele><time>2026-04-28T07:11:55.642Z</time></trkpt><trkpt lat="44.1804283" lon="12.1341833"><ele>29.000000000000004</ele><time>2026-04-28T07:11:58.642Z</time></trkpt><trkpt lat="44.18049" lon="12.1342267"><ele>29.0</ele><time>2026-04-28T07:12:00.641Z</time></trkpt><trkpt lat="44.180555" lon="12.13426"><ele>29.000000000000004</ele><time>2026-04-28T07:12:02.642Z</time></trkpt><trkpt lat="44.18062" lon="12.134295"><ele>29.000000000000004</ele><time>2026-04-28T07:12:04.641Z</time></trkpt><trkpt lat="44.180705" lon="12.1343533"><ele>29.0</ele><time>2026-04-28T07:12:07.642Z</time></trkpt><trkpt lat="44.18076" lon="12.1344"><ele>29.000000000000004</ele><time>2026-04-28T07:12:09.641Z</time></trkpt><trkpt lat="44.1808167" lon="12.1344583"><ele>29.000000000000004</ele><time>2026-04-28T07:12:11.642Z</time></trkpt><trkpt lat="44.180875" lon="12.1345117"><ele>29.142857142857146</ele><time>2026-04-28T07:12:13.642Z</time></trkpt><trkpt lat="44.1809317" lon="12.13456"><ele>29.285714285714285</ele><time>2026-04-28T07:12:15.641Z</time></trkpt><trkpt lat="44.18099" lon="12.134605"><ele>29.42857142857143</ele><time>2026-04-28T07:12:17.641Z</time></trkpt><trkpt lat="44.1810483" lon="12.13465"><ele>29.571428571428573</ele><time>2026-04-28T07:12:19.642Z</time></trkpt><trkpt lat="44.18112" lon="12.1346983"><ele>29.714285714285715</ele><time>2026-04-28T07:12:21.641Z</time></trkpt><trkpt lat="44.1811933" lon="12.1347467"><ele>29.857142857142858</ele><time>2026-04-28T07:12:23.642Z</time></trkpt><trkpt lat="44.1812667" lon="12.1347917"><ele>30.0</ele><time>2026-04-28T07:12:25.642Z</time></trkpt><trkpt lat="44.18134" lon="12.1348367"><ele>30.0</ele><time>2026-04-28T07:12:27.642Z</time></trkpt><trkpt lat="44.1814" lon="12.1348817"><ele>30.0</ele><time>2026-04-28T07:12:29.641Z</time></trkpt><trkpt lat="44.18147" lon="12.1349233"><ele>30.0</ele><time>2026-04-28T07:12:31.642Z</time></trkpt><trkpt lat="44.18153" lon="12.1349567"><ele>30.0</ele><time>2026-04-28T07:12:33.641Z</time></trkpt><trkpt lat="44.1815933" lon="12.1349883"><ele>30.0</ele><time>2026-04-28T07:12:35.642Z</time></trkpt><trkpt lat="44.1816533" lon="12.1350283"><ele>30.0</ele><time>2026-04-28T07:12:37.641Z</time></trkpt><trkpt lat="44.181715" lon="12.1350833"><ele>30.0</ele><time>2026-04-28T07:12:40.641Z</time></trkpt><trkpt lat="44.1816633" lon="12.1351533"><ele>29.833333333333332</ele><time>2026-04-28T07:12:48.642Z</time></trkpt><trkpt lat="44.1815983" lon="12.135155"><ele>29.666666666666664</ele><time>2026-04-28T07:12:53.641Z</time></trkpt><trkpt lat="44.1815117" lon="12.1351267"><ele>29.5</ele><time>2026-04-28T07:12:57.642Z</time></trkpt><trkpt lat="44.18145" lon="12.1350967"><ele>29.333333333333332</ele><time>2026-04-28T07:12:59.642Z</time></trkpt><trkpt lat="44.1813767" lon="12.1350583"><ele>29.166666666666664</ele><time>2026-04-28T07:13:01.642Z</time></trkpt><trkpt lat="44.181295" lon="12.1350183"><ele>29.0</ele><time>2026-04-28T07:13:03.641Z</time></trkpt><trkpt lat="44.1812117" lon="12.1349733"><ele>28.799999999999997</ele><time>2026-04-28T07:13:05.642Z</time></trkpt><trkpt lat="44.1811283" lon="12.1349183"><ele>28.599999999999998</ele><time>2026-04-28T07:13:07.641Z</time></trkpt><trkpt lat="44.1810317" lon="12.1348667"><ele>28.4</ele><time>2026-04-28T07:13:09.641Z</time></trkpt><trkpt lat="44.1809217" lon="12.13481"><ele>28.2</ele><time>2026-04-28T07:13:11.642Z</time></trkpt><trkpt lat="44.1808183" lon="12.134745"><ele>28.0</ele><time>2026-04-28T07:13:13.641Z</time></trkpt><trkpt lat="44.1807133" lon="12.13468"><ele>28.25</ele><time>2026-04-28T07:13:15.641Z</time></trkpt><trkpt lat="44.18061" lon="12.1346067"><ele>28.5</ele><time>2026-04-28T07:13:17.641Z</time></trkpt><trkpt lat="44.1805033" lon="12.1345283"><ele>28.75</ele><time>2026-04-28T07:13:19.641Z</time></trkpt><trkpt lat="44.1804" lon="12.1344567"><ele>29.0</ele><time>2026-04-28T07:13:21.642Z</time></trkpt><trkpt lat="44.1803033" lon="12.1343733"><ele>29.0</ele><time>2026-04-28T07:13:23.642Z</time></trkpt><trkpt lat="44.1802117" lon="12.1342883"><ele>29.0</ele><time>2026-04-28T07:13:25.642Z</time></trkpt><trkpt lat="44.1801217" lon="12.1342133"><ele>29.0</ele><time>2026-04-28T07:13:27.641Z</time></trkpt><trkpt lat="44.18003" lon="12.1341233"><ele>29.0</ele><time>2026-04-28T07:13:29.642Z</time></trkpt><trkpt lat="44.179935" lon="12.1340217"><ele>29.0</ele><time>2026-04-28T07:13:31.642Z</time></trkpt><trkpt lat="44.1798367" lon="12.133925"><ele>28.799999999999997</ele><time>2026-04-28T07:13:33.641Z</time></trkpt><trkpt lat="44.179735" lon="12.1338233"><ele>28.599999999999998</ele><time>2026-04-28T07:13:35.642Z</time></trkpt><trkpt lat="44.1796833" lon="12.1337717"><ele>28.4</ele><time>2026-04-28T07:13:36.641Z</time></trkpt><trkpt lat="44.1795833" lon="12.1336767"><ele>28.2</ele><time>2026-04-28T07:13:38.642Z</time></trkpt><trkpt lat="44.1794783" lon="12.1335867"><ele>28.0</ele><time>2026-04-28T07:13:40.642Z</time></trkpt><trkpt lat="44.1793767" lon="12.1335067"><ele>28.0</ele><time>2026-04-28T07:13:42.642Z</time></trkpt><trkpt lat="44.1792717" lon="12.1334317"><ele>28.0</ele><time>2026-04-28T07:13:44.641Z</time></trkpt><trkpt lat="44.17916" lon="12.13336"><ele>28.0</ele><time>2026-04-28T07:13:46.641Z</time></trkpt><trkpt lat="44.17905" lon="12.1332833"><ele>28.0</ele><time>2026-04-28T07:13:48.641Z</time></trkpt><trkpt lat="44.178925" lon="12.1332"><ele>28.166666666666668</ele><time>2026-04-28T07:13:50.641Z</time></trkpt><trkpt lat="44.1788683" lon="12.1331533"><ele>28.333333333333336</ele><time>2026-04-28T07:13:51.641Z</time></trkpt><trkpt lat="44.1787567" lon="12.1330633"><ele>28.5</ele><time>2026-04-28T07:13:53.641Z</time></trkpt><trkpt lat="44.17869" lon="12.13302"><ele>28.666666666666664</ele><time>2026-04-28T07:13:54.641Z</time></trkpt><trkpt lat="44.1786283" lon="12.1329767"><ele>28.833333333333332</ele><time>2026-04-28T07:13:55.642Z</time></trkpt><trkpt lat="44.1785667" lon="12.1329433"><ele>29.0</ele><time>2026-04-28T07:13:56.642Z</time></trkpt><trkpt lat="44.178505" lon="12.1329033"><ele>29.0</ele><time>2026-04-28T07:13:57.641Z</time></trkpt><trkpt lat="44.1784383" lon="12.1328617"><ele>29.0</ele><time>2026-04-28T07:13:58.641Z</time></trkpt><trkpt lat="44.1783233" lon="12.13278"><ele>29.0</ele><time>2026-04-28T07:14:00.642Z</time></trkpt><trkpt lat="44.1782133" lon="12.1327033"><ele>29.0</ele><time>2026-04-28T07:14:02.641Z</time></trkpt><trkpt lat="44.1781033" lon="12.13263"><ele>29.0</ele><time>2026-04-28T07:14:04.642Z</time></trkpt><trkpt lat="44.1780433" lon="12.1325883"><ele>29.0</ele><time>2026-04-28T07:14:05.642Z</time></trkpt><trkpt lat="44.1779433" lon="12.1325167"><ele>29.0</ele><time>2026-04-28T07:14:07.642Z</time></trkpt><trkpt lat="44.1778367" lon="12.132445"><ele>29.0</ele><time>2026-04-28T07:14:09.642Z</time></trkpt><trkpt lat="44.1777283" lon="12.132375"><ele>29.0</ele><time>2026-04-28T07:14:11.641Z</time></trkpt><trkpt lat="44.1776717" lon="12.1323333"><ele>29.0</ele><time>2026-04-28T07:14:12.641Z</time></trkpt><trkpt lat="44.1775733" lon="12.132255"><ele>28.999999999999996</ele><time>2026-04-28T07:14:14.641Z</time></trkpt><trkpt lat="44.177455" lon="12.132185"><ele>29.0</ele><time>2026-04-28T07:14:16.641Z</time></trkpt><trkpt lat="44.1773983" lon="12.132145"><ele>29.0</ele><time>2026-04-28T07:14:17.642Z</time></trkpt><trkpt lat="44.1773367" lon="12.1321"><ele>29.0</ele><time>2026-04-28T07:14:18.641Z</time></trkpt><trkpt lat="44.177275" lon="12.1320583"><ele>28.999999999999996</ele><time>2026-04-28T07:14:19.641Z</time></trkpt><trkpt lat="44.1772183" lon="12.13202"><ele>29.0</ele><time>2026-04-28T07:14:20.641Z</time></trkpt><trkpt lat="44.177155" lon="12.1319767"><ele>29.0</ele><time>2026-04-28T07:14:21.641Z</time></trkpt><trkpt lat="44.1770917" lon="12.1319333"><ele>29.0</ele><time>2026-04-28T07:14:22.642Z</time></trkpt><trkpt lat="44.1770333" lon="12.13189"><ele>29.0</ele><time>2026-04-28T07:14:23.642Z</time></trkpt><trkpt lat="44.1769217" lon="12.13182"><ele>29.0</ele><time>2026-04-28T07:14:25.641Z</time></trkpt><trkpt lat="44.17681" lon="12.1317483"><ele>29.0</ele><time>2026-04-28T07:14:27.641Z</time></trkpt><trkpt lat="44.1767033" lon="12.1316683"><ele>29.0</ele><time>2026-04-28T07:14:29.642Z</time></trkpt><trkpt lat="44.176595" lon="12.1315967"><ele>29.0</ele><time>2026-04-28T07:14:31.642Z</time></trkpt><trkpt lat="44.176485" lon="12.1315133"><ele>29.0</ele><time>2026-04-28T07:14:33.641Z</time></trkpt><trkpt lat="44.176375" lon="12.1314367"><ele>29.0</ele><time>2026-04-28T07:14:35.641Z</time></trkpt><trkpt lat="44.1763167" lon="12.1313933"><ele>29.0</ele><time>2026-04-28T07:14:36.642Z</time></trkpt><trkpt lat="44.1762567" lon="12.1313533"><ele>29.285714285714292</ele><time>2026-04-28T07:14:37.642Z</time></trkpt><trkpt lat="44.1761967" lon="12.1313183"><ele>29.571428571428573</ele><time>2026-04-28T07:14:38.642Z</time></trkpt><trkpt lat="44.1760833" lon="12.1312417"><ele>29.85714285714286</ele><time>2026-04-28T07:14:40.641Z</time></trkpt><trkpt lat="44.1760267" lon="12.1311983"><ele>30.142857142857146</ele><time>2026-04-28T07:14:41.641Z</time></trkpt><trkpt lat="44.17597" lon="12.1311567"><ele>30.42857142857143</ele><time>2026-04-28T07:14:42.642Z</time></trkpt><trkpt lat="44.1759133" lon="12.1311133"><ele>30.714285714285715</ele><time>2026-04-28T07:14:43.641Z</time></trkpt><trkpt lat="44.175855" lon="12.131075"><ele>31.0</ele><time>2026-04-28T07:14:44.642Z</time></trkpt><trkpt lat="44.1757467" lon="12.130995"><ele>31.166666666666668</ele><time>2026-04-28T07:14:46.641Z</time></trkpt><trkpt lat="44.1756383" lon="12.1309167"><ele>31.333333333333336</ele><time>2026-04-28T07:14:48.641Z</time></trkpt><trkpt lat="44.1755383" lon="12.1308583"><ele>31.5</ele><time>2026-04-28T07:14:50.642Z</time></trkpt><trkpt lat="44.1754717" lon="12.130825"><ele>31.666666666666664</ele><time>2026-04-28T07:14:51.642Z</time></trkpt><trkpt lat="44.1754067" lon="12.13078"><ele>31.833333333333332</ele><time>2026-04-28T07:14:52.642Z</time></trkpt><trkpt lat="44.175345" lon="12.130735"><ele>32.0</ele><time>2026-04-28T07:14:53.642Z</time></trkpt><trkpt lat="44.1752783" lon="12.1306833"><ele>31.400000000000002</ele><time>2026-04-28T07:14:54.642Z</time></trkpt><trkpt lat="44.1752133" lon="12.130635"><ele>30.800000000000004</ele><time>2026-04-28T07:14:55.641Z</time></trkpt><trkpt lat="44.1751533" lon="12.13059"><ele>30.2</ele><time>2026-04-28T07:14:56.641Z</time></trkpt><trkpt lat="44.175095" lon="12.1305533"><ele>29.6</ele><time>2026-04-28T07:14:57.641Z</time></trkpt><trkpt lat="44.1749833" lon="12.1304783"><ele>29.0</ele><time>2026-04-28T07:14:59.642Z</time></trkpt><trkpt lat="44.1748683" lon="12.1304017"><ele>29.0</ele><time>2026-04-28T07:15:01.642Z</time></trkpt><trkpt lat="44.1748033" lon="12.1303583"><ele>29.0</ele><time>2026-04-28T07:15:02.642Z</time></trkpt><trkpt lat="44.1747433" lon="12.1303167"><ele>29.0</ele><time>2026-04-28T07:15:03.642Z</time></trkpt><trkpt lat="44.1746267" lon="12.1302467"><ele>29.0</ele><time>2026-04-28T07:15:05.641Z</time></trkpt><trkpt lat="44.174565" lon="12.1302083"><ele>29.0</ele><time>2026-04-28T07:15:06.642Z</time></trkpt><trkpt lat="44.174455" lon="12.1301217"><ele>28.999999999999996</ele><time>2026-04-28T07:15:08.641Z</time></trkpt><trkpt lat="44.1743483" lon="12.1300433"><ele>29.0</ele><time>2026-04-28T07:15:10.642Z</time></trkpt><trkpt lat="44.17429" lon="12.1300067"><ele>29.0</ele><time>2026-04-28T07:15:11.642Z</time></trkpt><trkpt lat="44.1742283" lon="12.1299683"><ele>29.0</ele><time>2026-04-28T07:15:12.641Z</time></trkpt><trkpt lat="44.1741167" lon="12.1298967"><ele>28.999999999999996</ele><time>2026-04-28T07:15:14.641Z</time></trkpt><trkpt lat="44.1740583" lon="12.1298583"><ele>29.0</ele><time>2026-04-28T07:15:15.642Z</time></trkpt><trkpt lat="44.174" lon="12.12982"><ele>29.142857142857146</ele><time>2026-04-28T07:15:16.641Z</time></trkpt><trkpt lat="44.1739383" lon="12.129785"><ele>29.285714285714285</ele><time>2026-04-28T07:15:17.642Z</time></trkpt><trkpt lat="44.17388" lon="12.1297517"><ele>29.42857142857143</ele><time>2026-04-28T07:15:18.641Z</time></trkpt><trkpt lat="44.17382" lon="12.1297167"><ele>29.571428571428573</ele><time>2026-04-28T07:15:19.642Z</time></trkpt><trkpt lat="44.1737067" lon="12.1296533"><ele>29.714285714285715</ele><time>2026-04-28T07:15:21.642Z</time></trkpt><trkpt lat="44.1736467" lon="12.129625"><ele>29.857142857142858</ele><time>2026-04-28T07:15:22.642Z</time></trkpt><trkpt lat="44.1735833" lon="12.129595"><ele>30.0</ele><time>2026-04-28T07:15:23.641Z</time></trkpt><trkpt lat="44.1734717" lon="12.1295367"><ele>30.0</ele><time>2026-04-28T07:15:25.642Z</time></trkpt><trkpt lat="44.1733767" lon="12.129485"><ele>30.0</ele><time>2026-04-28T07:15:27.642Z</time></trkpt><trkpt lat="44.17327" lon="12.1294383"><ele>30.0</ele><time>2026-04-28T07:15:29.641Z</time></trkpt><trkpt lat="44.1731683" lon="12.1293917"><ele>30.0</ele><time>2026-04-28T07:15:31.642Z</time></trkpt><trkpt lat="44.1731067" lon="12.1293717"><ele>30.0</ele><time>2026-04-28T07:15:32.642Z</time></trkpt><trkpt lat="44.1730067" lon="12.129315"><ele>30.5</ele><time>2026-04-28T07:15:34.641Z</time></trkpt><trkpt lat="44.1728933" lon="12.12926"><ele>31.0</ele><time>2026-04-28T07:15:36.642Z</time></trkpt><trkpt lat="44.172785" lon="12.1292117"><ele>31.5</ele><time>2026-04-28T07:15:38.641Z</time></trkpt><trkpt lat="44.1726983" lon="12.12917"><ele>32.0</ele><time>2026-04-28T07:15:40.641Z</time></trkpt><trkpt lat="44.1725783" lon="12.1291233"><ele>32.0</ele><time>2026-04-28T07:15:42.642Z</time></trkpt><trkpt lat="44.172475" lon="12.129065"><ele>32.0</ele><time>2026-04-28T07:15:44.642Z</time></trkpt><trkpt lat="44.17239" lon="12.129025"><ele>32.0</ele><time>2026-04-28T07:15:46.641Z</time></trkpt><trkpt lat="44.1723117" lon="12.128985"><ele>32.0</ele><time>2026-04-28T07:15:48.642Z</time></trkpt><trkpt lat="44.1722317" lon="12.1289517"><ele>32.0</ele><time>2026-04-28T07:15:50.642Z</time></trkpt><trkpt lat="44.1721383" lon="12.1289183"><ele>33.33333333333333</ele><time>2026-04-28T07:15:52.641Z</time></trkpt><trkpt lat="44.1720567" lon="12.1288683"><ele>34.666666666666664</ele><time>2026-04-28T07:15:54.641Z</time></trkpt><trkpt lat="44.17198" lon="12.12883"><ele>36.0</ele><time>2026-04-28T07:15:56.641Z</time></trkpt><trkpt lat="44.171905" lon="12.128795"><ele>37.333333333333336</ele><time>2026-04-28T07:15:58.642Z</time></trkpt><trkpt lat="44.1718267" lon="12.1287617"><ele>38.66666666666667</ele><time>2026-04-28T07:16:00.641Z</time></trkpt><trkpt lat="44.17175" lon="12.12873"><ele>40.0</ele><time>2026-04-28T07:16:02.641Z</time></trkpt><trkpt lat="44.17168" lon="12.1287067"><ele>40.0</ele><time>2026-04-28T07:16:04.641Z</time></trkpt><trkpt lat="44.17161" lon="12.1286683"><ele>40.0</ele><time>2026-04-28T07:16:06.641Z</time></trkpt><trkpt lat="44.1715417" lon="12.1286167"><ele>40.0</ele><time>2026-04-28T07:16:08.642Z</time></trkpt><trkpt lat="44.1714733" lon="12.128575"><ele>40.0</ele><time>2026-04-28T07:16:10.641Z</time></trkpt><trkpt lat="44.171395" lon="12.1285283"><ele>40.0</ele><time>2026-04-28T07:16:12.641Z</time></trkpt><trkpt lat="44.1713267" lon="12.1284867"><ele>40.0</ele><time>2026-04-28T07:16:14.642Z</time></trkpt><trkpt lat="44.171245" lon="12.1284467"><ele>41.0</ele><time>2026-04-28T07:16:16.642Z</time></trkpt><trkpt lat="44.1711683" lon="12.12842"><ele>42.0</ele><time>2026-04-28T07:16:18.641Z</time></trkpt><trkpt lat="44.1710883" lon="12.1283867"><ele>43.0</ele><time>2026-04-28T07:16:20.642Z</time></trkpt><trkpt lat="44.1710167" lon="12.1283633"><ele>44.0</ele><time>2026-04-28T07:16:22.642Z</time></trkpt><trkpt lat="44.1709367" lon="12.1283167"><ele>45.0</ele><time>2026-04-28T07:16:25.641Z</time></trkpt><trkpt lat="44.17085" lon="12.1282717"><ele>46.0</ele><time>2026-04-28T07:16:28.641Z</time></trkpt><trkpt lat="44.1707667" lon="12.12822"><ele>46.0</ele><time>2026-04-28T07:16:31.642Z</time></trkpt><trkpt lat="44.1707033" lon="12.1281883"><ele>46.0</ele><time>2026-04-28T07:16:34.642Z</time></trkpt><trkpt lat="44.1706433" lon="12.1281567"><ele>46.0</ele><time>2026-04-28T07:16:37.642Z</time></trkpt><trkpt lat="44.17057" lon="12.1281367"><ele>46.0</ele><time>2026-04-28T07:16:40.642Z</time></trkpt><trkpt lat="44.1704817" lon="12.1281067"><ele>46.0</ele><time>2026-04-28T07:16:43.642Z</time></trkpt><trkpt lat="44.1704217" lon="12.1280783"><ele>46.0</ele><time>2026-04-28T07:16:45.641Z</time></trkpt><trkpt lat="44.17035" lon="12.1280267"><ele>46.0</ele><time>2026-04-28T07:16:48.641Z</time></trkpt><trkpt lat="44.170265" lon="12.1279817"><ele>46.833333333333336</ele><time>2026-04-28T07:16:51.642Z</time></trkpt><trkpt lat="44.1701817" lon="12.127945"><ele>47.66666666666667</ele><time>2026-04-28T07:16:54.641Z</time></trkpt><trkpt lat="44.1700917" lon="12.1278983"><ele>48.5</ele><time>2026-04-28T07:16:57.641Z</time></trkpt><trkpt lat="44.1700217" lon="12.1278667"><ele>49.333333333333336</ele><time>2026-04-28T07:16:59.642Z</time></trkpt><trkpt lat="44.1699567" lon="12.127835"><ele>50.166666666666664</ele><time>2026-04-28T07:17:01.641Z</time></trkpt><trkpt lat="44.1698933" lon="12.1278083"><ele>51.0</ele><time>2026-04-28T07:17:03.642Z</time></trkpt><trkpt lat="44.1698233" lon="12.1277717"><ele>51.5</ele><time>2026-04-28T07:17:06.642Z</time></trkpt><trkpt lat="44.1697583" lon="12.1277383"><ele>52.0</ele><time>2026-04-28T07:17:08.641Z</time></trkpt><trkpt lat="44.1696933" lon="12.127715"><ele>52.5</ele><time>2026-04-28T07:17:10.641Z</time></trkpt><trkpt lat="44.1696033" lon="12.1276833"><ele>53.0</ele><time>2026-04-28T07:17:13.641Z</time></trkpt><trkpt lat="44.1695117" lon="12.1276617"><ele>53.5</ele><time>2026-04-28T07:17:16.641Z</time></trkpt><trkpt lat="44.1694483" lon="12.1276433"><ele>54.0</ele><time>2026-04-28T07:17:18.641Z</time></trkpt><trkpt lat="44.1693833" lon="12.1276117"><ele>54.0</ele><time>2026-04-28T07:17:20.642Z</time></trkpt><trkpt lat="44.1693133" lon="12.127585"><ele>54.0</ele><time>2026-04-28T07:17:22.642Z</time></trkpt><trkpt lat="44.1692367" lon="12.1275633"><ele>54.0</ele><time>2026-04-28T07:17:24.641Z</time></trkpt><trkpt lat="44.1691667" lon="12.1275483"><ele>54.0</ele><time>2026-04-28T07:17:26.641Z</time></trkpt><trkpt lat="44.1690917" lon="12.1275333"><ele>54.0</ele><time>2026-04-28T07:17:28.641Z</time></trkpt><trkpt lat="44.1689983" lon="12.1275183"><ele>54.0</ele><time>2026-04-28T07:17:30.641Z</time></trkpt><trkpt lat="44.1689183" lon="12.1274967"><ele>54.0</ele><time>2026-04-28T07:17:32.641Z</time></trkpt><trkpt lat="44.16884" lon="12.1274683"><ele>54.0</ele><time>2026-04-28T07:17:34.642Z</time></trkpt><trkpt lat="44.168765" lon="12.1274383"><ele>54.0</ele><time>2026-04-28T07:17:36.641Z</time></trkpt><trkpt lat="44.168695" lon="12.1274067"><ele>54.0</ele><time>2026-04-28T07:17:38.641Z</time></trkpt><trkpt lat="44.1686233" lon="12.12738"><ele>54.0</ele><time>2026-04-28T07:17:40.642Z</time></trkpt><trkpt lat="44.1685267" lon="12.12736"><ele>54.0</ele><time>2026-04-28T07:17:42.641Z</time></trkpt><trkpt lat="44.1684467" lon="12.12733"><ele>53.42857142857143</ele><time>2026-04-28T07:17:44.642Z</time></trkpt><trkpt lat="44.1683683" lon="12.1273067"><ele>52.857142857142854</ele><time>2026-04-28T07:17:46.642Z</time></trkpt><trkpt lat="44.1682983" lon="12.1272833"><ele>52.28571428571429</ele><time>2026-04-28T07:17:48.642Z</time></trkpt><trkpt lat="44.1682317" lon="12.1272567"><ele>51.714285714285715</ele><time>2026-04-28T07:17:50.642Z</time></trkpt><trkpt lat="44.1681667" lon="12.1272333"><ele>51.142857142857146</ele><time>2026-04-28T07:17:52.641Z</time></trkpt><trkpt lat="44.16809" lon="12.1272167"><ele>50.57142857142858</ele><time>2026-04-28T07:17:54.641Z</time></trkpt><trkpt lat="44.168015" lon="12.1271867"><ele>50.0</ele><time>2026-04-28T07:17:56.641Z</time></trkpt><trkpt lat="44.1679333" lon="12.1271617"><ele>51.333333333333336</ele><time>2026-04-28T07:17:58.642Z</time></trkpt><trkpt lat="44.1678467" lon="12.1271433"><ele>52.66666666666667</ele><time>2026-04-28T07:18:00.641Z</time></trkpt><trkpt lat="44.16777" lon="12.12713"><ele>54.0</ele><time>2026-04-28T07:18:02.641Z</time></trkpt><trkpt lat="44.1676933" lon="12.1271017"><ele>55.33333333333333</ele><time>2026-04-28T07:18:04.641Z</time></trkpt><trkpt lat="44.1676083" lon="12.1270617"><ele>56.666666666666664</ele><time>2026-04-28T07:18:07.641Z</time></trkpt><trkpt lat="44.16754" lon="12.1270383"><ele>58.0</ele><time>2026-04-28T07:18:09.641Z</time></trkpt><trkpt lat="44.1674583" lon="12.12701"><ele>58.00000000000001</ele><time>2026-04-28T07:18:11.642Z</time></trkpt><trkpt lat="44.16738" lon="12.126975"><ele>58.0</ele><time>2026-04-28T07:18:13.641Z</time></trkpt><trkpt lat="44.167305" lon="12.126925"><ele>58.00000000000001</ele><time>2026-04-28T07:18:15.641Z</time></trkpt><trkpt lat="44.16723" lon="12.1268917"><ele>58.00000000000001</ele><time>2026-04-28T07:18:17.642Z</time></trkpt><trkpt lat="44.16717" lon="12.1268617"><ele>58.0</ele><time>2026-04-28T07:18:19.641Z</time></trkpt><trkpt lat="44.1671067" lon="12.1268333"><ele>58.00000000000001</ele><time>2026-04-28T07:18:21.642Z</time></trkpt><trkpt lat="44.167045" lon="12.1267867"><ele>58.00000000000001</ele><time>2026-04-28T07:18:24.642Z</time></trkpt><trkpt lat="44.1669683" lon="12.1267767"><ele>59.0</ele><time>2026-04-28T07:18:27.641Z</time></trkpt><trkpt lat="44.16687" lon="12.126765"><ele>60.0</ele><time>2026-04-28T07:18:30.642Z</time></trkpt><trkpt lat="44.1667733" lon="12.1267733"><ele>61.0</ele><time>2026-04-28T07:18:32.641Z</time></trkpt><trkpt lat="44.1666767" lon="12.1267267"><ele>62.0</ele><time>2026-04-28T07:18:34.642Z</time></trkpt><trkpt lat="44.1666083" lon="12.1266733"><ele>63.0</ele><time>2026-04-28T07:18:36.642Z</time></trkpt><trkpt lat="44.1665217" lon="12.12665"><ele>63.14285714285714</ele><time>2026-04-28T07:18:39.642Z</time></trkpt><trkpt lat="44.1664417" lon="12.1266033"><ele>63.285714285714285</ele><time>2026-04-28T07:18:42.641Z</time></trkpt><trkpt lat="44.1663717" lon="12.12657"><ele>63.42857142857143</ele><time>2026-04-28T07:18:44.641Z</time></trkpt><trkpt lat="44.16631" lon="12.1265383"><ele>63.57142857142857</ele><time>2026-04-28T07:18:46.641Z</time></trkpt><trkpt lat="44.1662383" lon="12.1265033"><ele>63.71428571428571</ele><time>2026-04-28T07:18:48.642Z</time></trkpt><trkpt lat="44.1661717" lon="12.1264767"><ele>63.857142857142854</ele><time>2026-04-28T07:18:50.641Z</time></trkpt><trkpt lat="44.1661" lon="12.1264483"><ele>64.0</ele><time>2026-04-28T07:18:52.642Z</time></trkpt><trkpt lat="44.1660317" lon="12.1264217"><ele>64.0</ele><time>2026-04-28T07:18:54.641Z</time></trkpt><trkpt lat="44.1659633" lon="12.1263767"><ele>63.99999999999999</ele><time>2026-04-28T07:18:56.642Z</time></trkpt><trkpt lat="44.16589" lon="12.126345"><ele>64.0</ele><time>2026-04-28T07:18:58.641Z</time></trkpt><trkpt lat="44.1658167" lon="12.1263033"><ele>64.0</ele><time>2026-04-28T07:19:00.641Z</time></trkpt><trkpt lat="44.1657483" lon="12.1262667"><ele>63.99999999999999</ele><time>2026-04-28T07:19:02.642Z</time></trkpt><trkpt lat="44.1656783" lon="12.12623"><ele>64.0</ele><time>2026-04-28T07:19:04.642Z</time></trkpt><trkpt lat="44.1656167" lon="12.1262"><ele>64.0</ele><time>2026-04-28T07:19:06.641Z</time></trkpt><trkpt lat="44.1655567" lon="12.12617"><ele>64.42857142857143</ele><time>2026-04-28T07:19:08.641Z</time></trkpt><trkpt lat="44.165485" lon="12.12614"><ele>64.85714285714285</ele><time>2026-04-28T07:19:10.641Z</time></trkpt><trkpt lat="44.1654167" lon="12.1261133"><ele>65.28571428571428</ele><time>2026-04-28T07:19:12.642Z</time></trkpt><trkpt lat="44.1653567" lon="12.1260867"><ele>65.71428571428571</ele><time>2026-04-28T07:19:14.641Z</time></trkpt><trkpt lat="44.1652933" lon="12.1260633"><ele>66.14285714285714</ele><time>2026-04-28T07:19:16.642Z</time></trkpt><trkpt lat="44.1652333" lon="12.1260283"><ele>66.57142857142857</ele><time>2026-04-28T07:19:18.641Z</time></trkpt><trkpt lat="44.1651667" lon="12.12599"><ele>67.0</ele><time>2026-04-28T07:19:20.642Z</time></trkpt><trkpt lat="44.16509" lon="12.125955"><ele>67.0</ele><time>2026-04-28T07:19:22.641Z</time></trkpt><trkpt lat="44.165025" lon="12.1259217"><ele>67.0</ele><time>2026-04-28T07:19:24.642Z</time></trkpt><trkpt lat="44.16495" lon="12.1258817"><ele>67.0</ele><time>2026-04-28T07:19:26.642Z</time></trkpt><trkpt lat="44.1648783" lon="12.1258383"><ele>67.0</ele><time>2026-04-28T07:19:28.642Z</time></trkpt><trkpt lat="44.1648067" lon="12.1258133"><ele>67.0</ele><time>2026-04-28T07:19:30.641Z</time></trkpt><trkpt lat="44.1647417" lon="12.125785"><ele>67.0</ele><time>2026-04-28T07:19:32.642Z</time></trkpt><trkpt lat="44.164675" lon="12.1257583"><ele>67.0</ele><time>2026-04-28T07:19:34.641Z</time></trkpt><trkpt lat="44.1646017" lon="12.1257283"><ele>66.16666666666666</ele><time>2026-04-28T07:19:36.641Z</time></trkpt><trkpt lat="44.16453" lon="12.1256967"><ele>65.33333333333333</ele><time>2026-04-28T07:19:38.641Z</time></trkpt><trkpt lat="44.1644633" lon="12.12566"><ele>64.5</ele><time>2026-04-28T07:19:40.642Z</time></trkpt><trkpt lat="44.16439" lon="12.125625"><ele>63.66666666666667</ele><time>2026-04-28T07:19:42.642Z</time></trkpt><trkpt lat="44.16433" lon="12.125595"><ele>62.833333333333336</ele><time>2026-04-28T07:19:44.641Z</time></trkpt><trkpt lat="44.1642433" lon="12.1255467"><ele>62.0</ele><time>2026-04-28T07:19:47.642Z</time></trkpt><trkpt lat="44.16417" lon="12.1255"><ele>62.00000000000001</ele><time>2026-04-28T07:19:49.641Z</time></trkpt><trkpt lat="44.1641067" lon="12.12546"><ele>62.0</ele><time>2026-04-28T07:19:51.641Z</time></trkpt><trkpt lat="44.1640133" lon="12.125405"><ele>62.0</ele><time>2026-04-28T07:19:54.641Z</time></trkpt><trkpt lat="44.16393" lon="12.125365"><ele>62.0</ele><time>2026-04-28T07:19:56.641Z</time></trkpt><trkpt lat="44.1638567" lon="12.12533"><ele>62.00000000000001</ele><time>2026-04-28T07:19:58.642Z</time></trkpt><trkpt lat="44.1637767" lon="12.1252933"><ele>62.0</ele><time>2026-04-28T07:20:00.642Z</time></trkpt><trkpt lat="44.1637033" lon="12.1252617"><ele>63.16666666666667</ele><time>2026-04-28T07:20:02.641Z</time></trkpt><trkpt lat="44.16362" lon="12.1252267"><ele>64.33333333333334</ele><time>2026-04-28T07:20:04.641Z</time></trkpt><trkpt lat="44.1635367" lon="12.125195"><ele>65.5</ele><time>2026-04-28T07:20:06.642Z</time></trkpt><trkpt lat="44.1634617" lon="12.1251667"><ele>66.66666666666667</ele><time>2026-04-28T07:20:08.642Z</time></trkpt><trkpt lat="44.1633917" lon="12.1251433"><ele>67.83333333333333</ele><time>2026-04-28T07:20:10.641Z</time></trkpt><trkpt lat="44.1633117" lon="12.1251267"><ele>69.0</ele><time>2026-04-28T07:20:12.642Z</time></trkpt><trkpt lat="44.1632333" lon="12.1251083"><ele>69.5</ele><time>2026-04-28T07:20:14.641Z</time></trkpt><trkpt lat="44.16316" lon="12.1250983"><ele>70.0</ele><time>2026-04-28T07:20:16.642Z</time></trkpt><trkpt lat="44.1630783" lon="12.12508"><ele>70.5</ele><time>2026-04-28T07:20:18.641Z</time></trkpt><trkpt lat="44.16299" lon="12.1250667"><ele>71.0</ele><time>2026-04-28T07:20:20.642Z</time></trkpt><trkpt lat="44.1629133" lon="12.1250617"><ele>71.5</ele><time>2026-04-28T07:20:22.642Z</time></trkpt><trkpt lat="44.1628333" lon="12.125055"><ele>72.0</ele><time>2026-04-28T07:20:24.642Z</time></trkpt><trkpt lat="44.1627533" lon="12.1250417"><ele>72.0</ele><time>2026-04-28T07:20:26.641Z</time></trkpt><trkpt lat="44.1626833" lon="12.1250317"><ele>72.0</ele><time>2026-04-28T07:20:28.641Z</time></trkpt><trkpt lat="44.162605" lon="12.1250233"><ele>72.0</ele><time>2026-04-28T07:20:30.641Z</time></trkpt><trkpt lat="44.1625133" lon="12.1250367"><ele>72.0</ele><time>2026-04-28T07:20:33.641Z</time></trkpt><trkpt lat="44.1624133" lon="12.12505"><ele>72.0</ele><time>2026-04-28T07:20:36.641Z</time></trkpt><trkpt lat="44.1623367" lon="12.1250517"><ele>72.0</ele><time>2026-04-28T07:20:38.642Z</time></trkpt><trkpt lat="44.162265" lon="12.125055"><ele>71.83333333333333</ele><time>2026-04-28T07:20:40.642Z</time></trkpt><trkpt lat="44.1621883" lon="12.1250533"><ele>71.66666666666667</ele><time>2026-04-28T07:20:42.641Z</time></trkpt><trkpt lat="44.16209" lon="12.12505"><ele>71.5</ele><time>2026-04-28T07:20:45.641Z</time></trkpt><trkpt lat="44.1620217" lon="12.125045"><ele>71.33333333333334</ele><time>2026-04-28T07:20:47.641Z</time></trkpt><trkpt lat="44.1619567" lon="12.125045"><ele>71.16666666666667</ele><time>2026-04-28T07:20:49.642Z</time></trkpt><trkpt lat="44.1618767" lon="12.1250433"><ele>71.0</ele><time>2026-04-28T07:20:52.642Z</time></trkpt><trkpt lat="44.1617967" lon="12.1250333"><ele>71.0</ele><time>2026-04-28T07:20:54.642Z</time></trkpt><trkpt lat="44.1617217" lon="12.1250417"><ele>71.0</ele><time>2026-04-28T07:20:56.641Z</time></trkpt><trkpt lat="44.1616467" lon="12.125045"><ele>71.0</ele><time>2026-04-28T07:20:58.641Z</time></trkpt><trkpt lat="44.16157" lon="12.1250433"><ele>71.0</ele><time>2026-04-28T07:21:00.641Z</time></trkpt><trkpt lat="44.1614917" lon="12.1250367"><ele>71.0</ele><time>2026-04-28T07:21:02.642Z</time></trkpt><trkpt lat="44.1614183" lon="12.1250317"><ele>71.0</ele><time>2026-04-28T07:21:04.642Z</time></trkpt><trkpt lat="44.1613483" lon="12.1250267"><ele>71.0</ele><time>2026-04-28T07:21:06.642Z</time></trkpt><trkpt lat="44.1612817" lon="12.1250283"><ele>71.66666666666667</ele><time>2026-04-28T07:21:08.642Z</time></trkpt><trkpt lat="44.1612067" lon="12.1250333"><ele>72.33333333333334</ele><time>2026-04-28T07:21:10.642Z</time></trkpt><trkpt lat="44.1611267" lon="12.1250383"><ele>73.0</ele><time>2026-04-28T07:21:12.642Z</time></trkpt><trkpt lat="44.1610367" lon="12.1250433"><ele>73.66666666666667</ele><time>2026-04-28T07:21:14.642Z</time></trkpt><trkpt lat="44.16094" lon="12.125045"><ele>74.33333333333333</ele><time>2026-04-28T07:21:16.641Z</time></trkpt><trkpt lat="44.1608567" lon="12.1250467"><ele>75.0</ele><time>2026-04-28T07:21:18.641Z</time></trkpt><trkpt lat="44.1607883" lon="12.12505"><ele>74.99999999999999</ele><time>2026-04-28T07:21:20.641Z</time></trkpt><trkpt lat="44.1607167" lon="12.1250367"><ele>75.0</ele><time>2026-04-28T07:21:22.642Z</time></trkpt><trkpt lat="44.1606467" lon="12.1250267"><ele>75.0</ele><time>2026-04-28T07:21:24.642Z</time></trkpt><trkpt lat="44.1605783" lon="12.1250217"><ele>75.0</ele><time>2026-04-28T07:21:26.641Z</time></trkpt><trkpt lat="44.1604933" lon="12.1250183"><ele>75.0</ele><time>2026-04-28T07:21:29.642Z</time></trkpt><trkpt lat="44.1604217" lon="12.1250133"><ele>74.99999999999999</ele><time>2026-04-28T07:21:31.642Z</time></trkpt><trkpt lat="44.160355" lon="12.1250167"><ele>75.0</ele><time>2026-04-28T07:21:33.642Z</time></trkpt><trkpt lat="44.16029" lon="12.12502"><ele>75.5</ele><time>2026-04-28T07:21:35.642Z</time></trkpt><trkpt lat="44.1602117" lon="12.1250133"><ele>76.0</ele><time>2026-04-28T07:21:38.642Z</time></trkpt><trkpt lat="44.1601267" lon="12.1250117"><ele>76.5</ele><time>2026-04-28T07:21:41.641Z</time></trkpt><trkpt lat="44.160045" lon="12.1250283"><ele>77.0</ele><time>2026-04-28T07:21:45.642Z</time></trkpt><trkpt lat="44.15998" lon="12.1250433"><ele>77.5</ele><time>2026-04-28T07:21:48.642Z</time></trkpt><trkpt lat="44.1599017" lon="12.1250533"><ele>78.0</ele><time>2026-04-28T07:21:51.642Z</time></trkpt><trkpt lat="44.1598267" lon="12.1250617"><ele>78.0</ele><time>2026-04-28T07:21:53.641Z</time></trkpt><trkpt lat="44.1597417" lon="12.1250783"><ele>78.0</ele><time>2026-04-28T07:21:55.641Z</time></trkpt><trkpt lat="44.1596683" lon="12.1251067"><ele>78.0</ele><time>2026-04-28T07:21:57.641Z</time></trkpt><trkpt lat="44.1595917" lon="12.1251383"><ele>78.0</ele><time>2026-04-28T07:21:59.642Z</time></trkpt><trkpt lat="44.159525" lon="12.1251717"><ele>78.0</ele><time>2026-04-28T07:22:01.641Z</time></trkpt><trkpt lat="44.1594583" lon="12.1252183"><ele>78.0</ele><time>2026-04-28T07:22:03.641Z</time></trkpt><trkpt lat="44.1593867" lon="12.125275"><ele>78.0</ele><time>2026-04-28T07:22:05.641Z</time></trkpt><trkpt lat="44.1593233" lon="12.12533"><ele>78.0</ele><time>2026-04-28T07:22:07.641Z</time></trkpt><trkpt lat="44.159265" lon="12.12539"><ele>78.0</ele><time>2026-04-28T07:22:09.641Z</time></trkpt><trkpt lat="44.15921" lon="12.12545"><ele>78.0</ele><time>2026-04-28T07:22:11.642Z</time></trkpt><trkpt lat="44.15916" lon="12.1255183"><ele>78.0</ele><time>2026-04-28T07:22:13.641Z</time></trkpt><trkpt lat="44.1591067" lon="12.1255867"><ele>78.0</ele><time>2026-04-28T07:22:15.641Z</time></trkpt><trkpt lat="44.15905" lon="12.1256533"><ele>78.0</ele><time>2026-04-28T07:22:17.641Z</time></trkpt><trkpt lat="44.158995" lon="12.1257167"><ele>79.5</ele><time>2026-04-28T07:22:19.642Z</time></trkpt><trkpt lat="44.158945" lon="12.1257833"><ele>81.0</ele><time>2026-04-28T07:22:21.641Z</time></trkpt><trkpt lat="44.1588733" lon="12.1258717"><ele>82.5</ele><time>2026-04-28T07:22:24.642Z</time></trkpt><trkpt lat="44.1588033" lon="12.125945"><ele>84.0</ele><time>2026-04-28T07:22:27.642Z</time></trkpt><trkpt lat="44.1587483" lon="12.1259967"><ele>85.5</ele><time>2026-04-28T07:22:29.642Z</time></trkpt><trkpt lat="44.1586767" lon="12.12605"><ele>87.0</ele><time>2026-04-28T07:22:32.642Z</time></trkpt><trkpt lat="44.1586" lon="12.1260833"><ele>87.0</ele><time>2026-04-28T07:22:35.642Z</time></trkpt><trkpt lat="44.1585217" lon="12.12611"><ele>87.0</ele><time>2026-04-28T07:22:38.642Z</time></trkpt><trkpt lat="44.1584483" lon="12.126115"><ele>87.0</ele><time>2026-04-28T07:22:41.642Z</time></trkpt><trkpt lat="44.1583667" lon="12.1261067"><ele>87.0</ele><time>2026-04-28T07:22:45.641Z</time></trkpt><trkpt lat="44.1582983" lon="12.1261033"><ele>87.0</ele><time>2026-04-28T07:22:48.641Z</time></trkpt><trkpt lat="44.1582183" lon="12.1260933"><ele>87.0</ele><time>2026-04-28T07:22:51.642Z</time></trkpt><trkpt lat="44.158135" lon="12.1260817"><ele>87.71428571428571</ele><time>2026-04-28T07:22:54.641Z</time></trkpt><trkpt lat="44.1580617" lon="12.1260617"><ele>88.42857142857143</ele><time>2026-04-28T07:22:57.641Z</time></trkpt><trkpt lat="44.1579983" lon="12.12604"><ele>89.14285714285714</ele><time>2026-04-28T07:23:00.642Z</time></trkpt><trkpt lat="44.15793" lon="12.12604"><ele>89.85714285714286</ele><time>2026-04-28T07:23:03.642Z</time></trkpt><trkpt lat="44.1578617" lon="12.12604"><ele>90.57142857142857</ele><time>2026-04-28T07:23:05.641Z</time></trkpt><trkpt lat="44.1577783" lon="12.126035"><ele>91.28571428571429</ele><time>2026-04-28T07:23:08.641Z</time></trkpt><trkpt lat="44.1577017" lon="12.12604"><ele>92.0</ele><time>2026-04-28T07:23:11.642Z</time></trkpt><trkpt lat="44.1576233" lon="12.1260533"><ele>92.0</ele><time>2026-04-28T07:23:14.642Z</time></trkpt><trkpt lat="44.1575583" lon="12.126075"><ele>92.0</ele><time>2026-04-28T07:23:17.641Z</time></trkpt><trkpt lat="44.1574967" lon="12.1261083"><ele>92.0</ele><time>2026-04-28T07:23:20.642Z</time></trkpt><trkpt lat="44.15743" lon="12.1261317"><ele>92.0</ele><time>2026-04-28T07:23:23.642Z</time></trkpt><trkpt lat="44.1573517" lon="12.12617"><ele>92.0</ele><time>2026-04-28T07:23:26.641Z</time></trkpt><trkpt lat="44.157265" lon="12.12621"><ele>92.0</ele><time>2026-04-28T07:23:29.642Z</time></trkpt><trkpt lat="44.1571817" lon="12.1262633"><ele>92.16666666666667</ele><time>2026-04-28T07:23:32.641Z</time></trkpt><trkpt lat="44.1571117" lon="12.1263117"><ele>92.33333333333334</ele><time>2026-04-28T07:23:35.642Z</time></trkpt><trkpt lat="44.1570383" lon="12.126355"><ele>92.5</ele><time>2026-04-28T07:23:38.642Z</time></trkpt><trkpt lat="44.156965" lon="12.126405"><ele>92.66666666666667</ele><time>2026-04-28T07:23:41.641Z</time></trkpt><trkpt lat="44.1568917" lon="12.1264417"><ele>92.83333333333333</ele><time>2026-04-28T07:23:44.641Z</time></trkpt><trkpt lat="44.1568183" lon="12.1264817"><ele>93.0</ele><time>2026-04-28T07:23:47.641Z</time></trkpt><trkpt lat="44.1567433" lon="12.1265367"><ele>94.33333333333333</ele><time>2026-04-28T07:23:50.642Z</time></trkpt><trkpt lat="44.15666" lon="12.126585"><ele>95.66666666666666</ele><time>2026-04-28T07:23:53.642Z</time></trkpt><trkpt lat="44.1565783" lon="12.1266433"><ele>97.0</ele><time>2026-04-28T07:23:56.642Z</time></trkpt><trkpt lat="44.1565067" lon="12.1266933"><ele>98.33333333333333</ele><time>2026-04-28T07:23:59.642Z</time></trkpt><trkpt lat="44.1564417" lon="12.1267367"><ele>99.66666666666666</ele><time>2026-04-28T07:24:03.641Z</time></trkpt><trkpt lat="44.1563767" lon="12.1267667"><ele>101.0</ele><time>2026-04-28T07:24:06.642Z</time></trkpt><trkpt lat="44.1563067" lon="12.1268183"><ele>100.99999999999999</ele><time>2026-04-28T07:24:10.642Z</time></trkpt><trkpt lat="44.156245" lon="12.1268633"><ele>101.0</ele><time>2026-04-28T07:24:13.641Z</time></trkpt><trkpt lat="44.15618" lon="12.126905"><ele>101.0</ele><time>2026-04-28T07:24:16.641Z</time></trkpt><trkpt lat="44.156125" lon="12.1269617"><ele>101.0</ele><time>2026-04-28T07:24:20.642Z</time></trkpt><trkpt lat="44.1560567" lon="12.12701"><ele>100.99999999999999</ele><time>2026-04-28T07:24:23.642Z</time></trkpt><trkpt lat="44.15597" lon="12.1270533"><ele>101.0</ele><time>2026-04-28T07:24:26.641Z</time></trkpt><trkpt lat="44.1558883" lon="12.1270933"><ele>100.99999999999999</ele><time>2026-04-28T07:24:29.641Z</time></trkpt><trkpt lat="44.1558117" lon="12.127145"><ele>101.0</ele><time>2026-04-28T07:24:32.642Z</time></trkpt><trkpt lat="44.1557517" lon="12.1271817"><ele>101.0</ele><time>2026-04-28T07:24:34.641Z</time></trkpt><trkpt lat="44.1556783" lon="12.1272383"><ele>101.0</ele><time>2026-04-28T07:24:37.641Z</time></trkpt><trkpt lat="44.1556033" lon="12.12729"><ele>100.99999999999999</ele><time>2026-04-28T07:24:40.642Z</time></trkpt><trkpt lat="44.1555317" lon="12.1273433"><ele>101.0</ele><time>2026-04-28T07:24:43.641Z</time></trkpt><trkpt lat="44.1554733" lon="12.1273767"><ele>102.33333333333333</ele><time>2026-04-28T07:24:45.642Z</time></trkpt><trkpt lat="44.1554033" lon="12.12742"><ele>103.66666666666666</ele><time>2026-04-28T07:24:48.642Z</time></trkpt><trkpt lat="44.1553433" lon="12.1274633"><ele>105.0</ele><time>2026-04-28T07:24:51.642Z</time></trkpt><trkpt lat="44.1552733" lon="12.12751"><ele>106.33333333333334</ele><time>2026-04-28T07:24:54.641Z</time></trkpt><trkpt lat="44.155205" lon="12.12756"><ele>107.66666666666667</ele><time>2026-04-28T07:24:57.642Z</time></trkpt><trkpt lat="44.155135" lon="12.12761"><ele>109.0</ele><time>2026-04-28T07:25:00.641Z</time></trkpt><trkpt lat="44.1550633" lon="12.1276767"><ele>109.00000000000001</ele><time>2026-04-28T07:25:03.642Z</time></trkpt><trkpt lat="44.1549917" lon="12.1277417"><ele>109.0</ele><time>2026-04-28T07:25:06.641Z</time></trkpt><trkpt lat="44.1549283" lon="12.12782"><ele>109.0</ele><time>2026-04-28T07:25:09.642Z</time></trkpt><trkpt lat="44.1548817" lon="12.1278817"><ele>109.0</ele><time>2026-04-28T07:25:11.641Z</time></trkpt><trkpt lat="44.1548267" lon="12.1279833"><ele>109.00000000000001</ele><time>2026-04-28T07:25:14.642Z</time></trkpt><trkpt lat="44.1547867" lon="12.1280833"><ele>109.0</ele><time>2026-04-28T07:25:17.642Z</time></trkpt><trkpt lat="44.154765" lon="12.1281933"><ele>108.83333333333334</ele><time>2026-04-28T07:25:20.641Z</time></trkpt><trkpt lat="44.1547567" lon="12.128305"><ele>108.66666666666667</ele><time>2026-04-28T07:25:23.642Z</time></trkpt><trkpt lat="44.15475" lon="12.1284233"><ele>108.5</ele><time>2026-04-28T07:25:26.642Z</time></trkpt><trkpt lat="44.1547417" lon="12.1285367"><ele>108.33333333333334</ele><time>2026-04-28T07:25:29.642Z</time></trkpt><trkpt lat="44.154735" lon="12.1286667"><ele>108.16666666666667</ele><time>2026-04-28T07:25:32.642Z</time></trkpt><trkpt lat="44.154735" lon="12.12879"><ele>108.0</ele><time>2026-04-28T07:25:35.642Z</time></trkpt><trkpt lat="44.1547367" lon="12.1289117"><ele>108.0</ele><time>2026-04-28T07:25:38.641Z</time></trkpt><trkpt lat="44.154735" lon="12.1290317"><ele>108.0</ele><time>2026-04-28T07:25:41.641Z</time></trkpt><trkpt lat="44.154725" lon="12.1291467"><ele>108.0</ele><time>2026-04-28T07:25:44.642Z</time></trkpt><trkpt lat="44.1547033" lon="12.1292717"><ele>108.0</ele><time>2026-04-28T07:25:47.642Z</time></trkpt><trkpt lat="44.1546783" lon="12.1293767"><ele>108.0</ele><time>2026-04-28T07:25:50.642Z</time></trkpt><trkpt lat="44.154645" lon="12.129485"><ele>108.0</ele><time>2026-04-28T07:25:53.642Z</time></trkpt><trkpt lat="44.1546233" lon="12.1295717"><ele>109.16666666666667</ele><time>2026-04-28T07:25:55.641Z</time></trkpt><trkpt lat="44.1545817" lon="12.1296833"><ele>110.33333333333334</ele><time>2026-04-28T07:25:58.641Z</time></trkpt><trkpt lat="44.1545367" lon="12.129785"><ele>111.5</ele><time>2026-04-28T07:26:01.641Z</time></trkpt><trkpt lat="44.1544933" lon="12.12986"><ele>112.66666666666667</ele><time>2026-04-28T07:26:03.642Z</time></trkpt><trkpt lat="44.154435" lon="12.1299467"><ele>113.83333333333334</ele><time>2026-04-28T07:26:06.642Z</time></trkpt><trkpt lat="44.1543817" lon="12.13004"><ele>115.0</ele><time>2026-04-28T07:26:09.642Z</time></trkpt><trkpt lat="44.1543367" lon="12.130135"><ele>115.83333333333334</ele><time>2026-04-28T07:26:12.641Z</time></trkpt><trkpt lat="44.154285" lon="12.1302167"><ele>116.66666666666667</ele><time>2026-04-28T07:26:15.642Z</time></trkpt><trkpt lat="44.154235" lon="12.1302967"><ele>117.5</ele><time>2026-04-28T07:26:18.642Z</time></trkpt><trkpt lat="44.1542" lon="12.130375"><ele>118.33333333333334</ele><time>2026-04-28T07:26:22.642Z</time></trkpt><trkpt lat="44.154175" lon="12.1304633"><ele>119.16666666666667</ele><time>2026-04-28T07:26:25.641Z</time></trkpt><trkpt lat="44.1541133" lon="12.1305383"><ele>120.0</ele><time>2026-04-28T07:26:28.641Z</time></trkpt><trkpt lat="44.1540533" lon="12.1306183"><ele>121.5</ele><time>2026-04-28T07:26:31.642Z</time></trkpt><trkpt lat="44.1540033" lon="12.130705"><ele>123.0</ele><time>2026-04-28T07:26:34.642Z</time></trkpt><trkpt lat="44.15395" lon="12.1307967"><ele>124.5</ele><time>2026-04-28T07:26:37.642Z</time></trkpt><trkpt lat="44.1539117" lon="12.130885"><ele>126.0</ele><time>2026-04-28T07:26:40.641Z</time></trkpt><trkpt lat="44.1538583" lon="12.130955"><ele>127.5</ele><time>2026-04-28T07:26:43.642Z</time></trkpt><trkpt lat="44.1538133" lon="12.131035"><ele>129.0</ele><time>2026-04-28T07:26:46.642Z</time></trkpt><trkpt lat="44.153755" lon="12.1311"><ele>129.66666666666666</ele><time>2026-04-28T07:26:48.642Z</time></trkpt><trkpt lat="44.1537083" lon="12.1311683"><ele>130.33333333333334</ele><time>2026-04-28T07:26:50.641Z</time></trkpt><trkpt lat="44.15366" lon="12.1312317"><ele>131.0</ele><time>2026-04-28T07:26:52.641Z</time></trkpt><trkpt lat="44.1536" lon="12.131315"><ele>131.66666666666669</ele><time>2026-04-28T07:26:55.642Z</time></trkpt><trkpt lat="44.1535433" lon="12.1314083"><ele>132.33333333333334</ele><time>2026-04-28T07:26:58.642Z</time></trkpt><trkpt lat="44.1534967" lon="12.1314733"><ele>133.0</ele><time>2026-04-28T07:27:00.641Z</time></trkpt><trkpt lat="44.15344" lon="12.1315617"><ele>133.0</ele><time>2026-04-28T07:27:03.642Z</time></trkpt><trkpt lat="44.1533817" lon="12.1316517"><ele>133.0</ele><time>2026-04-28T07:27:06.642Z</time></trkpt><trkpt lat="44.153325" lon="12.1317467"><ele>133.0</ele><time>2026-04-28T07:27:09.641Z</time></trkpt><trkpt lat="44.1532733" lon="12.131845"><ele>133.0</ele><time>2026-04-28T07:27:12.641Z</time></trkpt><trkpt lat="44.1532283" lon="12.1319367"><ele>133.0</ele><time>2026-04-28T07:27:15.642Z</time></trkpt><trkpt lat="44.1531733" lon="12.1320133"><ele>133.0</ele><time>2026-04-28T07:27:18.641Z</time></trkpt><trkpt lat="44.15313" lon="12.1320917"><ele>135.5</ele><time>2026-04-28T07:27:21.641Z</time></trkpt><trkpt lat="44.1531083" lon="12.1321867"><ele>138.0</ele><time>2026-04-28T07:27:24.642Z</time></trkpt><trkpt lat="44.1530683" lon="12.132265"><ele>140.5</ele><time>2026-04-28T07:27:27.641Z</time></trkpt><trkpt lat="44.1530233" lon="12.1323467"><ele>143.0</ele><time>2026-04-28T07:27:30.642Z</time></trkpt><trkpt lat="44.1529617" lon="12.1324383"><ele>145.5</ele><time>2026-04-28T07:27:33.642Z</time></trkpt><trkpt lat="44.1528933" lon="12.1325133"><ele>148.0</ele><time>2026-04-28T07:27:36.642Z</time></trkpt><trkpt lat="44.1528317" lon="12.1325983"><ele>148.0</ele><time>2026-04-28T07:27:39.641Z</time></trkpt><trkpt lat="44.15278" lon="12.1326933"><ele>148.0</ele><time>2026-04-28T07:27:42.642Z</time></trkpt><trkpt lat="44.15274" lon="12.13279"><ele>148.0</ele><time>2026-04-28T07:27:45.641Z</time></trkpt><trkpt lat="44.15269" lon="12.1328583"><ele>148.0</ele><time>2026-04-28T07:27:48.64Z</time></trkpt><trkpt lat="44.1526583" lon="12.13296"><ele>148.0</ele><time>2026-04-28T07:27:51.641Z</time></trkpt><trkpt lat="44.15263" lon="12.1330617"><ele>148.0</ele><time>2026-04-28T07:27:54.641Z</time></trkpt><trkpt lat="44.1525983" lon="12.1331767"><ele>148.0</ele><time>2026-04-28T07:27:57.64Z</time></trkpt><trkpt lat="44.1525667" lon="12.1332817"><ele>148.0</ele><time>2026-04-28T07:28:00.64Z</time></trkpt><trkpt lat="44.152535" lon="12.1333933"><ele>148.0</ele><time>2026-04-28T07:28:03.641Z</time></trkpt><trkpt lat="44.1524983" lon="12.1334883"><ele>148.0</ele><time>2026-04-28T07:28:06.64Z</time></trkpt><trkpt lat="44.1524717" lon="12.13359"><ele>148.0</ele><time>2026-04-28T07:28:09.64Z</time></trkpt><trkpt lat="44.1524483" lon="12.1337017"><ele>148.0</ele><time>2026-04-28T07:28:12.64Z</time></trkpt><trkpt lat="44.1524267" lon="12.1338117"><ele>148.0</ele><time>2026-04-28T07:28:15.641Z</time></trkpt><trkpt lat="44.1524117" lon="12.1339267"><ele>148.0</ele><time>2026-04-28T07:28:19.641Z</time></trkpt><trkpt lat="44.1524133" lon="12.1340283"><ele>148.0</ele><time>2026-04-28T07:28:22.64Z</time></trkpt><trkpt lat="44.1524017" lon="12.13413"><ele>148.0</ele><time>2026-04-28T07:28:25.64Z</time></trkpt><trkpt lat="44.1523783" lon="12.134225"><ele>148.0</ele><time>2026-04-28T07:28:28.64Z</time></trkpt><trkpt lat="44.1523367" lon="12.134355"><ele>148.0</ele><time>2026-04-28T07:28:31.64Z</time></trkpt><trkpt lat="44.1523283" lon="12.1344583"><ele>149.33333333333334</ele><time>2026-04-28T07:28:33.641Z</time></trkpt><trkpt lat="44.152315" lon="12.1345583"><ele>150.66666666666669</ele><time>2026-04-28T07:28:35.64Z</time></trkpt><trkpt lat="44.15227" lon="12.1346683"><ele>152.0</ele><time>2026-04-28T07:28:38.64Z</time></trkpt><trkpt lat="44.152205" lon="12.1347567"><ele>153.33333333333334</ele><time>2026-04-28T07:28:41.641Z</time></trkpt><trkpt lat="44.1521533" lon="12.1348183"><ele>154.66666666666666</ele><time>2026-04-28T07:28:43.64Z</time></trkpt><trkpt lat="44.1521067" lon="12.1348783"><ele>156.0</ele><time>2026-04-28T07:28:45.641Z</time></trkpt><trkpt lat="44.1520433" lon="12.134965"><ele>156.0</ele><time>2026-04-28T07:28:48.64Z</time></trkpt><trkpt lat="44.1519933" lon="12.1350217"><ele>156.0</ele><time>2026-04-28T07:28:50.641Z</time></trkpt><trkpt lat="44.1519283" lon="12.1350983"><ele>156.0</ele><time>2026-04-28T07:28:53.641Z</time></trkpt><trkpt lat="44.1518817" lon="12.1351833"><ele>156.0</ele><time>2026-04-28T07:28:56.64Z</time></trkpt><trkpt lat="44.1518433" lon="12.1352533"><ele>156.0</ele><time>2026-04-28T07:28:59.64Z</time></trkpt><trkpt lat="44.1518083" lon="12.1353567"><ele>156.0</ele><time>2026-04-28T07:29:03.641Z</time></trkpt><trkpt lat="44.1517867" lon="12.1354467"><ele>156.0</ele><time>2026-04-28T07:29:06.64Z</time></trkpt><trkpt lat="44.15178" lon="12.1355517"><ele>156.0</ele><time>2026-04-28T07:29:10.64Z</time></trkpt><trkpt lat="44.1517867" lon="12.1356483"><ele>156.0</ele><time>2026-04-28T07:29:15.641Z</time></trkpt><trkpt lat="44.1518133" lon="12.1357333"><ele>156.0</ele><time>2026-04-28T07:29:18.64Z</time></trkpt><trkpt lat="44.1518367" lon="12.1358383"><ele>156.0</ele><time>2026-04-28T07:29:20.641Z</time></trkpt><trkpt lat="44.1518667" lon="12.1359367"><ele>156.0</ele><time>2026-04-28T07:29:22.64Z</time></trkpt><trkpt lat="44.1518967" lon="12.1360417"><ele>156.0</ele><time>2026-04-28T07:29:24.64Z</time></trkpt><trkpt lat="44.1519283" lon="12.1361333"><ele>156.0</ele><time>2026-04-28T07:29:26.64Z</time></trkpt><trkpt lat="44.1519617" lon="12.136225"><ele>156.5</ele><time>2026-04-28T07:29:28.641Z</time></trkpt><trkpt lat="44.1519983" lon="12.1363167"><ele>157.0</ele><time>2026-04-28T07:29:30.641Z</time></trkpt><trkpt lat="44.1520417" lon="12.1364"><ele>157.5</ele><time>2026-04-28T07:29:33.641Z</time></trkpt><trkpt lat="44.1520883" lon="12.1365033"><ele>158.0</ele><time>2026-04-28T07:29:36.641Z</time></trkpt><trkpt lat="44.1521333" lon="12.1366167"><ele>158.5</ele><time>2026-04-28T07:29:39.641Z</time></trkpt><trkpt lat="44.1521867" lon="12.1367033"><ele>159.0</ele><time>2026-04-28T07:29:42.64Z</time></trkpt><trkpt lat="44.1522283" lon="12.1367783"><ele>158.16666666666666</ele><time>2026-04-28T07:29:44.641Z</time></trkpt><trkpt lat="44.152275" lon="12.1368783"><ele>157.33333333333334</ele><time>2026-04-28T07:29:47.64Z</time></trkpt><trkpt lat="44.1523233" lon="12.1369883"><ele>156.5</ele><time>2026-04-28T07:29:50.641Z</time></trkpt><trkpt lat="44.1523583" lon="12.137065"><ele>155.66666666666669</ele><time>2026-04-28T07:29:52.64Z</time></trkpt><trkpt lat="44.15241" lon="12.1371683"><ele>154.83333333333334</ele><time>2026-04-28T07:29:55.64Z</time></trkpt><trkpt lat="44.1524517" lon="12.13727"><ele>154.0</ele><time>2026-04-28T07:29:58.641Z</time></trkpt><trkpt lat="44.15249" lon="12.1373433"><ele>154.71428571428572</ele><time>2026-04-28T07:30:00.641Z</time></trkpt><trkpt lat="44.152535" lon="12.137435"><ele>155.42857142857144</ele><time>2026-04-28T07:30:03.641Z</time></trkpt><trkpt lat="44.1525733" lon="12.137515"><ele>156.14285714285714</ele><time>2026-04-28T07:30:06.64Z</time></trkpt><trkpt lat="44.152605" lon="12.1376083"><ele>156.85714285714286</ele><time>2026-04-28T07:30:09.64Z</time></trkpt><trkpt lat="44.152635" lon="12.13771"><ele>157.57142857142858</ele><time>2026-04-28T07:30:13.64Z</time></trkpt><trkpt lat="44.152645" lon="12.1377967"><ele>158.28571428571428</ele><time>2026-04-28T07:30:16.64Z</time></trkpt><trkpt lat="44.15264" lon="12.1378867"><ele>159.0</ele><time>2026-04-28T07:30:19.64Z</time></trkpt><trkpt lat="44.15263" lon="12.1379967"><ele>159.0</ele><time>2026-04-28T07:30:23.641Z</time></trkpt><trkpt lat="44.152625" lon="12.13809"><ele>159.0</ele><time>2026-04-28T07:30:26.64Z</time></trkpt><trkpt lat="44.1525983" lon="12.1381833"><ele>159.0</ele><time>2026-04-28T07:30:29.64Z</time></trkpt><trkpt lat="44.1525633" lon="12.138285"><ele>159.0</ele><time>2026-04-28T07:30:32.641Z</time></trkpt><trkpt lat="44.1525267" lon="12.1383733"><ele>159.0</ele><time>2026-04-28T07:30:35.64Z</time></trkpt><trkpt lat="44.1524983" lon="12.138455"><ele>159.0</ele><time>2026-04-28T07:30:38.641Z</time></trkpt><trkpt lat="44.1524383" lon="12.1385283"><ele>159.0</ele><time>2026-04-28T07:30:42.64Z</time></trkpt><trkpt lat="44.1523733" lon="12.1385117"><ele>160.42857142857142</ele><time>2026-04-28T07:30:46.641Z</time></trkpt><trkpt lat="44.15231" lon="12.1384867"><ele>161.85714285714286</ele><time>2026-04-28T07:30:50.64Z</time></trkpt><trkpt lat="44.152265" lon="12.1384217"><ele>163.28571428571428</ele><time>2026-04-28T07:30:53.641Z</time></trkpt><trkpt lat="44.1522067" lon="12.1383517"><ele>164.71428571428572</ele><time>2026-04-28T07:30:57.64Z</time></trkpt><trkpt lat="44.15215" lon="12.1382817"><ele>166.14285714285714</ele><time>2026-04-28T07:31:01.64Z</time></trkpt><trkpt lat="44.1520867" lon="12.1382167"><ele>167.57142857142858</ele><time>2026-04-28T07:31:03.64Z</time></trkpt><trkpt lat="44.15201" lon="12.13818"><ele>169.0</ele><time>2026-04-28T07:31:05.64Z</time></trkpt><trkpt lat="44.1519267" lon="12.13812"><ele>169.0</ele><time>2026-04-28T07:31:08.641Z</time></trkpt><trkpt lat="44.1518733" lon="12.1380717"><ele>169.0</ele><time>2026-04-28T07:31:10.64Z</time></trkpt><trkpt lat="44.1517933" lon="12.138005"><ele>169.0</ele><time>2026-04-28T07:31:13.64Z</time></trkpt><trkpt lat="44.1517167" lon="12.1379317"><ele>169.0</ele><time>2026-04-28T07:31:16.641Z</time></trkpt><trkpt lat="44.151645" lon="12.1378633"><ele>169.0</ele><time>2026-04-28T07:31:19.64Z</time></trkpt><trkpt lat="44.1515667" lon="12.1378"><ele>169.0</ele><time>2026-04-28T07:31:22.641Z</time></trkpt><trkpt lat="44.1514817" lon="12.1377467"><ele>170.16666666666669</ele><time>2026-04-28T07:31:25.64Z</time></trkpt><trkpt lat="44.1514067" lon="12.1376967"><ele>171.33333333333334</ele><time>2026-04-28T07:31:28.64Z</time></trkpt><trkpt lat="44.1513567" lon="12.1376167"><ele>172.5</ele><time>2026-04-28T07:31:30.64Z</time></trkpt><trkpt lat="44.1512833" lon="12.137545"><ele>173.66666666666666</ele><time>2026-04-28T07:31:33.64Z</time></trkpt><trkpt lat="44.1512283" lon="12.1374617"><ele>174.83333333333331</ele><time>2026-04-28T07:31:36.641Z</time></trkpt><trkpt lat="44.1511883" lon="12.1373917"><ele>176.0</ele><time>2026-04-28T07:31:38.64Z</time></trkpt><trkpt lat="44.1511367" lon="12.13733"><ele>176.16666666666666</ele><time>2026-04-28T07:31:41.64Z</time></trkpt><trkpt lat="44.151075" lon="12.1372583"><ele>176.33333333333331</ele><time>2026-04-28T07:31:45.641Z</time></trkpt><trkpt lat="44.151025" lon="12.13719"><ele>176.5</ele><time>2026-04-28T07:31:49.64Z</time></trkpt><trkpt lat="44.1509833" lon="12.137105"><ele>176.66666666666666</ele><time>2026-04-28T07:31:52.641Z</time></trkpt><trkpt lat="44.1509283" lon="12.1370117"><ele>176.83333333333334</ele><time>2026-04-28T07:31:55.641Z</time></trkpt><trkpt lat="44.1508433" lon="12.1369717"><ele>177.0</ele><time>2026-04-28T07:31:57.641Z</time></trkpt><trkpt lat="44.1507817" lon="12.136945"><ele>177.66666666666666</ele><time>2026-04-28T07:31:59.641Z</time></trkpt><trkpt lat="44.150705" lon="12.1368833"><ele>178.33333333333334</ele><time>2026-04-28T07:32:02.641Z</time></trkpt><trkpt lat="44.15065" lon="12.13681"><ele>179.0</ele><time>2026-04-28T07:32:06.64Z</time></trkpt><trkpt lat="44.1505767" lon="12.136755"><ele>179.66666666666669</ele><time>2026-04-28T07:32:10.641Z</time></trkpt><trkpt lat="44.1505183" lon="12.136705"><ele>180.33333333333334</ele><time>2026-04-28T07:32:13.641Z</time></trkpt><trkpt lat="44.150455" lon="12.136655"><ele>181.0</ele><time>2026-04-28T07:32:16.641Z</time></trkpt><trkpt lat="44.15038" lon="12.1366383"><ele>181.0</ele><time>2026-04-28T07:32:20.64Z</time></trkpt><trkpt lat="44.1503133" lon="12.1366233"><ele>181.0</ele><time>2026-04-28T07:32:23.64Z</time></trkpt><trkpt lat="44.1502533" lon="12.1365333"><ele>181.0</ele><time>2026-04-28T07:32:26.641Z</time></trkpt><trkpt lat="44.1502117" lon="12.1364417"><ele>181.0</ele><time>2026-04-28T07:32:29.64Z</time></trkpt><trkpt lat="44.1501783" lon="12.1363583"><ele>181.0</ele><time>2026-04-28T07:32:31.641Z</time></trkpt><trkpt lat="44.150135" lon="12.136285"><ele>181.0</ele><time>2026-04-28T07:32:34.641Z</time></trkpt><trkpt lat="44.1500683" lon="12.1362583"><ele>181.0</ele><time>2026-04-28T07:32:37.641Z</time></trkpt><trkpt lat="44.15002" lon="12.136175"><ele>181.5</ele><time>2026-04-28T07:32:40.64Z</time></trkpt><trkpt lat="44.1499683" lon="12.1360833"><ele>182.0</ele><time>2026-04-28T07:32:43.641Z</time></trkpt><trkpt lat="44.1499283" lon="12.1360033"><ele>182.5</ele><time>2026-04-28T07:32:46.641Z</time></trkpt><trkpt lat="44.1498783" lon="12.1359167"><ele>183.0</ele><time>2026-04-28T07:32:49.641Z</time></trkpt><trkpt lat="44.14983" lon="12.13582"><ele>183.5</ele><time>2026-04-28T07:32:52.64Z</time></trkpt><trkpt lat="44.1498" lon="12.1357333"><ele>184.0</ele><time>2026-04-28T07:32:55.641Z</time></trkpt><trkpt lat="44.149735" lon="12.1356683"><ele>187.33333333333334</ele><time>2026-04-28T07:32:59.641Z</time></trkpt><trkpt lat="44.1496667" lon="12.135655"><ele>190.66666666666669</ele><time>2026-04-28T07:33:02.64Z</time></trkpt><trkpt lat="44.1495967" lon="12.135655"><ele>194.0</ele><time>2026-04-28T07:33:07.641Z</time></trkpt><trkpt lat="44.1495317" lon="12.1356417"><ele>197.33333333333334</ele><time>2026-04-28T07:33:11.641Z</time></trkpt><trkpt lat="44.149425" lon="12.1356533"><ele>200.66666666666666</ele><time>2026-04-28T07:33:17.64Z</time></trkpt><trkpt lat="44.1493533" lon="12.1356683"><ele>204.0</ele><time>2026-04-28T07:33:20.641Z</time></trkpt><trkpt lat="44.1492633" lon="12.1355983"><ele>204.0</ele><time>2026-04-28T07:33:27.64Z</time></trkpt><trkpt lat="44.1491917" lon="12.13542"><ele>204.0</ele><time>2026-04-28T07:33:38.64Z</time></trkpt><trkpt lat="44.1490767" lon="12.1353083"><ele>204.0</ele><time>2026-04-28T07:33:45.641Z</time></trkpt><trkpt lat="44.1489883" lon="12.1352783"><ele>204.0</ele><time>2026-04-28T07:33:47.64Z</time></trkpt><trkpt lat="44.1489083" lon="12.1352683"><ele>206.16666666666666</ele><time>2026-04-28T07:33:51.641Z</time></trkpt><trkpt lat="44.14882" lon="12.1352583"><ele>208.33333333333331</ele><time>2026-04-28T07:33:56.64Z</time></trkpt><trkpt lat="44.1487117" lon="12.1352767"><ele>210.5</ele><time>2026-04-28T07:34:01.64Z</time></trkpt><trkpt lat="44.148625" lon="12.135295"><ele>212.66666666666666</ele><time>2026-04-28T07:34:05.641Z</time></trkpt><trkpt lat="44.1485483" lon="12.1352933"><ele>214.83333333333331</ele><time>2026-04-28T07:34:09.641Z</time></trkpt><trkpt lat="44.14848" lon="12.135275"><ele>217.0</ele><time>2026-04-28T07:34:12.641Z</time></trkpt><trkpt lat="44.1484" lon="12.1352717"><ele>216.99999999999997</ele><time>2026-04-28T07:34:16.641Z</time></trkpt><trkpt lat="44.1483" lon="12.1353117"><ele>217.0</ele><time>2026-04-28T07:34:22.641Z</time></trkpt><trkpt lat="44.1482333" lon="12.1353183"><ele>217.0</ele><time>2026-04-28T07:34:25.64Z</time></trkpt><trkpt lat="44.14817" lon="12.1353383"><ele>217.0</ele><time>2026-04-28T07:34:28.641Z</time></trkpt><trkpt lat="44.1481" lon="12.1353133"><ele>216.99999999999997</ele><time>2026-04-28T07:34:32.641Z</time></trkpt><trkpt lat="44.14803" lon="12.1353033"><ele>217.0</ele><time>2026-04-28T07:34:38.641Z</time></trkpt><trkpt lat="44.147955" lon="12.13533"><ele>217.33333333333331</ele><time>2026-04-28T07:34:41.641Z</time></trkpt><trkpt lat="44.1478833" lon="12.1353567"><ele>217.66666666666666</ele><time>2026-04-28T07:34:45.64Z</time></trkpt><trkpt lat="44.1478183" lon="12.1353883"><ele>218.0</ele><time>2026-04-28T07:34:47.641Z</time></trkpt><trkpt lat="44.1476817" lon="12.135385"><ele>218.33333333333331</ele><time>2026-04-28T07:34:54.641Z</time></trkpt><trkpt lat="44.1476133" lon="12.13535"><ele>218.66666666666666</ele><time>2026-04-28T07:34:57.64Z</time></trkpt><trkpt lat="44.14754" lon="12.13535"><ele>219.0</ele><time>2026-04-28T07:35:01.641Z</time></trkpt><trkpt lat="44.1474733" lon="12.13538"><ele>219.75</ele><time>2026-04-28T07:35:05.641Z</time></trkpt><trkpt lat="44.1472967" lon="12.1352433"><ele>220.5</ele><time>2026-04-28T07:35:16.64Z</time></trkpt><trkpt lat="44.14717" lon="12.135225"><ele>221.25</ele><time>2026-04-28T07:35:25.64Z</time></trkpt><trkpt lat="44.147085" lon="12.135235"><ele>222.0</ele><time>2026-04-28T07:35:28.641Z</time></trkpt><trkpt lat="44.1470117" lon="12.1352333"><ele>222.0</ele><time>2026-04-28T07:35:30.64Z</time></trkpt><trkpt lat="44.14691" lon="12.1352583"><ele>222.0</ele><time>2026-04-28T07:35:36.64Z</time></trkpt><trkpt lat="44.1468417" lon="12.1352483"><ele>222.0</ele><time>2026-04-28T07:35:38.641Z</time></trkpt><trkpt lat="44.1467667" lon="12.135265"><ele>222.0</ele><time>2026-04-28T07:35:40.64Z</time></trkpt><trkpt lat="44.1466933" lon="12.1352717"><ele>222.0</ele><time>2026-04-28T07:35:43.641Z</time></trkpt><trkpt lat="44.1466017" lon="12.135255"><ele>222.0</ele><time>2026-04-28T07:35:47.641Z</time></trkpt><trkpt lat="44.14651" lon="12.13524"><ele>221.5</ele><time>2026-04-28T07:35:49.641Z</time></trkpt><trkpt lat="44.1464217" lon="12.1352167"><ele>221.0</ele><time>2026-04-28T07:35:51.64Z</time></trkpt><trkpt lat="44.1463133" lon="12.1352333"><ele>220.5</ele><time>2026-04-28T07:35:54.641Z</time></trkpt><trkpt lat="44.1462283" lon="12.1352467"><ele>220.0</ele><time>2026-04-28T07:35:56.641Z</time></trkpt><trkpt lat="44.1461617" lon="12.1352367"><ele>219.5</ele><time>2026-04-28T07:35:58.64Z</time></trkpt><trkpt lat="44.1460667" lon="12.1352567"><ele>219.0</ele><time>2026-04-28T07:36:00.64Z</time></trkpt><trkpt lat="44.1460083" lon="12.135345"><ele>219.0</ele><time>2026-04-28T07:36:02.641Z</time></trkpt><trkpt lat="44.14597" lon="12.135415"><ele>219.0</ele><time>2026-04-28T07:36:05.64Z</time></trkpt><trkpt lat="44.145925" lon="12.1355483"><ele>219.0</ele><time>2026-04-28T07:36:20.641Z</time></trkpt><trkpt lat="44.1459217" lon="12.1357033"><ele>219.0</ele><time>2026-04-28T07:36:48.641Z</time></trkpt><trkpt lat="44.1458533" lon="12.1357117"><ele>219.0</ele><time>2026-04-28T07:37:14.64Z</time></trkpt><trkpt lat="44.14578" lon="12.1357833"><ele>219.0</ele><time>2026-04-28T07:37:17.64Z</time></trkpt><trkpt lat="44.1457017" lon="12.1358883"><ele>223.0</ele><time>2026-04-28T07:37:20.64Z</time></trkpt><trkpt lat="44.1456533" lon="12.13599"><ele>226.99999999999997</ele><time>2026-04-28T07:37:23.641Z</time></trkpt><trkpt lat="44.1455983" lon="12.1361167"><ele>230.99999999999997</ele><time>2026-04-28T07:37:25.64Z</time></trkpt><trkpt lat="44.1455467" lon="12.1362617"><ele>235.0</ele><time>2026-04-28T07:37:27.64Z</time></trkpt><trkpt lat="44.1454983" lon="12.1364067"><ele>239.0</ele><time>2026-04-28T07:37:29.641Z</time></trkpt><trkpt lat="44.14545" lon="12.1365617"><ele>239.0</ele><time>2026-04-28T07:37:31.641Z</time></trkpt><trkpt lat="44.1454083" lon="12.1367083"><ele>238.99999999999997</ele><time>2026-04-28T07:37:33.641Z</time></trkpt><trkpt lat="44.1453833" lon="12.1368633"><ele>238.99999999999997</ele><time>2026-04-28T07:37:35.641Z</time></trkpt><trkpt lat="44.1453583" lon="12.1370283"><ele>239.0</ele><time>2026-04-28T07:37:37.641Z</time></trkpt><trkpt lat="44.1453483" lon="12.1371217"><ele>239.0</ele><time>2026-04-28T07:37:38.64Z</time></trkpt><trkpt lat="44.1453417" lon="12.13723"><ele>239.00000000000003</ele><time>2026-04-28T07:37:39.641Z</time></trkpt><trkpt lat="44.1452833" lon="12.1373483"><ele>239.0</ele><time>2026-04-28T07:37:41.641Z</time></trkpt><trkpt lat="44.1452483" lon="12.1374783"><ele>239.0</ele><time>2026-04-28T07:37:43.641Z</time></trkpt><trkpt lat="44.1452183" lon="12.137605"><ele>239.0</ele><time>2026-04-28T07:37:45.641Z</time></trkpt><trkpt lat="44.1451933" lon="12.1377083"><ele>239.00000000000003</ele><time>2026-04-28T07:37:47.641Z</time></trkpt><trkpt lat="44.1451683" lon="12.1378"><ele>239.0</ele><time>2026-04-28T07:37:49.641Z</time></trkpt><trkpt lat="44.1451133" lon="12.1378967"><ele>239.2</ele><time>2026-04-28T07:37:51.64Z</time></trkpt><trkpt lat="44.14507" lon="12.1380167"><ele>239.39999999999998</ele><time>2026-04-28T07:37:53.641Z</time></trkpt><trkpt lat="44.1450183" lon="12.1381083"><ele>239.6</ele><time>2026-04-28T07:37:55.64Z</time></trkpt><trkpt lat="44.1449633" lon="12.138205"><ele>239.8</ele><time>2026-04-28T07:37:57.641Z</time></trkpt><trkpt lat="44.1449" lon="12.13831"><ele>240.0</ele><time>2026-04-28T07:37:59.64Z</time></trkpt><trkpt lat="44.14484" lon="12.138415"><ele>240.0</ele><time>2026-04-28T07:38:01.64Z</time></trkpt><trkpt lat="44.144815" lon="12.1385017"><ele>240.0</ele><time>2026-04-28T07:38:02.641Z</time></trkpt><trkpt lat="44.1447867" lon="12.1386017"><ele>240.0</ele><time>2026-04-28T07:38:03.641Z</time></trkpt><trkpt lat="44.1447533" lon="12.1386983"><ele>240.0</ele><time>2026-04-28T07:38:04.64Z</time></trkpt><trkpt lat="44.144695" lon="12.1388267"><ele>240.0</ele><time>2026-04-28T07:38:06.641Z</time></trkpt><trkpt lat="44.1446333" lon="12.138955"><ele>240.0</ele><time>2026-04-28T07:38:08.641Z</time></trkpt><trkpt lat="44.1445767" lon="12.1390967"><ele>237.0</ele><time>2026-04-28T07:38:10.641Z</time></trkpt><trkpt lat="44.1445517" lon="12.1391783"><ele>234.0</ele><time>2026-04-28T07:38:11.641Z</time></trkpt><trkpt lat="44.1445033" lon="12.1392817"><ele>231.0</ele><time>2026-04-28T07:38:13.641Z</time></trkpt><trkpt lat="44.1444683" lon="12.1393983"><ele>228.0</ele><time>2026-04-28T07:38:15.641Z</time></trkpt><trkpt lat="44.1443867" lon="12.1395067"><ele>225.0</ele><time>2026-04-28T07:38:17.64Z</time></trkpt><trkpt lat="44.1443117" lon="12.1396183"><ele>225.0</ele><time>2026-04-28T07:38:19.64Z</time></trkpt><trkpt lat="44.14424" lon="12.1397133"><ele>225.0</ele><time>2026-04-28T07:38:21.64Z</time></trkpt><trkpt lat="44.1441617" lon="12.1398"><ele>225.0</ele><time>2026-04-28T07:38:23.641Z</time></trkpt><trkpt lat="44.1441017" lon="12.1399"><ele>225.0</ele><time>2026-04-28T07:38:25.64Z</time></trkpt><trkpt lat="44.14404" lon="12.14002"><ele>225.0</ele><time>2026-04-28T07:38:27.641Z</time></trkpt><trkpt lat="44.14398" lon="12.1401333"><ele>227.33333333333334</ele><time>2026-04-28T07:38:29.641Z</time></trkpt><trkpt lat="44.1439317" lon="12.1402333"><ele>229.66666666666669</ele><time>2026-04-28T07:38:31.641Z</time></trkpt><trkpt lat="44.1438883" lon="12.14034"><ele>232.0</ele><time>2026-04-28T07:38:33.64Z</time></trkpt><trkpt lat="44.143845" lon="12.1404467"><ele>234.33333333333334</ele><time>2026-04-28T07:38:35.641Z</time></trkpt><trkpt lat="44.1437733" lon="12.14053"><ele>236.66666666666669</ele><time>2026-04-28T07:38:37.641Z</time></trkpt><trkpt lat="44.1437033" lon="12.1406133"><ele>239.0</ele><time>2026-04-28T07:38:39.641Z</time></trkpt><trkpt lat="44.143655" lon="12.1406933"><ele>236.83333333333334</ele><time>2026-04-28T07:38:41.64Z</time></trkpt><trkpt lat="44.1436217" lon="12.1407867"><ele>234.66666666666669</ele><time>2026-04-28T07:38:43.64Z</time></trkpt><trkpt lat="44.143565" lon="12.1408717"><ele>232.5</ele><time>2026-04-28T07:38:45.64Z</time></trkpt><trkpt lat="44.14348" lon="12.1409667"><ele>230.33333333333331</ele><time>2026-04-28T07:38:47.641Z</time></trkpt><trkpt lat="44.1434383" lon="12.141035"><ele>228.16666666666666</ele><time>2026-04-28T07:38:48.64Z</time></trkpt><trkpt lat="44.1433833" lon="12.1411633"><ele>226.0</ele><time>2026-04-28T07:38:50.64Z</time></trkpt><trkpt lat="44.1433267" lon="12.1412933"><ele>226.0</ele><time>2026-04-28T07:38:52.64Z</time></trkpt><trkpt lat="44.1432533" lon="12.1413967"><ele>226.0</ele><time>2026-04-28T07:38:54.64Z</time></trkpt><trkpt lat="44.143175" lon="12.1415233"><ele>226.0</ele><time>2026-04-28T07:38:56.64Z</time></trkpt><trkpt lat="44.143115" lon="12.1416517"><ele>226.0</ele><time>2026-04-28T07:38:58.641Z</time></trkpt><trkpt lat="44.1430433" lon="12.14178"><ele>227.4</ele><time>2026-04-28T07:39:00.64Z</time></trkpt><trkpt lat="44.1429817" lon="12.141925"><ele>228.8</ele><time>2026-04-28T07:39:02.64Z</time></trkpt><trkpt lat="44.1429133" lon="12.1420567"><ele>230.20000000000002</ele><time>2026-04-28T07:39:04.641Z</time></trkpt><trkpt lat="44.1428383" lon="12.1421883"><ele>231.60000000000002</ele><time>2026-04-28T07:39:06.641Z</time></trkpt><trkpt lat="44.1427983" lon="12.14226"><ele>233.0</ele><time>2026-04-28T07:39:07.641Z</time></trkpt><trkpt lat="44.14276" lon="12.1423367"><ele>231.0</ele><time>2026-04-28T07:39:08.64Z</time></trkpt><trkpt lat="44.1427283" lon="12.1424133"><ele>229.0</ele><time>2026-04-28T07:39:09.641Z</time></trkpt><trkpt lat="44.1426633" lon="12.1425517"><ele>227.0</ele><time>2026-04-28T07:39:11.641Z</time></trkpt><trkpt lat="44.142605" lon="12.14268"><ele>225.0</ele><time>2026-04-28T07:39:13.64Z</time></trkpt><trkpt lat="44.14255" lon="12.142805"><ele>223.0</ele><time>2026-04-28T07:39:15.64Z</time></trkpt><trkpt lat="44.1424983" lon="12.1429133"><ele>223.0</ele><time>2026-04-28T07:39:17.641Z</time></trkpt><trkpt lat="44.1424433" lon="12.143025"><ele>223.0</ele><time>2026-04-28T07:39:19.641Z</time></trkpt><trkpt lat="44.142395" lon="12.1431383"><ele>223.0</ele><time>2026-04-28T07:39:21.64Z</time></trkpt><trkpt lat="44.1423567" lon="12.14326"><ele>223.0</ele><time>2026-04-28T07:39:23.64Z</time></trkpt><trkpt lat="44.1423167" lon="12.143365"><ele>223.0</ele><time>2026-04-28T07:39:25.64Z</time></trkpt><trkpt lat="44.1422667" lon="12.1434567"><ele>224.4</ele><time>2026-04-28T07:39:27.641Z</time></trkpt><trkpt lat="44.142215" lon="12.14356"><ele>225.8</ele><time>2026-04-28T07:39:29.64Z</time></trkpt><trkpt lat="44.1421417" lon="12.1436417"><ele>227.2</ele><time>2026-04-28T07:39:31.64Z</time></trkpt><trkpt lat="44.1420367" lon="12.1437067"><ele>228.6</ele><time>2026-04-28T07:39:33.641Z</time></trkpt><trkpt lat="44.1419467" lon="12.1437867"><ele>230.0</ele><time>2026-04-28T07:39:35.64Z</time></trkpt><trkpt lat="44.1418483" lon="12.1438467"><ele>230.0</ele><time>2026-04-28T07:39:37.64Z</time></trkpt><trkpt lat="44.1417433" lon="12.1439083"><ele>230.0</ele><time>2026-04-28T07:39:39.641Z</time></trkpt><trkpt lat="44.1416417" lon="12.143965"><ele>230.0</ele><time>2026-04-28T07:39:41.641Z</time></trkpt><trkpt lat="44.141545" lon="12.14403"><ele>230.0</ele><time>2026-04-28T07:39:43.641Z</time></trkpt><trkpt lat="44.14149" lon="12.1440833"><ele>230.0</ele><time>2026-04-28T07:39:44.641Z</time></trkpt><trkpt lat="44.1414333" lon="12.1441217"><ele>227.50000000000003</ele><time>2026-04-28T07:39:45.641Z</time></trkpt><trkpt lat="44.14137" lon="12.1441567"><ele>225.0</ele><time>2026-04-28T07:39:46.64Z</time></trkpt><trkpt lat="44.1413083" lon="12.1441983"><ele>222.5</ele><time>2026-04-28T07:39:47.64Z</time></trkpt><trkpt lat="44.1412533" lon="12.1442483"><ele>220.0</ele><time>2026-04-28T07:39:48.641Z</time></trkpt><trkpt lat="44.14119" lon="12.144295"><ele>217.50000000000003</ele><time>2026-04-28T07:39:49.64Z</time></trkpt><trkpt lat="44.1411333" lon="12.144335"><ele>215.0</ele><time>2026-04-28T07:39:50.641Z</time></trkpt><trkpt lat="44.1410267" lon="12.1443983"><ele>215.0</ele><time>2026-04-28T07:39:52.641Z</time></trkpt><trkpt lat="44.1409217" lon="12.1444667"><ele>215.0</ele><time>2026-04-28T07:39:54.641Z</time></trkpt><trkpt lat="44.1408217" lon="12.1445283"><ele>215.0</ele><time>2026-04-28T07:39:56.641Z</time></trkpt><trkpt lat="44.1407167" lon="12.1445867"><ele>215.0</ele><time>2026-04-28T07:39:58.64Z</time></trkpt><trkpt lat="44.140625" lon="12.1446433"><ele>215.0</ele><time>2026-04-28T07:40:00.64Z</time></trkpt><trkpt lat="44.140535" lon="12.1447067"><ele>215.00000000000003</ele><time>2026-04-28T07:40:02.641Z</time></trkpt><trkpt lat="44.1404467" lon="12.1447567"><ele>215.0</ele><time>2026-04-28T07:40:04.641Z</time></trkpt><trkpt lat="44.140365" lon="12.1448"><ele>215.0</ele><time>2026-04-28T07:40:06.64Z</time></trkpt><trkpt lat="44.1402967" lon="12.1448367"><ele>215.0</ele><time>2026-04-28T07:40:08.641Z</time></trkpt><trkpt lat="44.1402067" lon="12.1448867"><ele>215.00000000000003</ele><time>2026-04-28T07:40:10.641Z</time></trkpt><trkpt lat="44.1401233" lon="12.1449317"><ele>215.0</ele><time>2026-04-28T07:40:12.641Z</time></trkpt><trkpt lat="44.1400433" lon="12.144965"><ele>213.7142857142857</ele><time>2026-04-28T07:40:14.641Z</time></trkpt><trkpt lat="44.1399767" lon="12.144975"><ele>212.42857142857144</ele><time>2026-04-28T07:40:15.641Z</time></trkpt><trkpt lat="44.1399017" lon="12.144995"><ele>211.14285714285714</ele><time>2026-04-28T07:40:16.641Z</time></trkpt><trkpt lat="44.1398317" lon="12.1450183"><ele>209.85714285714283</ele><time>2026-04-28T07:40:17.64Z</time></trkpt><trkpt lat="44.139765" lon="12.1450333"><ele>208.57142857142856</ele><time>2026-04-28T07:40:18.64Z</time></trkpt><trkpt lat="44.1396983" lon="12.145045"><ele>207.28571428571428</ele><time>2026-04-28T07:40:19.641Z</time></trkpt><trkpt lat="44.1396017" lon="12.1450567"><ele>206.0</ele><time>2026-04-28T07:40:21.641Z</time></trkpt><trkpt lat="44.1394983" lon="12.1450817"><ele>206.0</ele><time>2026-04-28T07:40:23.641Z</time></trkpt><trkpt lat="44.1393817" lon="12.145105"><ele>206.0</ele><time>2026-04-28T07:40:25.641Z</time></trkpt><trkpt lat="44.1392683" lon="12.1450967"><ele>206.0</ele><time>2026-04-28T07:40:27.64Z</time></trkpt><trkpt lat="44.1391517" lon="12.1450967"><ele>206.0</ele><time>2026-04-28T07:40:29.641Z</time></trkpt><trkpt lat="44.1390433" lon="12.1451"><ele>206.4</ele><time>2026-04-28T07:40:31.64Z</time></trkpt><trkpt lat="44.1389367" lon="12.1451"><ele>206.8</ele><time>2026-04-28T07:40:33.64Z</time></trkpt><trkpt lat="44.13883" lon="12.1451017"><ele>207.20000000000002</ele><time>2026-04-28T07:40:35.641Z</time></trkpt><trkpt lat="44.1387283" lon="12.1451067"><ele>207.60000000000002</ele><time>2026-04-28T07:40:37.64Z</time></trkpt><trkpt lat="44.13862" lon="12.1451067"><ele>208.0</ele><time>2026-04-28T07:40:39.641Z</time></trkpt><trkpt lat="44.13851" lon="12.1451083"><ele>208.0</ele><time>2026-04-28T07:40:41.641Z</time></trkpt><trkpt lat="44.1384467" lon="12.14511"><ele>208.0</ele><time>2026-04-28T07:40:42.641Z</time></trkpt><trkpt lat="44.13833" lon="12.1451183"><ele>208.0</ele><time>2026-04-28T07:40:44.64Z</time></trkpt><trkpt lat="44.1382283" lon="12.145135"><ele>208.0</ele><time>2026-04-28T07:40:46.64Z</time></trkpt><trkpt lat="44.1381133" lon="12.1451467"><ele>208.0</ele><time>2026-04-28T07:40:48.64Z</time></trkpt><trkpt lat="44.1380117" lon="12.145175"><ele>208.2</ele><time>2026-04-28T07:40:50.641Z</time></trkpt><trkpt lat="44.1379133" lon="12.1452167"><ele>208.4</ele><time>2026-04-28T07:40:52.641Z</time></trkpt><trkpt lat="44.137795" lon="12.14528"><ele>208.6</ele><time>2026-04-28T07:40:54.64Z</time></trkpt><trkpt lat="44.1377333" lon="12.1453117"><ele>208.79999999999998</ele><time>2026-04-28T07:40:55.641Z</time></trkpt><trkpt lat="44.1376133" lon="12.1453717"><ele>209.0</ele><time>2026-04-28T07:40:57.641Z</time></trkpt><trkpt lat="44.1375433" lon="12.145395"><ele>209.00000000000003</ele><time>2026-04-28T07:40:58.641Z</time></trkpt><trkpt lat="44.137475" lon="12.1454217"><ele>209.0</ele><time>2026-04-28T07:40:59.64Z</time></trkpt><trkpt lat="44.1374017" lon="12.1454417"><ele>209.0</ele><time>2026-04-28T07:41:00.64Z</time></trkpt><trkpt lat="44.137325" lon="12.1454717"><ele>209.0</ele><time>2026-04-28T07:41:01.641Z</time></trkpt><trkpt lat="44.1372533" lon="12.1455033"><ele>209.00000000000003</ele><time>2026-04-28T07:41:02.641Z</time></trkpt><trkpt lat="44.1371833" lon="12.1455333"><ele>209.0</ele><time>2026-04-28T07:41:03.641Z</time></trkpt><trkpt lat="44.13711" lon="12.145565"><ele>207.33333333333334</ele><time>2026-04-28T07:41:04.641Z</time></trkpt><trkpt lat="44.1370383" lon="12.1456017"><ele>205.66666666666669</ele><time>2026-04-28T07:41:05.64Z</time></trkpt><trkpt lat="44.1369683" lon="12.14564"><ele>204.0</ele><time>2026-04-28T07:41:06.641Z</time></trkpt><trkpt lat="44.136895" lon="12.1456833"><ele>202.33333333333331</ele><time>2026-04-28T07:41:07.641Z</time></trkpt><trkpt lat="44.1368117" lon="12.1457383"><ele>200.66666666666666</ele><time>2026-04-28T07:41:08.64Z</time></trkpt><trkpt lat="44.1367317" lon="12.145795"><ele>199.0</ele><time>2026-04-28T07:41:09.64Z</time></trkpt><trkpt lat="44.1366467" lon="12.1458567"><ele>198.39999999999998</ele><time>2026-04-28T07:41:10.641Z</time></trkpt><trkpt lat="44.1365667" lon="12.145915"><ele>197.8</ele><time>2026-04-28T07:41:11.64Z</time></trkpt><trkpt lat="44.1364933" lon="12.14598"><ele>197.2</ele><time>2026-04-28T07:41:12.64Z</time></trkpt><trkpt lat="44.13642" lon="12.1460533"><ele>196.60000000000002</ele><time>2026-04-28T07:41:13.64Z</time></trkpt><trkpt lat="44.1363533" lon="12.146135"><ele>196.0</ele><time>2026-04-28T07:41:14.64Z</time></trkpt><trkpt lat="44.1362767" lon="12.1462333"><ele>195.83333333333331</ele><time>2026-04-28T07:41:15.641Z</time></trkpt><trkpt lat="44.1362017" lon="12.146325"><ele>195.66666666666666</ele><time>2026-04-28T07:41:16.64Z</time></trkpt><trkpt lat="44.1361417" lon="12.146415"><ele>195.5</ele><time>2026-04-28T07:41:17.641Z</time></trkpt><trkpt lat="44.13609" lon="12.1465033"><ele>195.33333333333331</ele><time>2026-04-28T07:41:18.641Z</time></trkpt><trkpt lat="44.136045" lon="12.14658"><ele>195.16666666666666</ele><time>2026-04-28T07:41:19.641Z</time></trkpt><trkpt lat="44.1360033" lon="12.14665"><ele>195.0</ele><time>2026-04-28T07:41:20.64Z</time></trkpt><trkpt lat="44.1359633" lon="12.1467233"><ele>194.6</ele><time>2026-04-28T07:41:21.641Z</time></trkpt><trkpt lat="44.1359" lon="12.146855"><ele>194.2</ele><time>2026-04-28T07:41:23.641Z</time></trkpt><trkpt lat="44.135815" lon="12.14696"><ele>193.8</ele><time>2026-04-28T07:41:25.64Z</time></trkpt><trkpt lat="44.1357233" lon="12.14705"><ele>193.4</ele><time>2026-04-28T07:41:27.64Z</time></trkpt><trkpt lat="44.1356367" lon="12.14714"><ele>193.0</ele><time>2026-04-28T07:41:29.641Z</time></trkpt><trkpt lat="44.13553" lon="12.1472183"><ele>192.99999999999997</ele><time>2026-04-28T07:41:31.64Z</time></trkpt><trkpt lat="44.13544" lon="12.1472983"><ele>193.0</ele><time>2026-04-28T07:41:33.641Z</time></trkpt><trkpt lat="44.135335" lon="12.14738"><ele>193.0</ele><time>2026-04-28T07:41:35.641Z</time></trkpt><trkpt lat="44.1352767" lon="12.1474233"><ele>193.0</ele><time>2026-04-28T07:41:36.641Z</time></trkpt><trkpt lat="44.1352167" lon="12.1474667"><ele>192.99999999999997</ele><time>2026-04-28T07:41:37.64Z</time></trkpt><trkpt lat="44.1351633" lon="12.1475133"><ele>193.0</ele><time>2026-04-28T07:41:38.641Z</time></trkpt><trkpt lat="44.1350567" lon="12.1475933"><ele>192.8</ele><time>2026-04-28T07:41:40.641Z</time></trkpt><trkpt lat="44.1349567" lon="12.147665"><ele>192.60000000000002</ele><time>2026-04-28T07:41:42.641Z</time></trkpt><trkpt lat="44.13487" lon="12.147725"><ele>192.39999999999998</ele><time>2026-04-28T07:41:44.64Z</time></trkpt><trkpt lat="44.1347733" lon="12.1477667"><ele>192.2</ele><time>2026-04-28T07:41:46.64Z</time></trkpt><trkpt lat="44.1346883" lon="12.1478067"><ele>192.0</ele><time>2026-04-28T07:41:48.64Z</time></trkpt><trkpt lat="44.1345967" lon="12.147845"><ele>192.0</ele><time>2026-04-28T07:41:50.641Z</time></trkpt><trkpt lat="44.1345067" lon="12.1478933"><ele>192.0</ele><time>2026-04-28T07:41:52.64Z</time></trkpt><trkpt lat="44.1344267" lon="12.1479533"><ele>192.0</ele><time>2026-04-28T07:41:54.64Z</time></trkpt><trkpt lat="44.13434" lon="12.1480217"><ele>192.0</ele><time>2026-04-28T07:41:56.64Z</time></trkpt><trkpt lat="44.1342517" lon="12.1481283"><ele>192.0</ele><time>2026-04-28T07:41:58.64Z</time></trkpt><trkpt lat="44.1341633" lon="12.1482567"><ele>192.5</ele><time>2026-04-28T07:42:00.641Z</time></trkpt><trkpt lat="44.1341117" lon="12.1483217"><ele>193.0</ele><time>2026-04-28T07:42:01.64Z</time></trkpt><trkpt lat="44.1340567" lon="12.14839"><ele>193.5</ele><time>2026-04-28T07:42:02.64Z</time></trkpt><trkpt lat="44.1339967" lon="12.1484733"><ele>194.0</ele><time>2026-04-28T07:42:03.64Z</time></trkpt><trkpt lat="44.1339433" lon="12.1485617"><ele>194.5</ele><time>2026-04-28T07:42:04.641Z</time></trkpt><trkpt lat="44.1338817" lon="12.1486483"><ele>195.0</ele><time>2026-04-28T07:42:05.641Z</time></trkpt><trkpt lat="44.1338217" lon="12.148725"><ele>194.33333333333334</ele><time>2026-04-28T07:42:06.641Z</time></trkpt><trkpt lat="44.1337683" lon="12.148805"><ele>193.66666666666666</ele><time>2026-04-28T07:42:07.64Z</time></trkpt><trkpt lat="44.1337167" lon="12.148885"><ele>193.0</ele><time>2026-04-28T07:42:08.641Z</time></trkpt><trkpt lat="44.1336617" lon="12.1489617"><ele>192.33333333333331</ele><time>2026-04-28T07:42:09.64Z</time></trkpt><trkpt lat="44.1336117" lon="12.14904"><ele>191.66666666666666</ele><time>2026-04-28T07:42:10.641Z</time></trkpt><trkpt lat="44.13356" lon="12.14912"><ele>191.0</ele><time>2026-04-28T07:42:11.64Z</time></trkpt><trkpt lat="44.1335117" lon="12.1491917"><ele>191.0</ele><time>2026-04-28T07:42:12.64Z</time></trkpt><trkpt lat="44.1334617" lon="12.14926"><ele>191.0</ele><time>2026-04-28T07:42:13.64Z</time></trkpt><trkpt lat="44.13341" lon="12.149325"><ele>191.0</ele><time>2026-04-28T07:42:14.64Z</time></trkpt><trkpt lat="44.1333617" lon="12.1493933"><ele>191.0</ele><time>2026-04-28T07:42:15.64Z</time></trkpt><trkpt lat="44.1333133" lon="12.1494583"><ele>191.0</ele><time>2026-04-28T07:42:16.641Z</time></trkpt><trkpt lat="44.1332617" lon="12.149525"><ele>191.0</ele><time>2026-04-28T07:42:17.64Z</time></trkpt><trkpt lat="44.133215" lon="12.14959"><ele>191.0</ele><time>2026-04-28T07:42:18.64Z</time></trkpt><trkpt lat="44.133145" lon="12.1497183"><ele>191.4</ele><time>2026-04-28T07:42:20.64Z</time></trkpt><trkpt lat="44.1330933" lon="12.1498383"><ele>191.8</ele><time>2026-04-28T07:42:22.641Z</time></trkpt><trkpt lat="44.13304" lon="12.1499483"><ele>192.20000000000002</ele><time>2026-04-28T07:42:24.641Z</time></trkpt><trkpt lat="44.133" lon="12.1500517"><ele>192.60000000000002</ele><time>2026-04-28T07:42:26.641Z</time></trkpt><trkpt lat="44.13295" lon="12.1501567"><ele>193.0</ele><time>2026-04-28T07:42:28.641Z</time></trkpt><trkpt lat="44.132905" lon="12.1502533"><ele>193.99999999999997</ele><time>2026-04-28T07:42:30.64Z</time></trkpt><trkpt lat="44.13287" lon="12.1503517"><ele>195.0</ele><time>2026-04-28T07:42:32.641Z</time></trkpt><trkpt lat="44.1328033" lon="12.1504283"><ele>196.0</ele><time>2026-04-28T07:42:35.641Z</time></trkpt><trkpt lat="44.1327383" lon="12.1504417"><ele>197.0</ele><time>2026-04-28T07:42:38.641Z</time></trkpt><trkpt lat="44.13266" lon="12.1504367"><ele>197.99999999999997</ele><time>2026-04-28T07:42:42.641Z</time></trkpt><trkpt lat="44.1325733" lon="12.150425"><ele>199.0</ele><time>2026-04-28T07:42:47.64Z</time></trkpt><trkpt lat="44.1324933" lon="12.1504017"><ele>198.99999999999997</ele><time>2026-04-28T07:42:50.64Z</time></trkpt><trkpt lat="44.132425" lon="12.1503583"><ele>199.0</ele><time>2026-04-28T07:42:54.641Z</time></trkpt><trkpt lat="44.1323617" lon="12.1503383"><ele>199.0</ele><time>2026-04-28T07:42:57.641Z</time></trkpt><trkpt lat="44.132285" lon="12.15032"><ele>199.0</ele><time>2026-04-28T07:43:00.641Z</time></trkpt><trkpt lat="44.1322283" lon="12.1502683"><ele>199.0</ele><time>2026-04-28T07:43:03.64Z</time></trkpt><trkpt lat="44.1321667" lon="12.150215"><ele>198.99999999999997</ele><time>2026-04-28T07:43:06.64Z</time></trkpt><trkpt lat="44.1321033" lon="12.1501567"><ele>199.0</ele><time>2026-04-28T07:43:09.64Z</time></trkpt><trkpt lat="44.1320433" lon="12.1500833"><ele>200.33333333333331</ele><time>2026-04-28T07:43:12.641Z</time></trkpt><trkpt lat="44.1319767" lon="12.1499967"><ele>201.66666666666666</ele><time>2026-04-28T07:43:15.64Z</time></trkpt><trkpt lat="44.1319183" lon="12.14992"><ele>203.0</ele><time>2026-04-28T07:43:18.641Z</time></trkpt><trkpt lat="44.13186" lon="12.1498167"><ele>204.33333333333331</ele><time>2026-04-28T07:43:21.641Z</time></trkpt><trkpt lat="44.131795" lon="12.149725"><ele>205.66666666666666</ele><time>2026-04-28T07:43:24.641Z</time></trkpt><trkpt lat="44.1317333" lon="12.1496483"><ele>207.0</ele><time>2026-04-28T07:43:27.64Z</time></trkpt><trkpt lat="44.1316767" lon="12.1495883"><ele>207.0</ele><time>2026-04-28T07:43:30.641Z</time></trkpt><trkpt lat="44.131615" lon="12.1495383"><ele>207.0</ele><time>2026-04-28T07:43:33.64Z</time></trkpt><trkpt lat="44.131555" lon="12.1494667"><ele>207.0</ele><time>2026-04-28T07:43:37.64Z</time></trkpt><trkpt lat="44.1315033" lon="12.149395"><ele>207.0</ele><time>2026-04-28T07:43:42.64Z</time></trkpt><trkpt lat="44.13144" lon="12.1493667"><ele>207.0</ele><time>2026-04-28T07:43:45.641Z</time></trkpt><trkpt lat="44.13136" lon="12.1493017"><ele>207.0</ele><time>2026-04-28T07:43:48.64Z</time></trkpt><trkpt lat="44.1312983" lon="12.1492583"><ele>207.00000000000003</ele><time>2026-04-28T07:43:50.641Z</time></trkpt><trkpt lat="44.1312383" lon="12.1492117"><ele>207.0</ele><time>2026-04-28T07:43:52.641Z</time></trkpt><trkpt lat="44.13118" lon="12.149165"><ele>207.0</ele><time>2026-04-28T07:43:54.641Z</time></trkpt><trkpt lat="44.1311183" lon="12.1491117"><ele>207.0</ele><time>2026-04-28T07:43:56.64Z</time></trkpt><trkpt lat="44.1310533" lon="12.14907"><ele>207.0</ele><time>2026-04-28T07:43:58.64Z</time></trkpt><trkpt lat="44.1309833" lon="12.149015"><ele>207.00000000000003</ele><time>2026-04-28T07:44:00.64Z</time></trkpt><trkpt lat="44.13091" lon="12.14896"><ele>207.0</ele><time>2026-04-28T07:44:02.641Z</time></trkpt><trkpt lat="44.1308317" lon="12.1488983"><ele>207.16666666666666</ele><time>2026-04-28T07:44:04.641Z</time></trkpt><trkpt lat="44.13075" lon="12.1488283"><ele>207.33333333333331</ele><time>2026-04-28T07:44:06.64Z</time></trkpt><trkpt lat="44.1306783" lon="12.1487767"><ele>207.5</ele><time>2026-04-28T07:44:08.64Z</time></trkpt><trkpt lat="44.1305967" lon="12.1487167"><ele>207.66666666666666</ele><time>2026-04-28T07:44:10.641Z</time></trkpt><trkpt lat="44.13052" lon="12.1486533"><ele>207.83333333333331</ele><time>2026-04-28T07:44:12.641Z</time></trkpt><trkpt lat="44.130455" lon="12.14861"><ele>208.0</ele><time>2026-04-28T07:44:14.64Z</time></trkpt><trkpt lat="44.1303833" lon="12.14856"><ele>208.0</ele><time>2026-04-28T07:44:16.64Z</time></trkpt><trkpt lat="44.1303183" lon="12.1485167"><ele>208.0</ele><time>2026-04-28T07:44:18.64Z</time></trkpt><trkpt lat="44.130255" lon="12.1484667"><ele>208.0</ele><time>2026-04-28T07:44:20.641Z</time></trkpt><trkpt lat="44.1302" lon="12.1484233"><ele>208.0</ele><time>2026-04-28T07:44:22.64Z</time></trkpt><trkpt lat="44.13013" lon="12.14838"><ele>208.0</ele><time>2026-04-28T07:44:24.641Z</time></trkpt><trkpt lat="44.1300633" lon="12.1483333"><ele>208.0</ele><time>2026-04-28T07:44:26.641Z</time></trkpt><trkpt lat="44.1299983" lon="12.148285"><ele>208.0</ele><time>2026-04-28T07:44:28.641Z</time></trkpt><trkpt lat="44.1299333" lon="12.1482417"><ele>207.85714285714286</ele><time>2026-04-28T07:44:30.641Z</time></trkpt><trkpt lat="44.1298767" lon="12.1482017"><ele>207.71428571428572</ele><time>2026-04-28T07:44:32.641Z</time></trkpt><trkpt lat="44.1297967" lon="12.1481433"><ele>207.57142857142858</ele><time>2026-04-28T07:44:35.64Z</time></trkpt><trkpt lat="44.129725" lon="12.1480867"><ele>207.42857142857144</ele><time>2026-04-28T07:44:38.641Z</time></trkpt><trkpt lat="44.1296583" lon="12.14805"><ele>207.28571428571428</ele><time>2026-04-28T07:44:41.64Z</time></trkpt><trkpt lat="44.129595" lon="12.148015"><ele>207.14285714285717</ele><time>2026-04-28T07:44:44.64Z</time></trkpt><trkpt lat="44.12954" lon="12.147965"><ele>207.0</ele><time>2026-04-28T07:44:46.64Z</time></trkpt><trkpt lat="44.12948" lon="12.1479167"><ele>207.0</ele><time>2026-04-28T07:44:48.641Z</time></trkpt><trkpt lat="44.1294233" lon="12.1478767"><ele>207.0</ele><time>2026-04-28T07:44:50.641Z</time></trkpt><trkpt lat="44.1293467" lon="12.147795"><ele>207.0</ele><time>2026-04-28T07:44:53.641Z</time></trkpt><trkpt lat="44.1292817" lon="12.1477383"><ele>207.0</ele><time>2026-04-28T07:44:55.641Z</time></trkpt><trkpt lat="44.12922" lon="12.1476933"><ele>207.0</ele><time>2026-04-28T07:44:57.64Z</time></trkpt><trkpt lat="44.1291517" lon="12.1476167"><ele>207.0</ele><time>2026-04-28T07:44:59.641Z</time></trkpt><trkpt lat="44.1290883" lon="12.1475433"><ele>206.66666666666666</ele><time>2026-04-28T07:45:01.64Z</time></trkpt><trkpt lat="44.12901" lon="12.1474717"><ele>206.33333333333331</ele><time>2026-04-28T07:45:03.64Z</time></trkpt><trkpt lat="44.12893" lon="12.1474067"><ele>206.0</ele><time>2026-04-28T07:45:05.641Z</time></trkpt><trkpt lat="44.12885" lon="12.1473417"><ele>205.66666666666666</ele><time>2026-04-28T07:45:07.64Z</time></trkpt><trkpt lat="44.1287817" lon="12.1472717"><ele>205.33333333333331</ele><time>2026-04-28T07:45:09.641Z</time></trkpt><trkpt lat="44.128715" lon="12.1472083"><ele>205.0</ele><time>2026-04-28T07:45:11.641Z</time></trkpt><trkpt lat="44.128645" lon="12.14715"><ele>206.14285714285714</ele><time>2026-04-28T07:45:13.641Z</time></trkpt><trkpt lat="44.128575" lon="12.1470917"><ele>207.28571428571428</ele><time>2026-04-28T07:45:15.64Z</time></trkpt><trkpt lat="44.1285083" lon="12.1470367"><ele>208.42857142857142</ele><time>2026-04-28T07:45:17.64Z</time></trkpt><trkpt lat="44.1284517" lon="12.1469933"><ele>209.57142857142856</ele><time>2026-04-28T07:45:19.641Z</time></trkpt><trkpt lat="44.1283933" lon="12.1469567"><ele>210.71428571428572</ele><time>2026-04-28T07:45:21.64Z</time></trkpt><trkpt lat="44.12833" lon="12.14692"><ele>211.85714285714283</ele><time>2026-04-28T07:45:24.641Z</time></trkpt><trkpt lat="44.12827" lon="12.1468933"><ele>213.0</ele><time>2026-04-28T07:45:27.64Z</time></trkpt><trkpt lat="44.1281967" lon="12.1468833"><ele>215.0</ele><time>2026-04-28T07:45:32.641Z</time></trkpt><trkpt lat="44.1281317" lon="12.14691"><ele>217.0</ele><time>2026-04-28T07:45:36.641Z</time></trkpt><trkpt lat="44.1280533" lon="12.146945"><ele>219.0</ele><time>2026-04-28T07:45:42.64Z</time></trkpt><trkpt lat="44.12799" lon="12.1469117"><ele>221.0</ele><time>2026-04-28T07:45:46.64Z</time></trkpt><trkpt lat="44.12792" lon="12.1468933"><ele>223.00000000000003</ele><time>2026-04-28T07:45:51.64Z</time></trkpt><trkpt lat="44.1278483" lon="12.14689"><ele>225.0</ele><time>2026-04-28T07:45:56.64Z</time></trkpt><trkpt lat="44.1277817" lon="12.1469067"><ele>227.0</ele><time>2026-04-28T07:46:01.641Z</time></trkpt><trkpt lat="44.1277083" lon="12.1468683"><ele>227.0</ele><time>2026-04-28T07:46:05.64Z</time></trkpt><trkpt lat="44.1276383" lon="12.1468283"><ele>227.0</ele><time>2026-04-28T07:46:09.641Z</time></trkpt><trkpt lat="44.1274733" lon="12.1467583"><ele>227.0</ele><time>2026-04-28T07:46:22.641Z</time></trkpt><trkpt lat="44.1274" lon="12.146745"><ele>227.0</ele><time>2026-04-28T07:46:25.64Z</time></trkpt><trkpt lat="44.12733" lon="12.1467267"><ele>227.0</ele><time>2026-04-28T07:46:29.64Z</time></trkpt><trkpt lat="44.1272283" lon="12.1466833"><ele>226.8</ele><time>2026-04-28T07:46:36.641Z</time></trkpt><trkpt lat="44.1271183" lon="12.1466583"><ele>226.6</ele><time>2026-04-28T07:46:44.64Z</time></trkpt><trkpt lat="44.1270483" lon="12.1466483"><ele>226.40000000000003</ele><time>2026-04-28T07:46:48.641Z</time></trkpt><trkpt lat="44.1269883" lon="12.1466183"><ele>226.20000000000002</ele><time>2026-04-28T07:46:51.641Z</time></trkpt><trkpt lat="44.1268167" lon="12.1465317"><ele>226.0</ele><time>2026-04-28T07:47:08.641Z</time></trkpt><trkpt lat="44.1267533" lon="12.1465117"><ele>225.99999999999997</ele><time>2026-04-28T07:47:13.641Z</time></trkpt><trkpt lat="44.126655" lon="12.1465267"><ele>226.0</ele><time>2026-04-28T07:47:22.141Z</time></trkpt><trkpt lat="44.1265583" lon="12.1465517"><ele>226.0</ele><time>2026-04-28T07:47:24.641Z</time></trkpt><trkpt lat="44.1264867" lon="12.1465417"><ele>226.0</ele><time>2026-04-28T07:47:28.641Z</time></trkpt><trkpt lat="44.1264233" lon="12.1465517"><ele>225.99999999999997</ele><time>2026-04-28T07:47:33.642Z</time></trkpt><trkpt lat="44.1263617" lon="12.1465833"><ele>226.0</ele><time>2026-04-28T07:47:37.641Z</time></trkpt><trkpt lat="44.126295" lon="12.1466417"><ele>226.85714285714286</ele><time>2026-04-28T07:47:41.642Z</time></trkpt><trkpt lat="44.1262333" lon="12.1466633"><ele>227.71428571428572</ele><time>2026-04-28T07:47:44.642Z</time></trkpt><trkpt lat="44.1261617" lon="12.1467217"><ele>228.57142857142858</ele><time>2026-04-28T07:47:48.642Z</time></trkpt><trkpt lat="44.1260967" lon="12.1467683"><ele>229.42857142857144</ele><time>2026-04-28T07:47:51.642Z</time></trkpt><trkpt lat="44.1260417" lon="12.1468183"><ele>230.28571428571428</ele><time>2026-04-28T07:47:54.641Z</time></trkpt><trkpt lat="44.1259817" lon="12.1469"><ele>231.14285714285717</ele><time>2026-04-28T07:47:57.641Z</time></trkpt><trkpt lat="44.1259233" lon="12.146975"><ele>232.00000000000003</ele><time>2026-04-28T07:48:00.642Z</time></trkpt><trkpt lat="44.1258783" lon="12.147055"><ele>231.99999999999997</ele><time>2026-04-28T07:48:03.642Z</time></trkpt><trkpt lat="44.1258117" lon="12.14715"><ele>232.0</ele><time>2026-04-28T07:48:06.642Z</time></trkpt><trkpt lat="44.1257683" lon="12.1472167"><ele>232.0</ele><time>2026-04-28T07:48:08.641Z</time></trkpt><trkpt lat="44.1257083" lon="12.14731"><ele>232.0</ele><time>2026-04-28T07:48:11.641Z</time></trkpt><trkpt lat="44.1256683" lon="12.14739"><ele>231.99999999999997</ele><time>2026-04-28T07:48:14.641Z</time></trkpt><trkpt lat="44.1256117" lon="12.1474567"><ele>232.0</ele><time>2026-04-28T07:48:17.642Z</time></trkpt><trkpt lat="44.1255533" lon="12.1475267"><ele>234.66666666666666</ele><time>2026-04-28T07:48:20.642Z</time></trkpt><trkpt lat="44.125495" lon="12.147585"><ele>237.33333333333331</ele><time>2026-04-28T07:48:23.641Z</time></trkpt><trkpt lat="44.1254333" lon="12.1476617"><ele>240.0</ele><time>2026-04-28T07:48:26.641Z</time></trkpt><trkpt lat="44.125375" lon="12.1477317"><ele>242.66666666666669</ele><time>2026-04-28T07:48:29.641Z</time></trkpt><trkpt lat="44.12531" lon="12.1478"><ele>245.33333333333334</ele><time>2026-04-28T07:48:32.641Z</time></trkpt><trkpt lat="44.1252483" lon="12.1478633"><ele>248.0</ele><time>2026-04-28T07:48:35.642Z</time></trkpt><trkpt lat="44.1251933" lon="12.1479133"><ele>248.00000000000003</ele><time>2026-04-28T07:48:38.642Z</time></trkpt><trkpt lat="44.125135" lon="12.1479867"><ele>248.0</ele><time>2026-04-28T07:48:42.641Z</time></trkpt><trkpt lat="44.1250767" lon="12.1480433"><ele>248.0</ele><time>2026-04-28T07:48:47.642Z</time></trkpt><trkpt lat="44.1250317" lon="12.1481117"><ele>248.0</ele><time>2026-04-28T07:48:54.641Z</time></trkpt><trkpt lat="44.124965" lon="12.14815"><ele>248.00000000000003</ele><time>2026-04-28T07:49:00.641Z</time></trkpt><trkpt lat="44.1248983" lon="12.148155"><ele>248.0</ele><time>2026-04-28T07:49:10.642Z</time></trkpt><trkpt lat="44.124765" lon="12.148175"><ele>247.66666666666669</ele><time>2026-04-28T07:49:19.642Z</time></trkpt><trkpt lat="44.1247" lon="12.14818"><ele>247.33333333333334</ele><time>2026-04-28T07:49:23.642Z</time></trkpt><trkpt lat="44.12463" lon="12.148185"><ele>247.0</ele><time>2026-04-28T07:49:40.642Z</time></trkpt><trkpt lat="44.12453" lon="12.1482117"><ele>246.66666666666669</ele><time>2026-04-28T07:50:20.642Z</time></trkpt><trkpt lat="44.1245983" lon="12.1482017"><ele>246.33333333333334</ele><time>2026-04-28T07:50:52.641Z</time></trkpt><trkpt lat="44.1245267" lon="12.1481633"><ele>246.0</ele><time>2026-04-28T07:51:13.642Z</time></trkpt><trkpt lat="44.1244567" lon="12.148165"><ele>248.4</ele><time>2026-04-28T07:51:20.641Z</time></trkpt><trkpt lat="44.1243467" lon="12.1481783"><ele>250.8</ele><time>2026-04-28T07:51:26.641Z</time></trkpt><trkpt lat="44.1242517" lon="12.1481583"><ele>253.20000000000002</ele><time>2026-04-28T07:51:29.642Z</time></trkpt><trkpt lat="44.124165" lon="12.1481617"><ele>255.60000000000002</ele><time>2026-04-28T07:51:32.642Z</time></trkpt><trkpt lat="44.124095" lon="12.1481483"><ele>258.0</ele><time>2026-04-28T07:51:35.641Z</time></trkpt><trkpt lat="44.1240083" lon="12.1481467"><ele>257.99999999999994</ele><time>2026-04-28T07:51:38.642Z</time></trkpt><trkpt lat="44.123935" lon="12.1481567"><ele>258.0</ele><time>2026-04-28T07:51:41.642Z</time></trkpt><trkpt lat="44.1238667" lon="12.148135"><ele>258.0</ele><time>2026-04-28T07:51:44.642Z</time></trkpt><trkpt lat="44.1238" lon="12.148115"><ele>258.0</ele><time>2026-04-28T07:51:48.641Z</time></trkpt><trkpt lat="44.123735" lon="12.1481167"><ele>258.0</ele><time>2026-04-28T07:51:51.641Z</time></trkpt><trkpt lat="44.12366" lon="12.148105"><ele>257.99999999999994</ele><time>2026-04-28T07:51:54.641Z</time></trkpt><trkpt lat="44.12359" lon="12.1480917"><ele>258.0</ele><time>2026-04-28T07:51:58.641Z</time></trkpt><trkpt lat="44.1235283" lon="12.14804"><ele>257.99999999999994</ele><time>2026-04-28T07:52:01.642Z</time></trkpt><trkpt lat="44.1234683" lon="12.1479983"><ele>258.0</ele><time>2026-04-28T07:52:03.641Z</time></trkpt><trkpt lat="44.1233933" lon="12.1479417"><ele>258.0</ele><time>2026-04-28T07:52:06.642Z</time></trkpt><trkpt lat="44.1233333" lon="12.147885"><ele>258.0</ele><time>2026-04-28T07:52:08.641Z</time></trkpt><trkpt lat="44.1232783" lon="12.1478033"><ele>258.0</ele><time>2026-04-28T07:52:12.642Z</time></trkpt><trkpt lat="44.1232333" lon="12.1477233"><ele>257.99999999999994</ele><time>2026-04-28T07:52:16.641Z</time></trkpt><trkpt lat="44.1232133" lon="12.1476383"><ele>258.0</ele><time>2026-04-28T07:52:20.642Z</time></trkpt><trkpt lat="44.1231933" lon="12.1475383"><ele>256.4285714285714</ele><time>2026-04-28T07:52:25.641Z</time></trkpt><trkpt lat="44.1231733" lon="12.1474433"><ele>254.85714285714283</ele><time>2026-04-28T07:52:30.642Z</time></trkpt><trkpt lat="44.123155" lon="12.1473567"><ele>253.28571428571428</ele><time>2026-04-28T07:52:34.642Z</time></trkpt><trkpt lat="44.123135" lon="12.1472667"><ele>251.7142857142857</ele><time>2026-04-28T07:52:38.642Z</time></trkpt><trkpt lat="44.1231117" lon="12.1471717"><ele>250.1428571428571</ele><time>2026-04-28T07:52:42.641Z</time></trkpt><trkpt lat="44.1230967" lon="12.1470617"><ele>248.57142857142858</ele><time>2026-04-28T07:52:46.641Z</time></trkpt><trkpt lat="44.1230783" lon="12.146945"><ele>247.0</ele><time>2026-04-28T07:52:50.641Z</time></trkpt><trkpt lat="44.123055" lon="12.14682"><ele>246.99999999999997</ele><time>2026-04-28T07:52:53.642Z</time></trkpt><trkpt lat="44.1230467" lon="12.1467317"><ele>247.0</ele><time>2026-04-28T07:52:55.642Z</time></trkpt><trkpt lat="44.1230283" lon="12.1466083"><ele>247.0</ele><time>2026-04-28T07:52:58.641Z</time></trkpt><trkpt lat="44.123005" lon="12.1464933"><ele>247.0</ele><time>2026-04-28T07:53:01.641Z</time></trkpt><trkpt lat="44.122985" lon="12.1463867"><ele>246.99999999999997</ele><time>2026-04-28T07:53:03.641Z</time></trkpt><trkpt lat="44.1229517" lon="12.146285"><ele>247.0</ele><time>2026-04-28T07:53:05.642Z</time></trkpt><trkpt lat="44.1229067" lon="12.1461733"><ele>248.0</ele><time>2026-04-28T07:53:07.641Z</time></trkpt><trkpt lat="44.1228483" lon="12.14603"><ele>249.0</ele><time>2026-04-28T07:53:09.642Z</time></trkpt><trkpt lat="44.1227683" lon="12.1459"><ele>250.0</ele><time>2026-04-28T07:53:11.642Z</time></trkpt><trkpt lat="44.1227217" lon="12.145825"><ele>251.0</ele><time>2026-04-28T07:53:12.642Z</time></trkpt><trkpt lat="44.1226667" lon="12.1457467"><ele>252.0</ele><time>2026-04-28T07:53:13.642Z</time></trkpt><trkpt lat="44.1226083" lon="12.1456733"><ele>252.0</ele><time>2026-04-28T07:53:14.641Z</time></trkpt><trkpt lat="44.122545" lon="12.1455967"><ele>252.0</ele><time>2026-04-28T07:53:15.642Z</time></trkpt><trkpt lat="44.1224817" lon="12.1455117"><ele>252.0</ele><time>2026-04-28T07:53:16.642Z</time></trkpt><trkpt lat="44.12241" lon="12.1454233"><ele>252.0</ele><time>2026-04-28T07:53:17.641Z</time></trkpt><trkpt lat="44.1223383" lon="12.1453333"><ele>252.0</ele><time>2026-04-28T07:53:18.642Z</time></trkpt><trkpt lat="44.122255" lon="12.1452533"><ele>251.2</ele><time>2026-04-28T07:53:19.641Z</time></trkpt><trkpt lat="44.1221617" lon="12.1451867"><ele>250.39999999999998</ele><time>2026-04-28T07:53:20.641Z</time></trkpt><trkpt lat="44.1220633" lon="12.1451317"><ele>249.60000000000002</ele><time>2026-04-28T07:53:21.642Z</time></trkpt><trkpt lat="44.1219717" lon="12.1450817"><ele>248.8</ele><time>2026-04-28T07:53:22.642Z</time></trkpt><trkpt lat="44.121875" lon="12.1450417"><ele>248.0</ele><time>2026-04-28T07:53:23.642Z</time></trkpt><trkpt lat="44.1217717" lon="12.1450117"><ele>248.0</ele><time>2026-04-28T07:53:24.642Z</time></trkpt><trkpt lat="44.121665" lon="12.145015"><ele>248.0</ele><time>2026-04-28T07:53:25.642Z</time></trkpt><trkpt lat="44.12154" lon="12.1450383"><ele>248.0</ele><time>2026-04-28T07:53:26.642Z</time></trkpt><trkpt lat="44.1214233" lon="12.145095"><ele>248.0</ele><time>2026-04-28T07:53:27.642Z</time></trkpt><trkpt lat="44.1213283" lon="12.145185"><ele>245.75</ele><time>2026-04-28T07:53:28.642Z</time></trkpt><trkpt lat="44.1212433" lon="12.14529"><ele>243.5</ele><time>2026-04-28T07:53:29.642Z</time></trkpt><trkpt lat="44.1211617" lon="12.1454"><ele>241.25</ele><time>2026-04-28T07:53:30.642Z</time></trkpt><trkpt lat="44.12107" lon="12.145505"><ele>239.0</ele><time>2026-04-28T07:53:31.641Z</time></trkpt><trkpt lat="44.1209733" lon="12.1456017"><ele>239.0</ele><time>2026-04-28T07:53:32.641Z</time></trkpt><trkpt lat="44.12087" lon="12.14569"><ele>239.0</ele><time>2026-04-28T07:53:33.641Z</time></trkpt><trkpt lat="44.12077" lon="12.1457667"><ele>239.0</ele><time>2026-04-28T07:53:34.642Z</time></trkpt><trkpt lat="44.1206683" lon="12.1458367"><ele>239.0</ele><time>2026-04-28T07:53:35.642Z</time></trkpt><trkpt lat="44.120565" lon="12.1458883"><ele>239.6</ele><time>2026-04-28T07:53:36.641Z</time></trkpt><trkpt lat="44.1204717" lon="12.14593"><ele>240.2</ele><time>2026-04-28T07:53:37.642Z</time></trkpt><trkpt lat="44.120375" lon="12.14595"><ele>240.79999999999998</ele><time>2026-04-28T07:53:38.641Z</time></trkpt><trkpt lat="44.1202717" lon="12.1459683"><ele>241.39999999999998</ele><time>2026-04-28T07:53:39.641Z</time></trkpt><trkpt lat="44.1201783" lon="12.145975"><ele>242.0</ele><time>2026-04-28T07:53:40.641Z</time></trkpt><trkpt lat="44.1200833" lon="12.1459733"><ele>242.00000000000003</ele><time>2026-04-28T07:53:41.641Z</time></trkpt><trkpt lat="44.12" lon="12.1459717"><ele>242.0</ele><time>2026-04-28T07:53:42.641Z</time></trkpt><trkpt lat="44.1199283" lon="12.145955"><ele>242.0</ele><time>2026-04-28T07:53:43.642Z</time></trkpt><trkpt lat="44.119855" lon="12.1459467"><ele>242.0</ele><time>2026-04-28T07:53:44.642Z</time></trkpt><trkpt lat="44.1197833" lon="12.1459217"><ele>242.00000000000003</ele><time>2026-04-28T07:53:45.642Z</time></trkpt><trkpt lat="44.1197217" lon="12.1459017"><ele>242.0</ele><time>2026-04-28T07:53:46.642Z</time></trkpt><trkpt lat="44.1196183" lon="12.145865"><ele>241.50000000000003</ele><time>2026-04-28T07:53:48.642Z</time></trkpt><trkpt lat="44.1195283" lon="12.145825"><ele>241.0</ele><time>2026-04-28T07:53:50.642Z</time></trkpt><trkpt lat="44.1194633" lon="12.1457883"><ele>240.5</ele><time>2026-04-28T07:53:52.642Z</time></trkpt><trkpt lat="44.1193917" lon="12.1457433"><ele>240.0</ele><time>2026-04-28T07:53:55.64Z</time></trkpt><trkpt lat="44.119325" lon="12.1457017"><ele>239.50000000000003</ele><time>2026-04-28T07:53:58.641Z</time></trkpt><trkpt lat="44.119265" lon="12.1456717"><ele>239.0</ele><time>2026-04-28T07:54:01.64Z</time></trkpt><trkpt lat="44.11919" lon="12.1456367"><ele>239.00000000000003</ele><time>2026-04-28T07:54:05.641Z</time></trkpt><trkpt lat="44.11912" lon="12.1455917"><ele>239.0</ele><time>2026-04-28T07:54:10.641Z</time></trkpt><trkpt lat="44.119055" lon="12.1455567"><ele>239.00000000000003</ele><time>2026-04-28T07:54:14.64Z</time></trkpt><trkpt lat="44.11898" lon="12.1455317"><ele>239.00000000000003</ele><time>2026-04-28T07:54:18.64Z</time></trkpt><trkpt lat="44.1189117" lon="12.14551"><ele>239.0</ele><time>2026-04-28T07:54:22.641Z</time></trkpt><trkpt lat="44.1188417" lon="12.1454983"><ele>239.00000000000003</ele><time>2026-04-28T07:54:26.641Z</time></trkpt><trkpt lat="44.1187667" lon="12.1454983"><ele>239.00000000000003</ele><time>2026-04-28T07:54:30.64Z</time></trkpt><trkpt lat="44.1186933" lon="12.1455"><ele>241.16666666666669</ele><time>2026-04-28T07:54:33.64Z</time></trkpt><trkpt lat="44.1186183" lon="12.1455133"><ele>243.33333333333334</ele><time>2026-04-28T07:54:38.641Z</time></trkpt><trkpt lat="44.1185567" lon="12.1455333"><ele>245.5</ele><time>2026-04-28T07:54:44.641Z</time></trkpt><trkpt lat="44.11846" lon="12.1455217"><ele>247.66666666666669</ele><time>2026-04-28T07:54:52.641Z</time></trkpt><trkpt lat="44.1183767" lon="12.1455567"><ele>249.83333333333334</ele><time>2026-04-28T07:54:56.641Z</time></trkpt><trkpt lat="44.11829" lon="12.1455533"><ele>252.0</ele><time>2026-04-28T07:54:59.641Z</time></trkpt><trkpt lat="44.1182067" lon="12.145555"><ele>253.0</ele><time>2026-04-28T07:55:02.641Z</time></trkpt><trkpt lat="44.11813" lon="12.1455717"><ele>254.0</ele><time>2026-04-28T07:55:05.64Z</time></trkpt><trkpt lat="44.1180633" lon="12.1456283"><ele>255.0</ele><time>2026-04-28T07:55:08.641Z</time></trkpt><trkpt lat="44.1179983" lon="12.1456567"><ele>256.0</ele><time>2026-04-28T07:55:12.64Z</time></trkpt><trkpt lat="44.117925" lon="12.1456733"><ele>257.0</ele><time>2026-04-28T07:55:16.64Z</time></trkpt><trkpt lat="44.1178433" lon="12.14567"><ele>258.0</ele><time>2026-04-28T07:55:20.64Z</time></trkpt><trkpt lat="44.1177783" lon="12.145665"><ele>259.0</ele><time>2026-04-28T07:55:23.64Z</time></trkpt><trkpt lat="44.117715" lon="12.1456667"><ele>259.0</ele><time>2026-04-28T07:55:26.641Z</time></trkpt><trkpt lat="44.1176467" lon="12.1456767"><ele>259.0</ele><time>2026-04-28T07:55:29.64Z</time></trkpt><trkpt lat="44.1175617" lon="12.1456783"><ele>259.0</ele><time>2026-04-28T07:55:33.641Z</time></trkpt><trkpt lat="44.1174917" lon="12.1456667"><ele>259.0</ele><time>2026-04-28T07:55:36.64Z</time></trkpt><trkpt lat="44.1174133" lon="12.14566"><ele>259.0</ele><time>2026-04-28T07:55:39.641Z</time></trkpt><trkpt lat="44.1172683" lon="12.1456783"><ele>259.0</ele><time>2026-04-28T07:55:50.64Z</time></trkpt><trkpt lat="44.117195" lon="12.14567"><ele>260.57142857142856</ele><time>2026-04-28T07:55:52.641Z</time></trkpt><trkpt lat="44.1171317" lon="12.1456567"><ele>262.1428571428571</ele><time>2026-04-28T07:55:54.641Z</time></trkpt><trkpt lat="44.1170483" lon="12.145655"><ele>263.7142857142857</ele><time>2026-04-28T07:55:57.641Z</time></trkpt><trkpt lat="44.1169717" lon="12.1456633"><ele>265.2857142857143</ele><time>2026-04-28T07:56:00.641Z</time></trkpt><trkpt lat="44.1169067" lon="12.145685"><ele>266.85714285714283</ele><time>2026-04-28T07:56:03.641Z</time></trkpt><trkpt lat="44.1168317" lon="12.145685"><ele>268.42857142857144</ele><time>2026-04-28T07:56:06.64Z</time></trkpt><trkpt lat="44.1167633" lon="12.1457083"><ele>270.0</ele><time>2026-04-28T07:56:09.641Z</time></trkpt><trkpt lat="44.116685" lon="12.145735"><ele>270.0</ele><time>2026-04-28T07:56:12.641Z</time></trkpt><trkpt lat="44.1166117" lon="12.1457483"><ele>270.0</ele><time>2026-04-28T07:56:16.641Z</time></trkpt><trkpt lat="44.1165317" lon="12.1457633"><ele>270.0</ele><time>2026-04-28T07:56:21.641Z</time></trkpt><trkpt lat="44.11646" lon="12.1458"><ele>270.0</ele><time>2026-04-28T07:56:25.641Z</time></trkpt><trkpt lat="44.1163733" lon="12.145885"><ele>270.0</ele><time>2026-04-28T07:56:33.641Z</time></trkpt><trkpt lat="44.1163067" lon="12.1459367"><ele>270.0</ele><time>2026-04-28T07:56:37.641Z</time></trkpt><trkpt lat="44.11624" lon="12.1459733"><ele>272.7142857142857</ele><time>2026-04-28T07:56:41.641Z</time></trkpt><trkpt lat="44.116185" lon="12.14605"><ele>275.4285714285714</ele><time>2026-04-28T07:56:47.641Z</time></trkpt><trkpt lat="44.1161333" lon="12.1461067"><ele>278.1428571428571</ele><time>2026-04-28T07:56:50.641Z</time></trkpt><trkpt lat="44.1160817" lon="12.14616"><ele>280.85714285714283</ele><time>2026-04-28T07:56:54.641Z</time></trkpt><trkpt lat="44.116025" lon="12.1462217"><ele>283.57142857142856</ele><time>2026-04-28T07:56:59.641Z</time></trkpt><trkpt lat="44.1159733" lon="12.1462767"><ele>286.2857142857143</ele><time>2026-04-28T07:57:03.641Z</time></trkpt><trkpt lat="44.115915" lon="12.1463133"><ele>289.0</ele><time>2026-04-28T07:57:08.64Z</time></trkpt><trkpt lat="44.115795" lon="12.146315"><ele>286.3333333333333</ele><time>2026-04-28T07:57:16.641Z</time></trkpt><trkpt lat="44.1157333" lon="12.14629"><ele>283.66666666666663</ele><time>2026-04-28T07:57:20.641Z</time></trkpt><trkpt lat="44.1156683" lon="12.1462533"><ele>281.0</ele><time>2026-04-28T07:57:24.641Z</time></trkpt><trkpt lat="44.115605" lon="12.1461783"><ele>278.3333333333333</ele><time>2026-04-28T07:57:30.641Z</time></trkpt><trkpt lat="44.115525" lon="12.1460717"><ele>275.6666666666667</ele><time>2026-04-28T07:57:37.64Z</time></trkpt><trkpt lat="44.1154667" lon="12.1460233"><ele>273.0</ele><time>2026-04-28T07:57:40.64Z</time></trkpt><trkpt lat="44.115425" lon="12.1459533"><ele>273.0</ele><time>2026-04-28T07:57:43.64Z</time></trkpt><trkpt lat="44.1154183" lon="12.1458483"><ele>273.0</ele><time>2026-04-28T07:57:47.641Z</time></trkpt><trkpt lat="44.1153933" lon="12.1457433"><ele>273.0</ele><time>2026-04-28T07:57:52.641Z</time></trkpt><trkpt lat="44.115375" lon="12.14564"><ele>273.0</ele><time>2026-04-28T07:57:57.641Z</time></trkpt><trkpt lat="44.1153483" lon="12.1455533"><ele>273.0</ele><time>2026-04-28T07:58:00.64Z</time></trkpt><trkpt lat="44.1153167" lon="12.14545"><ele>273.0</ele><time>2026-04-28T07:58:03.641Z</time></trkpt><trkpt lat="44.1153033" lon="12.14534"><ele>274.6666666666667</ele><time>2026-04-28T07:58:07.64Z</time></trkpt><trkpt lat="44.1153067" lon="12.14524"><ele>276.3333333333333</ele><time>2026-04-28T07:58:10.641Z</time></trkpt><trkpt lat="44.1153017" lon="12.1451317"><ele>278.0</ele><time>2026-04-28T07:58:14.641Z</time></trkpt><trkpt lat="44.1152833" lon="12.1450467"><ele>279.66666666666663</ele><time>2026-04-28T07:58:18.641Z</time></trkpt><trkpt lat="44.11525" lon="12.14495"><ele>281.3333333333333</ele><time>2026-04-28T07:58:22.641Z</time></trkpt><trkpt lat="44.11525" lon="12.1448367"><ele>283.0</ele><time>2026-04-28T07:58:24.641Z</time></trkpt><trkpt lat="44.1151933" lon="12.1447517"><ele>283.8571428571429</ele><time>2026-04-28T07:58:27.641Z</time></trkpt><trkpt lat="44.1151417" lon="12.1446783"><ele>284.7142857142857</ele><time>2026-04-28T07:58:31.64Z</time></trkpt><trkpt lat="44.11508" lon="12.1446133"><ele>285.57142857142856</ele><time>2026-04-28T07:58:34.64Z</time></trkpt><trkpt lat="44.1150267" lon="12.1445583"><ele>286.42857142857144</ele><time>2026-04-28T07:58:37.641Z</time></trkpt><trkpt lat="44.1149733" lon="12.1445"><ele>287.2857142857143</ele><time>2026-04-28T07:58:40.641Z</time></trkpt><trkpt lat="44.1149183" lon="12.1444483"><ele>288.14285714285717</ele><time>2026-04-28T07:58:43.64Z</time></trkpt><trkpt lat="44.1148533" lon="12.1443967"><ele>289.0</ele><time>2026-04-28T07:58:46.641Z</time></trkpt><trkpt lat="44.1147883" lon="12.1443267"><ele>289.0</ele><time>2026-04-28T07:58:49.64Z</time></trkpt><trkpt lat="44.11473" lon="12.144265"><ele>289.0</ele><time>2026-04-28T07:58:52.641Z</time></trkpt><trkpt lat="44.11466" lon="12.1442083"><ele>289.0</ele><time>2026-04-28T07:58:56.64Z</time></trkpt><trkpt lat="44.1146" lon="12.14418"><ele>289.0</ele><time>2026-04-28T07:58:59.641Z</time></trkpt><trkpt lat="44.1145333" lon="12.14412"><ele>289.0</ele><time>2026-04-28T07:59:02.641Z</time></trkpt><trkpt lat="44.1144917" lon="12.1440517"><ele>289.0</ele><time>2026-04-28T07:59:05.641Z</time></trkpt><trkpt lat="44.1144617" lon="12.1438667"><ele>289.3333333333333</ele><time>2026-04-28T07:59:12.641Z</time></trkpt><trkpt lat="44.1144783" lon="12.1437533"><ele>289.66666666666663</ele><time>2026-04-28T07:59:15.64Z</time></trkpt><trkpt lat="44.114495" lon="12.1436333"><ele>290.0</ele><time>2026-04-28T07:59:18.64Z</time></trkpt><trkpt lat="44.1145167" lon="12.1435267"><ele>290.3333333333333</ele><time>2026-04-28T07:59:21.641Z</time></trkpt><trkpt lat="44.1145333" lon="12.1434183"><ele>290.6666666666667</ele><time>2026-04-28T07:59:23.64Z</time></trkpt><trkpt lat="44.1145467" lon="12.14331"><ele>291.0</ele><time>2026-04-28T07:59:25.641Z</time></trkpt><trkpt lat="44.114565" lon="12.1431717"><ele>291.0</ele><time>2026-04-28T07:59:27.641Z</time></trkpt><trkpt lat="44.114565" lon="12.1430467"><ele>291.0</ele><time>2026-04-28T07:59:29.641Z</time></trkpt><trkpt lat="44.1145617" lon="12.1429467"><ele>291.0</ele><time>2026-04-28T07:59:31.64Z</time></trkpt><trkpt lat="44.114575" lon="12.1427817"><ele>291.0</ele><time>2026-04-28T07:59:33.64Z</time></trkpt><trkpt lat="44.1145883" lon="12.1426133"><ele>291.0</ele><time>2026-04-28T07:59:35.64Z</time></trkpt><trkpt lat="44.1146017" lon="12.14251"><ele>291.0</ele><time>2026-04-28T07:59:36.641Z</time></trkpt><trkpt lat="44.11461" lon="12.1424067"><ele>291.0</ele><time>2026-04-28T07:59:37.64Z</time></trkpt><trkpt lat="44.1146117" lon="12.142305"><ele>291.0</ele><time>2026-04-28T07:59:38.641Z</time></trkpt><trkpt lat="44.11461" lon="12.1421633"><ele>291.0</ele><time>2026-04-28T07:59:39.641Z</time></trkpt><trkpt lat="44.11463" lon="12.1420183"><ele>291.0</ele><time>2026-04-28T07:59:40.641Z</time></trkpt><trkpt lat="44.1146467" lon="12.1418883"><ele>291.25</ele><time>2026-04-28T07:59:41.64Z</time></trkpt><trkpt lat="44.1146783" lon="12.14175"><ele>291.5</ele><time>2026-04-28T07:59:42.641Z</time></trkpt><trkpt lat="44.1147183" lon="12.1416017"><ele>291.75</ele><time>2026-04-28T07:59:43.641Z</time></trkpt><trkpt lat="44.1147583" lon="12.1414333"><ele>292.0</ele><time>2026-04-28T07:59:44.641Z</time></trkpt><trkpt lat="44.1147833" lon="12.1412533"><ele>292.0</ele><time>2026-04-28T07:59:45.64Z</time></trkpt><trkpt lat="44.1147883" lon="12.141075"><ele>292.0</ele><time>2026-04-28T07:59:46.641Z</time></trkpt><trkpt lat="44.1147683" lon="12.1409133"><ele>292.0</ele><time>2026-04-28T07:59:47.641Z</time></trkpt><trkpt lat="44.1147567" lon="12.140775"><ele>292.0</ele><time>2026-04-28T07:59:48.64Z</time></trkpt><trkpt lat="44.1147483" lon="12.14063"><ele>288.0</ele><time>2026-04-28T07:59:49.641Z</time></trkpt><trkpt lat="44.1147533" lon="12.1405067"><ele>284.0</ele><time>2026-04-28T07:59:50.64Z</time></trkpt><trkpt lat="44.1147733" lon="12.1403833"><ele>280.0</ele><time>2026-04-28T07:59:51.641Z</time></trkpt><trkpt lat="44.1148" lon="12.1402233"><ele>276.0</ele><time>2026-04-28T07:59:52.641Z</time></trkpt><trkpt lat="44.1148417" lon="12.14012"><ele>272.0</ele><time>2026-04-28T07:59:53.64Z</time></trkpt><trkpt lat="44.11489" lon="12.140035"><ele>273.85714285714283</ele><time>2026-04-28T07:59:54.64Z</time></trkpt><trkpt lat="44.1149533" lon="12.1399683"><ele>275.7142857142857</ele><time>2026-04-28T07:59:55.64Z</time></trkpt><trkpt lat="44.1150233" lon="12.139905"><ele>277.57142857142856</ele><time>2026-04-28T07:59:56.641Z</time></trkpt><trkpt lat="44.1150767" lon="12.1398483"><ele>279.42857142857144</ele><time>2026-04-28T07:59:57.641Z</time></trkpt><trkpt lat="44.1151333" lon="12.1397967"><ele>281.2857142857143</ele><time>2026-04-28T07:59:58.64Z</time></trkpt><trkpt lat="44.115195" lon="12.1397383"><ele>283.1428571428571</ele><time>2026-04-28T07:59:59.64Z</time></trkpt><trkpt lat="44.1152533" lon="12.1396783"><ele>285.0</ele><time>2026-04-28T08:00:00.641Z</time></trkpt><trkpt lat="44.11535" lon="12.1395983"><ele>285.6</ele><time>2026-04-28T08:00:02.641Z</time></trkpt><trkpt lat="44.11544" lon="12.1395217"><ele>286.2</ele><time>2026-04-28T08:00:04.64Z</time></trkpt><trkpt lat="44.11552" lon="12.1394533"><ele>286.8</ele><time>2026-04-28T08:00:06.64Z</time></trkpt><trkpt lat="44.1155883" lon="12.1393817"><ele>287.4</ele><time>2026-04-28T08:00:08.64Z</time></trkpt><trkpt lat="44.1156567" lon="12.1392983"><ele>288.0</ele><time>2026-04-28T08:00:10.641Z</time></trkpt><trkpt lat="44.11571" lon="12.1392217"><ele>287.8</ele><time>2026-04-28T08:00:12.64Z</time></trkpt><trkpt lat="44.1157667" lon="12.139145"><ele>287.6</ele><time>2026-04-28T08:00:14.64Z</time></trkpt><trkpt lat="44.1158183" lon="12.1390583"><ele>287.4</ele><time>2026-04-28T08:00:16.64Z</time></trkpt><trkpt lat="44.1158617" lon="12.1389617"><ele>287.2</ele><time>2026-04-28T08:00:18.641Z</time></trkpt><trkpt lat="44.115905" lon="12.1388367"><ele>287.0</ele><time>2026-04-28T08:00:20.64Z</time></trkpt><trkpt lat="44.1159383" lon="12.1386867"><ele>287.6</ele><time>2026-04-28T08:00:22.64Z</time></trkpt><trkpt lat="44.1159717" lon="12.1385567"><ele>288.2</ele><time>2026-04-28T08:00:24.64Z</time></trkpt><trkpt lat="44.115985" lon="12.13839"><ele>288.8</ele><time>2026-04-28T08:00:26.641Z</time></trkpt><trkpt lat="44.11598" lon="12.13823"><ele>289.4</ele><time>2026-04-28T08:00:28.641Z</time></trkpt><trkpt lat="44.115975" lon="12.1380783"><ele>290.0</ele><time>2026-04-28T08:00:30.641Z</time></trkpt><trkpt lat="44.115955" lon="12.1379283"><ele>288.5</ele><time>2026-04-28T08:00:32.641Z</time></trkpt><trkpt lat="44.1159333" lon="12.1377683"><ele>287.0</ele><time>2026-04-28T08:00:34.64Z</time></trkpt><trkpt lat="44.11592" lon="12.1376767"><ele>285.5</ele><time>2026-04-28T08:00:35.641Z</time></trkpt><trkpt lat="44.1159083" lon="12.1375717"><ele>284.0</ele><time>2026-04-28T08:00:36.64Z</time></trkpt><trkpt lat="44.115895" lon="12.1374667"><ele>282.5</ele><time>2026-04-28T08:00:37.64Z</time></trkpt><trkpt lat="44.115885" lon="12.1373533"><ele>281.0</ele><time>2026-04-28T08:00:38.64Z</time></trkpt><trkpt lat="44.1158717" lon="12.1372483"><ele>280.00000000000006</ele><time>2026-04-28T08:00:39.641Z</time></trkpt><trkpt lat="44.1158583" lon="12.137145"><ele>279.0</ele><time>2026-04-28T08:00:40.641Z</time></trkpt><trkpt lat="44.1158517" lon="12.13704"><ele>278.0</ele><time>2026-04-28T08:00:41.641Z</time></trkpt><trkpt lat="44.11585" lon="12.1369467"><ele>277.0</ele><time>2026-04-28T08:00:42.641Z</time></trkpt><trkpt lat="44.115845" lon="12.13685"><ele>276.0</ele><time>2026-04-28T08:00:43.641Z</time></trkpt><trkpt lat="44.1158383" lon="12.13675"><ele>275.00000000000006</ele><time>2026-04-28T08:00:44.641Z</time></trkpt><trkpt lat="44.115835" lon="12.13664"><ele>274.0</ele><time>2026-04-28T08:00:45.64Z</time></trkpt><trkpt lat="44.1158367" lon="12.1365417"><ele>273.3333333333333</ele><time>2026-04-28T08:00:46.64Z</time></trkpt><trkpt lat="44.11584" lon="12.136445"><ele>272.66666666666663</ele><time>2026-04-28T08:00:47.641Z</time></trkpt><trkpt lat="44.1158483" lon="12.13635"><ele>272.0</ele><time>2026-04-28T08:00:48.64Z</time></trkpt><trkpt lat="44.11585" lon="12.13626"><ele>271.3333333333333</ele><time>2026-04-28T08:00:49.641Z</time></trkpt><trkpt lat="44.1158717" lon="12.1361033"><ele>270.6666666666667</ele><time>2026-04-28T08:00:51.641Z</time></trkpt><trkpt lat="44.1158817" lon="12.136015"><ele>270.0</ele><time>2026-04-28T08:00:52.64Z</time></trkpt><trkpt lat="44.1159" lon="12.1359117"><ele>270.0</ele><time>2026-04-28T08:00:53.641Z</time></trkpt><trkpt lat="44.11592" lon="12.135815"><ele>270.0</ele><time>2026-04-28T08:00:54.641Z</time></trkpt><trkpt lat="44.1159367" lon="12.1357167"><ele>270.0</ele><time>2026-04-28T08:00:55.641Z</time></trkpt><trkpt lat="44.115955" lon="12.13563"><ele>270.0</ele><time>2026-04-28T08:00:56.64Z</time></trkpt><trkpt lat="44.1159767" lon="12.1355433"><ele>270.0</ele><time>2026-04-28T08:00:57.64Z</time></trkpt><trkpt lat="44.1160017" lon="12.13546"><ele>270.0</ele><time>2026-04-28T08:00:58.641Z</time></trkpt><trkpt lat="44.11605" lon="12.1353067"><ele>269.2</ele><time>2026-04-28T08:01:00.64Z</time></trkpt><trkpt lat="44.1160933" lon="12.1351733"><ele>268.4</ele><time>2026-04-28T08:01:02.641Z</time></trkpt><trkpt lat="44.116135" lon="12.1350433"><ele>267.6</ele><time>2026-04-28T08:01:04.64Z</time></trkpt><trkpt lat="44.1161733" lon="12.1349517"><ele>266.8</ele><time>2026-04-28T08:01:06.641Z</time></trkpt><trkpt lat="44.116225" lon="12.134855"><ele>266.0</ele><time>2026-04-28T08:01:08.641Z</time></trkpt><trkpt lat="44.1162817" lon="12.13475"><ele>265.0</ele><time>2026-04-28T08:01:10.64Z</time></trkpt><trkpt lat="44.1163367" lon="12.13464"><ele>264.0</ele><time>2026-04-28T08:01:12.641Z</time></trkpt><trkpt lat="44.11639" lon="12.1345383"><ele>263.0</ele><time>2026-04-28T08:01:14.641Z</time></trkpt><trkpt lat="44.1164533" lon="12.1344367"><ele>262.0</ele><time>2026-04-28T08:01:16.64Z</time></trkpt><trkpt lat="44.1165083" lon="12.1343467"><ele>261.0</ele><time>2026-04-28T08:01:18.641Z</time></trkpt><trkpt lat="44.1165533" lon="12.1342617"><ele>260.0</ele><time>2026-04-28T08:01:20.64Z</time></trkpt><trkpt lat="44.1166117" lon="12.134165"><ele>262.6666666666667</ele><time>2026-04-28T08:01:23.641Z</time></trkpt><trkpt lat="44.116665" lon="12.1340833"><ele>265.33333333333337</ele><time>2026-04-28T08:01:25.641Z</time></trkpt><trkpt lat="44.116715" lon="12.1340033"><ele>268.0</ele><time>2026-04-28T08:01:27.64Z</time></trkpt><trkpt lat="44.116765" lon="12.133935"><ele>270.6666666666667</ele><time>2026-04-28T08:01:29.641Z</time></trkpt><trkpt lat="44.11682" lon="12.133855"><ele>273.3333333333333</ele><time>2026-04-28T08:01:31.64Z</time></trkpt><trkpt lat="44.1168883" lon="12.133755"><ele>276.0</ele><time>2026-04-28T08:01:33.64Z</time></trkpt><trkpt lat="44.116965" lon="12.1336233"><ele>276.0</ele><time>2026-04-28T08:01:35.641Z</time></trkpt><trkpt lat="44.1170083" lon="12.1335517"><ele>276.0</ele><time>2026-04-28T08:01:36.641Z</time></trkpt><trkpt lat="44.1170483" lon="12.13348"><ele>276.0</ele><time>2026-04-28T08:01:37.64Z</time></trkpt><trkpt lat="44.11709" lon="12.1334083"><ele>276.0</ele><time>2026-04-28T08:01:38.64Z</time></trkpt><trkpt lat="44.1171333" lon="12.1333267"><ele>276.0</ele><time>2026-04-28T08:01:39.641Z</time></trkpt><trkpt lat="44.11718" lon="12.133235"><ele>276.0</ele><time>2026-04-28T08:01:40.64Z</time></trkpt><trkpt lat="44.1172233" lon="12.13314"><ele>276.0</ele><time>2026-04-28T08:01:41.641Z</time></trkpt><trkpt lat="44.1172733" lon="12.13305"><ele>276.0</ele><time>2026-04-28T08:01:42.64Z</time></trkpt><trkpt lat="44.1173267" lon="12.132965"><ele>276.0</ele><time>2026-04-28T08:01:43.641Z</time></trkpt><trkpt lat="44.1173817" lon="12.1329"><ele>276.0</ele><time>2026-04-28T08:01:44.641Z</time></trkpt><trkpt lat="44.117425" lon="12.1328267"><ele>276.0</ele><time>2026-04-28T08:01:45.641Z</time></trkpt><trkpt lat="44.11747" lon="12.1327467"><ele>276.0</ele><time>2026-04-28T08:01:46.641Z</time></trkpt><trkpt lat="44.11751" lon="12.1326683"><ele>276.0</ele><time>2026-04-28T08:01:47.64Z</time></trkpt><trkpt lat="44.1175567" lon="12.13259"><ele>276.0</ele><time>2026-04-28T08:01:48.64Z</time></trkpt><trkpt lat="44.1176083" lon="12.132525"><ele>276.0</ele><time>2026-04-28T08:01:49.64Z</time></trkpt><trkpt lat="44.117655" lon="12.1324467"><ele>276.0</ele><time>2026-04-28T08:01:50.64Z</time></trkpt><trkpt lat="44.1176917" lon="12.1323417"><ele>276.0</ele><time>2026-04-28T08:01:51.641Z</time></trkpt><trkpt lat="44.1177217" lon="12.1322367"><ele>276.0</ele><time>2026-04-28T08:01:52.64Z</time></trkpt><trkpt lat="44.11774" lon="12.1321333"><ele>276.0</ele><time>2026-04-28T08:01:53.64Z</time></trkpt><trkpt lat="44.117755" lon="12.132035"><ele>276.0</ele><time>2026-04-28T08:01:54.641Z</time></trkpt><trkpt lat="44.1177567" lon="12.13194"><ele>274.40000000000003</ele><time>2026-04-28T08:01:55.64Z</time></trkpt><trkpt lat="44.1177683" lon="12.1317983"><ele>272.8</ele><time>2026-04-28T08:01:56.641Z</time></trkpt><trkpt lat="44.1177683" lon="12.131665"><ele>271.20000000000005</ele><time>2026-04-28T08:01:57.641Z</time></trkpt><trkpt lat="44.117765" lon="12.1315167"><ele>269.6</ele><time>2026-04-28T08:01:58.641Z</time></trkpt><trkpt lat="44.1177617" lon="12.1313867"><ele>268.0</ele><time>2026-04-28T08:01:59.64Z</time></trkpt><trkpt lat="44.1177717" lon="12.1312483"><ele>266.66666666666663</ele><time>2026-04-28T08:02:00.641Z</time></trkpt><trkpt lat="44.117775" lon="12.1311367"><ele>265.3333333333333</ele><time>2026-04-28T08:02:01.64Z</time></trkpt><trkpt lat="44.1177867" lon="12.13103"><ele>264.0</ele><time>2026-04-28T08:02:02.64Z</time></trkpt><trkpt lat="44.1177933" lon="12.1309217"><ele>262.6666666666667</ele><time>2026-04-28T08:02:03.64Z</time></trkpt><trkpt lat="44.1178083" lon="12.1308283"><ele>261.33333333333337</ele><time>2026-04-28T08:02:04.64Z</time></trkpt><trkpt lat="44.1178683" lon="12.130695"><ele>260.0</ele><time>2026-04-28T08:02:06.641Z</time></trkpt><trkpt lat="44.1179483" lon="12.13061"><ele>260.0</ele><time>2026-04-28T08:02:08.641Z</time></trkpt><trkpt lat="44.118015" lon="12.1306467"><ele>260.0</ele><time>2026-04-28T08:02:11.641Z</time></trkpt><trkpt lat="44.118065" lon="12.1307233"><ele>260.0</ele><time>2026-04-28T08:02:14.641Z</time></trkpt><trkpt lat="44.1181417" lon="12.1308"><ele>260.0</ele><time>2026-04-28T08:02:17.64Z</time></trkpt><trkpt lat="44.1181917" lon="12.1308783"><ele>260.0</ele><time>2026-04-28T08:02:19.64Z</time></trkpt><trkpt lat="44.1182383" lon="12.1309533"><ele>260.0</ele><time>2026-04-28T08:02:21.641Z</time></trkpt><trkpt lat="44.1182867" lon="12.1310233"><ele>260.5</ele><time>2026-04-28T08:02:23.64Z</time></trkpt><trkpt lat="44.118345" lon="12.1310933"><ele>261.0</ele><time>2026-04-28T08:02:25.64Z</time></trkpt><trkpt lat="44.1184017" lon="12.1311667"><ele>261.5</ele><time>2026-04-28T08:02:27.641Z</time></trkpt><trkpt lat="44.1184583" lon="12.1312383"><ele>262.0</ele><time>2026-04-28T08:02:29.641Z</time></trkpt><trkpt lat="44.1185183" lon="12.13131"><ele>262.5</ele><time>2026-04-28T08:02:31.641Z</time></trkpt><trkpt lat="44.1185783" lon="12.1313817"><ele>263.0</ele><time>2026-04-28T08:02:33.641Z</time></trkpt><trkpt lat="44.11863" lon="12.1314533"><ele>263.0</ele><time>2026-04-28T08:02:35.64Z</time></trkpt><trkpt lat="44.1186833" lon="12.1315217"><ele>263.0</ele><time>2026-04-28T08:02:37.64Z</time></trkpt><trkpt lat="44.118735" lon="12.1315867"><ele>263.0</ele><time>2026-04-28T08:02:39.64Z</time></trkpt><trkpt lat="44.11879" lon="12.1316467"><ele>263.0</ele><time>2026-04-28T08:02:41.641Z</time></trkpt><trkpt lat="44.1188467" lon="12.131715"><ele>263.0</ele><time>2026-04-28T08:02:43.64Z</time></trkpt><trkpt lat="44.1189033" lon="12.1317733"><ele>263.0</ele><time>2026-04-28T08:02:45.64Z</time></trkpt><trkpt lat="44.11897" lon="12.131825"><ele>263.0</ele><time>2026-04-28T08:02:47.641Z</time></trkpt><trkpt lat="44.1190367" lon="12.13187"><ele>264.0</ele><time>2026-04-28T08:02:49.641Z</time></trkpt><trkpt lat="44.1191117" lon="12.131885"><ele>265.0</ele><time>2026-04-28T08:02:51.641Z</time></trkpt><trkpt lat="44.1191867" lon="12.131885"><ele>266.0</ele><time>2026-04-28T08:02:53.64Z</time></trkpt><trkpt lat="44.11925" lon="12.1318717"><ele>267.0</ele><time>2026-04-28T08:02:55.64Z</time></trkpt><trkpt lat="44.1193283" lon="12.1318617"><ele>268.0</ele><time>2026-04-28T08:02:57.641Z</time></trkpt><trkpt lat="44.11941" lon="12.13183"><ele>269.0</ele><time>2026-04-28T08:02:59.641Z</time></trkpt><trkpt lat="44.1195183" lon="12.1317917"><ele>269.0</ele><time>2026-04-28T08:03:01.641Z</time></trkpt><trkpt lat="44.1196167" lon="12.1317583"><ele>269.0</ele><time>2026-04-28T08:03:03.64Z</time></trkpt><trkpt lat="44.119725" lon="12.13174"><ele>269.0</ele><time>2026-04-28T08:03:07.64Z</time></trkpt><trkpt lat="44.119865" lon="12.1317817"><ele>269.0</ele><time>2026-04-28T08:03:10.641Z</time></trkpt><trkpt lat="44.119945" lon="12.1317983"><ele>269.0</ele><time>2026-04-28T08:03:11.641Z</time></trkpt><trkpt lat="44.12004" lon="12.1317833"><ele>268.25</ele><time>2026-04-28T08:03:12.64Z</time></trkpt><trkpt lat="44.1201333" lon="12.1317933"><ele>267.5</ele><time>2026-04-28T08:03:13.64Z</time></trkpt><trkpt lat="44.12022" lon="12.131865"><ele>266.75</ele><time>2026-04-28T08:03:16.64Z</time></trkpt><trkpt lat="44.1203267" lon="12.1319433"><ele>266.0</ele><time>2026-04-28T08:03:17.639Z</time></trkpt><trkpt lat="44.1204867" lon="12.1320467"><ele>266.0</ele><time>2026-04-28T08:03:19.14Z</time></trkpt><trkpt lat="44.1206133" lon="12.1321483"><ele>266.0</ele><time>2026-04-28T08:03:20.64Z</time></trkpt><trkpt lat="44.1207133" lon="12.13223"><ele>266.0</ele><time>2026-04-28T08:03:21.639Z</time></trkpt><trkpt lat="44.120815" lon="12.132315"><ele>266.0</ele><time>2026-04-28T08:03:22.639Z</time></trkpt><trkpt lat="44.1209317" lon="12.1324017"><ele>264.0</ele><time>2026-04-28T08:03:23.64Z</time></trkpt><trkpt lat="44.12105" lon="12.13248"><ele>262.0</ele><time>2026-04-28T08:03:24.639Z</time></trkpt><trkpt lat="44.121165" lon="12.1326283"><ele>260.0</ele><time>2026-04-28T08:03:25.639Z</time></trkpt><trkpt lat="44.1212933" lon="12.1326783"><ele>258.0</ele><time>2026-04-28T08:03:26.639Z</time></trkpt><trkpt lat="44.1214367" lon="12.1327017"><ele>258.0</ele><time>2026-04-28T08:03:27.64Z</time></trkpt><trkpt lat="44.1215633" lon="12.1327133"><ele>258.0</ele><time>2026-04-28T08:03:28.639Z</time></trkpt><trkpt lat="44.121695" lon="12.1327067"><ele>258.0</ele><time>2026-04-28T08:03:29.64Z</time></trkpt><trkpt lat="44.1218217" lon="12.1326867"><ele>258.0</ele><time>2026-04-28T08:03:30.64Z</time></trkpt><trkpt lat="44.12193" lon="12.1326617"><ele>256.6</ele><time>2026-04-28T08:03:31.639Z</time></trkpt><trkpt lat="44.1220333" lon="12.1326183"><ele>255.20000000000002</ele><time>2026-04-28T08:03:32.64Z</time></trkpt><trkpt lat="44.1221233" lon="12.13255"><ele>253.8</ele><time>2026-04-28T08:03:33.64Z</time></trkpt><trkpt lat="44.1222067" lon="12.1324867"><ele>252.4</ele><time>2026-04-28T08:03:34.64Z</time></trkpt><trkpt lat="44.122285" lon="12.1324183"><ele>251.0</ele><time>2026-04-28T08:03:35.64Z</time></trkpt><trkpt lat="44.122355" lon="12.1323567"><ele>250.66666666666669</ele><time>2026-04-28T08:03:36.64Z</time></trkpt><trkpt lat="44.1224183" lon="12.1322983"><ele>250.33333333333334</ele><time>2026-04-28T08:03:37.64Z</time></trkpt><trkpt lat="44.1224867" lon="12.1322433"><ele>250.0</ele><time>2026-04-28T08:03:38.64Z</time></trkpt><trkpt lat="44.12255" lon="12.1321917"><ele>249.66666666666669</ele><time>2026-04-28T08:03:39.64Z</time></trkpt><trkpt lat="44.122605" lon="12.1321433"><ele>249.33333333333334</ele><time>2026-04-28T08:03:40.639Z</time></trkpt><trkpt lat="44.1227017" lon="12.132065"><ele>249.0</ele><time>2026-04-28T08:03:42.639Z</time></trkpt><trkpt lat="44.1227883" lon="12.131995"><ele>249.0</ele><time>2026-04-28T08:03:44.639Z</time></trkpt><trkpt lat="44.1228767" lon="12.1319267"><ele>249.0</ele><time>2026-04-28T08:03:46.639Z</time></trkpt><trkpt lat="44.12298" lon="12.1318767"><ele>249.0</ele><time>2026-04-28T08:03:48.64Z</time></trkpt><trkpt lat="44.12304" lon="12.13185"><ele>249.0</ele><time>2026-04-28T08:03:49.639Z</time></trkpt><trkpt lat="44.1231133" lon="12.13181"><ele>249.0</ele><time>2026-04-28T08:03:50.639Z</time></trkpt><trkpt lat="44.123185" lon="12.1317733"><ele>249.0</ele><time>2026-04-28T08:03:51.64Z</time></trkpt><trkpt lat="44.1232583" lon="12.1317333"><ele>250.39999999999998</ele><time>2026-04-28T08:03:52.639Z</time></trkpt><trkpt lat="44.123345" lon="12.131695"><ele>251.79999999999998</ele><time>2026-04-28T08:03:53.639Z</time></trkpt><trkpt lat="44.1234367" lon="12.1316567"><ele>253.20000000000002</ele><time>2026-04-28T08:03:54.64Z</time></trkpt><trkpt lat="44.12354" lon="12.1316217"><ele>254.60000000000002</ele><time>2026-04-28T08:03:55.639Z</time></trkpt><trkpt lat="44.1236467" lon="12.1315867"><ele>256.0</ele><time>2026-04-28T08:03:56.639Z</time></trkpt><trkpt lat="44.1237367" lon="12.1315667"><ele>252.0</ele><time>2026-04-28T08:03:57.64Z</time></trkpt><trkpt lat="44.12384" lon="12.1315417"><ele>248.0</ele><time>2026-04-28T08:03:58.64Z</time></trkpt><trkpt lat="44.12395" lon="12.1315167"><ele>244.0</ele><time>2026-04-28T08:03:59.639Z</time></trkpt><trkpt lat="44.124075" lon="12.1315067"><ele>240.0</ele><time>2026-04-28T08:04:00.639Z</time></trkpt><trkpt lat="44.1242017" lon="12.13147"><ele>240.0</ele><time>2026-04-28T08:04:01.639Z</time></trkpt><trkpt lat="44.1243317" lon="12.1314133"><ele>240.0</ele><time>2026-04-28T08:04:02.639Z</time></trkpt><trkpt lat="44.1244533" lon="12.1313667"><ele>240.0</ele><time>2026-04-28T08:04:03.639Z</time></trkpt><trkpt lat="44.1245833" lon="12.1313233"><ele>240.0</ele><time>2026-04-28T08:04:04.64Z</time></trkpt><trkpt lat="44.1247083" lon="12.13128"><ele>240.0</ele><time>2026-04-28T08:04:05.64Z</time></trkpt><trkpt lat="44.12483" lon="12.1312317"><ele>240.0</ele><time>2026-04-28T08:04:06.64Z</time></trkpt><trkpt lat="44.1249533" lon="12.1312017"><ele>240.0</ele><time>2026-04-28T08:04:07.64Z</time></trkpt><trkpt lat="44.1250833" lon="12.1311683"><ele>240.0</ele><time>2026-04-28T08:04:08.64Z</time></trkpt><trkpt lat="44.1252017" lon="12.1311367"><ele>240.0</ele><time>2026-04-28T08:04:09.639Z</time></trkpt><trkpt lat="44.12531" lon="12.1311033"><ele>240.0</ele><time>2026-04-28T08:04:10.64Z</time></trkpt><trkpt lat="44.1254117" lon="12.1310667"><ele>240.0</ele><time>2026-04-28T08:04:11.64Z</time></trkpt><trkpt lat="44.125505" lon="12.1310283"><ele>240.0</ele><time>2026-04-28T08:04:12.639Z</time></trkpt><trkpt lat="44.1255767" lon="12.1309917"><ele>240.0</ele><time>2026-04-28T08:04:13.639Z</time></trkpt><trkpt lat="44.1256517" lon="12.1309717"><ele>240.0</ele><time>2026-04-28T08:04:14.64Z</time></trkpt><trkpt lat="44.1257267" lon="12.1309483"><ele>240.0</ele><time>2026-04-28T08:04:15.639Z</time></trkpt><trkpt lat="44.1258433" lon="12.130905"><ele>240.0</ele><time>2026-04-28T08:04:17.64Z</time></trkpt><trkpt lat="44.1259533" lon="12.1308783"><ele>240.0</ele><time>2026-04-28T08:04:19.64Z</time></trkpt><trkpt lat="44.1260533" lon="12.1308567"><ele>240.0</ele><time>2026-04-28T08:04:21.64Z</time></trkpt><trkpt lat="44.1261433" lon="12.1308467"><ele>241.2</ele><time>2026-04-28T08:04:23.64Z</time></trkpt><trkpt lat="44.12622" lon="12.1308317"><ele>242.4</ele><time>2026-04-28T08:04:25.64Z</time></trkpt><trkpt lat="44.1263083" lon="12.1308083"><ele>243.60000000000002</ele><time>2026-04-28T08:04:28.64Z</time></trkpt><trkpt lat="44.12637" lon="12.1307683"><ele>244.8</ele><time>2026-04-28T08:04:30.639Z</time></trkpt><trkpt lat="44.126445" lon="12.13071"><ele>246.0</ele><time>2026-04-28T08:04:32.64Z</time></trkpt><trkpt lat="44.1265483" lon="12.1306017"><ele>246.0</ele><time>2026-04-28T08:04:34.64Z</time></trkpt><trkpt lat="44.1266117" lon="12.1305333"><ele>246.00000000000003</ele><time>2026-04-28T08:04:35.639Z</time></trkpt><trkpt lat="44.1266817" lon="12.1304533"><ele>246.00000000000003</ele><time>2026-04-28T08:04:36.64Z</time></trkpt><trkpt lat="44.1267517" lon="12.13037"><ele>246.0</ele><time>2026-04-28T08:04:37.64Z</time></trkpt><trkpt lat="44.12683" lon="12.1302733"><ele>246.0</ele><time>2026-04-28T08:04:38.64Z</time></trkpt><trkpt lat="44.1269083" lon="12.1301617"><ele>246.0</ele><time>2026-04-28T08:04:39.64Z</time></trkpt><trkpt lat="44.126995" lon="12.130045"><ele>246.0</ele><time>2026-04-28T08:04:40.64Z</time></trkpt><trkpt lat="44.1270783" lon="12.1299267"><ele>246.0</ele><time>2026-04-28T08:04:41.639Z</time></trkpt><trkpt lat="44.1271567" lon="12.1298083"><ele>246.0</ele><time>2026-04-28T08:04:42.639Z</time></trkpt><trkpt lat="44.1272433" lon="12.1296933"><ele>244.25</ele><time>2026-04-28T08:04:43.639Z</time></trkpt><trkpt lat="44.1273267" lon="12.1295783"><ele>242.5</ele><time>2026-04-28T08:04:44.639Z</time></trkpt><trkpt lat="44.12741" lon="12.1294567"><ele>240.75</ele><time>2026-04-28T08:04:45.64Z</time></trkpt><trkpt lat="44.1274917" lon="12.1293417"><ele>239.0</ele><time>2026-04-28T08:04:46.64Z</time></trkpt><trkpt lat="44.12758" lon="12.12924"><ele>238.2</ele><time>2026-04-28T08:04:47.64Z</time></trkpt><trkpt lat="44.12767" lon="12.1291583"><ele>237.39999999999998</ele><time>2026-04-28T08:04:48.64Z</time></trkpt><trkpt lat="44.12776" lon="12.1290933"><ele>236.6</ele><time>2026-04-28T08:04:49.64Z</time></trkpt><trkpt lat="44.127845" lon="12.12905"><ele>235.8</ele><time>2026-04-28T08:04:50.64Z</time></trkpt><trkpt lat="44.1279217" lon="12.12902"><ele>235.0</ele><time>2026-04-28T08:04:51.64Z</time></trkpt><trkpt lat="44.1280067" lon="12.129"><ele>233.6</ele><time>2026-04-28T08:04:52.639Z</time></trkpt><trkpt lat="44.1280883" lon="12.1289783"><ele>232.2</ele><time>2026-04-28T08:04:53.639Z</time></trkpt><trkpt lat="44.128205" lon="12.1288833"><ele>230.8</ele><time>2026-04-28T08:04:55.64Z</time></trkpt><trkpt lat="44.1282517" lon="12.128785"><ele>229.4</ele><time>2026-04-28T08:04:56.64Z</time></trkpt><trkpt lat="44.1282767" lon="12.1286667"><ele>228.0</ele><time>2026-04-28T08:04:57.64Z</time></trkpt><trkpt lat="44.12828" lon="12.1285467"><ele>226.5</ele><time>2026-04-28T08:04:58.639Z</time></trkpt><trkpt lat="44.1282817" lon="12.1284017"><ele>225.0</ele><time>2026-04-28T08:04:59.64Z</time></trkpt><trkpt lat="44.1282817" lon="12.1282317"><ele>223.5</ele><time>2026-04-28T08:05:00.64Z</time></trkpt><trkpt lat="44.12829" lon="12.1280583"><ele>222.0</ele><time>2026-04-28T08:05:01.64Z</time></trkpt><trkpt lat="44.12831" lon="12.12789"><ele>220.5</ele><time>2026-04-28T08:05:02.639Z</time></trkpt><trkpt lat="44.1283483" lon="12.1277233"><ele>219.0</ele><time>2026-04-28T08:05:03.639Z</time></trkpt><trkpt lat="44.1284" lon="12.1275683"><ele>217.5</ele><time>2026-04-28T08:05:04.639Z</time></trkpt><trkpt lat="44.12846" lon="12.12742"><ele>216.0</ele><time>2026-04-28T08:05:05.639Z</time></trkpt><trkpt lat="44.1285283" lon="12.1272667"><ele>214.0</ele><time>2026-04-28T08:05:06.639Z</time></trkpt><trkpt lat="44.1286" lon="12.1271217"><ele>212.0</ele><time>2026-04-28T08:05:07.64Z</time></trkpt><trkpt lat="44.1286633" lon="12.12698"><ele>210.0</ele><time>2026-04-28T08:05:08.64Z</time></trkpt><trkpt lat="44.1287283" lon="12.126835"><ele>208.0</ele><time>2026-04-28T08:05:09.64Z</time></trkpt><trkpt lat="44.1287983" lon="12.126695"><ele>208.0</ele><time>2026-04-28T08:05:10.64Z</time></trkpt><trkpt lat="44.1288617" lon="12.1265633"><ele>208.0</ele><time>2026-04-28T08:05:11.639Z</time></trkpt><trkpt lat="44.128925" lon="12.1264317"><ele>208.0</ele><time>2026-04-28T08:05:12.64Z</time></trkpt><trkpt lat="44.1289833" lon="12.1263067"><ele>208.0</ele><time>2026-04-28T08:05:13.639Z</time></trkpt><trkpt lat="44.1290417" lon="12.1261867"><ele>208.0</ele><time>2026-04-28T08:05:14.64Z</time></trkpt><trkpt lat="44.1290883" lon="12.1260817"><ele>209.66666666666666</ele><time>2026-04-28T08:05:15.639Z</time></trkpt><trkpt lat="44.129135" lon="12.125985"><ele>211.33333333333331</ele><time>2026-04-28T08:05:16.639Z</time></trkpt><trkpt lat="44.1291833" lon="12.1258817"><ele>213.0</ele><time>2026-04-28T08:05:17.639Z</time></trkpt><trkpt lat="44.12923" lon="12.1257817"><ele>214.66666666666669</ele><time>2026-04-28T08:05:18.639Z</time></trkpt><trkpt lat="44.1292733" lon="12.1256883"><ele>216.33333333333334</ele><time>2026-04-28T08:05:19.64Z</time></trkpt><trkpt lat="44.1293133" lon="12.125615"><ele>218.0</ele><time>2026-04-28T08:05:20.64Z</time></trkpt><trkpt lat="44.1293567" lon="12.1255217"><ele>218.33333333333334</ele><time>2026-04-28T08:05:21.64Z</time></trkpt><trkpt lat="44.1294033" lon="12.1254317"><ele>218.66666666666669</ele><time>2026-04-28T08:05:22.639Z</time></trkpt><trkpt lat="44.12945" lon="12.12535"><ele>219.0</ele><time>2026-04-28T08:05:23.639Z</time></trkpt><trkpt lat="44.1294967" lon="12.1252667"><ele>219.33333333333331</ele><time>2026-04-28T08:05:24.639Z</time></trkpt><trkpt lat="44.1295483" lon="12.1251733"><ele>219.66666666666666</ele><time>2026-04-28T08:05:25.639Z</time></trkpt><trkpt lat="44.12961" lon="12.1250767"><ele>220.0</ele><time>2026-04-28T08:05:26.639Z</time></trkpt><trkpt lat="44.1296733" lon="12.124985"><ele>220.0</ele><time>2026-04-28T08:05:27.639Z</time></trkpt><trkpt lat="44.1297483" lon="12.1249117"><ele>220.0</ele><time>2026-04-28T08:05:28.639Z</time></trkpt><trkpt lat="44.1298317" lon="12.1248467"><ele>220.0</ele><time>2026-04-28T08:05:29.64Z</time></trkpt><trkpt lat="44.12992" lon="12.1247933"><ele>220.0</ele><time>2026-04-28T08:05:30.639Z</time></trkpt><trkpt lat="44.1300083" lon="12.1247467"><ele>220.0</ele><time>2026-04-28T08:05:31.64Z</time></trkpt><trkpt lat="44.13009" lon="12.1246983"><ele>217.2</ele><time>2026-04-28T08:05:32.639Z</time></trkpt><trkpt lat="44.130175" lon="12.1246517"><ele>214.4</ele><time>2026-04-28T08:05:33.639Z</time></trkpt><trkpt lat="44.130265" lon="12.1246"><ele>211.60000000000002</ele><time>2026-04-28T08:05:34.639Z</time></trkpt><trkpt lat="44.1303483" lon="12.1245517"><ele>208.8</ele><time>2026-04-28T08:05:35.639Z</time></trkpt><trkpt lat="44.1304283" lon="12.1245117"><ele>206.0</ele><time>2026-04-28T08:05:36.639Z</time></trkpt><trkpt lat="44.1305167" lon="12.1244767"><ele>206.0</ele><time>2026-04-28T08:05:37.639Z</time></trkpt><trkpt lat="44.1306" lon="12.124445"><ele>206.0</ele><time>2026-04-28T08:05:38.639Z</time></trkpt><trkpt lat="44.1306983" lon="12.124425"><ele>206.0</ele><time>2026-04-28T08:05:39.639Z</time></trkpt><trkpt lat="44.1307967" lon="12.1244083"><ele>206.0</ele><time>2026-04-28T08:05:40.639Z</time></trkpt><trkpt lat="44.1308933" lon="12.12439"><ele>206.0</ele><time>2026-04-28T08:05:41.64Z</time></trkpt><trkpt lat="44.1310033" lon="12.1243617"><ele>206.5</ele><time>2026-04-28T08:05:42.639Z</time></trkpt><trkpt lat="44.1311267" lon="12.1243267"><ele>207.0</ele><time>2026-04-28T08:05:43.639Z</time></trkpt><trkpt lat="44.131245" lon="12.1242733"><ele>207.5</ele><time>2026-04-28T08:05:44.639Z</time></trkpt><trkpt lat="44.1313683" lon="12.124205"><ele>208.0</ele><time>2026-04-28T08:05:45.639Z</time></trkpt><trkpt lat="44.1314933" lon="12.124125"><ele>203.75</ele><time>2026-04-28T08:05:46.64Z</time></trkpt><trkpt lat="44.1316117" lon="12.1240167"><ele>199.5</ele><time>2026-04-28T08:05:47.64Z</time></trkpt><trkpt lat="44.1317217" lon="12.1239067"><ele>195.25</ele><time>2026-04-28T08:05:48.639Z</time></trkpt><trkpt lat="44.131835" lon="12.1237933"><ele>191.0</ele><time>2026-04-28T08:05:49.639Z</time></trkpt><trkpt lat="44.131955" lon="12.12368"><ele>191.0</ele><time>2026-04-28T08:05:50.64Z</time></trkpt><trkpt lat="44.1320783" lon="12.1235733"><ele>191.0</ele><time>2026-04-28T08:05:51.64Z</time></trkpt><trkpt lat="44.132195" lon="12.1234633"><ele>191.0</ele><time>2026-04-28T08:05:52.64Z</time></trkpt><trkpt lat="44.13231" lon="12.1233533"><ele>191.0</ele><time>2026-04-28T08:05:53.639Z</time></trkpt><trkpt lat="44.13242" lon="12.123245"><ele>190.0</ele><time>2026-04-28T08:05:54.64Z</time></trkpt><trkpt lat="44.132535" lon="12.1231283"><ele>189.0</ele><time>2026-04-28T08:05:55.64Z</time></trkpt><trkpt lat="44.1326417" lon="12.1230183"><ele>188.0</ele><time>2026-04-28T08:05:56.639Z</time></trkpt><trkpt lat="44.1327433" lon="12.1229233"><ele>187.0</ele><time>2026-04-28T08:05:57.639Z</time></trkpt><trkpt lat="44.1328433" lon="12.1228283"><ele>187.0</ele><time>2026-04-28T08:05:58.64Z</time></trkpt><trkpt lat="44.1329583" lon="12.1227267"><ele>187.0</ele><time>2026-04-28T08:05:59.64Z</time></trkpt><trkpt lat="44.1330767" lon="12.1226183"><ele>187.0</ele><time>2026-04-28T08:06:00.64Z</time></trkpt><trkpt lat="44.13318" lon="12.12252"><ele>187.0</ele><time>2026-04-28T08:06:01.64Z</time></trkpt><trkpt lat="44.1332917" lon="12.1224133"><ele>185.75</ele><time>2026-04-28T08:06:02.639Z</time></trkpt><trkpt lat="44.1334017" lon="12.1223033"><ele>184.5</ele><time>2026-04-28T08:06:03.64Z</time></trkpt><trkpt lat="44.1335167" lon="12.1221917"><ele>183.25</ele><time>2026-04-28T08:06:04.64Z</time></trkpt><trkpt lat="44.13363" lon="12.12208"><ele>182.0</ele><time>2026-04-28T08:06:05.64Z</time></trkpt><trkpt lat="44.13374" lon="12.12197"><ele>182.0</ele><time>2026-04-28T08:06:06.639Z</time></trkpt><trkpt lat="44.13385" lon="12.12187"><ele>182.0</ele><time>2026-04-28T08:06:07.64Z</time></trkpt><trkpt lat="44.133965" lon="12.121755"><ele>182.0</ele><time>2026-04-28T08:06:08.64Z</time></trkpt><trkpt lat="44.1340833" lon="12.1216483"><ele>182.0</ele><time>2026-04-28T08:06:09.64Z</time></trkpt><trkpt lat="44.1341983" lon="12.1215467"><ele>180.25</ele><time>2026-04-28T08:06:10.639Z</time></trkpt><trkpt lat="44.134315" lon="12.12144"><ele>178.5</ele><time>2026-04-28T08:06:11.639Z</time></trkpt><trkpt lat="44.13443" lon="12.1213567"><ele>176.75</ele><time>2026-04-28T08:06:12.639Z</time></trkpt><trkpt lat="44.1345583" lon="12.1212767"><ele>175.0</ele><time>2026-04-28T08:06:13.64Z</time></trkpt><trkpt lat="44.1346833" lon="12.12123"><ele>175.0</ele><time>2026-04-28T08:06:14.639Z</time></trkpt><trkpt lat="44.1348133" lon="12.1211967"><ele>175.0</ele><time>2026-04-28T08:06:15.64Z</time></trkpt><trkpt lat="44.13494" lon="12.121165"><ele>175.0</ele><time>2026-04-28T08:06:16.64Z</time></trkpt><trkpt lat="44.1350767" lon="12.121125"><ele>175.0</ele><time>2026-04-28T08:06:17.64Z</time></trkpt><trkpt lat="44.1352167" lon="12.1210833"><ele>174.5</ele><time>2026-04-28T08:06:18.64Z</time></trkpt><trkpt lat="44.1353567" lon="12.1210383"><ele>174.0</ele><time>2026-04-28T08:06:19.639Z</time></trkpt><trkpt lat="44.13549" lon="12.121"><ele>173.5</ele><time>2026-04-28T08:06:20.639Z</time></trkpt><trkpt lat="44.1356217" lon="12.1209633"><ele>173.0</ele><time>2026-04-28T08:06:21.64Z</time></trkpt><trkpt lat="44.1357583" lon="12.120925"><ele>170.75</ele><time>2026-04-28T08:06:22.64Z</time></trkpt><trkpt lat="44.135895" lon="12.1208917"><ele>168.5</ele><time>2026-04-28T08:06:23.64Z</time></trkpt><trkpt lat="44.1360383" lon="12.1208517"><ele>166.25</ele><time>2026-04-28T08:06:24.64Z</time></trkpt><trkpt lat="44.1361867" lon="12.12081"><ele>164.0</ele><time>2026-04-28T08:06:25.639Z</time></trkpt><trkpt lat="44.1363233" lon="12.1207667"><ele>160.5</ele><time>2026-04-28T08:06:26.639Z</time></trkpt><trkpt lat="44.1364667" lon="12.1207233"><ele>157.0</ele><time>2026-04-28T08:06:27.639Z</time></trkpt><trkpt lat="44.136605" lon="12.1206867"><ele>153.5</ele><time>2026-04-28T08:06:28.639Z</time></trkpt><trkpt lat="44.1367333" lon="12.12065"><ele>150.0</ele><time>2026-04-28T08:06:29.64Z</time></trkpt><trkpt lat="44.1368533" lon="12.1206217"><ele>149.8</ele><time>2026-04-28T08:06:30.639Z</time></trkpt><trkpt lat="44.1369733" lon="12.1205933"><ele>149.6</ele><time>2026-04-28T08:06:31.639Z</time></trkpt><trkpt lat="44.1370767" lon="12.1205683"><ele>149.4</ele><time>2026-04-28T08:06:32.64Z</time></trkpt><trkpt lat="44.137165" lon="12.1205417"><ele>149.2</ele><time>2026-04-28T08:06:33.639Z</time></trkpt><trkpt lat="44.1372383" lon="12.120505"><ele>149.0</ele><time>2026-04-28T08:06:34.639Z</time></trkpt><trkpt lat="44.1373017" lon="12.120455"><ele>149.0</ele><time>2026-04-28T08:06:35.639Z</time></trkpt><trkpt lat="44.1373467" lon="12.1203767"><ele>149.0</ele><time>2026-04-28T08:06:36.639Z</time></trkpt><trkpt lat="44.1373683" lon="12.1202883"><ele>149.0</ele><time>2026-04-28T08:06:37.639Z</time></trkpt><trkpt lat="44.1373733" lon="12.1201867"><ele>149.0</ele><time>2026-04-28T08:06:38.64Z</time></trkpt><trkpt lat="44.137365" lon="12.1200717"><ele>149.0</ele><time>2026-04-28T08:06:39.639Z</time></trkpt><trkpt lat="44.1373533" lon="12.119935"><ele>149.0</ele><time>2026-04-28T08:06:40.64Z</time></trkpt><trkpt lat="44.1373383" lon="12.1197883"><ele>146.75</ele><time>2026-04-28T08:06:41.64Z</time></trkpt><trkpt lat="44.1373317" lon="12.1196317"><ele>144.5</ele><time>2026-04-28T08:06:42.64Z</time></trkpt><trkpt lat="44.13732" lon="12.1194633"><ele>142.25</ele><time>2026-04-28T08:06:43.639Z</time></trkpt><trkpt lat="44.1373067" lon="12.1192867"><ele>140.0</ele><time>2026-04-28T08:06:44.64Z</time></trkpt><trkpt lat="44.1372933" lon="12.1191083"><ele>138.25</ele><time>2026-04-28T08:06:45.64Z</time></trkpt><trkpt lat="44.1372733" lon="12.11894"><ele>136.5</ele><time>2026-04-28T08:06:46.639Z</time></trkpt><trkpt lat="44.1372533" lon="12.11877"><ele>134.75</ele><time>2026-04-28T08:06:47.64Z</time></trkpt><trkpt lat="44.1372367" lon="12.1186133"><ele>133.0</ele><time>2026-04-28T08:06:48.64Z</time></trkpt><trkpt lat="44.1372317" lon="12.1184583"><ele>133.0</ele><time>2026-04-28T08:06:49.64Z</time></trkpt><trkpt lat="44.137225" lon="12.1183033"><ele>133.0</ele><time>2026-04-28T08:06:50.639Z</time></trkpt><trkpt lat="44.1372167" lon="12.1181517"><ele>133.0</ele><time>2026-04-28T08:06:51.64Z</time></trkpt><trkpt lat="44.1372117" lon="12.11801"><ele>133.0</ele><time>2026-04-28T08:06:52.64Z</time></trkpt><trkpt lat="44.1372067" lon="12.117875"><ele>133.0</ele><time>2026-04-28T08:06:53.639Z</time></trkpt><trkpt lat="44.1372017" lon="12.11774"><ele>131.66666666666669</ele><time>2026-04-28T08:06:54.64Z</time></trkpt><trkpt lat="44.1371917" lon="12.1176167"><ele>130.33333333333334</ele><time>2026-04-28T08:06:55.64Z</time></trkpt><trkpt lat="44.1371767" lon="12.1175083"><ele>129.0</ele><time>2026-04-28T08:06:56.639Z</time></trkpt><trkpt lat="44.1371533" lon="12.11741"><ele>127.66666666666666</ele><time>2026-04-28T08:06:57.64Z</time></trkpt><trkpt lat="44.137115" lon="12.1173283"><ele>126.33333333333333</ele><time>2026-04-28T08:06:58.64Z</time></trkpt><trkpt lat="44.1370617" lon="12.117255"><ele>125.0</ele><time>2026-04-28T08:06:59.64Z</time></trkpt><trkpt lat="44.136995" lon="12.1171917"><ele>123.71428571428571</ele><time>2026-04-28T08:07:00.639Z</time></trkpt><trkpt lat="44.1369333" lon="12.117135"><ele>122.42857142857144</ele><time>2026-04-28T08:07:01.64Z</time></trkpt><trkpt lat="44.1368817" lon="12.1170733"><ele>121.14285714285715</ele><time>2026-04-28T08:07:02.64Z</time></trkpt><trkpt lat="44.136835" lon="12.1170017"><ele>119.85714285714286</ele><time>2026-04-28T08:07:03.64Z</time></trkpt><trkpt lat="44.1368083" lon="12.1169117"><ele>118.57142857142858</ele><time>2026-04-28T08:07:04.64Z</time></trkpt><trkpt lat="44.1367883" lon="12.1168183"><ele>117.2857142857143</ele><time>2026-04-28T08:07:05.639Z</time></trkpt><trkpt lat="44.1367783" lon="12.1167183"><ele>116.00000000000001</ele><time>2026-04-28T08:07:06.639Z</time></trkpt><trkpt lat="44.1367817" lon="12.116615"><ele>114.8</ele><time>2026-04-28T08:07:07.639Z</time></trkpt><trkpt lat="44.1368" lon="12.1165133"><ele>113.6</ele><time>2026-04-28T08:07:08.639Z</time></trkpt><trkpt lat="44.1368317" lon="12.1163983"><ele>112.4</ele><time>2026-04-28T08:07:09.639Z</time></trkpt><trkpt lat="44.13687" lon="12.1162633"><ele>111.2</ele><time>2026-04-28T08:07:10.639Z</time></trkpt><trkpt lat="44.136905" lon="12.1161317"><ele>110.0</ele><time>2026-04-28T08:07:11.64Z</time></trkpt><trkpt lat="44.13694" lon="12.1159967"><ele>110.0</ele><time>2026-04-28T08:07:12.64Z</time></trkpt><trkpt lat="44.1369733" lon="12.1158567"><ele>110.0</ele><time>2026-04-28T08:07:13.64Z</time></trkpt><trkpt lat="44.1370067" lon="12.1157117"><ele>110.0</ele><time>2026-04-28T08:07:14.639Z</time></trkpt><trkpt lat="44.137045" lon="12.1155633"><ele>110.0</ele><time>2026-04-28T08:07:15.64Z</time></trkpt><trkpt lat="44.1370933" lon="12.11542"><ele>110.0</ele><time>2026-04-28T08:07:16.639Z</time></trkpt><trkpt lat="44.1371333" lon="12.1152483"><ele>109.2</ele><time>2026-04-28T08:07:17.639Z</time></trkpt><trkpt lat="44.13717" lon="12.1150983"><ele>108.4</ele><time>2026-04-28T08:07:18.639Z</time></trkpt><trkpt lat="44.1372" lon="12.114965"><ele>107.6</ele><time>2026-04-28T08:07:19.64Z</time></trkpt><trkpt lat="44.1372267" lon="12.1148417"><ele>106.8</ele><time>2026-04-28T08:07:20.639Z</time></trkpt><trkpt lat="44.1372517" lon="12.11472"><ele>106.0</ele><time>2026-04-28T08:07:21.639Z</time></trkpt><trkpt lat="44.1372617" lon="12.1145933"><ele>104.0</ele><time>2026-04-28T08:07:22.639Z</time></trkpt><trkpt lat="44.137245" lon="12.1144717"><ele>102.0</ele><time>2026-04-28T08:07:23.639Z</time></trkpt><trkpt lat="44.1372133" lon="12.1143467"><ele>100.0</ele><time>2026-04-28T08:07:24.64Z</time></trkpt><trkpt lat="44.1371733" lon="12.1142183"><ele>98.0</ele><time>2026-04-28T08:07:25.64Z</time></trkpt><trkpt lat="44.1371333" lon="12.1140933"><ele>96.0</ele><time>2026-04-28T08:07:26.64Z</time></trkpt><trkpt lat="44.1370967" lon="12.113985"><ele>94.33333333333333</ele><time>2026-04-28T08:07:27.64Z</time></trkpt><trkpt lat="44.1370683" lon="12.11388"><ele>92.66666666666667</ele><time>2026-04-28T08:07:28.64Z</time></trkpt><trkpt lat="44.1370533" lon="12.1137767"><ele>91.0</ele><time>2026-04-28T08:07:29.639Z</time></trkpt><trkpt lat="44.1370717" lon="12.113675"><ele>89.33333333333334</ele><time>2026-04-28T08:07:30.64Z</time></trkpt><trkpt lat="44.1371183" lon="12.1136017"><ele>87.66666666666667</ele><time>2026-04-28T08:07:31.64Z</time></trkpt><trkpt lat="44.1371883" lon="12.1135417"><ele>86.0</ele><time>2026-04-28T08:07:32.64Z</time></trkpt><trkpt lat="44.137275" lon="12.11351"><ele>86.0</ele><time>2026-04-28T08:07:33.64Z</time></trkpt><trkpt lat="44.137375" lon="12.1134833"><ele>86.0</ele><time>2026-04-28T08:07:34.639Z</time></trkpt><trkpt lat="44.1374767" lon="12.1134517"><ele>86.0</ele><time>2026-04-28T08:07:35.64Z</time></trkpt><trkpt lat="44.1375733" lon="12.113415"><ele>86.0</ele><time>2026-04-28T08:07:36.639Z</time></trkpt><trkpt lat="44.1376717" lon="12.11338"><ele>86.0</ele><time>2026-04-28T08:07:37.639Z</time></trkpt><trkpt lat="44.1377467" lon="12.113335"><ele>86.16666666666667</ele><time>2026-04-28T08:07:38.64Z</time></trkpt><trkpt lat="44.13782" lon="12.1132883"><ele>86.33333333333334</ele><time>2026-04-28T08:07:39.639Z</time></trkpt><trkpt lat="44.1378817" lon="12.11323"><ele>86.5</ele><time>2026-04-28T08:07:40.639Z</time></trkpt><trkpt lat="44.13793" lon="12.113155"><ele>86.66666666666667</ele><time>2026-04-28T08:07:41.64Z</time></trkpt><trkpt lat="44.13796" lon="12.1130533"><ele>86.83333333333333</ele><time>2026-04-28T08:07:42.64Z</time></trkpt><trkpt lat="44.137965" lon="12.1129467"><ele>87.0</ele><time>2026-04-28T08:07:43.639Z</time></trkpt><trkpt lat="44.13795" lon="12.112825"><ele>85.19999999999999</ele><time>2026-04-28T08:07:44.64Z</time></trkpt><trkpt lat="44.1379133" lon="12.1127133"><ele>83.39999999999999</ele><time>2026-04-28T08:07:45.64Z</time></trkpt><trkpt lat="44.1378867" lon="12.1125883"><ele>81.6</ele><time>2026-04-28T08:07:46.64Z</time></trkpt><trkpt lat="44.1378483" lon="12.1124667"><ele>79.8</ele><time>2026-04-28T08:07:47.639Z</time></trkpt><trkpt lat="44.137805" lon="12.1123333"><ele>78.0</ele><time>2026-04-28T08:07:48.639Z</time></trkpt><trkpt lat="44.1377567" lon="12.112205"><ele>76.4</ele><time>2026-04-28T08:07:49.639Z</time></trkpt><trkpt lat="44.1377" lon="12.1120817"><ele>74.8</ele><time>2026-04-28T08:07:50.64Z</time></trkpt><trkpt lat="44.1376417" lon="12.1119517"><ele>73.2</ele><time>2026-04-28T08:07:51.64Z</time></trkpt><trkpt lat="44.1375783" lon="12.11184"><ele>71.6</ele><time>2026-04-28T08:07:52.639Z</time></trkpt><trkpt lat="44.1375167" lon="12.1117167"><ele>70.0</ele><time>2026-04-28T08:07:53.64Z</time></trkpt><trkpt lat="44.1374683" lon="12.111585"><ele>69.2</ele><time>2026-04-28T08:07:54.64Z</time></trkpt><trkpt lat="44.137435" lon="12.11145"><ele>68.4</ele><time>2026-04-28T08:07:55.639Z</time></trkpt><trkpt lat="44.137425" lon="12.1113167"><ele>67.6</ele><time>2026-04-28T08:07:56.639Z</time></trkpt><trkpt lat="44.1374333" lon="12.111175"><ele>66.8</ele><time>2026-04-28T08:07:57.639Z</time></trkpt><trkpt lat="44.137465" lon="12.1110367"><ele>66.0</ele><time>2026-04-28T08:07:58.64Z</time></trkpt><trkpt lat="44.1374917" lon="12.110905"><ele>66.0</ele><time>2026-04-28T08:07:59.64Z</time></trkpt><trkpt lat="44.1375267" lon="12.1107867"><ele>66.0</ele><time>2026-04-28T08:08:00.639Z</time></trkpt><trkpt lat="44.1375683" lon="12.1106683"><ele>66.0</ele><time>2026-04-28T08:08:01.639Z</time></trkpt><trkpt lat="44.137605" lon="12.1105483"><ele>66.0</ele><time>2026-04-28T08:08:02.64Z</time></trkpt><trkpt lat="44.137635" lon="12.11043"><ele>66.0</ele><time>2026-04-28T08:08:03.639Z</time></trkpt><trkpt lat="44.1376617" lon="12.110325"><ele>65.71428571428571</ele><time>2026-04-28T08:08:04.639Z</time></trkpt><trkpt lat="44.137685" lon="12.1102333"><ele>65.42857142857143</ele><time>2026-04-28T08:08:05.64Z</time></trkpt><trkpt lat="44.137705" lon="12.11015"><ele>65.14285714285714</ele><time>2026-04-28T08:08:06.64Z</time></trkpt><trkpt lat="44.137735" lon="12.1100617"><ele>64.85714285714286</ele><time>2026-04-28T08:08:07.64Z</time></trkpt><trkpt lat="44.1377583" lon="12.1099717"><ele>64.57142857142857</ele><time>2026-04-28T08:08:08.639Z</time></trkpt><trkpt lat="44.13778" lon="12.1098833"><ele>64.28571428571428</ele><time>2026-04-28T08:08:09.64Z</time></trkpt><trkpt lat="44.1377933" lon="12.1097883"><ele>64.0</ele><time>2026-04-28T08:08:10.64Z</time></trkpt><trkpt lat="44.1378017" lon="12.109695"><ele>63.71428571428571</ele><time>2026-04-28T08:08:11.639Z</time></trkpt><trkpt lat="44.1378067" lon="12.1095967"><ele>63.42857142857142</ele><time>2026-04-28T08:08:12.64Z</time></trkpt><trkpt lat="44.137805" lon="12.1095017"><ele>63.14285714285714</ele><time>2026-04-28T08:08:13.64Z</time></trkpt><trkpt lat="44.1378017" lon="12.1094017"><ele>62.85714285714286</ele><time>2026-04-28T08:08:14.64Z</time></trkpt><trkpt lat="44.1377983" lon="12.1093033"><ele>62.57142857142858</ele><time>2026-04-28T08:08:15.639Z</time></trkpt><trkpt lat="44.137795" lon="12.1092067"><ele>62.28571428571429</ele><time>2026-04-28T08:08:16.639Z</time></trkpt><trkpt lat="44.1377917" lon="12.1091067"><ele>62.0</ele><time>2026-04-28T08:08:17.639Z</time></trkpt><trkpt lat="44.1377867" lon="12.1090017"><ele>61.833333333333336</ele><time>2026-04-28T08:08:18.64Z</time></trkpt><trkpt lat="44.13778" lon="12.1089"><ele>61.66666666666667</ele><time>2026-04-28T08:08:19.64Z</time></trkpt><trkpt lat="44.137775" lon="12.108795"><ele>61.5</ele><time>2026-04-28T08:08:20.64Z</time></trkpt><trkpt lat="44.1377683" lon="12.10869"><ele>61.33333333333333</ele><time>2026-04-28T08:08:21.64Z</time></trkpt><trkpt lat="44.1377583" lon="12.10858"><ele>61.166666666666664</ele><time>2026-04-28T08:08:22.64Z</time></trkpt><trkpt lat="44.137755" lon="12.1084733"><ele>61.0</ele><time>2026-04-28T08:08:23.639Z</time></trkpt><trkpt lat="44.1377483" lon="12.1083583"><ele>60.83333333333333</ele><time>2026-04-28T08:08:24.639Z</time></trkpt><trkpt lat="44.1377367" lon="12.1082417"><ele>60.666666666666664</ele><time>2026-04-28T08:08:25.639Z</time></trkpt><trkpt lat="44.1377183" lon="12.1081217"><ele>60.5</ele><time>2026-04-28T08:08:26.639Z</time></trkpt><trkpt lat="44.1377033" lon="12.107995"><ele>60.33333333333333</ele><time>2026-04-28T08:08:27.639Z</time></trkpt><trkpt lat="44.1376967" lon="12.107875"><ele>60.166666666666664</ele><time>2026-04-28T08:08:28.639Z</time></trkpt><trkpt lat="44.1376833" lon="12.1077583"><ele>60.0</ele><time>2026-04-28T08:08:29.639Z</time></trkpt><trkpt lat="44.1376733" lon="12.1076483"><ele>60.0</ele><time>2026-04-28T08:08:30.64Z</time></trkpt><trkpt lat="44.1376667" lon="12.1075317"><ele>60.0</ele><time>2026-04-28T08:08:31.64Z</time></trkpt><trkpt lat="44.1376583" lon="12.10742"><ele>60.0</ele><time>2026-04-28T08:08:32.64Z</time></trkpt><trkpt lat="44.1376517" lon="12.1073117"><ele>60.0</ele><time>2026-04-28T08:08:33.639Z</time></trkpt><trkpt lat="44.137645" lon="12.1072083"><ele>60.0</ele><time>2026-04-28T08:08:34.64Z</time></trkpt><trkpt lat="44.13764" lon="12.1071"><ele>60.0</ele><time>2026-04-28T08:08:35.639Z</time></trkpt><trkpt lat="44.1376317" lon="12.1069817"><ele>59.666666666666664</ele><time>2026-04-28T08:08:36.64Z</time></trkpt><trkpt lat="44.1376267" lon="12.10686"><ele>59.33333333333333</ele><time>2026-04-28T08:08:37.64Z</time></trkpt><trkpt lat="44.1376233" lon="12.106755"><ele>59.0</ele><time>2026-04-28T08:08:38.639Z</time></trkpt><trkpt lat="44.1376233" lon="12.10665"><ele>58.666666666666664</ele><time>2026-04-28T08:08:39.639Z</time></trkpt><trkpt lat="44.13762" lon="12.1065483"><ele>58.33333333333333</ele><time>2026-04-28T08:08:40.639Z</time></trkpt><trkpt lat="44.137615" lon="12.1064517"><ele>58.0</ele><time>2026-04-28T08:08:41.64Z</time></trkpt><trkpt lat="44.1376133" lon="12.10635"><ele>57.85714285714286</ele><time>2026-04-28T08:08:42.64Z</time></trkpt><trkpt lat="44.1376133" lon="12.10625"><ele>57.714285714285715</ele><time>2026-04-28T08:08:43.64Z</time></trkpt><trkpt lat="44.1376133" lon="12.1061567"><ele>57.57142857142857</ele><time>2026-04-28T08:08:44.639Z</time></trkpt><trkpt lat="44.1376117" lon="12.1060583"><ele>57.42857142857143</ele><time>2026-04-28T08:08:45.64Z</time></trkpt><trkpt lat="44.13761" lon="12.105955"><ele>57.28571428571428</ele><time>2026-04-28T08:08:46.639Z</time></trkpt><trkpt lat="44.13761" lon="12.1058533"><ele>57.14285714285714</ele><time>2026-04-28T08:08:47.64Z</time></trkpt><trkpt lat="44.1376067" lon="12.1057633"><ele>57.0</ele><time>2026-04-28T08:08:48.639Z</time></trkpt><trkpt lat="44.1376067" lon="12.1055983"><ele>56.833333333333336</ele><time>2026-04-28T08:08:50.64Z</time></trkpt><trkpt lat="44.1376083" lon="12.1054533"><ele>56.66666666666667</ele><time>2026-04-28T08:08:52.639Z</time></trkpt><trkpt lat="44.1376033" lon="12.105355"><ele>56.5</ele><time>2026-04-28T08:08:54.64Z</time></trkpt><trkpt lat="44.1375967" lon="12.1052517"><ele>56.333333333333336</ele><time>2026-04-28T08:08:57.639Z</time></trkpt><trkpt lat="44.1376017" lon="12.1051317"><ele>56.16666666666667</ele><time>2026-04-28T08:09:00.64Z</time></trkpt><trkpt lat="44.137545" lon="12.1051883"><ele>56.0</ele><time>2026-04-28T08:09:07.64Z</time></trkpt><trkpt lat="44.13759" lon="12.1050883"><ele>56.00000000000001</ele><time>2026-04-28T08:09:13.64Z</time></trkpt><trkpt lat="44.1376367" lon="12.1049967"><ele>56.0</ele><time>2026-04-28T08:09:16.64Z</time></trkpt><trkpt lat="44.1376733" lon="12.1049167"><ele>56.0</ele><time>2026-04-28T08:09:18.64Z</time></trkpt><trkpt lat="44.1377033" lon="12.1048183"><ele>56.0</ele><time>2026-04-28T08:09:20.64Z</time></trkpt><trkpt lat="44.137745" lon="12.1047133"><ele>56.00000000000001</ele><time>2026-04-28T08:09:22.639Z</time></trkpt><trkpt lat="44.1377867" lon="12.104605"><ele>56.0</ele><time>2026-04-28T08:09:24.64Z</time></trkpt><trkpt lat="44.1378267" lon="12.1044867"><ele>56.0</ele><time>2026-04-28T08:09:26.639Z</time></trkpt><trkpt lat="44.1378683" lon="12.104365"><ele>55.99999999999999</ele><time>2026-04-28T08:09:28.64Z</time></trkpt><trkpt lat="44.13791" lon="12.1042483"><ele>55.99999999999999</ele><time>2026-04-28T08:09:30.64Z</time></trkpt><trkpt lat="44.137955" lon="12.1041283"><ele>56.0</ele><time>2026-04-28T08:09:32.639Z</time></trkpt><trkpt lat="44.1379983" lon="12.1039983"><ele>56.0</ele><time>2026-04-28T08:09:34.64Z</time></trkpt><trkpt lat="44.1380433" lon="12.10387"><ele>55.599999999999994</ele><time>2026-04-28T08:09:36.64Z</time></trkpt><trkpt lat="44.1380917" lon="12.10374"><ele>55.199999999999996</ele><time>2026-04-28T08:09:38.639Z</time></trkpt><trkpt lat="44.1381383" lon="12.1036217"><ele>54.800000000000004</ele><time>2026-04-28T08:09:40.64Z</time></trkpt><trkpt lat="44.1381833" lon="12.1035"><ele>54.400000000000006</ele><time>2026-04-28T08:09:42.64Z</time></trkpt><trkpt lat="44.13823" lon="12.1033717"><ele>54.0</ele><time>2026-04-28T08:09:44.64Z</time></trkpt><trkpt lat="44.1382733" lon="12.103265"><ele>54.400000000000006</ele><time>2026-04-28T08:09:46.639Z</time></trkpt><trkpt lat="44.1383133" lon="12.10315"><ele>54.800000000000004</ele><time>2026-04-28T08:09:48.639Z</time></trkpt><trkpt lat="44.1383533" lon="12.1030283"><ele>55.199999999999996</ele><time>2026-04-28T08:09:50.64Z</time></trkpt><trkpt lat="44.1383983" lon="12.1029017"><ele>55.599999999999994</ele><time>2026-04-28T08:09:52.639Z</time></trkpt><trkpt lat="44.13843" lon="12.102795"><ele>56.0</ele><time>2026-04-28T08:09:54.64Z</time></trkpt><trkpt lat="44.1384717" lon="12.1026967"><ele>56.00000000000001</ele><time>2026-04-28T08:09:56.64Z</time></trkpt><trkpt lat="44.1385167" lon="12.1026"><ele>56.0</ele><time>2026-04-28T08:09:58.64Z</time></trkpt><trkpt lat="44.13856" lon="12.1024933"><ele>56.0</ele><time>2026-04-28T08:10:00.64Z</time></trkpt><trkpt lat="44.1385983" lon="12.1023967"><ele>56.0</ele><time>2026-04-28T08:10:02.639Z</time></trkpt><trkpt lat="44.1386417" lon="12.1022783"><ele>56.00000000000001</ele><time>2026-04-28T08:10:04.64Z</time></trkpt><trkpt lat="44.13868" lon="12.1021467"><ele>56.0</ele><time>2026-04-28T08:10:06.64Z</time></trkpt><trkpt lat="44.13871" lon="12.1020267"><ele>55.4</ele><time>2026-04-28T08:10:08.639Z</time></trkpt><trkpt lat="44.13874" lon="12.1018833"><ele>54.8</ele><time>2026-04-28T08:10:10.64Z</time></trkpt><trkpt lat="44.1387833" lon="12.101755"><ele>54.199999999999996</ele><time>2026-04-28T08:10:12.639Z</time></trkpt><trkpt lat="44.1388317" lon="12.1016333"><ele>53.599999999999994</ele><time>2026-04-28T08:10:14.64Z</time></trkpt><trkpt lat="44.13889" lon="12.1015217"><ele>53.0</ele><time>2026-04-28T08:10:16.64Z</time></trkpt><trkpt lat="44.1389517" lon="12.1013767"><ele>53.0</ele><time>2026-04-28T08:10:18.64Z</time></trkpt><trkpt lat="44.1390083" lon="12.101255"><ele>53.0</ele><time>2026-04-28T08:10:20.64Z</time></trkpt><trkpt lat="44.1390833" lon="12.1011433"><ele>53.0</ele><time>2026-04-28T08:10:22.64Z</time></trkpt><trkpt lat="44.139175" lon="12.1010367"><ele>53.0</ele><time>2026-04-28T08:10:24.639Z</time></trkpt><trkpt lat="44.1392283" lon="12.1009833"><ele>53.0</ele><time>2026-04-28T08:10:25.639Z</time></trkpt><trkpt lat="44.1392817" lon="12.1009317"><ele>53.4</ele><time>2026-04-28T08:10:26.639Z</time></trkpt><trkpt lat="44.1393367" lon="12.1008767"><ele>53.8</ele><time>2026-04-28T08:10:27.639Z</time></trkpt><trkpt lat="44.1394283" lon="12.1007717"><ele>54.2</ele><time>2026-04-28T08:10:29.639Z</time></trkpt><trkpt lat="44.1394983" lon="12.100685"><ele>54.6</ele><time>2026-04-28T08:10:31.639Z</time></trkpt><trkpt lat="44.1395783" lon="12.100625"><ele>55.0</ele><time>2026-04-28T08:10:33.639Z</time></trkpt><trkpt lat="44.1396783" lon="12.1005817"><ele>54.99999999999999</ele><time>2026-04-28T08:10:35.639Z</time></trkpt><trkpt lat="44.1397767" lon="12.1005417"><ele>55.0</ele><time>2026-04-28T08:10:37.64Z</time></trkpt><trkpt lat="44.1399033" lon="12.1004983"><ele>55.0</ele><time>2026-04-28T08:10:39.64Z</time></trkpt><trkpt lat="44.139975" lon="12.100485"><ele>55.0</ele><time>2026-04-28T08:10:40.64Z</time></trkpt><trkpt lat="44.1400383" lon="12.10048"><ele>54.99999999999999</ele><time>2026-04-28T08:10:41.64Z</time></trkpt><trkpt lat="44.1401017" lon="12.1004783"><ele>55.0</ele><time>2026-04-28T08:10:42.64Z</time></trkpt><trkpt lat="44.140175" lon="12.100485"><ele>54.99999999999999</ele><time>2026-04-28T08:10:43.639Z</time></trkpt><trkpt lat="44.1402433" lon="12.1004883"><ele>55.0</ele><time>2026-04-28T08:10:44.639Z</time></trkpt><trkpt lat="44.1403167" lon="12.1004833"><ele>55.0</ele><time>2026-04-28T08:10:45.64Z</time></trkpt><trkpt lat="44.1403883" lon="12.1004833"><ele>55.0</ele><time>2026-04-28T08:10:46.64Z</time></trkpt><trkpt lat="44.1404617" lon="12.1004933"><ele>55.0</ele><time>2026-04-28T08:10:47.64Z</time></trkpt><trkpt lat="44.1405433" lon="12.100505"><ele>54.99999999999999</ele><time>2026-04-28T08:10:48.64Z</time></trkpt><trkpt lat="44.1406217" lon="12.1005117"><ele>55.0</ele><time>2026-04-28T08:10:49.64Z</time></trkpt><trkpt lat="44.1406933" lon="12.1005317"><ele>54.83333333333333</ele><time>2026-04-28T08:10:50.64Z</time></trkpt><trkpt lat="44.1407617" lon="12.1005533"><ele>54.666666666666664</ele><time>2026-04-28T08:10:51.64Z</time></trkpt><trkpt lat="44.14085" lon="12.10058"><ele>54.5</ele><time>2026-04-28T08:10:52.639Z</time></trkpt><trkpt lat="44.14094" lon="12.1006"><ele>54.33333333333333</ele><time>2026-04-28T08:10:53.639Z</time></trkpt><trkpt lat="44.1410333" lon="12.1006233"><ele>54.166666666666664</ele><time>2026-04-28T08:10:54.639Z</time></trkpt><trkpt lat="44.1411267" lon="12.100645"><ele>54.0</ele><time>2026-04-28T08:10:55.64Z</time></trkpt><trkpt lat="44.141215" lon="12.100665"><ele>54.0</ele><time>2026-04-28T08:10:56.639Z</time></trkpt><trkpt lat="44.1413017" lon="12.100695"><ele>54.0</ele><time>2026-04-28T08:10:57.64Z</time></trkpt><trkpt lat="44.1413817" lon="12.1007217"><ele>54.0</ele><time>2026-04-28T08:10:58.639Z</time></trkpt><trkpt lat="44.1414567" lon="12.10075"><ele>54.0</ele><time>2026-04-28T08:10:59.64Z</time></trkpt><trkpt lat="44.1415283" lon="12.100785"><ele>54.0</ele><time>2026-04-28T08:11:00.64Z</time></trkpt><trkpt lat="44.141595" lon="12.10079"><ele>54.0</ele><time>2026-04-28T08:11:01.639Z</time></trkpt><trkpt lat="44.14173" lon="12.1008083"><ele>54.0</ele><time>2026-04-28T08:11:03.639Z</time></trkpt><trkpt lat="44.1418483" lon="12.10083"><ele>54.00000000000001</ele><time>2026-04-28T08:11:05.64Z</time></trkpt><trkpt lat="44.1419133" lon="12.1008467"><ele>54.00000000000001</ele><time>2026-04-28T08:11:06.639Z</time></trkpt><trkpt lat="44.1420283" lon="12.100905"><ele>54.0</ele><time>2026-04-28T08:11:08.64Z</time></trkpt><trkpt lat="44.1421233" lon="12.1009733"><ele>54.0</ele><time>2026-04-28T08:11:10.639Z</time></trkpt><trkpt lat="44.1422233" lon="12.10104"><ele>54.0</ele><time>2026-04-28T08:11:12.64Z</time></trkpt><trkpt lat="44.1423233" lon="12.101105"><ele>54.0</ele><time>2026-04-28T08:11:14.64Z</time></trkpt><trkpt lat="44.142405" lon="12.1011517"><ele>54.0</ele><time>2026-04-28T08:11:16.639Z</time></trkpt><trkpt lat="44.1424683" lon="12.1011667"><ele>54.0</ele><time>2026-04-28T08:11:18.64Z</time></trkpt><trkpt lat="44.1425233" lon="12.1010717"><ele>54.0</ele><time>2026-04-28T08:11:21.64Z</time></trkpt><trkpt lat="44.142565" lon="12.100965"><ele>54.0</ele><time>2026-04-28T08:11:23.639Z</time></trkpt><trkpt lat="44.142585" lon="12.1008367"><ele>53.2</ele><time>2026-04-28T08:11:25.64Z</time></trkpt><trkpt lat="44.1425683" lon="12.10072"><ele>52.400000000000006</ele><time>2026-04-28T08:11:27.64Z</time></trkpt><trkpt lat="44.1425467" lon="12.10056"><ele>51.6</ele><time>2026-04-28T08:11:29.64Z</time></trkpt><trkpt lat="44.1425283" lon="12.1003883"><ele>50.8</ele><time>2026-04-28T08:11:31.639Z</time></trkpt><trkpt lat="44.142505" lon="12.1002367"><ele>50.0</ele><time>2026-04-28T08:11:33.639Z</time></trkpt><trkpt lat="44.1424767" lon="12.1000933"><ele>50.50000000000001</ele><time>2026-04-28T08:11:35.639Z</time></trkpt><trkpt lat="44.1424333" lon="12.0999133"><ele>51.0</ele><time>2026-04-28T08:11:38.639Z</time></trkpt><trkpt lat="44.1424083" lon="12.0997967"><ele>51.5</ele><time>2026-04-28T08:11:41.64Z</time></trkpt><trkpt lat="44.142385" lon="12.0997033"><ele>52.0</ele><time>2026-04-28T08:11:45.64Z</time></trkpt><trkpt lat="44.1423567" lon="12.0996067"><ele>52.50000000000001</ele><time>2026-04-28T08:11:50.64Z</time></trkpt><trkpt lat="44.1423417" lon="12.099515"><ele>53.0</ele><time>2026-04-28T08:11:53.64Z</time></trkpt><trkpt lat="44.1423417" lon="12.0994083"><ele>53.0</ele><time>2026-04-28T08:11:56.64Z</time></trkpt><trkpt lat="44.1423367" lon="12.0993017"><ele>53.0</ele><time>2026-04-28T08:11:59.64Z</time></trkpt><trkpt lat="44.1423433" lon="12.0991983"><ele>53.0</ele><time>2026-04-28T08:12:02.64Z</time></trkpt><trkpt lat="44.14236" lon="12.09909"><ele>53.0</ele><time>2026-04-28T08:12:05.639Z</time></trkpt><trkpt lat="44.142365" lon="12.0989817"><ele>53.0</ele><time>2026-04-28T08:12:09.639Z</time></trkpt><trkpt lat="44.1423917" lon="12.0989017"><ele>53.0</ele><time>2026-04-28T08:12:12.64Z</time></trkpt><trkpt lat="44.1424117" lon="12.0988"><ele>53.0</ele><time>2026-04-28T08:12:16.64Z</time></trkpt><trkpt lat="44.1424317" lon="12.0986967"><ele>53.833333333333336</ele><time>2026-04-28T08:12:19.64Z</time></trkpt><trkpt lat="44.142465" lon="12.0985717"><ele>54.66666666666667</ele><time>2026-04-28T08:12:22.64Z</time></trkpt><trkpt lat="44.1424983" lon="12.098485"><ele>55.5</ele><time>2026-04-28T08:12:24.639Z</time></trkpt><trkpt lat="44.142525" lon="12.0983783"><ele>56.33333333333333</ele><time>2026-04-28T08:12:26.64Z</time></trkpt><trkpt lat="44.142555" lon="12.098265"><ele>57.166666666666664</ele><time>2026-04-28T08:12:28.64Z</time></trkpt><trkpt lat="44.1425933" lon="12.09814"><ele>58.0</ele><time>2026-04-28T08:12:30.64Z</time></trkpt><trkpt lat="44.142655" lon="12.09799"><ele>58.0</ele><time>2026-04-28T08:12:32.639Z</time></trkpt><trkpt lat="44.1427017" lon="12.0978533"><ele>58.0</ele><time>2026-04-28T08:12:34.64Z</time></trkpt><trkpt lat="44.14273" lon="12.097765"><ele>58.0</ele><time>2026-04-28T08:12:36.639Z</time></trkpt><trkpt lat="44.1428267" lon="12.0976683"><ele>58.0</ele><time>2026-04-28T08:12:47.639Z</time></trkpt><trkpt lat="44.14283" lon="12.0975617"><ele>58.0</ele><time>2026-04-28T08:12:50.639Z</time></trkpt><trkpt lat="44.1428117" lon="12.09744"><ele>57.49999999999999</ele><time>2026-04-28T08:12:53.64Z</time></trkpt><trkpt lat="44.1427883" lon="12.097345"><ele>57.0</ele><time>2026-04-28T08:12:55.639Z</time></trkpt><trkpt lat="44.14276" lon="12.0972417"><ele>56.5</ele><time>2026-04-28T08:12:57.64Z</time></trkpt><trkpt lat="44.1427333" lon="12.0971467"><ele>56.0</ele><time>2026-04-28T08:12:59.64Z</time></trkpt><trkpt lat="44.1427083" lon="12.0970317"><ele>55.49999999999999</ele><time>2026-04-28T08:13:01.64Z</time></trkpt><trkpt lat="44.142675" lon="12.09693"><ele>55.0</ele><time>2026-04-28T08:13:03.64Z</time></trkpt><trkpt lat="44.1426317" lon="12.0968317"><ele>54.99999999999999</ele><time>2026-04-28T08:13:05.64Z</time></trkpt><trkpt lat="44.1426" lon="12.0967333"><ele>55.0</ele><time>2026-04-28T08:13:07.639Z</time></trkpt><trkpt lat="44.14256" lon="12.0966483"><ele>55.0</ele><time>2026-04-28T08:13:09.639Z</time></trkpt><trkpt lat="44.1425167" lon="12.0965517"><ele>55.0</ele><time>2026-04-28T08:13:11.639Z</time></trkpt><trkpt lat="44.1424767" lon="12.0964617"><ele>54.99999999999999</ele><time>2026-04-28T08:13:13.64Z</time></trkpt><trkpt lat="44.14243" lon="12.09637"><ele>55.0</ele><time>2026-04-28T08:13:15.639Z</time></trkpt><trkpt lat="44.1423833" lon="12.0962767"><ele>55.83333333333333</ele><time>2026-04-28T08:13:17.64Z</time></trkpt><trkpt lat="44.1423433" lon="12.0961733"><ele>56.666666666666664</ele><time>2026-04-28T08:13:19.639Z</time></trkpt><trkpt lat="44.142305" lon="12.096075"><ele>57.5</ele><time>2026-04-28T08:13:21.639Z</time></trkpt><trkpt lat="44.1422617" lon="12.0959783"><ele>58.33333333333333</ele><time>2026-04-28T08:13:23.639Z</time></trkpt><trkpt lat="44.14222" lon="12.0958833"><ele>59.166666666666664</ele><time>2026-04-28T08:13:25.64Z</time></trkpt><trkpt lat="44.1421783" lon="12.0958017"><ele>60.0</ele><time>2026-04-28T08:13:27.639Z</time></trkpt><trkpt lat="44.1421217" lon="12.09572"><ele>60.0</ele><time>2026-04-28T08:13:29.639Z</time></trkpt><trkpt lat="44.14207" lon="12.0956117"><ele>60.0</ele><time>2026-04-28T08:13:31.64Z</time></trkpt><trkpt lat="44.1420267" lon="12.0954983"><ele>60.0</ele><time>2026-04-28T08:13:33.639Z</time></trkpt><trkpt lat="44.1419883" lon="12.0953933"><ele>60.0</ele><time>2026-04-28T08:13:35.639Z</time></trkpt><trkpt lat="44.1419533" lon="12.0952883"><ele>60.0</ele><time>2026-04-28T08:13:37.639Z</time></trkpt><trkpt lat="44.1419117" lon="12.095185"><ele>60.0</ele><time>2026-04-28T08:13:39.639Z</time></trkpt><trkpt lat="44.141865" lon="12.0950883"><ele>60.0</ele><time>2026-04-28T08:13:41.64Z</time></trkpt><trkpt lat="44.141815" lon="12.0949917"><ele>60.0</ele><time>2026-04-28T08:13:43.64Z</time></trkpt><trkpt lat="44.1417767" lon="12.0948867"><ele>60.0</ele><time>2026-04-28T08:13:45.639Z</time></trkpt><trkpt lat="44.14173" lon="12.0947833"><ele>60.0</ele><time>2026-04-28T08:13:47.639Z</time></trkpt><trkpt lat="44.1416833" lon="12.09468"><ele>60.0</ele><time>2026-04-28T08:13:49.64Z</time></trkpt><trkpt lat="44.1416433" lon="12.0945767"><ele>60.0</ele><time>2026-04-28T08:13:51.64Z</time></trkpt><trkpt lat="44.141605" lon="12.0944683"><ele>60.0</ele><time>2026-04-28T08:13:53.639Z</time></trkpt><trkpt lat="44.1415633" lon="12.0943583"><ele>60.0</ele><time>2026-04-28T08:13:55.64Z</time></trkpt><trkpt lat="44.14151" lon="12.09424"><ele>60.0</ele><time>2026-04-28T08:13:57.64Z</time></trkpt><trkpt lat="44.141475" lon="12.0941383"><ele>60.0</ele><time>2026-04-28T08:13:59.64Z</time></trkpt><trkpt lat="44.1414333" lon="12.0940333"><ele>60.0</ele><time>2026-04-28T08:14:01.639Z</time></trkpt><trkpt lat="44.1413933" lon="12.09392"><ele>60.0</ele><time>2026-04-28T08:14:03.64Z</time></trkpt><trkpt lat="44.1413467" lon="12.09381"><ele>60.666666666666664</ele><time>2026-04-28T08:14:05.639Z</time></trkpt><trkpt lat="44.1413017" lon="12.0937067"><ele>61.33333333333333</ele><time>2026-04-28T08:14:07.639Z</time></trkpt><trkpt lat="44.1412517" lon="12.09361"><ele>62.0</ele><time>2026-04-28T08:14:09.64Z</time></trkpt><trkpt lat="44.1412117" lon="12.0935233"><ele>62.666666666666664</ele><time>2026-04-28T08:14:11.639Z</time></trkpt><trkpt lat="44.1411783" lon="12.0934383"><ele>63.33333333333333</ele><time>2026-04-28T08:14:13.64Z</time></trkpt><trkpt lat="44.1411433" lon="12.093345"><ele>64.0</ele><time>2026-04-28T08:14:15.639Z</time></trkpt><trkpt lat="44.1411033" lon="12.09324"><ele>63.99999999999999</ele><time>2026-04-28T08:14:17.639Z</time></trkpt><trkpt lat="44.14106" lon="12.0931333"><ele>64.0</ele><time>2026-04-28T08:14:19.64Z</time></trkpt><trkpt lat="44.1410267" lon="12.0930333"><ele>64.0</ele><time>2026-04-28T08:14:21.639Z</time></trkpt><trkpt lat="44.1409917" lon="12.0929333"><ele>64.0</ele><time>2026-04-28T08:14:23.64Z</time></trkpt><trkpt lat="44.14095" lon="12.0928367"><ele>63.99999999999999</ele><time>2026-04-28T08:14:25.64Z</time></trkpt><trkpt lat="44.1409083" lon="12.09274"><ele>64.0</ele><time>2026-04-28T08:14:27.64Z</time></trkpt><trkpt lat="44.1408717" lon="12.0926483"><ele>63.99999999999999</ele><time>2026-04-28T08:14:29.64Z</time></trkpt><trkpt lat="44.1408367" lon="12.092555"><ele>64.0</ele><time>2026-04-28T08:14:31.639Z</time></trkpt><trkpt lat="44.1407983" lon="12.0924583"><ele>64.0</ele><time>2026-04-28T08:14:33.64Z</time></trkpt><trkpt lat="44.1407617" lon="12.0923517"><ele>64.0</ele><time>2026-04-28T08:14:35.64Z</time></trkpt><trkpt lat="44.14073" lon="12.09225"><ele>63.99999999999999</ele><time>2026-04-28T08:14:37.64Z</time></trkpt><trkpt lat="44.1406917" lon="12.0921467"><ele>64.0</ele><time>2026-04-28T08:14:39.64Z</time></trkpt><trkpt lat="44.1406533" lon="12.0920483"><ele>64.5</ele><time>2026-04-28T08:14:41.64Z</time></trkpt><trkpt lat="44.14061" lon="12.091945"><ele>65.0</ele><time>2026-04-28T08:14:43.64Z</time></trkpt><trkpt lat="44.1405667" lon="12.0918417"><ele>65.5</ele><time>2026-04-28T08:14:45.64Z</time></trkpt><trkpt lat="44.14053" lon="12.09174"><ele>66.0</ele><time>2026-04-28T08:14:47.64Z</time></trkpt><trkpt lat="44.1404917" lon="12.0916417"><ele>66.5</ele><time>2026-04-28T08:14:49.64Z</time></trkpt><trkpt lat="44.1404517" lon="12.091545"><ele>67.0</ele><time>2026-04-28T08:14:51.639Z</time></trkpt><trkpt lat="44.140415" lon="12.0914567"><ele>67.0</ele><time>2026-04-28T08:14:53.64Z</time></trkpt><trkpt lat="44.140375" lon="12.09137"><ele>67.0</ele><time>2026-04-28T08:14:55.639Z</time></trkpt><trkpt lat="44.140335" lon="12.0912733"><ele>67.0</ele><time>2026-04-28T08:14:57.64Z</time></trkpt><trkpt lat="44.140295" lon="12.0911717"><ele>67.0</ele><time>2026-04-28T08:14:59.639Z</time></trkpt><trkpt lat="44.1402583" lon="12.0910717"><ele>67.0</ele><time>2026-04-28T08:15:01.639Z</time></trkpt><trkpt lat="44.1402217" lon="12.090975"><ele>67.0</ele><time>2026-04-28T08:15:03.64Z</time></trkpt><trkpt lat="44.1401867" lon="12.0908667"><ele>66.6</ele><time>2026-04-28T08:15:05.639Z</time></trkpt><trkpt lat="44.14013" lon="12.09075"><ele>66.2</ele><time>2026-04-28T08:15:07.639Z</time></trkpt><trkpt lat="44.14007" lon="12.0906383"><ele>65.8</ele><time>2026-04-28T08:15:09.64Z</time></trkpt><trkpt lat="44.1400267" lon="12.0905333"><ele>65.4</ele><time>2026-04-28T08:15:11.639Z</time></trkpt><trkpt lat="44.1399867" lon="12.09042"><ele>65.0</ele><time>2026-04-28T08:15:13.64Z</time></trkpt><trkpt lat="44.13994" lon="12.0903133"><ele>65.2</ele><time>2026-04-28T08:15:15.639Z</time></trkpt><trkpt lat="44.1398833" lon="12.0902033"><ele>65.4</ele><time>2026-04-28T08:15:17.639Z</time></trkpt><trkpt lat="44.1398217" lon="12.090105"><ele>65.6</ele><time>2026-04-28T08:15:19.639Z</time></trkpt><trkpt lat="44.139765" lon="12.0899967"><ele>65.8</ele><time>2026-04-28T08:15:21.64Z</time></trkpt><trkpt lat="44.1397117" lon="12.0898983"><ele>66.0</ele><time>2026-04-28T08:15:23.64Z</time></trkpt><trkpt lat="44.1396517" lon="12.0898067"><ele>64.8</ele><time>2026-04-28T08:15:25.64Z</time></trkpt><trkpt lat="44.139585" lon="12.089715"><ele>63.599999999999994</ele><time>2026-04-28T08:15:27.639Z</time></trkpt><trkpt lat="44.1395133" lon="12.089615"><ele>62.4</ele><time>2026-04-28T08:15:29.639Z</time></trkpt><trkpt lat="44.1394283" lon="12.08951"><ele>61.2</ele><time>2026-04-28T08:15:31.64Z</time></trkpt><trkpt lat="44.1393383" lon="12.0893983"><ele>60.0</ele><time>2026-04-28T08:15:33.639Z</time></trkpt><trkpt lat="44.1392883" lon="12.0893417"><ele>60.0</ele><time>2026-04-28T08:15:34.639Z</time></trkpt><trkpt lat="44.1392333" lon="12.089285"><ele>60.0</ele><time>2026-04-28T08:15:35.64Z</time></trkpt><trkpt lat="44.1391767" lon="12.08923"><ele>60.0</ele><time>2026-04-28T08:15:36.64Z</time></trkpt><trkpt lat="44.139125" lon="12.0891683"><ele>60.0</ele><time>2026-04-28T08:15:37.639Z</time></trkpt><trkpt lat="44.13907" lon="12.08911"><ele>60.0</ele><time>2026-04-28T08:15:38.64Z</time></trkpt><trkpt lat="44.13901" lon="12.0890517"><ele>60.0</ele><time>2026-04-28T08:15:39.64Z</time></trkpt><trkpt lat="44.1389533" lon="12.0889967"><ele>60.0</ele><time>2026-04-28T08:15:40.64Z</time></trkpt><trkpt lat="44.138895" lon="12.0889467"><ele>60.0</ele><time>2026-04-28T08:15:41.64Z</time></trkpt><trkpt lat="44.13884" lon="12.088895"><ele>60.0</ele><time>2026-04-28T08:15:42.639Z</time></trkpt><trkpt lat="44.1387883" lon="12.0888433"><ele>60.0</ele><time>2026-04-28T08:15:43.639Z</time></trkpt><trkpt lat="44.1387383" lon="12.08879"><ele>60.0</ele><time>2026-04-28T08:15:44.639Z</time></trkpt><trkpt lat="44.1386817" lon="12.0887333"><ele>60.0</ele><time>2026-04-28T08:15:45.64Z</time></trkpt><trkpt lat="44.1386217" lon="12.0886783"><ele>60.0</ele><time>2026-04-28T08:15:46.639Z</time></trkpt><trkpt lat="44.1385667" lon="12.0886183"><ele>60.0</ele><time>2026-04-28T08:15:47.64Z</time></trkpt><trkpt lat="44.1385133" lon="12.0885583"><ele>60.0</ele><time>2026-04-28T08:15:48.64Z</time></trkpt><trkpt lat="44.1384583" lon="12.0885017"><ele>60.0</ele><time>2026-04-28T08:15:49.64Z</time></trkpt><trkpt lat="44.1384067" lon="12.0884467"><ele>60.0</ele><time>2026-04-28T08:15:50.639Z</time></trkpt><trkpt lat="44.1383567" lon="12.0883917"><ele>60.0</ele><time>2026-04-28T08:15:51.639Z</time></trkpt><trkpt lat="44.1383033" lon="12.0883417"><ele>60.0</ele><time>2026-04-28T08:15:52.639Z</time></trkpt><trkpt lat="44.1382517" lon="12.088285"><ele>60.0</ele><time>2026-04-28T08:15:53.64Z</time></trkpt><trkpt lat="44.1382017" lon="12.0882283"><ele>60.0</ele><time>2026-04-28T08:15:54.64Z</time></trkpt><trkpt lat="44.138095" lon="12.0881317"><ele>60.4</ele><time>2026-04-28T08:15:56.639Z</time></trkpt><trkpt lat="44.1380417" lon="12.0880833"><ele>60.8</ele><time>2026-04-28T08:15:57.639Z</time></trkpt><trkpt lat="44.1379433" lon="12.0879833"><ele>61.2</ele><time>2026-04-28T08:15:59.64Z</time></trkpt><trkpt lat="44.1378517" lon="12.087875"><ele>61.6</ele><time>2026-04-28T08:16:01.639Z</time></trkpt><trkpt lat="44.1378" lon="12.08782"><ele>62.0</ele><time>2026-04-28T08:16:02.64Z</time></trkpt><trkpt lat="44.1377067" lon="12.0877183"><ele>62.0</ele><time>2026-04-28T08:16:04.64Z</time></trkpt><trkpt lat="44.1376067" lon="12.0876167"><ele>62.0</ele><time>2026-04-28T08:16:06.64Z</time></trkpt><trkpt lat="44.1375267" lon="12.0875183"><ele>62.0</ele><time>2026-04-28T08:16:08.639Z</time></trkpt><trkpt lat="44.1374433" lon="12.08742"><ele>62.0</ele><time>2026-04-28T08:16:10.64Z</time></trkpt><trkpt lat="44.137355" lon="12.0873233"><ele>62.00000000000001</ele><time>2026-04-28T08:16:12.639Z</time></trkpt><trkpt lat="44.137265" lon="12.087225"><ele>62.0</ele><time>2026-04-28T08:16:14.639Z</time></trkpt><trkpt lat="44.1371683" lon="12.0871283"><ele>62.0</ele><time>2026-04-28T08:16:16.64Z</time></trkpt><trkpt lat="44.137115" lon="12.0870783"><ele>62.0</ele><time>2026-04-28T08:16:17.64Z</time></trkpt><trkpt lat="44.13706" lon="12.0870317"><ele>62.00000000000001</ele><time>2026-04-28T08:16:18.64Z</time></trkpt><trkpt lat="44.1370033" lon="12.0869833"><ele>62.0</ele><time>2026-04-28T08:16:19.639Z</time></trkpt><trkpt lat="44.1368917" lon="12.0868883"><ele>62.0</ele><time>2026-04-28T08:16:21.64Z</time></trkpt><trkpt lat="44.136795" lon="12.0867917"><ele>62.0</ele><time>2026-04-28T08:16:23.64Z</time></trkpt><trkpt lat="44.1367033" lon="12.0867033"><ele>62.0</ele><time>2026-04-28T08:16:25.64Z</time></trkpt><trkpt lat="44.1366167" lon="12.08659"><ele>62.0</ele><time>2026-04-28T08:16:27.64Z</time></trkpt><trkpt lat="44.1365317" lon="12.0864717"><ele>62.0</ele><time>2026-04-28T08:16:29.639Z</time></trkpt><trkpt lat="44.1364717" lon="12.086425"><ele>62.0</ele><time>2026-04-28T08:16:30.64Z</time></trkpt><trkpt lat="44.13637" lon="12.0863317"><ele>62.0</ele><time>2026-04-28T08:16:32.64Z</time></trkpt><trkpt lat="44.136275" lon="12.086235"><ele>62.0</ele><time>2026-04-28T08:16:34.639Z</time></trkpt><trkpt lat="44.1361883" lon="12.0861317"><ele>62.0</ele><time>2026-04-28T08:16:36.639Z</time></trkpt><trkpt lat="44.1361" lon="12.08603"><ele>62.0</ele><time>2026-04-28T08:16:38.64Z</time></trkpt><trkpt lat="44.1360467" lon="12.0859833"><ele>62.0</ele><time>2026-04-28T08:16:39.64Z</time></trkpt><trkpt lat="44.1359533" lon="12.0858817"><ele>62.0</ele><time>2026-04-28T08:16:41.64Z</time></trkpt><trkpt lat="44.1358617" lon="12.0857783"><ele>62.0</ele><time>2026-04-28T08:16:43.64Z</time></trkpt><trkpt lat="44.1358117" lon="12.085725"><ele>62.0</ele><time>2026-04-28T08:16:44.64Z</time></trkpt><trkpt lat="44.1357133" lon="12.0856283"><ele>62.16666666666667</ele><time>2026-04-28T08:16:46.64Z</time></trkpt><trkpt lat="44.1356167" lon="12.0855267"><ele>62.333333333333336</ele><time>2026-04-28T08:16:48.639Z</time></trkpt><trkpt lat="44.13552" lon="12.0854283"><ele>62.5</ele><time>2026-04-28T08:16:50.64Z</time></trkpt><trkpt lat="44.1354633" lon="12.0853733"><ele>62.66666666666667</ele><time>2026-04-28T08:16:51.64Z</time></trkpt><trkpt lat="44.1354083" lon="12.0853183"><ele>62.833333333333336</ele><time>2026-04-28T08:16:52.64Z</time></trkpt><trkpt lat="44.1353583" lon="12.0852633"><ele>63.0</ele><time>2026-04-28T08:16:53.639Z</time></trkpt><trkpt lat="44.1353067" lon="12.08521"><ele>63.0</ele><time>2026-04-28T08:16:54.639Z</time></trkpt><trkpt lat="44.1352117" lon="12.085105"><ele>63.0</ele><time>2026-04-28T08:16:56.64Z</time></trkpt><trkpt lat="44.1351617" lon="12.0850517"><ele>63.0</ele><time>2026-04-28T08:16:57.64Z</time></trkpt><trkpt lat="44.1350767" lon="12.0849417"><ele>63.0</ele><time>2026-04-28T08:16:59.64Z</time></trkpt><trkpt lat="44.1349933" lon="12.084835"><ele>63.0</ele><time>2026-04-28T08:17:01.64Z</time></trkpt><trkpt lat="44.134945" lon="12.0847783"><ele>63.75</ele><time>2026-04-28T08:17:02.64Z</time></trkpt><trkpt lat="44.13485" lon="12.0846617"><ele>64.5</ele><time>2026-04-28T08:17:04.639Z</time></trkpt><trkpt lat="44.134765" lon="12.0845567"><ele>65.25</ele><time>2026-04-28T08:17:06.639Z</time></trkpt><trkpt lat="44.13468" lon="12.0844533"><ele>66.0</ele><time>2026-04-28T08:17:08.639Z</time></trkpt><trkpt lat="44.1346017" lon="12.08433"><ele>66.0</ele><time>2026-04-28T08:17:10.639Z</time></trkpt><trkpt lat="44.13453" lon="12.084205"><ele>66.0</ele><time>2026-04-28T08:17:12.64Z</time></trkpt><trkpt lat="44.13446" lon="12.0840833"><ele>66.0</ele><time>2026-04-28T08:17:14.639Z</time></trkpt><trkpt lat="44.1344067" lon="12.0839567"><ele>66.0</ele><time>2026-04-28T08:17:16.64Z</time></trkpt><trkpt lat="44.1343533" lon="12.0838333"><ele>66.0</ele><time>2026-04-28T08:17:18.639Z</time></trkpt><trkpt lat="44.13431" lon="12.0836967"><ele>65.33333333333333</ele><time>2026-04-28T08:17:20.64Z</time></trkpt><trkpt lat="44.1342617" lon="12.0835567"><ele>64.66666666666667</ele><time>2026-04-28T08:17:22.64Z</time></trkpt><trkpt lat="44.1342183" lon="12.0834"><ele>64.0</ele><time>2026-04-28T08:17:24.639Z</time></trkpt><trkpt lat="44.1341917" lon="12.0833167"><ele>63.333333333333336</ele><time>2026-04-28T08:17:25.64Z</time></trkpt><trkpt lat="44.1341617" lon="12.0832333"><ele>62.66666666666667</ele><time>2026-04-28T08:17:26.639Z</time></trkpt><trkpt lat="44.1341367" lon="12.0831517"><ele>62.0</ele><time>2026-04-28T08:17:27.639Z</time></trkpt><trkpt lat="44.1341133" lon="12.083065"><ele>62.142857142857146</ele><time>2026-04-28T08:17:28.64Z</time></trkpt><trkpt lat="44.13409" lon="12.08298"><ele>62.28571428571429</ele><time>2026-04-28T08:17:29.639Z</time></trkpt><trkpt lat="44.1340633" lon="12.0828867"><ele>62.42857142857143</ele><time>2026-04-28T08:17:30.639Z</time></trkpt><trkpt lat="44.1340417" lon="12.0827983"><ele>62.57142857142857</ele><time>2026-04-28T08:17:31.64Z</time></trkpt><trkpt lat="44.1340183" lon="12.0827133"><ele>62.714285714285715</ele><time>2026-04-28T08:17:32.639Z</time></trkpt><trkpt lat="44.1339917" lon="12.0826283"><ele>62.85714285714286</ele><time>2026-04-28T08:17:33.639Z</time></trkpt><trkpt lat="44.1339717" lon="12.0825383"><ele>63.0</ele><time>2026-04-28T08:17:34.639Z</time></trkpt><trkpt lat="44.13395" lon="12.08245"><ele>62.714285714285715</ele><time>2026-04-28T08:17:35.64Z</time></trkpt><trkpt lat="44.13392" lon="12.0823583"><ele>62.42857142857143</ele><time>2026-04-28T08:17:36.64Z</time></trkpt><trkpt lat="44.1338933" lon="12.0822617"><ele>62.14285714285714</ele><time>2026-04-28T08:17:37.639Z</time></trkpt><trkpt lat="44.1338617" lon="12.082165"><ele>61.857142857142854</ele><time>2026-04-28T08:17:38.64Z</time></trkpt><trkpt lat="44.1338333" lon="12.0820733"><ele>61.57142857142857</ele><time>2026-04-28T08:17:39.64Z</time></trkpt><trkpt lat="44.1338117" lon="12.0819833"><ele>61.28571428571428</ele><time>2026-04-28T08:17:40.64Z</time></trkpt><trkpt lat="44.133785" lon="12.0818933"><ele>60.99999999999999</ele><time>2026-04-28T08:17:41.64Z</time></trkpt><trkpt lat="44.1337567" lon="12.0817983"><ele>60.99999999999999</ele><time>2026-04-28T08:17:42.64Z</time></trkpt><trkpt lat="44.1337233" lon="12.0817033"><ele>61.0</ele><time>2026-04-28T08:17:43.64Z</time></trkpt><trkpt lat="44.1336917" lon="12.0816083"><ele>60.99999999999999</ele><time>2026-04-28T08:17:44.64Z</time></trkpt><trkpt lat="44.1336633" lon="12.0815167"><ele>60.99999999999999</ele><time>2026-04-28T08:17:45.64Z</time></trkpt><trkpt lat="44.133635" lon="12.0814183"><ele>61.0</ele><time>2026-04-28T08:17:46.64Z</time></trkpt><trkpt lat="44.1336133" lon="12.081325"><ele>60.99999999999999</ele><time>2026-04-28T08:17:47.639Z</time></trkpt><trkpt lat="44.1335883" lon="12.0812333"><ele>60.99999999999999</ele><time>2026-04-28T08:17:48.639Z</time></trkpt><trkpt lat="44.133565" lon="12.08114"><ele>60.666666666666664</ele><time>2026-04-28T08:17:49.64Z</time></trkpt><trkpt lat="44.1335433" lon="12.0810467"><ele>60.33333333333333</ele><time>2026-04-28T08:17:50.639Z</time></trkpt><trkpt lat="44.13352" lon="12.08095"><ele>60.0</ele><time>2026-04-28T08:17:51.64Z</time></trkpt><trkpt lat="44.1334933" lon="12.08086"><ele>59.66666666666667</ele><time>2026-04-28T08:17:52.639Z</time></trkpt><trkpt lat="44.1334617" lon="12.080765"><ele>59.333333333333336</ele><time>2026-04-28T08:17:53.64Z</time></trkpt><trkpt lat="44.1334217" lon="12.0806617"><ele>59.0</ele><time>2026-04-28T08:17:54.64Z</time></trkpt><trkpt lat="44.1333933" lon="12.080545"><ele>58.400000000000006</ele><time>2026-04-28T08:17:55.639Z</time></trkpt><trkpt lat="44.1333617" lon="12.0804283"><ele>57.800000000000004</ele><time>2026-04-28T08:17:56.639Z</time></trkpt><trkpt lat="44.1333217" lon="12.080315"><ele>57.199999999999996</ele><time>2026-04-28T08:17:57.64Z</time></trkpt><trkpt lat="44.1332867" lon="12.080195"><ele>56.599999999999994</ele><time>2026-04-28T08:17:58.639Z</time></trkpt><trkpt lat="44.13324" lon="12.0800817"><ele>56.0</ele><time>2026-04-28T08:17:59.64Z</time></trkpt><trkpt lat="44.133205" lon="12.0799683"><ele>56.50000000000001</ele><time>2026-04-28T08:18:00.64Z</time></trkpt><trkpt lat="44.1331783" lon="12.0798633"><ele>57.0</ele><time>2026-04-28T08:18:01.639Z</time></trkpt><trkpt lat="44.1331533" lon="12.079765"><ele>57.5</ele><time>2026-04-28T08:18:02.639Z</time></trkpt><trkpt lat="44.1331333" lon="12.0796717"><ele>58.0</ele><time>2026-04-28T08:18:03.64Z</time></trkpt><trkpt lat="44.1331083" lon="12.0795817"><ele>58.50000000000001</ele><time>2026-04-28T08:18:04.639Z</time></trkpt><trkpt lat="44.133065" lon="12.0794267"><ele>59.0</ele><time>2026-04-28T08:18:06.64Z</time></trkpt><trkpt lat="44.1330283" lon="12.0792917"><ele>59.0</ele><time>2026-04-28T08:18:08.639Z</time></trkpt><trkpt lat="44.132985" lon="12.0791633"><ele>59.00000000000001</ele><time>2026-04-28T08:18:10.639Z</time></trkpt><trkpt lat="44.1329517" lon="12.0790267"><ele>59.00000000000001</ele><time>2026-04-28T08:18:12.64Z</time></trkpt><trkpt lat="44.1329133" lon="12.0788917"><ele>59.0</ele><time>2026-04-28T08:18:14.639Z</time></trkpt><trkpt lat="44.132875" lon="12.0787733"><ele>59.0</ele><time>2026-04-28T08:18:16.64Z</time></trkpt><trkpt lat="44.1328383" lon="12.0786717"><ele>59.00000000000001</ele><time>2026-04-28T08:18:18.64Z</time></trkpt><trkpt lat="44.1328117" lon="12.0785583"><ele>59.0</ele><time>2026-04-28T08:18:20.64Z</time></trkpt><trkpt lat="44.132785" lon="12.0784467"><ele>59.0</ele><time>2026-04-28T08:18:22.64Z</time></trkpt><trkpt lat="44.13275" lon="12.078335"><ele>59.0</ele><time>2026-04-28T08:18:24.64Z</time></trkpt><trkpt lat="44.13272" lon="12.0782233"><ele>59.00000000000001</ele><time>2026-04-28T08:18:26.639Z</time></trkpt><trkpt lat="44.1326967" lon="12.0781117"><ele>59.0</ele><time>2026-04-28T08:18:28.639Z</time></trkpt><trkpt lat="44.13265" lon="12.0779967"><ele>58.800000000000004</ele><time>2026-04-28T08:18:30.64Z</time></trkpt><trkpt lat="44.13262" lon="12.0778767"><ele>58.60000000000001</ele><time>2026-04-28T08:18:32.639Z</time></trkpt><trkpt lat="44.1325867" lon="12.0777467"><ele>58.4</ele><time>2026-04-28T08:18:34.639Z</time></trkpt><trkpt lat="44.1325433" lon="12.0776133"><ele>58.2</ele><time>2026-04-28T08:18:36.639Z</time></trkpt><trkpt lat="44.1325033" lon="12.077485"><ele>58.0</ele><time>2026-04-28T08:18:38.64Z</time></trkpt><trkpt lat="44.13247" lon="12.0773567"><ele>58.0</ele><time>2026-04-28T08:18:40.64Z</time></trkpt><trkpt lat="44.1324367" lon="12.077225"><ele>58.0</ele><time>2026-04-28T08:18:42.64Z</time></trkpt><trkpt lat="44.1324" lon="12.0771033"><ele>58.0</ele><time>2026-04-28T08:18:44.639Z</time></trkpt><trkpt lat="44.13237" lon="12.076975"><ele>58.0</ele><time>2026-04-28T08:18:46.639Z</time></trkpt><trkpt lat="44.13233" lon="12.0768383"><ele>58.0</ele><time>2026-04-28T08:18:48.64Z</time></trkpt><trkpt lat="44.13229" lon="12.0767067"><ele>58.599999999999994</ele><time>2026-04-28T08:18:50.64Z</time></trkpt><trkpt lat="44.132245" lon="12.0765767"><ele>59.199999999999996</ele><time>2026-04-28T08:18:52.64Z</time></trkpt><trkpt lat="44.1321983" lon="12.0764417"><ele>59.8</ele><time>2026-04-28T08:18:54.64Z</time></trkpt><trkpt lat="44.13216" lon="12.0763017"><ele>60.4</ele><time>2026-04-28T08:18:56.639Z</time></trkpt><trkpt lat="44.1321217" lon="12.0761733"><ele>61.0</ele><time>2026-04-28T08:18:58.639Z</time></trkpt><trkpt lat="44.1320867" lon="12.0760433"><ele>60.99999999999999</ele><time>2026-04-28T08:19:00.64Z</time></trkpt><trkpt lat="44.1320517" lon="12.075915"><ele>61.0</ele><time>2026-04-28T08:19:02.639Z</time></trkpt><trkpt lat="44.1320183" lon="12.0758017"><ele>61.0</ele><time>2026-04-28T08:19:04.64Z</time></trkpt><trkpt lat="44.131995" lon="12.075695"><ele>61.0</ele><time>2026-04-28T08:19:06.639Z</time></trkpt><trkpt lat="44.1319633" lon="12.0755867"><ele>60.99999999999999</ele><time>2026-04-28T08:19:08.639Z</time></trkpt><trkpt lat="44.1319367" lon="12.0754767"><ele>61.0</ele><time>2026-04-28T08:19:10.639Z</time></trkpt><trkpt lat="44.131905" lon="12.07536"><ele>60.199999999999996</ele><time>2026-04-28T08:19:12.64Z</time></trkpt><trkpt lat="44.13186" lon="12.0752317"><ele>59.39999999999999</ele><time>2026-04-28T08:19:14.639Z</time></trkpt><trkpt lat="44.1318067" lon="12.075095"><ele>58.6</ele><time>2026-04-28T08:19:16.639Z</time></trkpt><trkpt lat="44.1317617" lon="12.07495"><ele>57.8</ele><time>2026-04-28T08:19:18.64Z</time></trkpt><trkpt lat="44.131715" lon="12.0748"><ele>57.0</ele><time>2026-04-28T08:19:20.64Z</time></trkpt><trkpt lat="44.1316717" lon="12.0746583"><ele>56.400000000000006</ele><time>2026-04-28T08:19:22.639Z</time></trkpt><trkpt lat="44.13162" lon="12.0745167"><ele>55.800000000000004</ele><time>2026-04-28T08:19:24.64Z</time></trkpt><trkpt lat="44.13156" lon="12.0743967"><ele>55.2</ele><time>2026-04-28T08:19:26.639Z</time></trkpt><trkpt lat="44.1314967" lon="12.0742717"><ele>54.6</ele><time>2026-04-28T08:19:28.64Z</time></trkpt><trkpt lat="44.13143" lon="12.0741667"><ele>54.0</ele><time>2026-04-28T08:19:30.639Z</time></trkpt><trkpt lat="44.1313633" lon="12.0740633"><ele>53.6</ele><time>2026-04-28T08:19:32.64Z</time></trkpt><trkpt lat="44.13129" lon="12.07397"><ele>53.2</ele><time>2026-04-28T08:19:34.64Z</time></trkpt><trkpt lat="44.1312283" lon="12.0738617"><ele>52.800000000000004</ele><time>2026-04-28T08:19:36.64Z</time></trkpt><trkpt lat="44.131165" lon="12.0737483"><ele>52.400000000000006</ele><time>2026-04-28T08:19:38.64Z</time></trkpt><trkpt lat="44.131105" lon="12.0736367"><ele>52.0</ele><time>2026-04-28T08:19:40.64Z</time></trkpt><trkpt lat="44.1310467" lon="12.0735167"><ele>52.0</ele><time>2026-04-28T08:19:42.64Z</time></trkpt><trkpt lat="44.130995" lon="12.073405"><ele>52.0</ele><time>2026-04-28T08:19:44.64Z</time></trkpt><trkpt lat="44.1309417" lon="12.0733017"><ele>52.0</ele><time>2026-04-28T08:19:46.639Z</time></trkpt><trkpt lat="44.130885" lon="12.073195"><ele>52.0</ele><time>2026-04-28T08:19:48.639Z</time></trkpt><trkpt lat="44.1308417" lon="12.0730817"><ele>52.0</ele><time>2026-04-28T08:19:50.64Z</time></trkpt><trkpt lat="44.1307883" lon="12.07298"><ele>51.8</ele><time>2026-04-28T08:19:52.64Z</time></trkpt><trkpt lat="44.13073" lon="12.0728683"><ele>51.6</ele><time>2026-04-28T08:19:54.64Z</time></trkpt><trkpt lat="44.1306783" lon="12.0727483"><ele>51.4</ele><time>2026-04-28T08:19:56.639Z</time></trkpt><trkpt lat="44.1306183" lon="12.07262"><ele>51.199999999999996</ele><time>2026-04-28T08:19:58.639Z</time></trkpt><trkpt lat="44.1305617" lon="12.0724983"><ele>51.0</ele><time>2026-04-28T08:20:00.64Z</time></trkpt><trkpt lat="44.1305033" lon="12.07235"><ele>50.42857142857143</ele><time>2026-04-28T08:20:02.639Z</time></trkpt><trkpt lat="44.1304667" lon="12.072275"><ele>49.85714285714286</ele><time>2026-04-28T08:20:03.639Z</time></trkpt><trkpt lat="44.1304333" lon="12.0722"><ele>49.285714285714285</ele><time>2026-04-28T08:20:04.64Z</time></trkpt><trkpt lat="44.1304" lon="12.0721183"><ele>48.714285714285715</ele><time>2026-04-28T08:20:05.64Z</time></trkpt><trkpt lat="44.1303667" lon="12.07204"><ele>48.14285714285714</ele><time>2026-04-28T08:20:06.64Z</time></trkpt><trkpt lat="44.1303317" lon="12.071955"><ele>47.57142857142857</ele><time>2026-04-28T08:20:07.64Z</time></trkpt><trkpt lat="44.1302967" lon="12.07187"><ele>47.0</ele><time>2026-04-28T08:20:08.64Z</time></trkpt><trkpt lat="44.13026" lon="12.071785"><ele>47.0</ele><time>2026-04-28T08:20:09.639Z</time></trkpt><trkpt lat="44.130225" lon="12.0716983"><ele>47.0</ele><time>2026-04-28T08:20:10.639Z</time></trkpt><trkpt lat="44.13019" lon="12.0716083"><ele>47.0</ele><time>2026-04-28T08:20:11.639Z</time></trkpt><trkpt lat="44.1301517" lon="12.0715167"><ele>47.0</ele><time>2026-04-28T08:20:12.64Z</time></trkpt><trkpt lat="44.1301083" lon="12.0714233"><ele>47.0</ele><time>2026-04-28T08:20:13.639Z</time></trkpt><trkpt lat="44.130065" lon="12.0713333"><ele>47.0</ele><time>2026-04-28T08:20:14.639Z</time></trkpt><trkpt lat="44.1300217" lon="12.0712483"><ele>46.83333333333333</ele><time>2026-04-28T08:20:15.64Z</time></trkpt><trkpt lat="44.12997" lon="12.0711733"><ele>46.666666666666664</ele><time>2026-04-28T08:20:16.64Z</time></trkpt><trkpt lat="44.1299133" lon="12.0711117"><ele>46.5</ele><time>2026-04-28T08:20:17.64Z</time></trkpt><trkpt lat="44.12985" lon="12.07107"><ele>46.333333333333336</ele><time>2026-04-28T08:20:18.64Z</time></trkpt><trkpt lat="44.1297633" lon="12.071045"><ele>46.16666666666667</ele><time>2026-04-28T08:20:19.64Z</time></trkpt><trkpt lat="44.1296817" lon="12.0710483"><ele>46.0</ele><time>2026-04-28T08:20:20.64Z</time></trkpt><trkpt lat="44.12961" lon="12.0710683"><ele>45.833333333333336</ele><time>2026-04-28T08:20:21.639Z</time></trkpt><trkpt lat="44.1295383" lon="12.0710967"><ele>45.66666666666667</ele><time>2026-04-28T08:20:22.64Z</time></trkpt><trkpt lat="44.1294717" lon="12.0711433"><ele>45.5</ele><time>2026-04-28T08:20:23.639Z</time></trkpt><trkpt lat="44.1294" lon="12.0712083"><ele>45.333333333333336</ele><time>2026-04-28T08:20:24.64Z</time></trkpt><trkpt lat="44.1293317" lon="12.0712717"><ele>45.166666666666664</ele><time>2026-04-28T08:20:25.639Z</time></trkpt><trkpt lat="44.1292633" lon="12.07134"><ele>45.0</ele><time>2026-04-28T08:20:26.639Z</time></trkpt><trkpt lat="44.1291983" lon="12.071415"><ele>45.0</ele><time>2026-04-28T08:20:27.64Z</time></trkpt><trkpt lat="44.1291383" lon="12.07148"><ele>45.0</ele><time>2026-04-28T08:20:28.64Z</time></trkpt><trkpt lat="44.1290767" lon="12.0715317"><ele>45.0</ele><time>2026-04-28T08:20:29.64Z</time></trkpt><trkpt lat="44.1289567" lon="12.07155"><ele>45.0</ele><time>2026-04-28T08:20:31.639Z</time></trkpt><trkpt lat="44.1288583" lon="12.0714717"><ele>45.0</ele><time>2026-04-28T08:20:33.639Z</time></trkpt><trkpt lat="44.1287667" lon="12.071385"><ele>45.8</ele><time>2026-04-28T08:20:35.639Z</time></trkpt><trkpt lat="44.1286833" lon="12.0713033"><ele>46.6</ele><time>2026-04-28T08:20:37.639Z</time></trkpt><trkpt lat="44.1286133" lon="12.071215"><ele>47.400000000000006</ele><time>2026-04-28T08:20:39.639Z</time></trkpt><trkpt lat="44.1285567" lon="12.07112"><ele>48.2</ele><time>2026-04-28T08:20:41.639Z</time></trkpt><trkpt lat="44.1284883" lon="12.071035"><ele>49.0</ele><time>2026-04-28T08:20:43.64Z</time></trkpt><trkpt lat="44.1284267" lon="12.0709417"><ele>48.99999999999999</ele><time>2026-04-28T08:20:45.639Z</time></trkpt><trkpt lat="44.12838" lon="12.0708367"><ele>49.0</ele><time>2026-04-28T08:20:47.64Z</time></trkpt><trkpt lat="44.12834" lon="12.07073"><ele>49.0</ele><time>2026-04-28T08:20:49.639Z</time></trkpt><trkpt lat="44.1283167" lon="12.0706267"><ele>49.0</ele><time>2026-04-28T08:20:51.64Z</time></trkpt><trkpt lat="44.1283" lon="12.0705267"><ele>48.99999999999999</ele><time>2026-04-28T08:20:53.64Z</time></trkpt><trkpt lat="44.12828" lon="12.0704267"><ele>49.0</ele><time>2026-04-28T08:20:55.64Z</time></trkpt><trkpt lat="44.1282533" lon="12.070325"><ele>49.33333333333333</ele><time>2026-04-28T08:20:57.64Z</time></trkpt><trkpt lat="44.1282167" lon="12.0702217"><ele>49.666666666666664</ele><time>2026-04-28T08:20:59.639Z</time></trkpt><trkpt lat="44.128195" lon="12.0701217"><ele>50.0</ele><time>2026-04-28T08:21:01.64Z</time></trkpt><trkpt lat="44.1281567" lon="12.070025"><ele>50.33333333333333</ele><time>2026-04-28T08:21:03.639Z</time></trkpt><trkpt lat="44.1281183" lon="12.0699317"><ele>50.666666666666664</ele><time>2026-04-28T08:21:05.639Z</time></trkpt><trkpt lat="44.1280783" lon="12.069825"><ele>51.0</ele><time>2026-04-28T08:21:07.64Z</time></trkpt><trkpt lat="44.12804" lon="12.0697167"><ele>51.0</ele><time>2026-04-28T08:21:09.639Z</time></trkpt><trkpt lat="44.12801" lon="12.0695917"><ele>51.0</ele><time>2026-04-28T08:21:11.639Z</time></trkpt><trkpt lat="44.1279833" lon="12.0694783"><ele>51.0</ele><time>2026-04-28T08:21:13.64Z</time></trkpt><trkpt lat="44.12795" lon="12.06937"><ele>51.0</ele><time>2026-04-28T08:21:15.64Z</time></trkpt><trkpt lat="44.1279167" lon="12.0692667"><ele>51.0</ele><time>2026-04-28T08:21:17.639Z</time></trkpt><trkpt lat="44.1278867" lon="12.0691633"><ele>51.0</ele><time>2026-04-28T08:21:19.639Z</time></trkpt><trkpt lat="44.1278517" lon="12.0690717"><ele>51.166666666666664</ele><time>2026-04-28T08:21:21.64Z</time></trkpt><trkpt lat="44.1278217" lon="12.06898"><ele>51.33333333333333</ele><time>2026-04-28T08:21:23.64Z</time></trkpt><trkpt lat="44.1278" lon="12.0688817"><ele>51.5</ele><time>2026-04-28T08:21:25.64Z</time></trkpt><trkpt lat="44.1277867" lon="12.0687783"><ele>51.666666666666664</ele><time>2026-04-28T08:21:27.639Z</time></trkpt><trkpt lat="44.1277717" lon="12.0686717"><ele>51.83333333333333</ele><time>2026-04-28T08:21:29.638Z</time></trkpt><trkpt lat="44.12775" lon="12.0685583"><ele>52.0</ele><time>2026-04-28T08:21:31.639Z</time></trkpt><trkpt lat="44.1277233" lon="12.0684467"><ele>51.99999999999999</ele><time>2026-04-28T08:21:33.639Z</time></trkpt><trkpt lat="44.1277083" lon="12.0683333"><ele>52.0</ele><time>2026-04-28T08:21:35.638Z</time></trkpt><trkpt lat="44.12769" lon="12.0682317"><ele>52.0</ele><time>2026-04-28T08:21:37.639Z</time></trkpt><trkpt lat="44.1276783" lon="12.0681133"><ele>52.0</ele><time>2026-04-28T08:21:39.638Z</time></trkpt><trkpt lat="44.1276617" lon="12.067995"><ele>51.99999999999999</ele><time>2026-04-28T08:21:41.639Z</time></trkpt><trkpt lat="44.1276433" lon="12.06788"><ele>52.0</ele><time>2026-04-28T08:21:43.638Z</time></trkpt><trkpt lat="44.1276167" lon="12.0677667"><ele>52.33333333333333</ele><time>2026-04-28T08:21:45.638Z</time></trkpt><trkpt lat="44.1276" lon="12.0676483"><ele>52.666666666666664</ele><time>2026-04-28T08:21:47.639Z</time></trkpt><trkpt lat="44.1275983" lon="12.06754"><ele>53.0</ele><time>2026-04-28T08:21:49.639Z</time></trkpt><trkpt lat="44.1276017" lon="12.0674333"><ele>53.33333333333333</ele><time>2026-04-28T08:21:51.638Z</time></trkpt><trkpt lat="44.1276117" lon="12.0673117"><ele>53.666666666666664</ele><time>2026-04-28T08:21:53.638Z</time></trkpt><trkpt lat="44.1276283" lon="12.0671967"><ele>54.0</ele><time>2026-04-28T08:21:55.639Z</time></trkpt><trkpt lat="44.12765" lon="12.06708"><ele>54.0</ele><time>2026-04-28T08:21:57.639Z</time></trkpt><trkpt lat="44.1276667" lon="12.0669683"><ele>54.00000000000001</ele><time>2026-04-28T08:21:59.638Z</time></trkpt><trkpt lat="44.1277" lon="12.0668433"><ele>54.00000000000001</ele><time>2026-04-28T08:22:01.639Z</time></trkpt><trkpt lat="44.1277417" lon="12.0667133"><ele>54.0</ele><time>2026-04-28T08:22:03.638Z</time></trkpt><trkpt lat="44.12777" lon="12.0666317"><ele>54.0</ele><time>2026-04-28T08:22:04.638Z</time></trkpt><trkpt lat="44.1278283" lon="12.0665033"><ele>53.833333333333336</ele><time>2026-04-28T08:22:06.638Z</time></trkpt><trkpt lat="44.1278767" lon="12.0663867"><ele>53.66666666666667</ele><time>2026-04-28T08:22:08.638Z</time></trkpt><trkpt lat="44.1279217" lon="12.0662767"><ele>53.5</ele><time>2026-04-28T08:22:10.639Z</time></trkpt><trkpt lat="44.12796" lon="12.0661783"><ele>53.333333333333336</ele><time>2026-04-28T08:22:12.639Z</time></trkpt><trkpt lat="44.1280133" lon="12.06608"><ele>53.16666666666667</ele><time>2026-04-28T08:22:14.638Z</time></trkpt><trkpt lat="44.1280433" lon="12.06597"><ele>53.0</ele><time>2026-04-28T08:22:16.638Z</time></trkpt><trkpt lat="44.12806" lon="12.065855"><ele>52.833333333333336</ele><time>2026-04-28T08:22:18.639Z</time></trkpt><trkpt lat="44.12806" lon="12.0657317"><ele>52.66666666666667</ele><time>2026-04-28T08:22:20.639Z</time></trkpt><trkpt lat="44.1280517" lon="12.0655983"><ele>52.5</ele><time>2026-04-28T08:22:22.638Z</time></trkpt><trkpt lat="44.12804" lon="12.065475"><ele>52.33333333333333</ele><time>2026-04-28T08:22:24.638Z</time></trkpt><trkpt lat="44.1280267" lon="12.0653583"><ele>52.166666666666664</ele><time>2026-04-28T08:22:26.638Z</time></trkpt><trkpt lat="44.128005" lon="12.06525"><ele>52.0</ele><time>2026-04-28T08:22:28.639Z</time></trkpt><trkpt lat="44.12799" lon="12.0651333"><ele>51.99999999999999</ele><time>2026-04-28T08:22:30.639Z</time></trkpt><trkpt lat="44.1279767" lon="12.0650017"><ele>52.0</ele><time>2026-04-28T08:22:32.638Z</time></trkpt><trkpt lat="44.127955" lon="12.0648867"><ele>52.0</ele><time>2026-04-28T08:22:34.638Z</time></trkpt><trkpt lat="44.127935" lon="12.064775"><ele>52.0</ele><time>2026-04-28T08:22:36.638Z</time></trkpt><trkpt lat="44.1279133" lon="12.0646517"><ele>51.99999999999999</ele><time>2026-04-28T08:22:38.638Z</time></trkpt><trkpt lat="44.1278933" lon="12.064555"><ele>52.0</ele><time>2026-04-28T08:22:40.638Z</time></trkpt><trkpt lat="44.1278733" lon="12.064445"><ele>51.99999999999999</ele><time>2026-04-28T08:22:42.639Z</time></trkpt><trkpt lat="44.1278383" lon="12.06435"><ele>52.0</ele><time>2026-04-28T08:22:44.639Z</time></trkpt><trkpt lat="44.12782" lon="12.0642583"><ele>52.0</ele><time>2026-04-28T08:22:46.638Z</time></trkpt><trkpt lat="44.1277983" lon="12.0641533"><ele>52.0</ele><time>2026-04-28T08:22:48.639Z</time></trkpt><trkpt lat="44.127785" lon="12.0640383"><ele>51.99999999999999</ele><time>2026-04-28T08:22:50.639Z</time></trkpt><trkpt lat="44.127755" lon="12.06393"><ele>52.0</ele><time>2026-04-28T08:22:52.638Z</time></trkpt><trkpt lat="44.1277317" lon="12.06383"><ele>52.166666666666664</ele><time>2026-04-28T08:22:54.638Z</time></trkpt><trkpt lat="44.12771" lon="12.0637383"><ele>52.33333333333333</ele><time>2026-04-28T08:22:56.639Z</time></trkpt><trkpt lat="44.1276917" lon="12.0636467"><ele>52.5</ele><time>2026-04-28T08:22:58.639Z</time></trkpt><trkpt lat="44.1276583" lon="12.0635217"><ele>52.66666666666667</ele><time>2026-04-28T08:23:00.638Z</time></trkpt><trkpt lat="44.1276433" lon="12.0634083"><ele>52.833333333333336</ele><time>2026-04-28T08:23:02.638Z</time></trkpt><trkpt lat="44.1276383" lon="12.0633033"><ele>53.0</ele><time>2026-04-28T08:23:04.638Z</time></trkpt><trkpt lat="44.1276367" lon="12.0632"><ele>53.0</ele><time>2026-04-28T08:23:06.639Z</time></trkpt><trkpt lat="44.1276317" lon="12.0631117"><ele>53.0</ele><time>2026-04-28T08:23:08.639Z</time></trkpt><trkpt lat="44.12763" lon="12.0629917"><ele>53.0</ele><time>2026-04-28T08:23:11.639Z</time></trkpt><trkpt lat="44.1277017" lon="12.0629283"><ele>53.0</ele><time>2026-04-28T08:23:14.638Z</time></trkpt><trkpt lat="44.1277717" lon="12.0629167"><ele>53.0</ele><time>2026-04-28T08:23:16.638Z</time></trkpt><trkpt lat="44.1278367" lon="12.0629067"><ele>53.0</ele><time>2026-04-28T08:23:18.639Z</time></trkpt><trkpt lat="44.1279133" lon="12.0629"><ele>53.0</ele><time>2026-04-28T08:23:20.638Z</time></trkpt><trkpt lat="44.127995" lon="12.062895"><ele>53.0</ele><time>2026-04-28T08:23:22.638Z</time></trkpt><trkpt lat="44.1280717" lon="12.0628767"><ele>53.0</ele><time>2026-04-28T08:23:24.638Z</time></trkpt><trkpt lat="44.1281733" lon="12.06287"><ele>53.0</ele><time>2026-04-28T08:23:26.638Z</time></trkpt><trkpt lat="44.1282717" lon="12.0628467"><ele>53.0</ele><time>2026-04-28T08:23:28.639Z</time></trkpt><trkpt lat="44.12837" lon="12.0628433"><ele>53.0</ele><time>2026-04-28T08:23:30.638Z</time></trkpt><trkpt lat="44.128485" lon="12.0628433"><ele>52.8</ele><time>2026-04-28T08:23:32.638Z</time></trkpt><trkpt lat="44.1286067" lon="12.0628417"><ele>52.599999999999994</ele><time>2026-04-28T08:23:34.639Z</time></trkpt><trkpt lat="44.1286717" lon="12.062835"><ele>52.400000000000006</ele><time>2026-04-28T08:23:35.638Z</time></trkpt><trkpt lat="44.128795" lon="12.0628033"><ele>52.2</ele><time>2026-04-28T08:23:37.638Z</time></trkpt><trkpt lat="44.128885" lon="12.062775"><ele>52.0</ele><time>2026-04-28T08:23:39.639Z</time></trkpt><trkpt lat="44.1289533" lon="12.06273"><ele>52.0</ele><time>2026-04-28T08:23:41.638Z</time></trkpt><trkpt lat="44.1290567" lon="12.0627033"><ele>52.0</ele><time>2026-04-28T08:23:43.638Z</time></trkpt><trkpt lat="44.1291617" lon="12.062685"><ele>52.0</ele><time>2026-04-28T08:23:45.638Z</time></trkpt><trkpt lat="44.129275" lon="12.0626817"><ele>52.0</ele><time>2026-04-28T08:23:47.639Z</time></trkpt><trkpt lat="44.12938" lon="12.0626633"><ele>52.0</ele><time>2026-04-28T08:23:49.639Z</time></trkpt><trkpt lat="44.1295033" lon="12.0626317"><ele>52.0</ele><time>2026-04-28T08:23:51.639Z</time></trkpt><trkpt lat="44.12957" lon="12.0626033"><ele>52.0</ele><time>2026-04-28T08:23:52.639Z</time></trkpt><trkpt lat="44.1296867" lon="12.06257"><ele>52.0</ele><time>2026-04-28T08:23:54.639Z</time></trkpt><trkpt lat="44.1298117" lon="12.0625333"><ele>52.0</ele><time>2026-04-28T08:23:56.639Z</time></trkpt><trkpt lat="44.129875" lon="12.0625133"><ele>52.0</ele><time>2026-04-28T08:23:57.638Z</time></trkpt><trkpt lat="44.1299933" lon="12.062465"><ele>52.8</ele><time>2026-04-28T08:23:59.639Z</time></trkpt><trkpt lat="44.130055" lon="12.06244"><ele>53.6</ele><time>2026-04-28T08:24:00.638Z</time></trkpt><trkpt lat="44.1301717" lon="12.0624033"><ele>54.39999999999999</ele><time>2026-04-28T08:24:02.638Z</time></trkpt><trkpt lat="44.1302783" lon="12.06236"><ele>55.199999999999996</ele><time>2026-04-28T08:24:04.639Z</time></trkpt><trkpt lat="44.1303867" lon="12.0623083"><ele>56.0</ele><time>2026-04-28T08:24:06.639Z</time></trkpt><trkpt lat="44.1305" lon="12.06226"><ele>56.0</ele><time>2026-04-28T08:24:08.638Z</time></trkpt><trkpt lat="44.1305633" lon="12.062235"><ele>55.99999999999999</ele><time>2026-04-28T08:24:09.638Z</time></trkpt><trkpt lat="44.1306783" lon="12.0621867"><ele>55.99999999999999</ele><time>2026-04-28T08:24:11.639Z</time></trkpt><trkpt lat="44.1307883" lon="12.062145"><ele>56.0</ele><time>2026-04-28T08:24:13.638Z</time></trkpt><trkpt lat="44.1308483" lon="12.062115"><ele>56.0</ele><time>2026-04-28T08:24:14.638Z</time></trkpt><trkpt lat="44.1309567" lon="12.06207"><ele>56.0</ele><time>2026-04-28T08:24:16.639Z</time></trkpt><trkpt lat="44.131055" lon="12.0620333"><ele>55.99999999999999</ele><time>2026-04-28T08:24:18.638Z</time></trkpt><trkpt lat="44.13116" lon="12.061995"><ele>55.99999999999999</ele><time>2026-04-28T08:24:20.638Z</time></trkpt><trkpt lat="44.131265" lon="12.061985"><ele>56.0</ele><time>2026-04-28T08:24:22.639Z</time></trkpt><trkpt lat="44.131385" lon="12.0619483"><ele>56.0</ele><time>2026-04-28T08:24:24.638Z</time></trkpt><trkpt lat="44.131495" lon="12.0619033"><ele>56.199999999999996</ele><time>2026-04-28T08:24:26.638Z</time></trkpt><trkpt lat="44.1316067" lon="12.06186"><ele>56.39999999999999</ele><time>2026-04-28T08:24:28.639Z</time></trkpt><trkpt lat="44.1316667" lon="12.06183"><ele>56.6</ele><time>2026-04-28T08:24:29.639Z</time></trkpt><trkpt lat="44.1317733" lon="12.0617967"><ele>56.8</ele><time>2026-04-28T08:24:31.639Z</time></trkpt><trkpt lat="44.13187" lon="12.06177"><ele>57.0</ele><time>2026-04-28T08:24:33.639Z</time></trkpt><trkpt lat="44.1319717" lon="12.061735"><ele>57.0</ele><time>2026-04-28T08:24:35.638Z</time></trkpt><trkpt lat="44.1320717" lon="12.0617017"><ele>57.0</ele><time>2026-04-28T08:24:37.638Z</time></trkpt><trkpt lat="44.1321717" lon="12.0616717"><ele>57.0</ele><time>2026-04-28T08:24:39.638Z</time></trkpt><trkpt lat="44.1322767" lon="12.0616233"><ele>57.0</ele><time>2026-04-28T08:24:41.639Z</time></trkpt><trkpt lat="44.1323733" lon="12.06157"><ele>57.0</ele><time>2026-04-28T08:24:43.638Z</time></trkpt><trkpt lat="44.1324867" lon="12.0615117"><ele>57.0</ele><time>2026-04-28T08:24:45.639Z</time></trkpt><trkpt lat="44.1326033" lon="12.061475"><ele>57.0</ele><time>2026-04-28T08:24:47.638Z</time></trkpt><trkpt lat="44.132725" lon="12.06145"><ele>57.0</ele><time>2026-04-28T08:24:49.639Z</time></trkpt><trkpt lat="44.1327917" lon="12.0614467"><ele>57.0</ele><time>2026-04-28T08:24:50.638Z</time></trkpt><trkpt lat="44.1329067" lon="12.0614483"><ele>57.0</ele><time>2026-04-28T08:24:52.639Z</time></trkpt><trkpt lat="44.1330267" lon="12.061465"><ele>57.0</ele><time>2026-04-28T08:24:54.639Z</time></trkpt><trkpt lat="44.1331517" lon="12.0614817"><ele>57.0</ele><time>2026-04-28T08:24:56.639Z</time></trkpt><trkpt lat="44.133215" lon="12.06149"><ele>57.0</ele><time>2026-04-28T08:24:57.638Z</time></trkpt><trkpt lat="44.1333233" lon="12.061505"><ele>57.0</ele><time>2026-04-28T08:24:59.638Z</time></trkpt><trkpt lat="44.1334317" lon="12.061525"><ele>57.0</ele><time>2026-04-28T08:25:01.639Z</time></trkpt><trkpt lat="44.13353" lon="12.0615533"><ele>56.833333333333336</ele><time>2026-04-28T08:25:03.638Z</time></trkpt><trkpt lat="44.1336233" lon="12.061575"><ele>56.66666666666667</ele><time>2026-04-28T08:25:05.639Z</time></trkpt><trkpt lat="44.1336967" lon="12.061585"><ele>56.5</ele><time>2026-04-28T08:25:07.638Z</time></trkpt><trkpt lat="44.1337633" lon="12.0616033"><ele>56.333333333333336</ele><time>2026-04-28T08:25:09.639Z</time></trkpt><trkpt lat="44.1338433" lon="12.0616417"><ele>56.16666666666667</ele><time>2026-04-28T08:25:11.638Z</time></trkpt><trkpt lat="44.1339417" lon="12.0616433"><ele>56.0</ele><time>2026-04-28T08:25:13.639Z</time></trkpt><trkpt lat="44.13406" lon="12.0615933"><ele>55.857142857142854</ele><time>2026-04-28T08:25:15.638Z</time></trkpt><trkpt lat="44.1341267" lon="12.06157"><ele>55.714285714285715</ele><time>2026-04-28T08:25:16.638Z</time></trkpt><trkpt lat="44.134195" lon="12.0615633"><ele>55.57142857142857</ele><time>2026-04-28T08:25:17.639Z</time></trkpt><trkpt lat="44.1342617" lon="12.0615733"><ele>55.42857142857143</ele><time>2026-04-28T08:25:18.639Z</time></trkpt><trkpt lat="44.1343283" lon="12.06159"><ele>55.285714285714285</ele><time>2026-04-28T08:25:19.638Z</time></trkpt><trkpt lat="44.1343933" lon="12.0616083"><ele>55.14285714285714</ele><time>2026-04-28T08:25:20.639Z</time></trkpt><trkpt lat="44.13446" lon="12.0616183"><ele>55.0</ele><time>2026-04-28T08:25:21.638Z</time></trkpt><trkpt lat="44.134525" lon="12.0616283"><ele>55.0</ele><time>2026-04-28T08:25:22.639Z</time></trkpt><trkpt lat="44.13459" lon="12.061635"><ele>55.0</ele><time>2026-04-28T08:25:23.638Z</time></trkpt><trkpt lat="44.1347067" lon="12.0616517"><ele>55.0</ele><time>2026-04-28T08:25:25.638Z</time></trkpt><trkpt lat="44.1348083" lon="12.061665"><ele>55.0</ele><time>2026-04-28T08:25:27.639Z</time></trkpt><trkpt lat="44.1349017" lon="12.0616567"><ele>55.0</ele><time>2026-04-28T08:25:29.639Z</time></trkpt><trkpt lat="44.13501" lon="12.0616617"><ele>55.0</ele><time>2026-04-28T08:25:31.639Z</time></trkpt><trkpt lat="44.1351233" lon="12.0616983"><ele>55.0</ele><time>2026-04-28T08:25:33.638Z</time></trkpt><trkpt lat="44.1352217" lon="12.0617167"><ele>55.0</ele><time>2026-04-28T08:25:35.639Z</time></trkpt><trkpt lat="44.13533" lon="12.0617833"><ele>55.0</ele><time>2026-04-28T08:25:37.638Z</time></trkpt><trkpt lat="44.1354483" lon="12.0618083"><ele>55.0</ele><time>2026-04-28T08:25:39.638Z</time></trkpt><trkpt lat="44.1355583" lon="12.0618217"><ele>55.0</ele><time>2026-04-28T08:25:41.638Z</time></trkpt><trkpt lat="44.1356683" lon="12.0618333"><ele>55.0</ele><time>2026-04-28T08:25:43.638Z</time></trkpt><trkpt lat="44.135775" lon="12.061855"><ele>55.0</ele><time>2026-04-28T08:25:45.639Z</time></trkpt><trkpt lat="44.135885" lon="12.0618733"><ele>55.0</ele><time>2026-04-28T08:25:47.638Z</time></trkpt><trkpt lat="44.1359933" lon="12.0618967"><ele>54.8</ele><time>2026-04-28T08:25:49.638Z</time></trkpt><trkpt lat="44.1360883" lon="12.0619133"><ele>54.6</ele><time>2026-04-28T08:25:51.638Z</time></trkpt><trkpt lat="44.136195" lon="12.0619283"><ele>54.400000000000006</ele><time>2026-04-28T08:25:53.638Z</time></trkpt><trkpt lat="44.1362983" lon="12.0619417"><ele>54.2</ele><time>2026-04-28T08:25:55.638Z</time></trkpt><trkpt lat="44.1363967" lon="12.0619483"><ele>54.0</ele><time>2026-04-28T08:25:57.639Z</time></trkpt><trkpt lat="44.1364967" lon="12.0619583"><ele>54.0</ele><time>2026-04-28T08:25:59.639Z</time></trkpt><trkpt lat="44.13659" lon="12.0619717"><ele>54.00000000000001</ele><time>2026-04-28T08:26:01.639Z</time></trkpt><trkpt lat="44.1366783" lon="12.061995"><ele>54.00000000000001</ele><time>2026-04-28T08:26:03.638Z</time></trkpt><trkpt lat="44.1367833" lon="12.0620083"><ele>54.0</ele><time>2026-04-28T08:26:05.639Z</time></trkpt><trkpt lat="44.1368933" lon="12.062025"><ele>54.0</ele><time>2026-04-28T08:26:07.639Z</time></trkpt><trkpt lat="44.137005" lon="12.06204"><ele>54.0</ele><time>2026-04-28T08:26:09.638Z</time></trkpt><trkpt lat="44.1370933" lon="12.0620467"><ele>54.0</ele><time>2026-04-28T08:26:11.638Z</time></trkpt><trkpt lat="44.137185" lon="12.0620533"><ele>54.0</ele><time>2026-04-28T08:26:14.638Z</time></trkpt><trkpt lat="44.1372717" lon="12.0620633"><ele>54.0</ele><time>2026-04-28T08:26:17.639Z</time></trkpt><trkpt lat="44.1373567" lon="12.0620617"><ele>54.0</ele><time>2026-04-28T08:26:21.639Z</time></trkpt><trkpt lat="44.13743" lon="12.06207"><ele>54.0</ele><time>2026-04-28T08:26:24.638Z</time></trkpt><trkpt lat="44.13751" lon="12.0620567"><ele>54.0</ele><time>2026-04-28T08:26:27.638Z</time></trkpt><trkpt lat="44.13759" lon="12.0620733"><ele>54.0</ele><time>2026-04-28T08:26:30.638Z</time></trkpt><trkpt lat="44.1376617" lon="12.0620717"><ele>54.0</ele><time>2026-04-28T08:26:33.639Z</time></trkpt><trkpt lat="44.1377367" lon="12.0620833"><ele>54.0</ele><time>2026-04-28T08:26:37.639Z</time></trkpt><trkpt lat="44.1378033" lon="12.0620833"><ele>54.0</ele><time>2026-04-28T08:26:41.639Z</time></trkpt><trkpt lat="44.1378883" lon="12.062095"><ele>54.0</ele><time>2026-04-28T08:26:45.639Z</time></trkpt><trkpt lat="44.1379683" lon="12.0620883"><ele>54.0</ele><time>2026-04-28T08:26:48.639Z</time></trkpt><trkpt lat="44.1380533" lon="12.0620917"><ele>54.0</ele><time>2026-04-28T08:26:51.639Z</time></trkpt><trkpt lat="44.1381167" lon="12.0621083"><ele>54.0</ele><time>2026-04-28T08:26:53.639Z</time></trkpt><trkpt lat="44.13819" lon="12.0621217"><ele>54.0</ele><time>2026-04-28T08:26:55.639Z</time></trkpt><trkpt lat="44.1382567" lon="12.0621317"><ele>54.0</ele><time>2026-04-28T08:26:57.639Z</time></trkpt><trkpt lat="44.1383367" lon="12.0621533"><ele>54.0</ele><time>2026-04-28T08:26:59.639Z</time></trkpt><trkpt lat="44.1384117" lon="12.0621667"><ele>54.0</ele><time>2026-04-28T08:27:01.639Z</time></trkpt><trkpt lat="44.1384883" lon="12.0621817"><ele>54.166666666666664</ele><time>2026-04-28T08:27:03.639Z</time></trkpt><trkpt lat="44.1385667" lon="12.0622017"><ele>54.33333333333333</ele><time>2026-04-28T08:27:05.638Z</time></trkpt><trkpt lat="44.1386467" lon="12.06222"><ele>54.5</ele><time>2026-04-28T08:27:07.639Z</time></trkpt><trkpt lat="44.1387283" lon="12.0622333"><ele>54.666666666666664</ele><time>2026-04-28T08:27:09.638Z</time></trkpt><trkpt lat="44.1388067" lon="12.062245"><ele>54.83333333333333</ele><time>2026-04-28T08:27:11.639Z</time></trkpt><trkpt lat="44.1388883" lon="12.0622717"><ele>55.0</ele><time>2026-04-28T08:27:13.639Z</time></trkpt><trkpt lat="44.13897" lon="12.0622967"><ele>55.2</ele><time>2026-04-28T08:27:15.639Z</time></trkpt><trkpt lat="44.1390633" lon="12.0623167"><ele>55.4</ele><time>2026-04-28T08:27:17.638Z</time></trkpt><trkpt lat="44.1391517" lon="12.06234"><ele>55.599999999999994</ele><time>2026-04-28T08:27:19.638Z</time></trkpt><trkpt lat="44.13925" lon="12.0623683"><ele>55.8</ele><time>2026-04-28T08:27:21.638Z</time></trkpt><trkpt lat="44.1393383" lon="12.0624017"><ele>56.0</ele><time>2026-04-28T08:27:23.639Z</time></trkpt><trkpt lat="44.1394283" lon="12.062435"><ele>55.8</ele><time>2026-04-28T08:27:25.639Z</time></trkpt><trkpt lat="44.1395233" lon="12.0624883"><ele>55.599999999999994</ele><time>2026-04-28T08:27:27.639Z</time></trkpt><trkpt lat="44.1396167" lon="12.0625367"><ele>55.4</ele><time>2026-04-28T08:27:29.638Z</time></trkpt><trkpt lat="44.1397167" lon="12.06259"><ele>55.2</ele><time>2026-04-28T08:27:31.638Z</time></trkpt><trkpt lat="44.13982" lon="12.0626467"><ele>55.0</ele><time>2026-04-28T08:27:33.639Z</time></trkpt><trkpt lat="44.1399317" lon="12.0627017"><ele>54.99999999999999</ele><time>2026-04-28T08:27:35.639Z</time></trkpt><trkpt lat="44.1400367" lon="12.062755"><ele>55.0</ele><time>2026-04-28T08:27:37.639Z</time></trkpt><trkpt lat="44.1401" lon="12.0627817"><ele>55.0</ele><time>2026-04-28T08:27:38.638Z</time></trkpt><trkpt lat="44.1401683" lon="12.0628117"><ele>55.0</ele><time>2026-04-28T08:27:39.639Z</time></trkpt><trkpt lat="44.1402333" lon="12.06285"><ele>54.99999999999999</ele><time>2026-04-28T08:27:40.638Z</time></trkpt><trkpt lat="44.14029" lon="12.0628967"><ele>55.0</ele><time>2026-04-28T08:27:41.639Z</time></trkpt><trkpt lat="44.1403533" lon="12.062945"><ele>54.99999999999999</ele><time>2026-04-28T08:27:42.638Z</time></trkpt><trkpt lat="44.14042" lon="12.0629933"><ele>55.0</ele><time>2026-04-28T08:27:43.638Z</time></trkpt><trkpt lat="44.1404867" lon="12.0630367"><ele>55.0</ele><time>2026-04-28T08:27:44.638Z</time></trkpt><trkpt lat="44.1405483" lon="12.0630783"><ele>55.0</ele><time>2026-04-28T08:27:45.638Z</time></trkpt><trkpt lat="44.1406067" lon="12.0631167"><ele>54.99999999999999</ele><time>2026-04-28T08:27:46.639Z</time></trkpt><trkpt lat="44.140715" lon="12.0631883"><ele>55.0</ele><time>2026-04-28T08:27:48.638Z</time></trkpt><trkpt lat="44.14082" lon="12.0632567"><ele>54.99999999999999</ele><time>2026-04-28T08:27:50.638Z</time></trkpt><trkpt lat="44.1409333" lon="12.0633267"><ele>55.0</ele><time>2026-04-28T08:27:52.639Z</time></trkpt><trkpt lat="44.1409917" lon="12.0633633"><ele>55.0</ele><time>2026-04-28T08:27:53.638Z</time></trkpt><trkpt lat="44.14105" lon="12.0634"><ele>55.0</ele><time>2026-04-28T08:27:54.639Z</time></trkpt><trkpt lat="44.14111" lon="12.0634367"><ele>54.99999999999999</ele><time>2026-04-28T08:27:55.638Z</time></trkpt><trkpt lat="44.1411733" lon="12.0634733"><ele>55.0</ele><time>2026-04-28T08:27:56.639Z</time></trkpt><trkpt lat="44.1412317" lon="12.06351"><ele>55.0</ele><time>2026-04-28T08:27:57.639Z</time></trkpt><trkpt lat="44.1413283" lon="12.0635933"><ele>55.0</ele><time>2026-04-28T08:27:59.638Z</time></trkpt><trkpt lat="44.14143" lon="12.0636467"><ele>55.0</ele><time>2026-04-28T08:28:01.639Z</time></trkpt><trkpt lat="44.1415467" lon="12.0637183"><ele>55.0</ele><time>2026-04-28T08:28:03.639Z</time></trkpt><trkpt lat="44.141605" lon="12.0637633"><ele>55.0</ele><time>2026-04-28T08:28:04.638Z</time></trkpt><trkpt lat="44.1417067" lon="12.06383"><ele>55.166666666666664</ele><time>2026-04-28T08:28:06.639Z</time></trkpt><trkpt lat="44.1417633" lon="12.063875"><ele>55.33333333333333</ele><time>2026-04-28T08:28:07.639Z</time></trkpt><trkpt lat="44.141875" lon="12.0639617"><ele>55.5</ele><time>2026-04-28T08:28:09.638Z</time></trkpt><trkpt lat="44.141935" lon="12.064005"><ele>55.66666666666667</ele><time>2026-04-28T08:28:10.639Z</time></trkpt><trkpt lat="44.1419917" lon="12.0640483"><ele>55.833333333333336</ele><time>2026-04-28T08:28:11.639Z</time></trkpt><trkpt lat="44.14205" lon="12.06409"><ele>56.0</ele><time>2026-04-28T08:28:12.638Z</time></trkpt><trkpt lat="44.1421633" lon="12.0641617"><ele>56.00000000000001</ele><time>2026-04-28T08:28:14.639Z</time></trkpt><trkpt lat="44.1422233" lon="12.0642"><ele>56.0</ele><time>2026-04-28T08:28:15.639Z</time></trkpt><trkpt lat="44.1422817" lon="12.06424"><ele>56.0</ele><time>2026-04-28T08:28:16.639Z</time></trkpt><trkpt lat="44.14234" lon="12.06428"><ele>56.0</ele><time>2026-04-28T08:28:17.638Z</time></trkpt><trkpt lat="44.1424" lon="12.06432"><ele>56.00000000000001</ele><time>2026-04-28T08:28:18.638Z</time></trkpt><trkpt lat="44.1425117" lon="12.0644017"><ele>56.0</ele><time>2026-04-28T08:28:20.639Z</time></trkpt><trkpt lat="44.1426283" lon="12.0644817"><ele>55.833333333333336</ele><time>2026-04-28T08:28:22.638Z</time></trkpt><trkpt lat="44.1426867" lon="12.0645183"><ele>55.66666666666667</ele><time>2026-04-28T08:28:23.638Z</time></trkpt><trkpt lat="44.1428033" lon="12.0645967"><ele>55.5</ele><time>2026-04-28T08:28:25.639Z</time></trkpt><trkpt lat="44.1428633" lon="12.0646383"><ele>55.33333333333333</ele><time>2026-04-28T08:28:26.639Z</time></trkpt><trkpt lat="44.142925" lon="12.0646833"><ele>55.166666666666664</ele><time>2026-04-28T08:28:27.639Z</time></trkpt><trkpt lat="44.14299" lon="12.06473"><ele>55.0</ele><time>2026-04-28T08:28:28.638Z</time></trkpt><trkpt lat="44.1430533" lon="12.064775"><ele>54.99999999999999</ele><time>2026-04-28T08:28:29.638Z</time></trkpt><trkpt lat="44.143115" lon="12.0648183"><ele>55.0</ele><time>2026-04-28T08:28:30.638Z</time></trkpt><trkpt lat="44.14323" lon="12.0649083"><ele>55.0</ele><time>2026-04-28T08:28:32.639Z</time></trkpt><trkpt lat="44.1432917" lon="12.064955"><ele>55.0</ele><time>2026-04-28T08:28:33.638Z</time></trkpt><trkpt lat="44.1433567" lon="12.065005"><ele>54.99999999999999</ele><time>2026-04-28T08:28:34.638Z</time></trkpt><trkpt lat="44.1434217" lon="12.06505"><ele>55.0</ele><time>2026-04-28T08:28:35.638Z</time></trkpt><trkpt lat="44.1434833" lon="12.0650983"><ele>55.14285714285714</ele><time>2026-04-28T08:28:36.639Z</time></trkpt><trkpt lat="44.143545" lon="12.065145"><ele>55.285714285714285</ele><time>2026-04-28T08:28:37.639Z</time></trkpt><trkpt lat="44.1436033" lon="12.0651917"><ele>55.42857142857143</ele><time>2026-04-28T08:28:38.638Z</time></trkpt><trkpt lat="44.143665" lon="12.0652383"><ele>55.57142857142857</ele><time>2026-04-28T08:28:39.639Z</time></trkpt><trkpt lat="44.1437233" lon="12.0652867"><ele>55.714285714285715</ele><time>2026-04-28T08:28:40.639Z</time></trkpt><trkpt lat="44.1437883" lon="12.0653367"><ele>55.857142857142854</ele><time>2026-04-28T08:28:41.639Z</time></trkpt><trkpt lat="44.1438517" lon="12.065385"><ele>56.0</ele><time>2026-04-28T08:28:42.638Z</time></trkpt><trkpt lat="44.143915" lon="12.0654433"><ele>56.0</ele><time>2026-04-28T08:28:43.639Z</time></trkpt><trkpt lat="44.1439733" lon="12.0654983"><ele>56.0</ele><time>2026-04-28T08:28:44.638Z</time></trkpt><trkpt lat="44.1440333" lon="12.0655633"><ele>56.0</ele><time>2026-04-28T08:28:45.638Z</time></trkpt><trkpt lat="44.1440883" lon="12.0656267"><ele>56.0</ele><time>2026-04-28T08:28:46.639Z</time></trkpt><trkpt lat="44.1441367" lon="12.065695"><ele>56.0</ele><time>2026-04-28T08:28:47.638Z</time></trkpt><trkpt lat="44.1441833" lon="12.065765"><ele>56.0</ele><time>2026-04-28T08:28:48.639Z</time></trkpt><trkpt lat="44.1442333" lon="12.0658417"><ele>56.0</ele><time>2026-04-28T08:28:49.639Z</time></trkpt><trkpt lat="44.14428" lon="12.06592"><ele>55.857142857142854</ele><time>2026-04-28T08:28:50.639Z</time></trkpt><trkpt lat="44.144325" lon="12.0659933"><ele>55.714285714285715</ele><time>2026-04-28T08:28:51.639Z</time></trkpt><trkpt lat="44.1443683" lon="12.0660683"><ele>55.57142857142857</ele><time>2026-04-28T08:28:52.638Z</time></trkpt><trkpt lat="44.14441" lon="12.066145"><ele>55.42857142857143</ele><time>2026-04-28T08:28:53.639Z</time></trkpt><trkpt lat="44.14445" lon="12.06622"><ele>55.285714285714285</ele><time>2026-04-28T08:28:54.639Z</time></trkpt><trkpt lat="44.14449" lon="12.0662983"><ele>55.14285714285714</ele><time>2026-04-28T08:28:55.639Z</time></trkpt><trkpt lat="44.144525" lon="12.06638"><ele>55.0</ele><time>2026-04-28T08:28:56.638Z</time></trkpt><trkpt lat="44.1445667" lon="12.0664617"><ele>54.99999999999999</ele><time>2026-04-28T08:28:57.638Z</time></trkpt><trkpt lat="44.1446133" lon="12.0665533"><ele>55.0</ele><time>2026-04-28T08:28:58.639Z</time></trkpt><trkpt lat="44.144655" lon="12.0666333"><ele>55.0</ele><time>2026-04-28T08:28:59.639Z</time></trkpt><trkpt lat="44.144695" lon="12.06671"><ele>55.0</ele><time>2026-04-28T08:29:00.638Z</time></trkpt><trkpt lat="44.1447333" lon="12.0667867"><ele>54.99999999999999</ele><time>2026-04-28T08:29:01.638Z</time></trkpt><trkpt lat="44.144805" lon="12.066935"><ele>55.0</ele><time>2026-04-28T08:29:03.638Z</time></trkpt><trkpt lat="44.14484" lon="12.0670083"><ele>54.49999999999999</ele><time>2026-04-28T08:29:04.639Z</time></trkpt><trkpt lat="44.1448783" lon="12.0670833"><ele>54.0</ele><time>2026-04-28T08:29:05.638Z</time></trkpt><trkpt lat="44.1449183" lon="12.06716"><ele>53.5</ele><time>2026-04-28T08:29:06.638Z</time></trkpt><trkpt lat="44.1449983" lon="12.0673017"><ele>53.0</ele><time>2026-04-28T08:29:08.638Z</time></trkpt><trkpt lat="44.14505" lon="12.0673667"><ele>52.49999999999999</ele><time>2026-04-28T08:29:09.638Z</time></trkpt><trkpt lat="44.1451" lon="12.0674267"><ele>52.0</ele><time>2026-04-28T08:29:10.638Z</time></trkpt><trkpt lat="44.145205" lon="12.0675283"><ele>51.857142857142854</ele><time>2026-04-28T08:29:12.639Z</time></trkpt><trkpt lat="44.145265" lon="12.0675667"><ele>51.714285714285715</ele><time>2026-04-28T08:29:13.639Z</time></trkpt><trkpt lat="44.145325" lon="12.0676033"><ele>51.57142857142857</ele><time>2026-04-28T08:29:14.639Z</time></trkpt><trkpt lat="44.1453883" lon="12.06764"><ele>51.42857142857143</ele><time>2026-04-28T08:29:15.638Z</time></trkpt><trkpt lat="44.1454517" lon="12.06767"><ele>51.28571428571429</ele><time>2026-04-28T08:29:16.638Z</time></trkpt><trkpt lat="44.1455167" lon="12.067685"><ele>51.142857142857146</ele><time>2026-04-28T08:29:17.639Z</time></trkpt><trkpt lat="44.145585" lon="12.0676983"><ele>51.0</ele><time>2026-04-28T08:29:18.639Z</time></trkpt><trkpt lat="44.145655" lon="12.0677117"><ele>51.285714285714285</ele><time>2026-04-28T08:29:19.638Z</time></trkpt><trkpt lat="44.1457233" lon="12.067725"><ele>51.57142857142857</ele><time>2026-04-28T08:29:20.639Z</time></trkpt><trkpt lat="44.14579" lon="12.06774"><ele>51.85714285714286</ele><time>2026-04-28T08:29:21.639Z</time></trkpt><trkpt lat="44.145855" lon="12.0677517"><ele>52.14285714285714</ele><time>2026-04-28T08:29:22.639Z</time></trkpt><trkpt lat="44.1459183" lon="12.0677583"><ele>52.42857142857142</ele><time>2026-04-28T08:29:23.639Z</time></trkpt><trkpt lat="44.1459833" lon="12.06777"><ele>52.714285714285715</ele><time>2026-04-28T08:29:24.638Z</time></trkpt><trkpt lat="44.14605" lon="12.0677767"><ele>53.0</ele><time>2026-04-28T08:29:25.638Z</time></trkpt><trkpt lat="44.146155" lon="12.0677833"><ele>53.0</ele><time>2026-04-28T08:29:27.638Z</time></trkpt><trkpt lat="44.146255" lon="12.0677967"><ele>53.0</ele><time>2026-04-28T08:29:29.639Z</time></trkpt><trkpt lat="44.14636" lon="12.067805"><ele>53.0</ele><time>2026-04-28T08:29:31.639Z</time></trkpt><trkpt lat="44.1464717" lon="12.0678067"><ele>53.0</ele><time>2026-04-28T08:29:33.638Z</time></trkpt><trkpt lat="44.146595" lon="12.0678383"><ele>53.0</ele><time>2026-04-28T08:29:35.638Z</time></trkpt><trkpt lat="44.14667" lon="12.06785"><ele>53.2</ele><time>2026-04-28T08:29:36.639Z</time></trkpt><trkpt lat="44.1467367" lon="12.067875"><ele>53.4</ele><time>2026-04-28T08:29:37.638Z</time></trkpt><trkpt lat="44.1467983" lon="12.0679017"><ele>53.60000000000001</ele><time>2026-04-28T08:29:38.638Z</time></trkpt><trkpt lat="44.146895" lon="12.0679683"><ele>53.800000000000004</ele><time>2026-04-28T08:29:40.639Z</time></trkpt><trkpt lat="44.1470117" lon="12.0680167"><ele>54.0</ele><time>2026-04-28T08:29:42.638Z</time></trkpt><trkpt lat="44.1471367" lon="12.0680017"><ele>54.0</ele><time>2026-04-28T08:29:44.638Z</time></trkpt><trkpt lat="44.1472217" lon="12.0679017"><ele>54.00000000000001</ele><time>2026-04-28T08:29:46.639Z</time></trkpt><trkpt lat="44.1472417" lon="12.067765"><ele>54.00000000000001</ele><time>2026-04-28T08:29:48.638Z</time></trkpt><trkpt lat="44.1472517" lon="12.0676083"><ele>54.0</ele><time>2026-04-28T08:29:50.638Z</time></trkpt><trkpt lat="44.147265" lon="12.0675183"><ele>54.0</ele><time>2026-04-28T08:29:51.638Z</time></trkpt><trkpt lat="44.14729" lon="12.06743"><ele>54.0</ele><time>2026-04-28T08:29:52.639Z</time></trkpt><trkpt lat="44.14732" lon="12.0673383"><ele>54.00000000000001</ele><time>2026-04-28T08:29:53.639Z</time></trkpt><trkpt lat="44.147355" lon="12.0672517"><ele>54.00000000000001</ele><time>2026-04-28T08:29:54.639Z</time></trkpt><trkpt lat="44.1474217" lon="12.0671017"><ele>54.0</ele><time>2026-04-28T08:29:56.638Z</time></trkpt><trkpt lat="44.1474567" lon="12.0670217"><ele>54.0</ele><time>2026-04-28T08:29:57.639Z</time></trkpt><trkpt lat="44.1475283" lon="12.0668867"><ele>54.0</ele><time>2026-04-28T08:29:59.639Z</time></trkpt><trkpt lat="44.1476017" lon="12.066755"><ele>54.00000000000001</ele><time>2026-04-28T08:30:01.638Z</time></trkpt><trkpt lat="44.14768" lon="12.0666367"><ele>54.00000000000001</ele><time>2026-04-28T08:30:03.638Z</time></trkpt><trkpt lat="44.1477517" lon="12.0665233"><ele>54.0</ele><time>2026-04-28T08:30:05.638Z</time></trkpt><trkpt lat="44.14782" lon="12.0664117"><ele>54.0</ele><time>2026-04-28T08:30:07.639Z</time></trkpt><trkpt lat="44.1478967" lon="12.0663017"><ele>54.0</ele><time>2026-04-28T08:30:09.639Z</time></trkpt><trkpt lat="44.1479767" lon="12.0661883"><ele>54.0</ele><time>2026-04-28T08:30:11.639Z</time></trkpt><trkpt lat="44.1480517" lon="12.0660783"><ele>54.0</ele><time>2026-04-28T08:30:13.638Z</time></trkpt><trkpt lat="44.1481317" lon="12.0659683"><ele>54.0</ele><time>2026-04-28T08:30:15.639Z</time></trkpt><trkpt lat="44.1482133" lon="12.065855"><ele>54.5</ele><time>2026-04-28T08:30:17.638Z</time></trkpt><trkpt lat="44.1482983" lon="12.0657383"><ele>55.0</ele><time>2026-04-28T08:30:19.638Z</time></trkpt><trkpt lat="44.14837" lon="12.065625"><ele>55.5</ele><time>2026-04-28T08:30:21.638Z</time></trkpt><trkpt lat="44.1484483" lon="12.0655133"><ele>56.0</ele><time>2026-04-28T08:30:23.638Z</time></trkpt><trkpt lat="44.1485283" lon="12.0654033"><ele>56.0</ele><time>2026-04-28T08:30:25.639Z</time></trkpt><trkpt lat="44.1486033" lon="12.0652933"><ele>55.99999999999999</ele><time>2026-04-28T08:30:27.639Z</time></trkpt><trkpt lat="44.1486767" lon="12.0651717"><ele>55.99999999999999</ele><time>2026-04-28T08:30:29.638Z</time></trkpt><trkpt lat="44.148755" lon="12.0650617"><ele>56.0</ele><time>2026-04-28T08:30:31.638Z</time></trkpt><trkpt lat="44.1488317" lon="12.0649533"><ele>56.0</ele><time>2026-04-28T08:30:33.638Z</time></trkpt><trkpt lat="44.14891" lon="12.06484"><ele>56.0</ele><time>2026-04-28T08:30:35.638Z</time></trkpt><trkpt lat="44.1489883" lon="12.0647433"><ele>55.99999999999999</ele><time>2026-04-28T08:30:37.639Z</time></trkpt><trkpt lat="44.1490683" lon="12.06465"><ele>55.99999999999999</ele><time>2026-04-28T08:30:39.639Z</time></trkpt><trkpt lat="44.1491367" lon="12.0645683"><ele>56.0</ele><time>2026-04-28T08:30:41.639Z</time></trkpt><trkpt lat="44.1491967" lon="12.0645067"><ele>56.0</ele><time>2026-04-28T08:30:43.638Z</time></trkpt><trkpt lat="44.149275" lon="12.06443"><ele>56.833333333333336</ele><time>2026-04-28T08:30:46.638Z</time></trkpt><trkpt lat="44.149365" lon="12.0643367"><ele>57.66666666666667</ele><time>2026-04-28T08:30:49.639Z</time></trkpt><trkpt lat="44.1494217" lon="12.0642717"><ele>58.5</ele><time>2026-04-28T08:30:51.638Z</time></trkpt><trkpt lat="44.1494733" lon="12.064215"><ele>59.33333333333333</ele><time>2026-04-28T08:30:53.638Z</time></trkpt><trkpt lat="44.1495283" lon="12.0641517"><ele>60.166666666666664</ele><time>2026-04-28T08:30:55.639Z</time></trkpt><trkpt lat="44.1496" lon="12.0640767"><ele>61.0</ele><time>2026-04-28T08:30:58.638Z</time></trkpt><trkpt lat="44.1496667" lon="12.0640083"><ele>61.49999999999999</ele><time>2026-04-28T08:31:01.639Z</time></trkpt><trkpt lat="44.1497317" lon="12.0639433"><ele>62.0</ele><time>2026-04-28T08:31:04.638Z</time></trkpt><trkpt lat="44.1498" lon="12.063875"><ele>62.5</ele><time>2026-04-28T08:31:07.639Z</time></trkpt><trkpt lat="44.1498717" lon="12.06381"><ele>63.0</ele><time>2026-04-28T08:31:10.639Z</time></trkpt><trkpt lat="44.14994" lon="12.0637317"><ele>63.49999999999999</ele><time>2026-04-28T08:31:13.638Z</time></trkpt><trkpt lat="44.150005" lon="12.0636617"><ele>64.0</ele><time>2026-04-28T08:31:16.638Z</time></trkpt><trkpt lat="44.150065" lon="12.0636017"><ele>64.5</ele><time>2026-04-28T08:31:19.638Z</time></trkpt><trkpt lat="44.1501283" lon="12.0635333"><ele>65.0</ele><time>2026-04-28T08:31:22.639Z</time></trkpt><trkpt lat="44.150195" lon="12.0634483"><ele>65.5</ele><time>2026-04-28T08:31:25.639Z</time></trkpt><trkpt lat="44.1502517" lon="12.0633633"><ele>66.0</ele><time>2026-04-28T08:31:28.639Z</time></trkpt><trkpt lat="44.1503067" lon="12.0632783"><ele>66.5</ele><time>2026-04-28T08:31:31.639Z</time></trkpt><trkpt lat="44.150345" lon="12.063205"><ele>67.0</ele><time>2026-04-28T08:31:33.639Z</time></trkpt><trkpt lat="44.1503817" lon="12.0631317"><ele>67.0</ele><time>2026-04-28T08:31:35.638Z</time></trkpt><trkpt lat="44.15042" lon="12.0630533"><ele>67.0</ele><time>2026-04-28T08:31:37.638Z</time></trkpt><trkpt lat="44.150455" lon="12.0629717"><ele>67.0</ele><time>2026-04-28T08:31:39.639Z</time></trkpt><trkpt lat="44.1504867" lon="12.0628833"><ele>67.0</ele><time>2026-04-28T08:31:41.639Z</time></trkpt><trkpt lat="44.1505167" lon="12.0627983"><ele>67.0</ele><time>2026-04-28T08:31:43.638Z</time></trkpt><trkpt lat="44.150545" lon="12.0627133"><ele>67.0</ele><time>2026-04-28T08:31:45.639Z</time></trkpt><trkpt lat="44.1505833" lon="12.0625917"><ele>67.0</ele><time>2026-04-28T08:31:48.639Z</time></trkpt><trkpt lat="44.150615" lon="12.0624717"><ele>66.83333333333333</ele><time>2026-04-28T08:31:51.639Z</time></trkpt><trkpt lat="44.1506383" lon="12.0623883"><ele>66.66666666666666</ele><time>2026-04-28T08:31:53.639Z</time></trkpt><trkpt lat="44.1506767" lon="12.0622783"><ele>66.5</ele><time>2026-04-28T08:31:56.638Z</time></trkpt><trkpt lat="44.1507083" lon="12.06219"><ele>66.33333333333333</ele><time>2026-04-28T08:31:58.639Z</time></trkpt><trkpt lat="44.1507467" lon="12.062095"><ele>66.16666666666667</ele><time>2026-04-28T08:32:00.639Z</time></trkpt><trkpt lat="44.1507783" lon="12.0620083"><ele>66.0</ele><time>2026-04-28T08:32:02.639Z</time></trkpt><trkpt lat="44.1508317" lon="12.0618917"><ele>66.83333333333333</ele><time>2026-04-28T08:32:05.638Z</time></trkpt><trkpt lat="44.1508667" lon="12.0617983"><ele>67.66666666666667</ele><time>2026-04-28T08:32:07.639Z</time></trkpt><trkpt lat="44.1509033" lon="12.061705"><ele>68.5</ele><time>2026-04-28T08:32:09.638Z</time></trkpt><trkpt lat="44.1509417" lon="12.0616033"><ele>69.33333333333334</ele><time>2026-04-28T08:32:11.638Z</time></trkpt><trkpt lat="44.1509833" lon="12.0615033"><ele>70.16666666666667</ele><time>2026-04-28T08:32:13.639Z</time></trkpt><trkpt lat="44.1510283" lon="12.0614167"><ele>71.0</ele><time>2026-04-28T08:32:15.639Z</time></trkpt><trkpt lat="44.1510767" lon="12.0613183"><ele>71.0</ele><time>2026-04-28T08:32:17.639Z</time></trkpt><trkpt lat="44.1511233" lon="12.06122"><ele>71.0</ele><time>2026-04-28T08:32:19.638Z</time></trkpt><trkpt lat="44.1511617" lon="12.0611267"><ele>71.0</ele><time>2026-04-28T08:32:21.639Z</time></trkpt><trkpt lat="44.1512033" lon="12.0610233"><ele>71.0</ele><time>2026-04-28T08:32:23.638Z</time></trkpt><trkpt lat="44.1512483" lon="12.06092"><ele>71.0</ele><time>2026-04-28T08:32:25.639Z</time></trkpt><trkpt lat="44.1512883" lon="12.0608067"><ele>71.0</ele><time>2026-04-28T08:32:27.639Z</time></trkpt><trkpt lat="44.1513333" lon="12.06069"><ele>70.33333333333334</ele><time>2026-04-28T08:32:29.639Z</time></trkpt><trkpt lat="44.1513833" lon="12.0605833"><ele>69.66666666666667</ele><time>2026-04-28T08:32:31.639Z</time></trkpt><trkpt lat="44.1514333" lon="12.060475"><ele>69.0</ele><time>2026-04-28T08:32:33.638Z</time></trkpt><trkpt lat="44.1514833" lon="12.060375"><ele>68.33333333333333</ele><time>2026-04-28T08:32:35.638Z</time></trkpt><trkpt lat="44.1515333" lon="12.06028"><ele>67.66666666666666</ele><time>2026-04-28T08:32:37.638Z</time></trkpt><trkpt lat="44.151575" lon="12.060175"><ele>67.0</ele><time>2026-04-28T08:32:39.639Z</time></trkpt><trkpt lat="44.1516167" lon="12.060065"><ele>68.4</ele><time>2026-04-28T08:32:41.639Z</time></trkpt><trkpt lat="44.1516683" lon="12.0599517"><ele>69.80000000000001</ele><time>2026-04-28T08:32:43.639Z</time></trkpt><trkpt lat="44.1517217" lon="12.0598317"><ele>71.2</ele><time>2026-04-28T08:32:45.639Z</time></trkpt><trkpt lat="44.1517783" lon="12.0597117"><ele>72.60000000000001</ele><time>2026-04-28T08:32:47.639Z</time></trkpt><trkpt lat="44.151845" lon="12.0595883"><ele>74.0</ele><time>2026-04-28T08:32:49.638Z</time></trkpt><trkpt lat="44.151915" lon="12.0594717"><ele>74.0</ele><time>2026-04-28T08:32:51.639Z</time></trkpt><trkpt lat="44.151985" lon="12.0593617"><ele>74.0</ele><time>2026-04-28T08:32:53.638Z</time></trkpt><trkpt lat="44.1520583" lon="12.059245"><ele>74.0</ele><time>2026-04-28T08:32:55.639Z</time></trkpt><trkpt lat="44.1521383" lon="12.05914"><ele>74.0</ele><time>2026-04-28T08:32:57.639Z</time></trkpt><trkpt lat="44.1522233" lon="12.059045"><ele>74.0</ele><time>2026-04-28T08:32:59.638Z</time></trkpt><trkpt lat="44.15231" lon="12.0589417"><ele>75.0</ele><time>2026-04-28T08:33:01.638Z</time></trkpt><trkpt lat="44.1523967" lon="12.05884"><ele>76.0</ele><time>2026-04-28T08:33:03.638Z</time></trkpt><trkpt lat="44.15248" lon="12.0587417"><ele>77.0</ele><time>2026-04-28T08:33:05.638Z</time></trkpt><trkpt lat="44.1525667" lon="12.0586433"><ele>78.0</ele><time>2026-04-28T08:33:07.638Z</time></trkpt><trkpt lat="44.1526533" lon="12.0585467"><ele>79.0</ele><time>2026-04-28T08:33:09.639Z</time></trkpt><trkpt lat="44.1527567" lon="12.0584433"><ele>79.0</ele><time>2026-04-28T08:33:11.639Z</time></trkpt><trkpt lat="44.1528533" lon="12.0583383"><ele>79.0</ele><time>2026-04-28T08:33:13.638Z</time></trkpt><trkpt lat="44.1529017" lon="12.0582817"><ele>79.0</ele><time>2026-04-28T08:33:14.638Z</time></trkpt><trkpt lat="44.1529917" lon="12.05817"><ele>79.0</ele><time>2026-04-28T08:33:16.638Z</time></trkpt><trkpt lat="44.1530833" lon="12.0580617"><ele>79.0</ele><time>2026-04-28T08:33:18.639Z</time></trkpt><trkpt lat="44.1531767" lon="12.057955"><ele>79.6</ele><time>2026-04-28T08:33:20.638Z</time></trkpt><trkpt lat="44.15326" lon="12.0578567"><ele>80.2</ele><time>2026-04-28T08:33:22.638Z</time></trkpt><trkpt lat="44.1533433" lon="12.0577517"><ele>80.8</ele><time>2026-04-28T08:33:24.638Z</time></trkpt><trkpt lat="44.1534333" lon="12.0576417"><ele>81.39999999999999</ele><time>2026-04-28T08:33:26.639Z</time></trkpt><trkpt lat="44.15348" lon="12.05758"><ele>82.0</ele><time>2026-04-28T08:33:27.638Z</time></trkpt><trkpt lat="44.153525" lon="12.057515"><ele>82.0</ele><time>2026-04-28T08:33:28.638Z</time></trkpt><trkpt lat="44.1535683" lon="12.0574483"><ele>82.0</ele><time>2026-04-28T08:33:29.639Z</time></trkpt><trkpt lat="44.1536117" lon="12.057375"><ele>82.0</ele><time>2026-04-28T08:33:30.639Z</time></trkpt><trkpt lat="44.1536533" lon="12.0573033"><ele>82.0</ele><time>2026-04-28T08:33:31.639Z</time></trkpt><trkpt lat="44.1537217" lon="12.0571567"><ele>82.0</ele><time>2026-04-28T08:33:33.638Z</time></trkpt><trkpt lat="44.1537583" lon="12.0570733"><ele>82.0</ele><time>2026-04-28T08:33:34.639Z</time></trkpt><trkpt lat="44.1537917" lon="12.05698"><ele>81.99999999999999</ele><time>2026-04-28T08:33:35.638Z</time></trkpt><trkpt lat="44.1538283" lon="12.0569"><ele>82.0</ele><time>2026-04-28T08:33:36.638Z</time></trkpt><trkpt lat="44.153865" lon="12.0568183"><ele>82.0</ele><time>2026-04-28T08:33:37.639Z</time></trkpt><trkpt lat="44.1538983" lon="12.05674"><ele>82.0</ele><time>2026-04-28T08:33:38.638Z</time></trkpt><trkpt lat="44.1539317" lon="12.0566617"><ele>82.0</ele><time>2026-04-28T08:33:39.638Z</time></trkpt><trkpt lat="44.1539667" lon="12.0565783"><ele>81.99999999999999</ele><time>2026-04-28T08:33:40.638Z</time></trkpt><trkpt lat="44.1540017" lon="12.0564983"><ele>82.0</ele><time>2026-04-28T08:33:41.639Z</time></trkpt><trkpt lat="44.1540333" lon="12.0564183"><ele>81.71428571428571</ele><time>2026-04-28T08:33:42.639Z</time></trkpt><trkpt lat="44.154065" lon="12.0563417"><ele>81.42857142857143</ele><time>2026-04-28T08:33:43.638Z</time></trkpt><trkpt lat="44.1541017" lon="12.0562633"><ele>81.14285714285714</ele><time>2026-04-28T08:33:44.639Z</time></trkpt><trkpt lat="44.1541367" lon="12.0561833"><ele>80.85714285714286</ele><time>2026-04-28T08:33:45.639Z</time></trkpt><trkpt lat="44.1541783" lon="12.0561117"><ele>80.57142857142857</ele><time>2026-04-28T08:33:46.638Z</time></trkpt><trkpt lat="44.1542267" lon="12.05603"><ele>80.28571428571428</ele><time>2026-04-28T08:33:47.639Z</time></trkpt><trkpt lat="44.1542733" lon="12.0559583"><ele>80.0</ele><time>2026-04-28T08:33:48.639Z</time></trkpt><trkpt lat="44.15432" lon="12.05589"><ele>80.0</ele><time>2026-04-28T08:33:49.638Z</time></trkpt><trkpt lat="44.1543733" lon="12.0558183"><ele>80.0</ele><time>2026-04-28T08:33:50.639Z</time></trkpt><trkpt lat="44.15443" lon="12.0557517"><ele>80.0</ele><time>2026-04-28T08:33:51.638Z</time></trkpt><trkpt lat="44.1544883" lon="12.0556933"><ele>80.0</ele><time>2026-04-28T08:33:52.638Z</time></trkpt><trkpt lat="44.15454" lon="12.0556367"><ele>80.0</ele><time>2026-04-28T08:33:53.639Z</time></trkpt><trkpt lat="44.1545883" lon="12.05558"><ele>80.0</ele><time>2026-04-28T08:33:54.639Z</time></trkpt><trkpt lat="44.1546933" lon="12.055485"><ele>80.2</ele><time>2026-04-28T08:33:56.638Z</time></trkpt><trkpt lat="44.1547483" lon="12.0554417"><ele>80.4</ele><time>2026-04-28T08:33:57.639Z</time></trkpt><trkpt lat="44.1548417" lon="12.0553633"><ele>80.6</ele><time>2026-04-28T08:33:59.638Z</time></trkpt><trkpt lat="44.1549317" lon="12.0553067"><ele>80.8</ele><time>2026-04-28T08:34:01.638Z</time></trkpt><trkpt lat="44.1550167" lon="12.0552483"><ele>81.0</ele><time>2026-04-28T08:34:03.639Z</time></trkpt><trkpt lat="44.1551033" lon="12.0551983"><ele>81.0</ele><time>2026-04-28T08:34:05.639Z</time></trkpt><trkpt lat="44.1551833" lon="12.05514"><ele>81.0</ele><time>2026-04-28T08:34:07.639Z</time></trkpt><trkpt lat="44.15527" lon="12.0550483"><ele>81.0</ele><time>2026-04-28T08:34:09.639Z</time></trkpt><trkpt lat="44.1553583" lon="12.0549467"><ele>81.0</ele><time>2026-04-28T08:34:11.639Z</time></trkpt><trkpt lat="44.15544" lon="12.0548683"><ele>81.0</ele><time>2026-04-28T08:34:13.639Z</time></trkpt><trkpt lat="44.15551" lon="12.0547833"><ele>81.33333333333333</ele><time>2026-04-28T08:34:15.638Z</time></trkpt><trkpt lat="44.1555417" lon="12.0546617"><ele>81.66666666666667</ele><time>2026-04-28T08:34:17.639Z</time></trkpt><trkpt lat="44.15555" lon="12.0545583"><ele>82.0</ele><time>2026-04-28T08:34:19.639Z</time></trkpt><trkpt lat="44.155565" lon="12.0544617"><ele>82.33333333333334</ele><time>2026-04-28T08:34:21.638Z</time></trkpt><trkpt lat="44.1555833" lon="12.05436"><ele>82.66666666666667</ele><time>2026-04-28T08:34:23.638Z</time></trkpt><trkpt lat="44.155605" lon="12.054265"><ele>83.0</ele><time>2026-04-28T08:34:25.639Z</time></trkpt><trkpt lat="44.1556183" lon="12.054155"><ele>83.16666666666667</ele><time>2026-04-28T08:34:27.638Z</time></trkpt><trkpt lat="44.155635" lon="12.0540683"><ele>83.33333333333334</ele><time>2026-04-28T08:34:29.639Z</time></trkpt><trkpt lat="44.1556633" lon="12.0539667"><ele>83.5</ele><time>2026-04-28T08:34:31.639Z</time></trkpt><trkpt lat="44.1556817" lon="12.05386"><ele>83.66666666666667</ele><time>2026-04-28T08:34:33.639Z</time></trkpt><trkpt lat="44.155695" lon="12.0537483"><ele>83.83333333333333</ele><time>2026-04-28T08:34:35.639Z</time></trkpt><trkpt lat="44.1557133" lon="12.053645"><ele>84.0</ele><time>2026-04-28T08:34:37.639Z</time></trkpt><trkpt lat="44.1557333" lon="12.0535333"><ele>83.6</ele><time>2026-04-28T08:34:39.639Z</time></trkpt><trkpt lat="44.1557567" lon="12.0534033"><ele>83.2</ele><time>2026-04-28T08:34:41.639Z</time></trkpt><trkpt lat="44.1557883" lon="12.05327"><ele>82.8</ele><time>2026-04-28T08:34:43.639Z</time></trkpt><trkpt lat="44.1558167" lon="12.0531333"><ele>82.39999999999999</ele><time>2026-04-28T08:34:45.638Z</time></trkpt><trkpt lat="44.1558467" lon="12.0529867"><ele>82.0</ele><time>2026-04-28T08:34:47.638Z</time></trkpt><trkpt lat="44.15587" lon="12.05286"><ele>82.0</ele><time>2026-04-28T08:34:49.639Z</time></trkpt><trkpt lat="44.1558917" lon="12.0527383"><ele>82.0</ele><time>2026-04-28T08:34:51.639Z</time></trkpt><trkpt lat="44.155915" lon="12.052615"><ele>82.0</ele><time>2026-04-28T08:34:53.638Z</time></trkpt><trkpt lat="44.155935" lon="12.0524917"><ele>82.0</ele><time>2026-04-28T08:34:55.639Z</time></trkpt><trkpt lat="44.15596" lon="12.0523683"><ele>82.0</ele><time>2026-04-28T08:34:57.638Z</time></trkpt><trkpt lat="44.1559867" lon="12.05224"><ele>82.6</ele><time>2026-04-28T08:34:59.638Z</time></trkpt><trkpt lat="44.15601" lon="12.0521167"><ele>83.19999999999999</ele><time>2026-04-28T08:35:01.639Z</time></trkpt><trkpt lat="44.1560383" lon="12.0520017"><ele>83.8</ele><time>2026-04-28T08:35:03.639Z</time></trkpt><trkpt lat="44.1560633" lon="12.051875"><ele>84.4</ele><time>2026-04-28T08:35:05.638Z</time></trkpt><trkpt lat="44.15608" lon="12.0517583"><ele>85.0</ele><time>2026-04-28T08:35:07.638Z</time></trkpt><trkpt lat="44.1561033" lon="12.0516333"><ele>85.0</ele><time>2026-04-28T08:35:09.638Z</time></trkpt><trkpt lat="44.1561283" lon="12.051505"><ele>85.0</ele><time>2026-04-28T08:35:11.639Z</time></trkpt><trkpt lat="44.1561567" lon="12.0513933"><ele>85.0</ele><time>2026-04-28T08:35:13.639Z</time></trkpt><trkpt lat="44.1561817" lon="12.0512783"><ele>85.0</ele><time>2026-04-28T08:35:15.639Z</time></trkpt><trkpt lat="44.156195" lon="12.0511683"><ele>85.0</ele><time>2026-04-28T08:35:17.638Z</time></trkpt><trkpt lat="44.15621" lon="12.0510683"><ele>85.0</ele><time>2026-04-28T08:35:19.639Z</time></trkpt><trkpt lat="44.15623" lon="12.050965"><ele>85.0</ele><time>2026-04-28T08:35:21.639Z</time></trkpt><trkpt lat="44.1562467" lon="12.050865"><ele>85.0</ele><time>2026-04-28T08:35:23.639Z</time></trkpt><trkpt lat="44.15627" lon="12.0507567"><ele>85.0</ele><time>2026-04-28T08:35:25.639Z</time></trkpt><trkpt lat="44.1562933" lon="12.05064"><ele>85.0</ele><time>2026-04-28T08:35:27.638Z</time></trkpt><trkpt lat="44.1563167" lon="12.050515"><ele>85.0</ele><time>2026-04-28T08:35:29.637Z</time></trkpt><trkpt lat="44.1563317" lon="12.0503933"><ele>85.0</ele><time>2026-04-28T08:35:31.637Z</time></trkpt><trkpt lat="44.1563133" lon="12.0502567"><ele>85.5</ele><time>2026-04-28T08:35:33.638Z</time></trkpt><trkpt lat="44.1562567" lon="12.0501633"><ele>86.0</ele><time>2026-04-28T08:35:35.638Z</time></trkpt><trkpt lat="44.15619" lon="12.050105"><ele>86.5</ele><time>2026-04-28T08:35:37.638Z</time></trkpt><trkpt lat="44.1561167" lon="12.0500683"><ele>87.0</ele><time>2026-04-28T08:35:39.637Z</time></trkpt><trkpt lat="44.1560217" lon="12.0500417"><ele>87.5</ele><time>2026-04-28T08:35:41.638Z</time></trkpt><trkpt lat="44.155935" lon="12.0500183"><ele>88.0</ele><time>2026-04-28T08:35:43.637Z</time></trkpt><trkpt lat="44.155845" lon="12.0499917"><ele>88.0</ele><time>2026-04-28T08:35:45.638Z</time></trkpt><trkpt lat="44.1557533" lon="12.0499683"><ele>88.0</ele><time>2026-04-28T08:35:47.638Z</time></trkpt><trkpt lat="44.15567" lon="12.0499567"><ele>88.0</ele><time>2026-04-28T08:35:49.638Z</time></trkpt><trkpt lat="44.1555967" lon="12.0499317"><ele>88.0</ele><time>2026-04-28T08:35:51.637Z</time></trkpt><trkpt lat="44.155515" lon="12.0499033"><ele>88.0</ele><time>2026-04-28T08:35:54.638Z</time></trkpt><trkpt lat="44.1554417" lon="12.04986"><ele>88.0</ele><time>2026-04-28T08:35:57.638Z</time></trkpt><trkpt lat="44.1553683" lon="12.0498167"><ele>89.0</ele><time>2026-04-28T08:35:59.637Z</time></trkpt><trkpt lat="44.1552783" lon="12.04979"><ele>90.0</ele><time>2026-04-28T08:36:01.638Z</time></trkpt><trkpt lat="44.1552" lon="12.04977"><ele>91.0</ele><time>2026-04-28T08:36:03.637Z</time></trkpt><trkpt lat="44.1550967" lon="12.0497567"><ele>92.0</ele><time>2026-04-28T08:36:05.637Z</time></trkpt><trkpt lat="44.15498" lon="12.0497583"><ele>93.0</ele><time>2026-04-28T08:36:07.637Z</time></trkpt><trkpt lat="44.1548783" lon="12.0497517"><ele>92.60000000000001</ele><time>2026-04-28T08:36:09.637Z</time></trkpt><trkpt lat="44.1547817" lon="12.04973"><ele>92.2</ele><time>2026-04-28T08:36:11.638Z</time></trkpt><trkpt lat="44.1546967" lon="12.049705"><ele>91.8</ele><time>2026-04-28T08:36:13.638Z</time></trkpt><trkpt lat="44.1546133" lon="12.049675"><ele>91.4</ele><time>2026-04-28T08:36:15.638Z</time></trkpt><trkpt lat="44.1545217" lon="12.0496567"><ele>91.0</ele><time>2026-04-28T08:36:17.638Z</time></trkpt><trkpt lat="44.1544367" lon="12.0496367"><ele>91.0</ele><time>2026-04-28T08:36:19.637Z</time></trkpt><trkpt lat="44.1543483" lon="12.0496117"><ele>91.0</ele><time>2026-04-28T08:36:21.637Z</time></trkpt><trkpt lat="44.1542667" lon="12.0495917"><ele>91.0</ele><time>2026-04-28T08:36:23.638Z</time></trkpt><trkpt lat="44.15418" lon="12.0495683"><ele>91.0</ele><time>2026-04-28T08:36:25.637Z</time></trkpt><trkpt lat="44.1540967" lon="12.0495467"><ele>91.0</ele><time>2026-04-28T08:36:27.637Z</time></trkpt><trkpt lat="44.1539967" lon="12.0495183"><ele>91.0</ele><time>2026-04-28T08:36:29.638Z</time></trkpt><trkpt lat="44.1539033" lon="12.0494967"><ele>90.66666666666666</ele><time>2026-04-28T08:36:31.638Z</time></trkpt><trkpt lat="44.1538133" lon="12.0494767"><ele>90.33333333333333</ele><time>2026-04-28T08:36:33.637Z</time></trkpt><trkpt lat="44.1537383" lon="12.0494533"><ele>90.0</ele><time>2026-04-28T08:36:35.637Z</time></trkpt><trkpt lat="44.1536483" lon="12.04943"><ele>89.66666666666667</ele><time>2026-04-28T08:36:37.637Z</time></trkpt><trkpt lat="44.153565" lon="12.0494133"><ele>89.33333333333334</ele><time>2026-04-28T08:36:39.638Z</time></trkpt><trkpt lat="44.1534783" lon="12.0493917"><ele>89.0</ele><time>2026-04-28T08:36:41.637Z</time></trkpt><trkpt lat="44.1534017" lon="12.049365"><ele>89.0</ele><time>2026-04-28T08:36:43.637Z</time></trkpt><trkpt lat="44.1533167" lon="12.0493467"><ele>89.0</ele><time>2026-04-28T08:36:45.637Z</time></trkpt><trkpt lat="44.1532367" lon="12.049325"><ele>89.0</ele><time>2026-04-28T08:36:47.638Z</time></trkpt><trkpt lat="44.15315" lon="12.0493"><ele>89.0</ele><time>2026-04-28T08:36:49.638Z</time></trkpt><trkpt lat="44.15305" lon="12.04928"><ele>89.0</ele><time>2026-04-28T08:36:51.638Z</time></trkpt><trkpt lat="44.1529483" lon="12.0492633"><ele>89.0</ele><time>2026-04-28T08:36:53.637Z</time></trkpt><trkpt lat="44.15285" lon="12.049245"><ele>89.0</ele><time>2026-04-28T08:36:55.637Z</time></trkpt><trkpt lat="44.152735" lon="12.049215"><ele>89.0</ele><time>2026-04-28T08:36:57.637Z</time></trkpt><trkpt lat="44.15267" lon="12.0492067"><ele>89.0</ele><time>2026-04-28T08:36:58.638Z</time></trkpt><trkpt lat="44.1525533" lon="12.049165"><ele>89.0</ele><time>2026-04-28T08:37:00.637Z</time></trkpt><trkpt lat="44.1524883" lon="12.0491217"><ele>89.0</ele><time>2026-04-28T08:37:01.637Z</time></trkpt><trkpt lat="44.1524317" lon="12.0490617"><ele>89.0</ele><time>2026-04-28T08:37:02.638Z</time></trkpt><trkpt lat="44.1523783" lon="12.048985"><ele>89.0</ele><time>2026-04-28T08:37:03.637Z</time></trkpt><trkpt lat="44.1523233" lon="12.0488933"><ele>89.0</ele><time>2026-04-28T08:37:04.637Z</time></trkpt><trkpt lat="44.152265" lon="12.048795"><ele>89.0</ele><time>2026-04-28T08:37:05.637Z</time></trkpt><trkpt lat="44.1522167" lon="12.048665"><ele>89.0</ele><time>2026-04-28T08:37:06.637Z</time></trkpt><trkpt lat="44.1521617" lon="12.048545"><ele>86.5</ele><time>2026-04-28T08:37:07.637Z</time></trkpt><trkpt lat="44.1521067" lon="12.0484067"><ele>84.0</ele><time>2026-04-28T08:37:08.638Z</time></trkpt><trkpt lat="44.15205" lon="12.0482717"><ele>81.5</ele><time>2026-04-28T08:37:09.637Z</time></trkpt><trkpt lat="44.1519883" lon="12.0481167"><ele>79.0</ele><time>2026-04-28T08:37:10.637Z</time></trkpt><trkpt lat="44.1519167" lon="12.0479717"><ele>79.0</ele><time>2026-04-28T08:37:11.637Z</time></trkpt><trkpt lat="44.15184" lon="12.0478283"><ele>79.0</ele><time>2026-04-28T08:37:12.638Z</time></trkpt><trkpt lat="44.1517583" lon="12.047695"><ele>79.0</ele><time>2026-04-28T08:37:13.637Z</time></trkpt><trkpt lat="44.1516717" lon="12.04758"><ele>79.0</ele><time>2026-04-28T08:37:14.637Z</time></trkpt><trkpt lat="44.1515767" lon="12.047475"><ele>78.25</ele><time>2026-04-28T08:37:15.638Z</time></trkpt><trkpt lat="44.1514767" lon="12.04738"><ele>77.5</ele><time>2026-04-28T08:37:16.637Z</time></trkpt><trkpt lat="44.151375" lon="12.0472867"><ele>76.75</ele><time>2026-04-28T08:37:17.637Z</time></trkpt><trkpt lat="44.1512783" lon="12.0471933"><ele>76.0</ele><time>2026-04-28T08:37:18.638Z</time></trkpt><trkpt lat="44.1511867" lon="12.0471033"><ele>76.0</ele><time>2026-04-28T08:37:19.637Z</time></trkpt><trkpt lat="44.151095" lon="12.0470117"><ele>76.0</ele><time>2026-04-28T08:37:20.638Z</time></trkpt><trkpt lat="44.1510033" lon="12.0469233"><ele>76.0</ele><time>2026-04-28T08:37:21.638Z</time></trkpt><trkpt lat="44.1509183" lon="12.0468333"><ele>76.0</ele><time>2026-04-28T08:37:22.637Z</time></trkpt><trkpt lat="44.1508267" lon="12.046745"><ele>76.0</ele><time>2026-04-28T08:37:23.638Z</time></trkpt><trkpt lat="44.15074" lon="12.0466583"><ele>75.6</ele><time>2026-04-28T08:37:24.637Z</time></trkpt><trkpt lat="44.150665" lon="12.04658"><ele>75.19999999999999</ele><time>2026-04-28T08:37:25.637Z</time></trkpt><trkpt lat="44.1505883" lon="12.046505"><ele>74.80000000000001</ele><time>2026-04-28T08:37:26.637Z</time></trkpt><trkpt lat="44.1505017" lon="12.0464217"><ele>74.4</ele><time>2026-04-28T08:37:27.638Z</time></trkpt><trkpt lat="44.1504067" lon="12.0463383"><ele>74.0</ele><time>2026-04-28T08:37:28.637Z</time></trkpt><trkpt lat="44.1503067" lon="12.0462583"><ele>74.0</ele><time>2026-04-28T08:37:29.638Z</time></trkpt><trkpt lat="44.1502233" lon="12.0461817"><ele>74.0</ele><time>2026-04-28T08:37:30.637Z</time></trkpt><trkpt lat="44.150145" lon="12.0461083"><ele>74.0</ele><time>2026-04-28T08:37:31.637Z</time></trkpt><trkpt lat="44.1500717" lon="12.046035"><ele>74.0</ele><time>2026-04-28T08:37:32.638Z</time></trkpt><trkpt lat="44.1500033" lon="12.04596"><ele>74.0</ele><time>2026-04-28T08:37:33.638Z</time></trkpt><trkpt lat="44.149925" lon="12.0458883"><ele>74.0</ele><time>2026-04-28T08:37:34.638Z</time></trkpt><trkpt lat="44.1498583" lon="12.045815"><ele>74.0</ele><time>2026-04-28T08:37:35.638Z</time></trkpt><trkpt lat="44.14979" lon="12.0457467"><ele>74.0</ele><time>2026-04-28T08:37:36.638Z</time></trkpt><trkpt lat="44.149735" lon="12.0456867"><ele>74.0</ele><time>2026-04-28T08:37:37.638Z</time></trkpt><trkpt lat="44.1496583" lon="12.04559"><ele>74.0</ele><time>2026-04-28T08:37:39.637Z</time></trkpt><trkpt lat="44.1496167" lon="12.0455133"><ele>74.0</ele><time>2026-04-28T08:37:41.638Z</time></trkpt><trkpt lat="44.1495633" lon="12.0454617"><ele>75.0</ele><time>2026-04-28T08:37:44.638Z</time></trkpt><trkpt lat="44.1495017" lon="12.0453933"><ele>76.0</ele><time>2026-04-28T08:37:48.637Z</time></trkpt><trkpt lat="44.1493417" lon="12.04531"><ele>77.0</ele><time>2026-04-28T08:37:59.64Z</time></trkpt><trkpt lat="44.14926" lon="12.0452467"><ele>78.0</ele><time>2026-04-28T08:38:01.64Z</time></trkpt><trkpt lat="44.1491933" lon="12.04517"><ele>79.0</ele><time>2026-04-28T08:38:04.64Z</time></trkpt><trkpt lat="44.1491433" lon="12.0451117"><ele>79.00000000000001</ele><time>2026-04-28T08:38:06.641Z</time></trkpt><trkpt lat="44.14908" lon="12.04507"><ele>79.0</ele><time>2026-04-28T08:38:10.641Z</time></trkpt><trkpt lat="44.1490417" lon="12.0449967"><ele>79.0</ele><time>2026-04-28T08:38:15.64Z</time></trkpt><trkpt lat="44.149" lon="12.0449233"><ele>79.0</ele><time>2026-04-28T08:38:20.64Z</time></trkpt><trkpt lat="44.1489533" lon="12.04483"><ele>79.0</ele><time>2026-04-28T08:38:25.641Z</time></trkpt><trkpt lat="44.1489233" lon="12.0447367"><ele>79.00000000000001</ele><time>2026-04-28T08:38:29.641Z</time></trkpt><trkpt lat="44.148895" lon="12.0446383"><ele>79.0</ele><time>2026-04-28T08:38:33.641Z</time></trkpt><trkpt lat="44.1488733" lon="12.0445367"><ele>80.00000000000001</ele><time>2026-04-28T08:38:37.64Z</time></trkpt><trkpt lat="44.1488517" lon="12.0444533"><ele>81.0</ele><time>2026-04-28T08:38:40.64Z</time></trkpt><trkpt lat="44.14882" lon="12.0443583"><ele>82.0</ele><time>2026-04-28T08:38:44.64Z</time></trkpt><trkpt lat="44.1487917" lon="12.044265"><ele>83.0</ele><time>2026-04-28T08:38:48.641Z</time></trkpt><trkpt lat="44.1487617" lon="12.0441633"><ele>84.0</ele><time>2026-04-28T08:38:52.641Z</time></trkpt><trkpt lat="44.1487367" lon="12.0440733"><ele>85.00000000000001</ele><time>2026-04-28T08:38:55.64Z</time></trkpt><trkpt lat="44.1487217" lon="12.0439817"><ele>86.0</ele><time>2026-04-28T08:38:58.641Z</time></trkpt><trkpt lat="44.1486967" lon="12.0439"><ele>87.00000000000001</ele><time>2026-04-28T08:39:01.64Z</time></trkpt><trkpt lat="44.1486683" lon="12.0438183"><ele>88.0</ele><time>2026-04-28T08:39:04.641Z</time></trkpt><trkpt lat="44.1486433" lon="12.043735"><ele>89.0</ele><time>2026-04-28T08:39:07.641Z</time></trkpt><trkpt lat="44.1486067" lon="12.043645"><ele>90.0</ele><time>2026-04-28T08:39:10.64Z</time></trkpt><trkpt lat="44.1485683" lon="12.04356"><ele>91.0</ele><time>2026-04-28T08:39:13.64Z</time></trkpt><trkpt lat="44.14854" lon="12.0434767"><ele>92.00000000000001</ele><time>2026-04-28T08:39:16.64Z</time></trkpt><trkpt lat="44.1485117" lon="12.0433783"><ele>93.0</ele><time>2026-04-28T08:39:20.64Z</time></trkpt><trkpt lat="44.14848" lon="12.0432833"><ele>94.00000000000001</ele><time>2026-04-28T08:39:24.641Z</time></trkpt><trkpt lat="44.1484383" lon="12.0431917"><ele>95.0</ele><time>2026-04-28T08:39:28.64Z</time></trkpt><trkpt lat="44.1484117" lon="12.0431017"><ele>96.0</ele><time>2026-04-28T08:39:32.64Z</time></trkpt><trkpt lat="44.148365" lon="12.0430117"><ele>97.0</ele><time>2026-04-28T08:39:36.641Z</time></trkpt><trkpt lat="44.1483283" lon="12.04294"><ele>98.0</ele><time>2026-04-28T08:39:39.64Z</time></trkpt><trkpt lat="44.1482833" lon="12.0428717"><ele>99.00000000000001</ele><time>2026-04-28T08:39:42.64Z</time></trkpt><trkpt lat="44.1482333" lon="12.0427833"><ele>100.0</ele><time>2026-04-28T08:39:46.641Z</time></trkpt><trkpt lat="44.148185" lon="12.0426983"><ele>100.14285714285715</ele><time>2026-04-28T08:39:50.641Z</time></trkpt><trkpt lat="44.1481433" lon="12.0426283"><ele>100.28571428571429</ele><time>2026-04-28T08:39:53.641Z</time></trkpt><trkpt lat="44.14809" lon="12.042545"><ele>100.42857142857143</ele><time>2026-04-28T08:39:57.641Z</time></trkpt><trkpt lat="44.1480417" lon="12.0424733"><ele>100.57142857142858</ele><time>2026-04-28T08:40:01.641Z</time></trkpt><trkpt lat="44.1479917" lon="12.0424033"><ele>100.71428571428571</ele><time>2026-04-28T08:40:05.641Z</time></trkpt><trkpt lat="44.1479517" lon="12.04231"><ele>100.85714285714286</ele><time>2026-04-28T08:40:10.641Z</time></trkpt><trkpt lat="44.1479133" lon="12.0422333"><ele>101.0</ele><time>2026-04-28T08:40:14.64Z</time></trkpt><trkpt lat="44.147865" lon="12.0421433"><ele>102.0</ele><time>2026-04-28T08:40:18.64Z</time></trkpt><trkpt lat="44.147825" lon="12.04206"><ele>103.0</ele><time>2026-04-28T08:40:21.641Z</time></trkpt><trkpt lat="44.14778" lon="12.0419717"><ele>104.0</ele><time>2026-04-28T08:40:25.641Z</time></trkpt><trkpt lat="44.1477283" lon="12.0419117"><ele>105.0</ele><time>2026-04-28T08:40:28.641Z</time></trkpt><trkpt lat="44.1476783" lon="12.0418283"><ele>106.0</ele><time>2026-04-28T08:40:32.641Z</time></trkpt><trkpt lat="44.1476283" lon="12.0417633"><ele>107.0</ele><time>2026-04-28T08:40:35.64Z</time></trkpt><trkpt lat="44.1475767" lon="12.0417083"><ele>108.0</ele><time>2026-04-28T08:40:38.641Z</time></trkpt><trkpt lat="44.1475283" lon="12.041645"><ele>108.33333333333333</ele><time>2026-04-28T08:40:41.641Z</time></trkpt><trkpt lat="44.14747" lon="12.041565"><ele>108.66666666666666</ele><time>2026-04-28T08:40:44.641Z</time></trkpt><trkpt lat="44.1474167" lon="12.0414867"><ele>109.0</ele><time>2026-04-28T08:40:47.641Z</time></trkpt><trkpt lat="44.1473683" lon="12.0413983"><ele>109.33333333333333</ele><time>2026-04-28T08:40:50.641Z</time></trkpt><trkpt lat="44.1473267" lon="12.0413"><ele>109.66666666666666</ele><time>2026-04-28T08:40:53.641Z</time></trkpt><trkpt lat="44.1472733" lon="12.041215"><ele>110.0</ele><time>2026-04-28T08:40:56.641Z</time></trkpt><trkpt lat="44.14722" lon="12.041135"><ele>110.33333333333333</ele><time>2026-04-28T08:40:59.641Z</time></trkpt><trkpt lat="44.14716" lon="12.0410567"><ele>110.66666666666666</ele><time>2026-04-28T08:41:02.641Z</time></trkpt><trkpt lat="44.1471117" lon="12.040975"><ele>111.0</ele><time>2026-04-28T08:41:05.641Z</time></trkpt><trkpt lat="44.1470633" lon="12.0408933"><ele>111.33333333333334</ele><time>2026-04-28T08:41:08.64Z</time></trkpt><trkpt lat="44.147015" lon="12.04083"><ele>111.66666666666667</ele><time>2026-04-28T08:41:11.641Z</time></trkpt><trkpt lat="44.1469683" lon="12.0407567"><ele>112.0</ele><time>2026-04-28T08:41:14.64Z</time></trkpt><trkpt lat="44.1469167" lon="12.0406683"><ele>113.0</ele><time>2026-04-28T08:41:18.64Z</time></trkpt><trkpt lat="44.1468717" lon="12.04059"><ele>114.0</ele><time>2026-04-28T08:41:21.64Z</time></trkpt><trkpt lat="44.1468217" lon="12.0405217"><ele>115.0</ele><time>2026-04-28T08:41:24.64Z</time></trkpt><trkpt lat="44.14678" lon="12.040445"><ele>116.0</ele><time>2026-04-28T08:41:27.64Z</time></trkpt><trkpt lat="44.1467267" lon="12.0403783"><ele>117.0</ele><time>2026-04-28T08:41:30.641Z</time></trkpt><trkpt lat="44.146685" lon="12.0403033"><ele>118.0</ele><time>2026-04-28T08:41:33.64Z</time></trkpt><trkpt lat="44.1466317" lon="12.0402283"><ele>119.0</ele><time>2026-04-28T08:41:36.64Z</time></trkpt><trkpt lat="44.1465883" lon="12.0401583"><ele>119.33333333333333</ele><time>2026-04-28T08:41:39.641Z</time></trkpt><trkpt lat="44.1465383" lon="12.0400867"><ele>119.66666666666666</ele><time>2026-04-28T08:41:42.641Z</time></trkpt><trkpt lat="44.14649" lon="12.0400133"><ele>120.0</ele><time>2026-04-28T08:41:45.64Z</time></trkpt><trkpt lat="44.1464367" lon="12.0399183"><ele>120.33333333333334</ele><time>2026-04-28T08:41:48.641Z</time></trkpt><trkpt lat="44.1463717" lon="12.039845"><ele>120.66666666666667</ele><time>2026-04-28T08:41:51.64Z</time></trkpt><trkpt lat="44.1463283" lon="12.0397733"><ele>121.0</ele><time>2026-04-28T08:41:54.64Z</time></trkpt><trkpt lat="44.1462817" lon="12.0396983"><ele>121.00000000000001</ele><time>2026-04-28T08:41:57.641Z</time></trkpt><trkpt lat="44.14625" lon="12.039605"><ele>121.0</ele><time>2026-04-28T08:42:00.64Z</time></trkpt><trkpt lat="44.1462217" lon="12.0395183"><ele>121.0</ele><time>2026-04-28T08:42:03.641Z</time></trkpt><trkpt lat="44.1461883" lon="12.039415"><ele>121.0</ele><time>2026-04-28T08:42:06.641Z</time></trkpt><trkpt lat="44.14615" lon="12.0393133"><ele>121.00000000000001</ele><time>2026-04-28T08:42:09.64Z</time></trkpt><trkpt lat="44.14611" lon="12.0392167"><ele>121.0</ele><time>2026-04-28T08:42:12.64Z</time></trkpt><trkpt lat="44.1460717" lon="12.03912"><ele>121.83333333333334</ele><time>2026-04-28T08:42:15.641Z</time></trkpt><trkpt lat="44.146035" lon="12.0390183"><ele>122.66666666666667</ele><time>2026-04-28T08:42:18.64Z</time></trkpt><trkpt lat="44.1459933" lon="12.0389133"><ele>123.5</ele><time>2026-04-28T08:42:21.64Z</time></trkpt><trkpt lat="44.1459567" lon="12.0388167"><ele>124.33333333333334</ele><time>2026-04-28T08:42:24.641Z</time></trkpt><trkpt lat="44.145915" lon="12.03872"><ele>125.16666666666667</ele><time>2026-04-28T08:42:27.641Z</time></trkpt><trkpt lat="44.1458683" lon="12.0386167"><ele>126.0</ele><time>2026-04-28T08:42:30.641Z</time></trkpt><trkpt lat="44.1458333" lon="12.038515"><ele>126.0</ele><time>2026-04-28T08:42:33.64Z</time></trkpt><trkpt lat="44.1458" lon="12.0384217"><ele>126.0</ele><time>2026-04-28T08:42:36.64Z</time></trkpt><trkpt lat="44.1457667" lon="12.0383333"><ele>126.0</ele><time>2026-04-28T08:42:39.64Z</time></trkpt><trkpt lat="44.1457383" lon="12.038245"><ele>126.0</ele><time>2026-04-28T08:42:42.64Z</time></trkpt><trkpt lat="44.14571" lon="12.038155"><ele>126.0</ele><time>2026-04-28T08:42:45.64Z</time></trkpt><trkpt lat="44.1456833" lon="12.0380733"><ele>126.0</ele><time>2026-04-28T08:42:48.64Z</time></trkpt><trkpt lat="44.14564" lon="12.03798"><ele>126.0</ele><time>2026-04-28T08:42:51.64Z</time></trkpt><trkpt lat="44.145605" lon="12.037895"><ele>126.71428571428572</ele><time>2026-04-28T08:42:54.64Z</time></trkpt><trkpt lat="44.14557" lon="12.0378183"><ele>127.42857142857143</ele><time>2026-04-28T08:42:57.641Z</time></trkpt><trkpt lat="44.1455283" lon="12.0377317"><ele>128.14285714285714</ele><time>2026-04-28T08:43:00.641Z</time></trkpt><trkpt lat="44.1454867" lon="12.0376517"><ele>128.85714285714286</ele><time>2026-04-28T08:43:03.641Z</time></trkpt><trkpt lat="44.1454483" lon="12.03756"><ele>129.57142857142858</ele><time>2026-04-28T08:43:06.641Z</time></trkpt><trkpt lat="44.1454133" lon="12.0374833"><ele>130.28571428571428</ele><time>2026-04-28T08:43:09.641Z</time></trkpt><trkpt lat="44.1453867" lon="12.0373767"><ele>131.0</ele><time>2026-04-28T08:43:13.64Z</time></trkpt><trkpt lat="44.1453583" lon="12.0372767"><ele>131.57142857142858</ele><time>2026-04-28T08:43:17.64Z</time></trkpt><trkpt lat="44.1453233" lon="12.03719"><ele>132.14285714285717</ele><time>2026-04-28T08:43:20.64Z</time></trkpt><trkpt lat="44.1452933" lon="12.0371117"><ele>132.71428571428572</ele><time>2026-04-28T08:43:23.641Z</time></trkpt><trkpt lat="44.1452567" lon="12.03704"><ele>133.28571428571428</ele><time>2026-04-28T08:43:26.641Z</time></trkpt><trkpt lat="44.1452167" lon="12.03697"><ele>133.85714285714283</ele><time>2026-04-28T08:43:29.64Z</time></trkpt><trkpt lat="44.1451783" lon="12.0369"><ele>134.42857142857142</ele><time>2026-04-28T08:43:32.641Z</time></trkpt><trkpt lat="44.14514" lon="12.0368267"><ele>135.0</ele><time>2026-04-28T08:43:35.64Z</time></trkpt><trkpt lat="44.1450883" lon="12.03674"><ele>135.0</ele><time>2026-04-28T08:43:39.64Z</time></trkpt><trkpt lat="44.1450483" lon="12.0366683"><ele>135.0</ele><time>2026-04-28T08:43:42.64Z</time></trkpt><trkpt lat="44.1449983" lon="12.0365767"><ele>135.0</ele><time>2026-04-28T08:43:46.641Z</time></trkpt><trkpt lat="44.1449533" lon="12.0364917"><ele>135.0</ele><time>2026-04-28T08:43:50.641Z</time></trkpt><trkpt lat="44.14491" lon="12.036405"><ele>135.0</ele><time>2026-04-28T08:43:54.641Z</time></trkpt><trkpt lat="44.144875" lon="12.03631"><ele>135.0</ele><time>2026-04-28T08:43:58.641Z</time></trkpt><trkpt lat="44.144875" lon="12.036205"><ele>136.28571428571428</ele><time>2026-04-28T08:44:02.64Z</time></trkpt><trkpt lat="44.1449067" lon="12.0361033"><ele>137.57142857142856</ele><time>2026-04-28T08:44:05.641Z</time></trkpt><trkpt lat="44.1449433" lon="12.0360317"><ele>138.85714285714286</ele><time>2026-04-28T08:44:08.64Z</time></trkpt><trkpt lat="44.1449917" lon="12.0359667"><ele>140.14285714285714</ele><time>2026-04-28T08:44:11.64Z</time></trkpt><trkpt lat="44.1450483" lon="12.0359217"><ele>141.42857142857144</ele><time>2026-04-28T08:44:14.641Z</time></trkpt><trkpt lat="44.14513" lon="12.0358983"><ele>142.71428571428572</ele><time>2026-04-28T08:44:18.64Z</time></trkpt><trkpt lat="44.1451967" lon="12.0358883"><ele>144.0</ele><time>2026-04-28T08:44:21.641Z</time></trkpt><trkpt lat="44.14526" lon="12.0358817"><ele>144.00000000000003</ele><time>2026-04-28T08:44:24.641Z</time></trkpt><trkpt lat="44.1453383" lon="12.0358883"><ele>144.0</ele><time>2026-04-28T08:44:28.64Z</time></trkpt><trkpt lat="44.1454133" lon="12.0358867"><ele>144.0</ele><time>2026-04-28T08:44:33.64Z</time></trkpt><trkpt lat="44.1454967" lon="12.0358833"><ele>144.0</ele><time>2026-04-28T08:44:37.641Z</time></trkpt><trkpt lat="44.1455583" lon="12.0358617"><ele>144.0</ele><time>2026-04-28T08:44:40.641Z</time></trkpt><trkpt lat="44.1456267" lon="12.035815"><ele>144.00000000000003</ele><time>2026-04-28T08:44:44.641Z</time></trkpt><trkpt lat="44.1456933" lon="12.035805"><ele>144.0</ele><time>2026-04-28T08:44:48.639Z</time></trkpt><trkpt lat="44.1457583" lon="12.035785"><ele>145.57142857142858</ele><time>2026-04-28T08:44:51.639Z</time></trkpt><trkpt lat="44.145825" lon="12.03576"><ele>147.14285714285714</ele><time>2026-04-28T08:44:54.64Z</time></trkpt><trkpt lat="44.1458883" lon="12.0357467"><ele>148.71428571428572</ele><time>2026-04-28T08:44:57.64Z</time></trkpt><trkpt lat="44.1459683" lon="12.03572"><ele>150.28571428571428</ele><time>2026-04-28T08:45:00.64Z</time></trkpt><trkpt lat="44.1460367" lon="12.0357033"><ele>151.85714285714286</ele><time>2026-04-28T08:45:03.64Z</time></trkpt><trkpt lat="44.1461033" lon="12.0356883"><ele>153.42857142857144</ele><time>2026-04-28T08:45:06.64Z</time></trkpt><trkpt lat="44.1461683" lon="12.0356717"><ele>155.0</ele><time>2026-04-28T08:45:09.639Z</time></trkpt><trkpt lat="44.14625" lon="12.0356483"><ele>155.0</ele><time>2026-04-28T08:45:13.64Z</time></trkpt><trkpt lat="44.1463283" lon="12.035625"><ele>155.0</ele><time>2026-04-28T08:45:17.64Z</time></trkpt><trkpt lat="44.1464017" lon="12.0356217"><ele>155.0</ele><time>2026-04-28T08:45:20.639Z</time></trkpt><trkpt lat="44.1464717" lon="12.0356"><ele>155.0</ele><time>2026-04-28T08:45:23.64Z</time></trkpt><trkpt lat="44.146545" lon="12.035605"><ele>155.0</ele><time>2026-04-28T08:45:26.64Z</time></trkpt><trkpt lat="44.1466167" lon="12.035595"><ele>155.0</ele><time>2026-04-28T08:45:29.64Z</time></trkpt><trkpt lat="44.1467" lon="12.03558"><ele>155.0</ele><time>2026-04-28T08:45:32.64Z</time></trkpt><trkpt lat="44.14677" lon="12.0355467"><ele>155.0</ele><time>2026-04-28T08:45:35.64Z</time></trkpt><trkpt lat="44.1468433" lon="12.0354883"><ele>155.0</ele><time>2026-04-28T08:45:38.64Z</time></trkpt><trkpt lat="44.1469033" lon="12.03541"><ele>155.0</ele><time>2026-04-28T08:45:41.64Z</time></trkpt><trkpt lat="44.1469467" lon="12.035315"><ele>155.0</ele><time>2026-04-28T08:45:45.639Z</time></trkpt><trkpt lat="44.146975" lon="12.03521"><ele>155.0</ele><time>2026-04-28T08:45:49.64Z</time></trkpt><trkpt lat="44.146985" lon="12.035095"><ele>155.0</ele><time>2026-04-28T08:45:54.64Z</time></trkpt><trkpt lat="44.1469867" lon="12.0349917"><ele>155.0</ele><time>2026-04-28T08:45:58.639Z</time></trkpt><trkpt lat="44.1469717" lon="12.0348867"><ele>155.0</ele><time>2026-04-28T08:46:02.639Z</time></trkpt><trkpt lat="44.14696" lon="12.0347733"><ele>155.0</ele><time>2026-04-28T08:46:06.64Z</time></trkpt><trkpt lat="44.1469483" lon="12.0346667"><ele>155.0</ele><time>2026-04-28T08:46:10.639Z</time></trkpt><trkpt lat="44.14694" lon="12.0345633"><ele>155.0</ele><time>2026-04-28T08:46:15.639Z</time></trkpt><trkpt lat="44.14692" lon="12.03448"><ele>155.0</ele><time>2026-04-28T08:46:18.64Z</time></trkpt><trkpt lat="44.1468983" lon="12.0343783"><ele>156.28571428571428</ele><time>2026-04-28T08:46:22.64Z</time></trkpt><trkpt lat="44.146885" lon="12.0342733"><ele>157.57142857142856</ele><time>2026-04-28T08:46:26.639Z</time></trkpt><trkpt lat="44.14687" lon="12.034185"><ele>158.85714285714283</ele><time>2026-04-28T08:46:30.639Z</time></trkpt><trkpt lat="44.146855" lon="12.0340883"><ele>160.14285714285714</ele><time>2026-04-28T08:46:34.639Z</time></trkpt><trkpt lat="44.14684" lon="12.033995"><ele>161.42857142857142</ele><time>2026-04-28T08:46:39.64Z</time></trkpt><trkpt lat="44.14683" lon="12.0338933"><ele>162.7142857142857</ele><time>2026-04-28T08:46:43.639Z</time></trkpt><trkpt lat="44.1468133" lon="12.03379"><ele>164.0</ele><time>2026-04-28T08:46:48.64Z</time></trkpt><trkpt lat="44.1467917" lon="12.0336917"><ele>164.57142857142856</ele><time>2026-04-28T08:46:52.64Z</time></trkpt><trkpt lat="44.1467767" lon="12.0335967"><ele>165.14285714285714</ele><time>2026-04-28T08:46:55.64Z</time></trkpt><trkpt lat="44.1467317" lon="12.033515"><ele>165.71428571428572</ele><time>2026-04-28T08:46:59.639Z</time></trkpt><trkpt lat="44.1466683" lon="12.0334733"><ele>166.28571428571428</ele><time>2026-04-28T08:47:03.639Z</time></trkpt><trkpt lat="44.1466033" lon="12.0334467"><ele>166.85714285714286</ele><time>2026-04-28T08:47:08.64Z</time></trkpt><trkpt lat="44.146525" lon="12.0334383"><ele>167.42857142857142</ele><time>2026-04-28T08:47:12.639Z</time></trkpt><trkpt lat="44.146455" lon="12.033425"><ele>168.0</ele><time>2026-04-28T08:47:16.639Z</time></trkpt><trkpt lat="44.1462833" lon="12.0334583"><ele>169.16666666666666</ele><time>2026-04-28T08:47:27.64Z</time></trkpt><trkpt lat="44.1461817" lon="12.0334617"><ele>170.33333333333334</ele><time>2026-04-28T08:47:29.641Z</time></trkpt><trkpt lat="44.14612" lon="12.0334833"><ele>171.5</ele><time>2026-04-28T08:47:35.8Z</time></trkpt><trkpt lat="44.146005" lon="12.0334617"><ele>172.66666666666669</ele><time>2026-04-28T08:47:39.643Z</time></trkpt><trkpt lat="44.14592" lon="12.0334317"><ele>173.83333333333334</ele><time>2026-04-28T08:47:42.644Z</time></trkpt><trkpt lat="44.1458433" lon="12.0334117"><ele>175.0</ele><time>2026-04-28T08:47:45.644Z</time></trkpt><trkpt lat="44.1457817" lon="12.0333533"><ele>175.85714285714286</ele><time>2026-04-28T08:47:50.642Z</time></trkpt><trkpt lat="44.14571" lon="12.033315"><ele>176.71428571428572</ele><time>2026-04-28T08:47:54.643Z</time></trkpt><trkpt lat="44.1456667" lon="12.0332383"><ele>177.57142857142856</ele><time>2026-04-28T08:47:59.642Z</time></trkpt><trkpt lat="44.145615" lon="12.0331717"><ele>178.42857142857144</ele><time>2026-04-28T08:48:04.643Z</time></trkpt><trkpt lat="44.14555" lon="12.033125"><ele>179.28571428571428</ele><time>2026-04-28T08:48:08.643Z</time></trkpt><trkpt lat="44.1454817" lon="12.0330883"><ele>180.14285714285714</ele><time>2026-04-28T08:48:12.643Z</time></trkpt><trkpt lat="44.145415" lon="12.0330517"><ele>181.0</ele><time>2026-04-28T08:48:16.642Z</time></trkpt><trkpt lat="44.1453667" lon="12.03298"><ele>181.28571428571428</ele><time>2026-04-28T08:48:22.642Z</time></trkpt><trkpt lat="44.1453083" lon="12.0329233"><ele>181.57142857142856</ele><time>2026-04-28T08:48:27.642Z</time></trkpt><trkpt lat="44.1452467" lon="12.0328767"><ele>181.85714285714286</ele><time>2026-04-28T08:48:31.642Z</time></trkpt><trkpt lat="44.1451917" lon="12.0328317"><ele>182.14285714285714</ele><time>2026-04-28T08:48:35.643Z</time></trkpt><trkpt lat="44.1451167" lon="12.03279"><ele>182.42857142857144</ele><time>2026-04-28T08:48:39.643Z</time></trkpt><trkpt lat="44.1450567" lon="12.0327533"><ele>182.71428571428572</ele><time>2026-04-28T08:48:41.642Z</time></trkpt><trkpt lat="44.1449817" lon="12.03271"><ele>183.0</ele><time>2026-04-28T08:48:44.643Z</time></trkpt><trkpt lat="44.1449167" lon="12.0326683"><ele>184.28571428571428</ele><time>2026-04-28T08:48:48.643Z</time></trkpt><trkpt lat="44.1448467" lon="12.0326367"><ele>185.57142857142858</ele><time>2026-04-28T08:48:52.643Z</time></trkpt><trkpt lat="44.144775" lon="12.0326167"><ele>186.85714285714283</ele><time>2026-04-28T08:48:55.642Z</time></trkpt><trkpt lat="44.144715" lon="12.032585"><ele>188.14285714285714</ele><time>2026-04-28T08:48:58.643Z</time></trkpt><trkpt lat="44.1446467" lon="12.0325467"><ele>189.42857142857142</ele><time>2026-04-28T08:49:02.643Z</time></trkpt><trkpt lat="44.1445817" lon="12.0325233"><ele>190.7142857142857</ele><time>2026-04-28T08:49:08.643Z</time></trkpt><trkpt lat="44.1445183" lon="12.0324883"><ele>192.0</ele><time>2026-04-28T08:49:13.642Z</time></trkpt><trkpt lat="44.1444567" lon="12.0324533"><ele>191.99999999999997</ele><time>2026-04-28T08:49:17.642Z</time></trkpt><trkpt lat="44.1443983" lon="12.0324117"><ele>192.0</ele><time>2026-04-28T08:49:21.643Z</time></trkpt><trkpt lat="44.1443517" lon="12.0323517"><ele>192.0</ele><time>2026-04-28T08:49:25.643Z</time></trkpt><trkpt lat="44.1442967" lon="12.032305"><ele>192.0</ele><time>2026-04-28T08:49:29.643Z</time></trkpt><trkpt lat="44.1442233" lon="12.0322633"><ele>192.0</ele><time>2026-04-28T08:49:33.643Z</time></trkpt><trkpt lat="44.1441633" lon="12.0322333"><ele>191.99999999999997</ele><time>2026-04-28T08:49:38.642Z</time></trkpt><trkpt lat="44.1441017" lon="12.0322"><ele>192.0</ele><time>2026-04-28T08:49:42.642Z</time></trkpt><trkpt lat="44.1440433" lon="12.03215"><ele>193.66666666666666</ele><time>2026-04-28T08:49:48.643Z</time></trkpt><trkpt lat="44.1439767" lon="12.0320983"><ele>195.33333333333331</ele><time>2026-04-28T08:49:52.643Z</time></trkpt><trkpt lat="44.1438933" lon="12.03206"><ele>197.0</ele><time>2026-04-28T08:49:55.643Z</time></trkpt><trkpt lat="44.1438233" lon="12.0320117"><ele>198.66666666666666</ele><time>2026-04-28T08:49:58.642Z</time></trkpt><trkpt lat="44.1437533" lon="12.03196"><ele>200.33333333333331</ele><time>2026-04-28T08:50:02.643Z</time></trkpt><trkpt lat="44.1436817" lon="12.0319067"><ele>202.0</ele><time>2026-04-28T08:50:06.643Z</time></trkpt><trkpt lat="44.14362" lon="12.0318483"><ele>201.99999999999997</ele><time>2026-04-28T08:50:09.642Z</time></trkpt><trkpt lat="44.1435383" lon="12.0317783"><ele>202.0</ele><time>2026-04-28T08:50:12.643Z</time></trkpt><trkpt lat="44.14348" lon="12.0317367"><ele>202.0</ele><time>2026-04-28T08:50:14.642Z</time></trkpt><trkpt lat="44.1434217" lon="12.0317017"><ele>202.0</ele><time>2026-04-28T08:50:16.643Z</time></trkpt><trkpt lat="44.1433417" lon="12.031655"><ele>201.99999999999997</ele><time>2026-04-28T08:50:19.642Z</time></trkpt><trkpt lat="44.1432833" lon="12.0316017"><ele>202.0</ele><time>2026-04-28T08:50:22.642Z</time></trkpt><trkpt lat="44.1432233" lon="12.031525"><ele>202.28571428571428</ele><time>2026-04-28T08:50:26.643Z</time></trkpt><trkpt lat="44.1431767" lon="12.0314517"><ele>202.57142857142856</ele><time>2026-04-28T08:50:31.643Z</time></trkpt><trkpt lat="44.1431233" lon="12.031395"><ele>202.85714285714286</ele><time>2026-04-28T08:50:34.642Z</time></trkpt><trkpt lat="44.1430667" lon="12.031335"><ele>203.14285714285714</ele><time>2026-04-28T08:50:37.642Z</time></trkpt><trkpt lat="44.1430033" lon="12.0313017"><ele>203.42857142857144</ele><time>2026-04-28T08:50:40.643Z</time></trkpt><trkpt lat="44.1429433" lon="12.0312333"><ele>203.71428571428572</ele><time>2026-04-28T08:50:43.643Z</time></trkpt><trkpt lat="44.1428917" lon="12.0311417"><ele>204.0</ele><time>2026-04-28T08:50:46.643Z</time></trkpt><trkpt lat="44.1428433" lon="12.0310533"><ele>204.0</ele><time>2026-04-28T08:50:49.643Z</time></trkpt><trkpt lat="44.1427967" lon="12.0309733"><ele>204.0</ele><time>2026-04-28T08:50:52.643Z</time></trkpt><trkpt lat="44.142755" lon="12.0308733"><ele>204.0</ele><time>2026-04-28T08:50:56.643Z</time></trkpt><trkpt lat="44.1427133" lon="12.0307883"><ele>204.0</ele><time>2026-04-28T08:50:59.642Z</time></trkpt><trkpt lat="44.1426783" lon="12.0307033"><ele>204.0</ele><time>2026-04-28T08:51:02.642Z</time></trkpt><trkpt lat="44.1426283" lon="12.0306283"><ele>204.0</ele><time>2026-04-28T08:51:05.643Z</time></trkpt><trkpt lat="44.1425783" lon="12.030555"><ele>204.0</ele><time>2026-04-28T08:51:08.643Z</time></trkpt><trkpt lat="44.14252" lon="12.0304633"><ele>204.0</ele><time>2026-04-28T08:51:11.643Z</time></trkpt><trkpt lat="44.1424683" lon="12.0303667"><ele>204.0</ele><time>2026-04-28T08:51:14.642Z</time></trkpt><trkpt lat="44.1424367" lon="12.0302483"><ele>204.0</ele><time>2026-04-28T08:51:17.642Z</time></trkpt><trkpt lat="44.1424" lon="12.0301533"><ele>204.0</ele><time>2026-04-28T08:51:20.643Z</time></trkpt><trkpt lat="44.1423533" lon="12.0300767"><ele>204.0</ele><time>2026-04-28T08:51:23.643Z</time></trkpt><trkpt lat="44.14232" lon="12.0299933"><ele>204.0</ele><time>2026-04-28T08:51:26.643Z</time></trkpt><trkpt lat="44.1422817" lon="12.0298867"><ele>204.0</ele><time>2026-04-28T08:51:30.643Z</time></trkpt><trkpt lat="44.1422517" lon="12.0297983"><ele>204.0</ele><time>2026-04-28T08:51:33.643Z</time></trkpt><trkpt lat="44.142215" lon="12.0297033"><ele>204.0</ele><time>2026-04-28T08:51:36.643Z</time></trkpt><trkpt lat="44.1421933" lon="12.0296183"><ele>204.0</ele><time>2026-04-28T08:51:39.643Z</time></trkpt><trkpt lat="44.14217" lon="12.0295283"><ele>204.0</ele><time>2026-04-28T08:51:42.642Z</time></trkpt><trkpt lat="44.1421583" lon="12.029435"><ele>204.0</ele><time>2026-04-28T08:51:45.643Z</time></trkpt><trkpt lat="44.1421483" lon="12.0293433"><ele>204.0</ele><time>2026-04-28T08:51:48.643Z</time></trkpt><trkpt lat="44.14213" lon="12.0292383"><ele>204.71428571428572</ele><time>2026-04-28T08:51:52.643Z</time></trkpt><trkpt lat="44.1421067" lon="12.0291367"><ele>205.42857142857144</ele><time>2026-04-28T08:51:55.642Z</time></trkpt><trkpt lat="44.1420867" lon="12.029045"><ele>206.14285714285714</ele><time>2026-04-28T08:51:58.643Z</time></trkpt><trkpt lat="44.1420717" lon="12.02894"><ele>206.85714285714286</ele><time>2026-04-28T08:52:02.643Z</time></trkpt><trkpt lat="44.142065" lon="12.0288433"><ele>207.57142857142856</ele><time>2026-04-28T08:52:05.642Z</time></trkpt><trkpt lat="44.1420533" lon="12.028755"><ele>208.28571428571428</ele><time>2026-04-28T08:52:08.642Z</time></trkpt><trkpt lat="44.14203" lon="12.02866"><ele>209.0</ele><time>2026-04-28T08:52:13.643Z</time></trkpt><trkpt lat="44.14202" lon="12.0285517"><ele>209.0</ele><time>2026-04-28T08:52:18.642Z</time></trkpt><trkpt lat="44.1420067" lon="12.0284617"><ele>209.0</ele><time>2026-04-28T08:52:21.642Z</time></trkpt><trkpt lat="44.14198" lon="12.0283483"><ele>209.0</ele><time>2026-04-28T08:52:25.643Z</time></trkpt><trkpt lat="44.1419683" lon="12.02826"><ele>209.0</ele><time>2026-04-28T08:52:28.642Z</time></trkpt><trkpt lat="44.14196" lon="12.0281633"><ele>209.0</ele><time>2026-04-28T08:52:31.643Z</time></trkpt><trkpt lat="44.1419567" lon="12.0280533"><ele>209.0</ele><time>2026-04-28T08:52:35.643Z</time></trkpt><trkpt lat="44.1419683" lon="12.02796"><ele>209.0</ele><time>2026-04-28T08:52:39.643Z</time></trkpt><trkpt lat="44.1419833" lon="12.0278567"><ele>209.42857142857142</ele><time>2026-04-28T08:52:43.643Z</time></trkpt><trkpt lat="44.1420133" lon="12.027775"><ele>209.85714285714283</ele><time>2026-04-28T08:52:47.642Z</time></trkpt><trkpt lat="44.1420417" lon="12.0276817"><ele>210.28571428571428</ele><time>2026-04-28T08:52:51.642Z</time></trkpt><trkpt lat="44.1420667" lon="12.0275783"><ele>210.71428571428572</ele><time>2026-04-28T08:52:55.642Z</time></trkpt><trkpt lat="44.142095" lon="12.0274867"><ele>211.14285714285714</ele><time>2026-04-28T08:52:58.643Z</time></trkpt><trkpt lat="44.14213" lon="12.02739"><ele>211.57142857142858</ele><time>2026-04-28T08:53:02.643Z</time></trkpt><trkpt lat="44.1421667" lon="12.0272967"><ele>212.0</ele><time>2026-04-28T08:53:06.643Z</time></trkpt><trkpt lat="44.1421983" lon="12.0272083"><ele>212.16666666666669</ele><time>2026-04-28T08:53:10.642Z</time></trkpt><trkpt lat="44.1422217" lon="12.02711"><ele>212.33333333333334</ele><time>2026-04-28T08:53:14.643Z</time></trkpt><trkpt lat="44.1422467" lon="12.0270267"><ele>212.5</ele><time>2026-04-28T08:53:18.643Z</time></trkpt><trkpt lat="44.1422733" lon="12.02691"><ele>212.66666666666669</ele><time>2026-04-28T08:53:22.643Z</time></trkpt><trkpt lat="44.142305" lon="12.0268133"><ele>212.83333333333334</ele><time>2026-04-28T08:53:25.642Z</time></trkpt><trkpt lat="44.142335" lon="12.026715"><ele>213.0</ele><time>2026-04-28T08:53:28.643Z</time></trkpt><trkpt lat="44.1423733" lon="12.02661"><ele>215.7142857142857</ele><time>2026-04-28T08:53:31.642Z</time></trkpt><trkpt lat="44.1423983" lon="12.0265183"><ele>218.42857142857144</ele><time>2026-04-28T08:53:34.643Z</time></trkpt><trkpt lat="44.1424217" lon="12.0264367"><ele>221.14285714285717</ele><time>2026-04-28T08:53:37.643Z</time></trkpt><trkpt lat="44.142445" lon="12.02635"><ele>223.85714285714286</ele><time>2026-04-28T08:53:41.642Z</time></trkpt><trkpt lat="44.1424883" lon="12.0262633"><ele>226.57142857142858</ele><time>2026-04-28T08:53:45.642Z</time></trkpt><trkpt lat="44.142515" lon="12.0261733"><ele>229.2857142857143</ele><time>2026-04-28T08:53:49.642Z</time></trkpt><trkpt lat="44.1425533" lon="12.0261033"><ele>232.00000000000003</ele><time>2026-04-28T08:53:52.643Z</time></trkpt><trkpt lat="44.142595" lon="12.02601"><ele>232.00000000000003</ele><time>2026-04-28T08:53:57.643Z</time></trkpt><trkpt lat="44.1426233" lon="12.025925"><ele>232.0</ele><time>2026-04-28T08:54:01.642Z</time></trkpt><trkpt lat="44.1426367" lon="12.025835"><ele>232.00000000000003</ele><time>2026-04-28T08:54:04.643Z</time></trkpt><trkpt lat="44.1426533" lon="12.0257467"><ele>232.00000000000003</ele><time>2026-04-28T08:54:07.642Z</time></trkpt><trkpt lat="44.14268" lon="12.0256617"><ele>232.0</ele><time>2026-04-28T08:54:10.642Z</time></trkpt><trkpt lat="44.1427217" lon="12.02556"><ele>232.00000000000003</ele><time>2026-04-28T08:54:13.643Z</time></trkpt><trkpt lat="44.1427583" lon="12.0254583"><ele>232.00000000000003</ele><time>2026-04-28T08:54:16.642Z</time></trkpt><trkpt lat="44.1427967" lon="12.0253483"><ele>231.49999999999997</ele><time>2026-04-28T08:54:20.642Z</time></trkpt><trkpt lat="44.1428133" lon="12.0252417"><ele>231.0</ele><time>2026-04-28T08:54:23.643Z</time></trkpt><trkpt lat="44.14284" lon="12.0251383"><ele>230.5</ele><time>2026-04-28T08:54:26.643Z</time></trkpt><trkpt lat="44.142875" lon="12.02504"><ele>230.0</ele><time>2026-04-28T08:54:29.643Z</time></trkpt><trkpt lat="44.1429" lon="12.0249367"><ele>229.49999999999997</ele><time>2026-04-28T08:54:32.643Z</time></trkpt><trkpt lat="44.14294" lon="12.024845"><ele>229.0</ele><time>2026-04-28T08:54:35.643Z</time></trkpt><trkpt lat="44.14298" lon="12.0247567"><ele>228.83333333333331</ele><time>2026-04-28T08:54:38.643Z</time></trkpt><trkpt lat="44.1430133" lon="12.0246483"><ele>228.66666666666666</ele><time>2026-04-28T08:54:42.642Z</time></trkpt><trkpt lat="44.1430367" lon="12.0245567"><ele>228.5</ele><time>2026-04-28T08:54:45.643Z</time></trkpt><trkpt lat="44.14307" lon="12.024445"><ele>228.33333333333331</ele><time>2026-04-28T08:54:49.643Z</time></trkpt><trkpt lat="44.1431183" lon="12.02438"><ele>228.16666666666666</ele><time>2026-04-28T08:54:51.642Z</time></trkpt><trkpt lat="44.143155" lon="12.024305"><ele>228.0</ele><time>2026-04-28T08:54:53.642Z</time></trkpt><trkpt lat="44.1432017" lon="12.0241733"><ele>229.33333333333334</ele><time>2026-04-28T08:54:56.643Z</time></trkpt><trkpt lat="44.1432283" lon="12.0240917"><ele>230.66666666666669</ele><time>2026-04-28T08:54:58.643Z</time></trkpt><trkpt lat="44.143255" lon="12.024005"><ele>232.0</ele><time>2026-04-28T08:55:00.643Z</time></trkpt><trkpt lat="44.1432883" lon="12.0239233"><ele>233.33333333333334</ele><time>2026-04-28T08:55:02.643Z</time></trkpt><trkpt lat="44.1433333" lon="12.02384"><ele>234.66666666666669</ele><time>2026-04-28T08:55:04.642Z</time></trkpt><trkpt lat="44.14339" lon="12.0237367"><ele>236.0</ele><time>2026-04-28T08:55:07.642Z</time></trkpt><trkpt lat="44.143445" lon="12.023645"><ele>236.00000000000003</ele><time>2026-04-28T08:55:10.643Z</time></trkpt><trkpt lat="44.1434917" lon="12.0235533"><ele>236.0</ele><time>2026-04-28T08:55:13.643Z</time></trkpt><trkpt lat="44.1435267" lon="12.0234767"><ele>236.0</ele><time>2026-04-28T08:55:16.643Z</time></trkpt><trkpt lat="44.1435817" lon="12.0233783"><ele>236.0</ele><time>2026-04-28T08:55:19.642Z</time></trkpt><trkpt lat="44.1436333" lon="12.0232783"><ele>236.00000000000003</ele><time>2026-04-28T08:55:22.642Z</time></trkpt><trkpt lat="44.143685" lon="12.023185"><ele>236.0</ele><time>2026-04-28T08:55:25.643Z</time></trkpt><trkpt lat="44.1437333" lon="12.023085"><ele>234.57142857142856</ele><time>2026-04-28T08:55:28.643Z</time></trkpt><trkpt lat="44.1437783" lon="12.0230117"><ele>233.14285714285717</ele><time>2026-04-28T08:55:30.643Z</time></trkpt><trkpt lat="44.1438383" lon="12.0229333"><ele>231.71428571428572</ele><time>2026-04-28T08:55:33.643Z</time></trkpt><trkpt lat="44.1438767" lon="12.0228533"><ele>230.28571428571428</ele><time>2026-04-28T08:55:35.643Z</time></trkpt><trkpt lat="44.143915" lon="12.0227767"><ele>228.85714285714283</ele><time>2026-04-28T08:55:37.642Z</time></trkpt><trkpt lat="44.1439667" lon="12.0226967"><ele>227.42857142857144</ele><time>2026-04-28T08:55:40.643Z</time></trkpt><trkpt lat="44.1440233" lon="12.0226233"><ele>226.0</ele><time>2026-04-28T08:55:43.643Z</time></trkpt><trkpt lat="44.1440767" lon="12.0225367"><ele>228.42857142857144</ele><time>2026-04-28T08:55:46.642Z</time></trkpt><trkpt lat="44.14413" lon="12.022455"><ele>230.85714285714283</ele><time>2026-04-28T08:55:49.643Z</time></trkpt><trkpt lat="44.1441833" lon="12.0223767"><ele>233.28571428571428</ele><time>2026-04-28T08:55:52.642Z</time></trkpt><trkpt lat="44.14424" lon="12.0223"><ele>235.71428571428572</ele><time>2026-04-28T08:55:55.642Z</time></trkpt><trkpt lat="44.144285" lon="12.022235"><ele>238.14285714285717</ele><time>2026-04-28T08:55:58.643Z</time></trkpt><trkpt lat="44.144325" lon="12.0221667"><ele>240.57142857142856</ele><time>2026-04-28T08:56:01.643Z</time></trkpt><trkpt lat="44.1443767" lon="12.0220883"><ele>243.0</ele><time>2026-04-28T08:56:05.642Z</time></trkpt><trkpt lat="44.1444383" lon="12.0220083"><ele>243.0</ele><time>2026-04-28T08:56:08.642Z</time></trkpt><trkpt lat="44.1444867" lon="12.021935"><ele>243.0</ele><time>2026-04-28T08:56:11.642Z</time></trkpt><trkpt lat="44.1445367" lon="12.021865"><ele>243.0</ele><time>2026-04-28T08:56:13.642Z</time></trkpt><trkpt lat="44.1446017" lon="12.021785"><ele>243.0</ele><time>2026-04-28T08:56:15.643Z</time></trkpt><trkpt lat="44.1446617" lon="12.0217133"><ele>243.0</ele><time>2026-04-28T08:56:17.642Z</time></trkpt><trkpt lat="44.1447117" lon="12.021635"><ele>243.0</ele><time>2026-04-28T08:56:19.643Z</time></trkpt><trkpt lat="44.1447767" lon="12.0215483"><ele>242.60000000000002</ele><time>2026-04-28T08:56:21.642Z</time></trkpt><trkpt lat="44.1448417" lon="12.0214667"><ele>242.20000000000002</ele><time>2026-04-28T08:56:23.642Z</time></trkpt><trkpt lat="44.1449067" lon="12.0213967"><ele>241.8</ele><time>2026-04-28T08:56:25.642Z</time></trkpt><trkpt lat="44.1449617" lon="12.02129"><ele>241.4</ele><time>2026-04-28T08:56:27.642Z</time></trkpt><trkpt lat="44.1450267" lon="12.0211983"><ele>241.0</ele><time>2026-04-28T08:56:29.642Z</time></trkpt><trkpt lat="44.1450933" lon="12.0210883"><ele>240.99999999999997</ele><time>2026-04-28T08:56:31.642Z</time></trkpt><trkpt lat="44.14517" lon="12.0209583"><ele>241.0</ele><time>2026-04-28T08:56:33.642Z</time></trkpt><trkpt lat="44.1452133" lon="12.02088"><ele>241.0</ele><time>2026-04-28T08:56:34.641Z</time></trkpt><trkpt lat="44.1452583" lon="12.0208067"><ele>241.0</ele><time>2026-04-28T08:56:35.642Z</time></trkpt><trkpt lat="44.145305" lon="12.020725"><ele>240.99999999999997</ele><time>2026-04-28T08:56:36.641Z</time></trkpt><trkpt lat="44.14536" lon="12.0206467"><ele>241.0</ele><time>2026-04-28T08:56:37.641Z</time></trkpt><trkpt lat="44.1454183" lon="12.02057"><ele>239.0</ele><time>2026-04-28T08:56:38.642Z</time></trkpt><trkpt lat="44.1455017" lon="12.0204517"><ele>237.00000000000003</ele><time>2026-04-28T08:56:39.642Z</time></trkpt><trkpt lat="44.1455717" lon="12.0203417"><ele>235.00000000000003</ele><time>2026-04-28T08:56:40.642Z</time></trkpt><trkpt lat="44.1456467" lon="12.020215"><ele>233.0</ele><time>2026-04-28T08:56:41.642Z</time></trkpt><trkpt lat="44.145705" lon="12.0200933"><ele>231.0</ele><time>2026-04-28T08:56:42.642Z</time></trkpt><trkpt lat="44.1457567" lon="12.0199417"><ele>231.0</ele><time>2026-04-28T08:56:43.642Z</time></trkpt><trkpt lat="44.14581" lon="12.01977"><ele>231.0</ele><time>2026-04-28T08:56:44.642Z</time></trkpt><trkpt lat="44.145865" lon="12.0195833"><ele>231.0</ele><time>2026-04-28T08:56:45.641Z</time></trkpt><trkpt lat="44.1459017" lon="12.0193817"><ele>231.0</ele><time>2026-04-28T08:56:46.641Z</time></trkpt><trkpt lat="44.1459183" lon="12.0192067"><ele>230.75</ele><time>2026-04-28T08:56:47.642Z</time></trkpt><trkpt lat="44.14593" lon="12.0190183"><ele>230.5</ele><time>2026-04-28T08:56:48.641Z</time></trkpt><trkpt lat="44.14594" lon="12.0188267"><ele>230.25</ele><time>2026-04-28T08:56:49.642Z</time></trkpt><trkpt lat="44.1459433" lon="12.0186333"><ele>230.0</ele><time>2026-04-28T08:56:50.642Z</time></trkpt><trkpt lat="44.14594" lon="12.0184517"><ele>230.4</ele><time>2026-04-28T08:56:51.641Z</time></trkpt><trkpt lat="44.145925" lon="12.0182917"><ele>230.8</ele><time>2026-04-28T08:56:52.641Z</time></trkpt><trkpt lat="44.1459033" lon="12.0181483"><ele>231.2</ele><time>2026-04-28T08:56:53.641Z</time></trkpt><trkpt lat="44.145885" lon="12.0180167"><ele>231.6</ele><time>2026-04-28T08:56:54.642Z</time></trkpt><trkpt lat="44.145875" lon="12.0178733"><ele>232.0</ele><time>2026-04-28T08:56:55.642Z</time></trkpt><trkpt lat="44.1458633" lon="12.0177433"><ele>231.99999999999997</ele><time>2026-04-28T08:56:56.642Z</time></trkpt><trkpt lat="44.1458617" lon="12.01761"><ele>232.0</ele><time>2026-04-28T08:56:57.642Z</time></trkpt><trkpt lat="44.14585" lon="12.017485"><ele>232.0</ele><time>2026-04-28T08:56:58.642Z</time></trkpt><trkpt lat="44.1458383" lon="12.0173667"><ele>232.0</ele><time>2026-04-28T08:56:59.641Z</time></trkpt><trkpt lat="44.1458267" lon="12.01726"><ele>231.99999999999997</ele><time>2026-04-28T08:57:00.642Z</time></trkpt><trkpt lat="44.1458133" lon="12.0171717"><ele>232.0</ele><time>2026-04-28T08:57:01.642Z</time></trkpt><trkpt lat="44.145805" lon="12.01705"><ele>232.16666666666666</ele><time>2026-04-28T08:57:02.641Z</time></trkpt><trkpt lat="44.1457767" lon="12.0169283"><ele>232.33333333333331</ele><time>2026-04-28T08:57:03.642Z</time></trkpt><trkpt lat="44.1457617" lon="12.016825"><ele>232.5</ele><time>2026-04-28T08:57:04.641Z</time></trkpt><trkpt lat="44.14574" lon="12.0167217"><ele>232.66666666666669</ele><time>2026-04-28T08:57:05.641Z</time></trkpt><trkpt lat="44.1457267" lon="12.016625"><ele>232.83333333333334</ele><time>2026-04-28T08:57:06.642Z</time></trkpt><trkpt lat="44.1457033" lon="12.0164617"><ele>233.0</ele><time>2026-04-28T08:57:08.642Z</time></trkpt><trkpt lat="44.1456883" lon="12.016325"><ele>233.00000000000003</ele><time>2026-04-28T08:57:10.641Z</time></trkpt><trkpt lat="44.1456767" lon="12.0162117"><ele>233.0</ele><time>2026-04-28T08:57:12.641Z</time></trkpt><trkpt lat="44.14567" lon="12.0161033"><ele>233.0</ele><time>2026-04-28T08:57:14.641Z</time></trkpt><trkpt lat="44.1456667" lon="12.0160117"><ele>233.0</ele><time>2026-04-28T08:57:16.642Z</time></trkpt><trkpt lat="44.1456567" lon="12.0159033"><ele>233.00000000000003</ele><time>2026-04-28T08:57:18.641Z</time></trkpt><trkpt lat="44.1456533" lon="12.0158083"><ele>233.0</ele><time>2026-04-28T08:57:20.641Z</time></trkpt><trkpt lat="44.1456367" lon="12.0156783"><ele>234.16666666666669</ele><time>2026-04-28T08:57:23.641Z</time></trkpt><trkpt lat="44.14563" lon="12.0155783"><ele>235.33333333333334</ele><time>2026-04-28T08:57:26.641Z</time></trkpt><trkpt lat="44.1456417" lon="12.0154683"><ele>236.5</ele><time>2026-04-28T08:57:30.642Z</time></trkpt><trkpt lat="44.1456783" lon="12.0153433"><ele>237.66666666666669</ele><time>2026-04-28T08:57:33.642Z</time></trkpt><trkpt lat="44.145725" lon="12.01525"><ele>238.83333333333334</ele><time>2026-04-28T08:57:35.641Z</time></trkpt><trkpt lat="44.145765" lon="12.0151567"><ele>240.0</ele><time>2026-04-28T08:57:37.642Z</time></trkpt><trkpt lat="44.1458067" lon="12.0150867"><ele>240.16666666666666</ele><time>2026-04-28T08:57:39.642Z</time></trkpt><trkpt lat="44.14586" lon="12.0150133"><ele>240.33333333333331</ele><time>2026-04-28T08:57:43.642Z</time></trkpt><trkpt lat="44.1459183" lon="12.0149433"><ele>240.5</ele><time>2026-04-28T08:57:47.642Z</time></trkpt><trkpt lat="44.1459067" lon="12.0148333"><ele>240.66666666666666</ele><time>2026-04-28T08:58:14.641Z</time></trkpt><trkpt lat="44.1458317" lon="12.01484"><ele>240.83333333333331</ele><time>2026-04-28T08:58:23.642Z</time></trkpt><trkpt lat="44.1457517" lon="12.01488"><ele>241.0</ele><time>2026-04-28T08:58:27.642Z</time></trkpt><trkpt lat="44.1456667" lon="12.0148933"><ele>242.33333333333331</ele><time>2026-04-28T08:58:30.641Z</time></trkpt><trkpt lat="44.1455933" lon="12.014915"><ele>243.66666666666666</ele><time>2026-04-28T08:58:33.642Z</time></trkpt><trkpt lat="44.14553" lon="12.01494"><ele>245.0</ele><time>2026-04-28T08:58:35.641Z</time></trkpt><trkpt lat="44.145455" lon="12.01495"><ele>246.33333333333331</ele><time>2026-04-28T08:58:37.641Z</time></trkpt><trkpt lat="44.1453683" lon="12.0149467"><ele>247.66666666666666</ele><time>2026-04-28T08:58:40.642Z</time></trkpt><trkpt lat="44.1453" lon="12.0149333"><ele>249.0</ele><time>2026-04-28T08:58:42.642Z</time></trkpt><trkpt lat="44.1452033" lon="12.01489"><ele>249.0</ele><time>2026-04-28T08:58:45.641Z</time></trkpt><trkpt lat="44.1451117" lon="12.0148133"><ele>249.0</ele><time>2026-04-28T08:58:47.641Z</time></trkpt><trkpt lat="44.1450267" lon="12.0147367"><ele>249.0</ele><time>2026-04-28T08:58:49.642Z</time></trkpt><trkpt lat="44.144955" lon="12.014655"><ele>249.0</ele><time>2026-04-28T08:58:51.642Z</time></trkpt><trkpt lat="44.1449017" lon="12.0145833"><ele>249.0</ele><time>2026-04-28T08:58:53.642Z</time></trkpt><trkpt lat="44.144855" lon="12.0145083"><ele>249.0</ele><time>2026-04-28T08:58:55.642Z</time></trkpt><trkpt lat="44.1448033" lon="12.0144217"><ele>247.2</ele><time>2026-04-28T08:58:57.642Z</time></trkpt><trkpt lat="44.1447467" lon="12.01434"><ele>245.39999999999998</ele><time>2026-04-28T08:58:59.642Z</time></trkpt><trkpt lat="44.1446983" lon="12.014255"><ele>243.6</ele><time>2026-04-28T08:59:01.641Z</time></trkpt><trkpt lat="44.14464" lon="12.014165"><ele>241.8</ele><time>2026-04-28T08:59:03.641Z</time></trkpt><trkpt lat="44.1445617" lon="12.0140683"><ele>240.0</ele><time>2026-04-28T08:59:05.642Z</time></trkpt><trkpt lat="44.144475" lon="12.01396"><ele>240.0</ele><time>2026-04-28T08:59:07.642Z</time></trkpt><trkpt lat="44.1444317" lon="12.013885"><ele>240.0</ele><time>2026-04-28T08:59:08.642Z</time></trkpt><trkpt lat="44.14438" lon="12.0138117"><ele>240.0</ele><time>2026-04-28T08:59:09.642Z</time></trkpt><trkpt lat="44.144335" lon="12.013735"><ele>240.0</ele><time>2026-04-28T08:59:10.642Z</time></trkpt><trkpt lat="44.1442933" lon="12.0136617"><ele>240.0</ele><time>2026-04-28T08:59:11.642Z</time></trkpt><trkpt lat="44.1442517" lon="12.0135817"><ele>240.0</ele><time>2026-04-28T08:59:12.642Z</time></trkpt><trkpt lat="44.14421" lon="12.0135017"><ele>240.0</ele><time>2026-04-28T08:59:13.641Z</time></trkpt><trkpt lat="44.1441667" lon="12.01342"><ele>240.0</ele><time>2026-04-28T08:59:14.641Z</time></trkpt><trkpt lat="44.1441267" lon="12.01334"><ele>240.0</ele><time>2026-04-28T08:59:15.642Z</time></trkpt><trkpt lat="44.1440917" lon="12.0132517"><ele>240.0</ele><time>2026-04-28T08:59:16.642Z</time></trkpt><trkpt lat="44.1440533" lon="12.0131633"><ele>240.0</ele><time>2026-04-28T08:59:17.641Z</time></trkpt><trkpt lat="44.1440267" lon="12.0130633"><ele>240.0</ele><time>2026-04-28T08:59:18.641Z</time></trkpt><trkpt lat="44.1440083" lon="12.0129517"><ele>240.0</ele><time>2026-04-28T08:59:19.642Z</time></trkpt><trkpt lat="44.1439983" lon="12.0128317"><ele>237.2</ele><time>2026-04-28T08:59:20.642Z</time></trkpt><trkpt lat="44.144" lon="12.012705"><ele>234.4</ele><time>2026-04-28T08:59:21.642Z</time></trkpt><trkpt lat="44.1440067" lon="12.012575"><ele>231.60000000000002</ele><time>2026-04-28T08:59:22.641Z</time></trkpt><trkpt lat="44.1440183" lon="12.01242"><ele>228.8</ele><time>2026-04-28T08:59:23.642Z</time></trkpt><trkpt lat="44.1440383" lon="12.0122817"><ele>226.0</ele><time>2026-04-28T08:59:24.641Z</time></trkpt><trkpt lat="44.1440617" lon="12.0121283"><ele>226.0</ele><time>2026-04-28T08:59:25.641Z</time></trkpt><trkpt lat="44.1440917" lon="12.0119683"><ele>226.00000000000003</ele><time>2026-04-28T08:59:26.642Z</time></trkpt><trkpt lat="44.1441117" lon="12.0118117"><ele>226.00000000000003</ele><time>2026-04-28T08:59:27.642Z</time></trkpt><trkpt lat="44.1441167" lon="12.011655"><ele>226.0</ele><time>2026-04-28T08:59:28.642Z</time></trkpt><trkpt lat="44.1441017" lon="12.01152"><ele>226.0</ele><time>2026-04-28T08:59:29.642Z</time></trkpt><trkpt lat="44.1440583" lon="12.011375"><ele>222.0</ele><time>2026-04-28T08:59:30.641Z</time></trkpt><trkpt lat="44.143995" lon="12.0112383"><ele>218.0</ele><time>2026-04-28T08:59:31.641Z</time></trkpt><trkpt lat="44.1439283" lon="12.01112"><ele>214.0</ele><time>2026-04-28T08:59:32.642Z</time></trkpt><trkpt lat="44.1438333" lon="12.0110117"><ele>210.0</ele><time>2026-04-28T08:59:33.641Z</time></trkpt><trkpt lat="44.1437367" lon="12.010895"><ele>210.75</ele><time>2026-04-28T08:59:34.642Z</time></trkpt><trkpt lat="44.1436367" lon="12.0107767"><ele>211.5</ele><time>2026-04-28T08:59:35.642Z</time></trkpt><trkpt lat="44.143545" lon="12.0106633"><ele>212.25</ele><time>2026-04-28T08:59:36.642Z</time></trkpt><trkpt lat="44.143455" lon="12.01056"><ele>213.0</ele><time>2026-04-28T08:59:37.642Z</time></trkpt><trkpt lat="44.143365" lon="12.0104467"><ele>213.0</ele><time>2026-04-28T08:59:38.641Z</time></trkpt><trkpt lat="44.1432683" lon="12.0103467"><ele>213.0</ele><time>2026-04-28T08:59:39.642Z</time></trkpt><trkpt lat="44.1431817" lon="12.0102517"><ele>213.0</ele><time>2026-04-28T08:59:40.642Z</time></trkpt><trkpt lat="44.143095" lon="12.0101517"><ele>213.0</ele><time>2026-04-28T08:59:41.641Z</time></trkpt><trkpt lat="44.1430133" lon="12.0100567"><ele>214.33333333333334</ele><time>2026-04-28T08:59:42.641Z</time></trkpt><trkpt lat="44.1429433" lon="12.00996"><ele>215.66666666666669</ele><time>2026-04-28T08:59:43.642Z</time></trkpt><trkpt lat="44.142875" lon="12.00987"><ele>217.0</ele><time>2026-04-28T08:59:44.641Z</time></trkpt><trkpt lat="44.1428133" lon="12.0097917"><ele>218.33333333333334</ele><time>2026-04-28T08:59:45.642Z</time></trkpt><trkpt lat="44.1427583" lon="12.0097133"><ele>219.66666666666669</ele><time>2026-04-28T08:59:46.642Z</time></trkpt><trkpt lat="44.1427017" lon="12.00964"><ele>221.0</ele><time>2026-04-28T08:59:47.642Z</time></trkpt><trkpt lat="44.142645" lon="12.00957"><ele>221.00000000000003</ele><time>2026-04-28T08:59:48.641Z</time></trkpt><trkpt lat="44.14259" lon="12.0095067"><ele>221.0</ele><time>2026-04-28T08:59:49.642Z</time></trkpt><trkpt lat="44.1425367" lon="12.00945"><ele>221.0</ele><time>2026-04-28T08:59:50.641Z</time></trkpt><trkpt lat="44.1424483" lon="12.0093517"><ele>221.0</ele><time>2026-04-28T08:59:52.642Z</time></trkpt><trkpt lat="44.142375" lon="12.009265"><ele>221.00000000000003</ele><time>2026-04-28T08:59:54.641Z</time></trkpt><trkpt lat="44.1423" lon="12.0092067"><ele>221.0</ele><time>2026-04-28T08:59:56.641Z</time></trkpt><trkpt lat="44.14224" lon="12.00912"><ele>218.20000000000002</ele><time>2026-04-28T08:59:58.642Z</time></trkpt><trkpt lat="44.1421833" lon="12.0090267"><ele>215.40000000000003</ele><time>2026-04-28T09:00:00.641Z</time></trkpt><trkpt lat="44.1421267" lon="12.00891"><ele>212.6</ele><time>2026-04-28T09:00:02.642Z</time></trkpt><trkpt lat="44.14208" lon="12.0087683"><ele>209.8</ele><time>2026-04-28T09:00:04.642Z</time></trkpt><trkpt lat="44.1420567" lon="12.0085917"><ele>207.0</ele><time>2026-04-28T09:00:06.641Z</time></trkpt><trkpt lat="44.1420467" lon="12.0084933"><ele>207.0</ele><time>2026-04-28T09:00:07.642Z</time></trkpt><trkpt lat="44.1420433" lon="12.0084017"><ele>207.0</ele><time>2026-04-28T09:00:08.641Z</time></trkpt><trkpt lat="44.14205" lon="12.0082917"><ele>207.0</ele><time>2026-04-28T09:00:09.642Z</time></trkpt><trkpt lat="44.1420533" lon="12.0081867"><ele>207.0</ele><time>2026-04-28T09:00:10.642Z</time></trkpt><trkpt lat="44.1420567" lon="12.0080767"><ele>207.0</ele><time>2026-04-28T09:00:11.641Z</time></trkpt><trkpt lat="44.1420583" lon="12.0079583"><ele>207.0</ele><time>2026-04-28T09:00:12.642Z</time></trkpt><trkpt lat="44.142065" lon="12.0078283"><ele>207.39999999999998</ele><time>2026-04-28T09:00:13.641Z</time></trkpt><trkpt lat="44.1420683" lon="12.0076783"><ele>207.79999999999998</ele><time>2026-04-28T09:00:14.641Z</time></trkpt><trkpt lat="44.14206" lon="12.0075433"><ele>208.2</ele><time>2026-04-28T09:00:15.641Z</time></trkpt><trkpt lat="44.1420467" lon="12.0074033"><ele>208.6</ele><time>2026-04-28T09:00:16.641Z</time></trkpt><trkpt lat="44.1420183" lon="12.0072733"><ele>209.0</ele><time>2026-04-28T09:00:17.641Z</time></trkpt><trkpt lat="44.1419717" lon="12.007155"><ele>209.39999999999998</ele><time>2026-04-28T09:00:18.642Z</time></trkpt><trkpt lat="44.1419067" lon="12.007035"><ele>209.8</ele><time>2026-04-28T09:00:19.642Z</time></trkpt><trkpt lat="44.1418317" lon="12.00694"><ele>210.2</ele><time>2026-04-28T09:00:20.641Z</time></trkpt><trkpt lat="44.1417467" lon="12.0068583"><ele>210.60000000000002</ele><time>2026-04-28T09:00:21.642Z</time></trkpt><trkpt lat="44.1416617" lon="12.0067933"><ele>211.0</ele><time>2026-04-28T09:00:22.642Z</time></trkpt><trkpt lat="44.141575" lon="12.0067217"><ele>212.16666666666666</ele><time>2026-04-28T09:00:23.642Z</time></trkpt><trkpt lat="44.141495" lon="12.0066567"><ele>213.33333333333331</ele><time>2026-04-28T09:00:24.642Z</time></trkpt><trkpt lat="44.14142" lon="12.006595"><ele>214.5</ele><time>2026-04-28T09:00:25.641Z</time></trkpt><trkpt lat="44.1413467" lon="12.0065317"><ele>215.66666666666669</ele><time>2026-04-28T09:00:26.641Z</time></trkpt><trkpt lat="44.14128" lon="12.0064633"><ele>216.83333333333334</ele><time>2026-04-28T09:00:27.641Z</time></trkpt><trkpt lat="44.1412117" lon="12.0064017"><ele>218.0</ele><time>2026-04-28T09:00:28.641Z</time></trkpt><trkpt lat="44.141145" lon="12.00634"><ele>218.00000000000003</ele><time>2026-04-28T09:00:29.641Z</time></trkpt><trkpt lat="44.1410883" lon="12.00629"><ele>218.0</ele><time>2026-04-28T09:00:30.642Z</time></trkpt><trkpt lat="44.1410333" lon="12.0062417"><ele>218.0</ele><time>2026-04-28T09:00:31.642Z</time></trkpt><trkpt lat="44.1409783" lon="12.0061967"><ele>218.0</ele><time>2026-04-28T09:00:32.642Z</time></trkpt><trkpt lat="44.1408683" lon="12.00612"><ele>218.00000000000003</ele><time>2026-04-28T09:00:34.641Z</time></trkpt><trkpt lat="44.1407717" lon="12.0060483"><ele>218.0</ele><time>2026-04-28T09:00:36.642Z</time></trkpt><trkpt lat="44.14069" lon="12.005995"><ele>218.00000000000003</ele><time>2026-04-28T09:00:38.641Z</time></trkpt><trkpt lat="44.1406217" lon="12.0059483"><ele>218.0</ele><time>2026-04-28T09:00:40.642Z</time></trkpt><trkpt lat="44.1405367" lon="12.0059017"><ele>218.0</ele><time>2026-04-28T09:00:43.641Z</time></trkpt><trkpt lat="44.1404717" lon="12.0058617"><ele>218.0</ele><time>2026-04-28T09:00:46.642Z</time></trkpt><trkpt lat="44.1404" lon="12.0058233"><ele>218.00000000000003</ele><time>2026-04-28T09:00:49.642Z</time></trkpt><trkpt lat="44.1403283" lon="12.0057883"><ele>218.0</ele><time>2026-04-28T09:00:52.641Z</time></trkpt><trkpt lat="44.1402583" lon="12.0057417"><ele>217.83333333333334</ele><time>2026-04-28T09:00:55.642Z</time></trkpt><trkpt lat="44.1401917" lon="12.0057033"><ele>217.66666666666669</ele><time>2026-04-28T09:00:58.642Z</time></trkpt><trkpt lat="44.1401367" lon="12.0056517"><ele>217.5</ele><time>2026-04-28T09:01:01.641Z</time></trkpt><trkpt lat="44.1400633" lon="12.0056033"><ele>217.33333333333331</ele><time>2026-04-28T09:01:04.642Z</time></trkpt><trkpt lat="44.13998" lon="12.0055567"><ele>217.16666666666666</ele><time>2026-04-28T09:01:07.642Z</time></trkpt><trkpt lat="44.1398983" lon="12.0055083"><ele>217.0</ele><time>2026-04-28T09:01:10.641Z</time></trkpt><trkpt lat="44.13982" lon="12.005465"><ele>218.49999999999997</ele><time>2026-04-28T09:01:13.642Z</time></trkpt><trkpt lat="44.1397417" lon="12.0054167"><ele>220.0</ele><time>2026-04-28T09:01:16.642Z</time></trkpt><trkpt lat="44.13967" lon="12.0053567"><ele>221.5</ele><time>2026-04-28T09:01:19.642Z</time></trkpt><trkpt lat="44.13959" lon="12.0052983"><ele>223.0</ele><time>2026-04-28T09:01:22.642Z</time></trkpt><trkpt lat="44.1395117" lon="12.0052483"><ele>224.49999999999997</ele><time>2026-04-28T09:01:25.642Z</time></trkpt><trkpt lat="44.1394367" lon="12.0051983"><ele>226.0</ele><time>2026-04-28T09:01:28.642Z</time></trkpt><trkpt lat="44.139365" lon="12.0051483"><ele>225.99999999999997</ele><time>2026-04-28T09:01:31.641Z</time></trkpt><trkpt lat="44.1392833" lon="12.0051033"><ele>226.0</ele><time>2026-04-28T09:01:34.642Z</time></trkpt><trkpt lat="44.1392017" lon="12.0050617"><ele>226.0</ele><time>2026-04-28T09:01:37.641Z</time></trkpt><trkpt lat="44.1391267" lon="12.0050217"><ele>226.0</ele><time>2026-04-28T09:01:40.641Z</time></trkpt><trkpt lat="44.13905" lon="12.004975"><ele>225.99999999999997</ele><time>2026-04-28T09:01:43.641Z</time></trkpt><trkpt lat="44.138985" lon="12.0049483"><ele>226.0</ele><time>2026-04-28T09:01:46.642Z</time></trkpt><trkpt lat="44.13891" lon="12.00492"><ele>226.33333333333331</ele><time>2026-04-28T09:01:49.641Z</time></trkpt><trkpt lat="44.1388367" lon="12.004915"><ele>226.66666666666666</ele><time>2026-04-28T09:01:52.641Z</time></trkpt><trkpt lat="44.13876" lon="12.0049017"><ele>227.0</ele><time>2026-04-28T09:01:55.641Z</time></trkpt><trkpt lat="44.138675" lon="12.0048883"><ele>227.33333333333331</ele><time>2026-04-28T09:01:58.641Z</time></trkpt><trkpt lat="44.1385883" lon="12.0048783"><ele>227.66666666666666</ele><time>2026-04-28T09:02:01.641Z</time></trkpt><trkpt lat="44.1385033" lon="12.004865"><ele>228.0</ele><time>2026-04-28T09:02:04.641Z</time></trkpt><trkpt lat="44.13841" lon="12.0048583"><ele>228.0</ele><time>2026-04-28T09:02:07.641Z</time></trkpt><trkpt lat="44.138325" lon="12.0048567"><ele>228.0</ele><time>2026-04-28T09:02:10.642Z</time></trkpt><trkpt lat="44.1382367" lon="12.0048533"><ele>228.0</ele><time>2026-04-28T09:02:13.642Z</time></trkpt><trkpt lat="44.13816" lon="12.0048467"><ele>228.0</ele><time>2026-04-28T09:02:16.642Z</time></trkpt><trkpt lat="44.1380867" lon="12.0048417"><ele>228.0</ele><time>2026-04-28T09:02:19.642Z</time></trkpt><trkpt lat="44.138005" lon="12.0048317"><ele>228.0</ele><time>2026-04-28T09:02:22.641Z</time></trkpt><trkpt lat="44.1379183" lon="12.0048267"><ele>229.0</ele><time>2026-04-28T09:02:25.642Z</time></trkpt><trkpt lat="44.1378317" lon="12.0048317"><ele>230.0</ele><time>2026-04-28T09:02:28.641Z</time></trkpt><trkpt lat="44.137745" lon="12.004825"><ele>231.0</ele><time>2026-04-28T09:02:31.642Z</time></trkpt><trkpt lat="44.1376633" lon="12.0048183"><ele>232.0</ele><time>2026-04-28T09:02:34.641Z</time></trkpt><trkpt lat="44.1375833" lon="12.004805"><ele>233.0</ele><time>2026-04-28T09:02:37.641Z</time></trkpt><trkpt lat="44.1375117" lon="12.0047967"><ele>234.0</ele><time>2026-04-28T09:02:40.642Z</time></trkpt><trkpt lat="44.1374417" lon="12.0047917"><ele>234.5</ele><time>2026-04-28T09:02:43.642Z</time></trkpt><trkpt lat="44.1373633" lon="12.0047883"><ele>235.0</ele><time>2026-04-28T09:02:46.641Z</time></trkpt><trkpt lat="44.13728" lon="12.0047917"><ele>235.5</ele><time>2026-04-28T09:02:49.642Z</time></trkpt><trkpt lat="44.137205" lon="12.0047833"><ele>236.0</ele><time>2026-04-28T09:02:52.641Z</time></trkpt><trkpt lat="44.1371217" lon="12.0047533"><ele>236.5</ele><time>2026-04-28T09:02:55.641Z</time></trkpt><trkpt lat="44.1370267" lon="12.0047433"><ele>237.0</ele><time>2026-04-28T09:02:58.642Z</time></trkpt><trkpt lat="44.13694" lon="12.0047283"><ele>237.0</ele><time>2026-04-28T09:03:01.641Z</time></trkpt><trkpt lat="44.1368617" lon="12.0047033"><ele>237.0</ele><time>2026-04-28T09:03:04.642Z</time></trkpt><trkpt lat="44.13677" lon="12.0046833"><ele>237.0</ele><time>2026-04-28T09:03:07.641Z</time></trkpt><trkpt lat="44.1366883" lon="12.00467"><ele>237.0</ele><time>2026-04-28T09:03:10.642Z</time></trkpt><trkpt lat="44.136605" lon="12.0046567"><ele>237.0</ele><time>2026-04-28T09:03:13.642Z</time></trkpt><trkpt lat="44.1365367" lon="12.004655"><ele>237.0</ele><time>2026-04-28T09:03:16.642Z</time></trkpt><trkpt lat="44.1364667" lon="12.004645"><ele>238.16666666666666</ele><time>2026-04-28T09:03:19.642Z</time></trkpt><trkpt lat="44.1363883" lon="12.004635"><ele>239.33333333333331</ele><time>2026-04-28T09:03:22.642Z</time></trkpt><trkpt lat="44.13631" lon="12.0046233"><ele>240.5</ele><time>2026-04-28T09:03:25.642Z</time></trkpt><trkpt lat="44.13623" lon="12.0046017"><ele>241.66666666666666</ele><time>2026-04-28T09:03:28.641Z</time></trkpt><trkpt lat="44.1361433" lon="12.00458"><ele>242.83333333333331</ele><time>2026-04-28T09:03:31.641Z</time></trkpt><trkpt lat="44.1360667" lon="12.0045717"><ele>244.0</ele><time>2026-04-28T09:03:34.641Z</time></trkpt><trkpt lat="44.1359917" lon="12.0045533"><ele>243.99999999999997</ele><time>2026-04-28T09:03:37.642Z</time></trkpt><trkpt lat="44.1359133" lon="12.0045317"><ele>244.0</ele><time>2026-04-28T09:03:41.642Z</time></trkpt><trkpt lat="44.1358333" lon="12.004535"><ele>244.0</ele><time>2026-04-28T09:03:44.641Z</time></trkpt><trkpt lat="44.1357517" lon="12.004515"><ele>244.0</ele><time>2026-04-28T09:03:47.642Z</time></trkpt><trkpt lat="44.1356883" lon="12.004505"><ele>243.99999999999997</ele><time>2026-04-28T09:03:49.642Z</time></trkpt><trkpt lat="44.1356" lon="12.00449"><ele>244.0</ele><time>2026-04-28T09:03:52.642Z</time></trkpt><trkpt lat="44.1355133" lon="12.0044717"><ele>244.49999999999997</ele><time>2026-04-28T09:03:55.642Z</time></trkpt><trkpt lat="44.1354317" lon="12.00446"><ele>245.0</ele><time>2026-04-28T09:03:58.641Z</time></trkpt><trkpt lat="44.1353633" lon="12.00445"><ele>245.5</ele><time>2026-04-28T09:04:01.641Z</time></trkpt><trkpt lat="44.1352733" lon="12.0044333"><ele>246.0</ele><time>2026-04-28T09:04:05.641Z</time></trkpt><trkpt lat="44.1351933" lon="12.0044333"><ele>246.49999999999997</ele><time>2026-04-28T09:04:08.641Z</time></trkpt><trkpt lat="44.135125" lon="12.0044333"><ele>247.0</ele><time>2026-04-28T09:04:11.641Z</time></trkpt><trkpt lat="44.1350333" lon="12.0044167"><ele>246.99999999999997</ele><time>2026-04-28T09:04:14.641Z</time></trkpt><trkpt lat="44.13496" lon="12.0044017"><ele>247.0</ele><time>2026-04-28T09:04:17.641Z</time></trkpt><trkpt lat="44.134895" lon="12.0043767"><ele>247.0</ele><time>2026-04-28T09:04:20.642Z</time></trkpt><trkpt lat="44.134815" lon="12.0043717"><ele>247.0</ele><time>2026-04-28T09:04:24.642Z</time></trkpt><trkpt lat="44.1347333" lon="12.0043617"><ele>246.99999999999997</ele><time>2026-04-28T09:04:28.642Z</time></trkpt><trkpt lat="44.1346533" lon="12.00435"><ele>247.0</ele><time>2026-04-28T09:04:31.642Z</time></trkpt><trkpt lat="44.1345833" lon="12.0043367"><ele>247.66666666666666</ele><time>2026-04-28T09:04:34.642Z</time></trkpt><trkpt lat="44.1345017" lon="12.004325"><ele>248.33333333333331</ele><time>2026-04-28T09:04:37.641Z</time></trkpt><trkpt lat="44.1344017" lon="12.0043033"><ele>249.0</ele><time>2026-04-28T09:04:40.64Z</time></trkpt><trkpt lat="44.1343233" lon="12.0042733"><ele>249.66666666666669</ele><time>2026-04-28T09:04:43.64Z</time></trkpt><trkpt lat="44.134245" lon="12.0042517"><ele>250.33333333333334</ele><time>2026-04-28T09:04:46.64Z</time></trkpt><trkpt lat="44.134175" lon="12.0042317"><ele>251.0</ele><time>2026-04-28T09:04:49.64Z</time></trkpt><trkpt lat="44.1340967" lon="12.0042117"><ele>250.28571428571425</ele><time>2026-04-28T09:04:52.64Z</time></trkpt><trkpt lat="44.13403" lon="12.0041933"><ele>249.57142857142856</ele><time>2026-04-28T09:04:55.641Z</time></trkpt><trkpt lat="44.133965" lon="12.0041783"><ele>248.85714285714286</ele><time>2026-04-28T09:04:58.641Z</time></trkpt><trkpt lat="44.1338983" lon="12.00417"><ele>248.14285714285714</ele><time>2026-04-28T09:05:01.641Z</time></trkpt><trkpt lat="44.1338067" lon="12.0041517"><ele>247.42857142857144</ele><time>2026-04-28T09:05:05.64Z</time></trkpt><trkpt lat="44.1337433" lon="12.0041467"><ele>246.71428571428575</ele><time>2026-04-28T09:05:07.641Z</time></trkpt><trkpt lat="44.1336567" lon="12.0041383"><ele>246.00000000000003</ele><time>2026-04-28T09:05:10.64Z</time></trkpt><trkpt lat="44.133565" lon="12.0041317"><ele>246.0</ele><time>2026-04-28T09:05:13.641Z</time></trkpt><trkpt lat="44.1335017" lon="12.00413"><ele>246.0</ele><time>2026-04-28T09:05:15.641Z</time></trkpt><trkpt lat="44.1334117" lon="12.0041183"><ele>246.0</ele><time>2026-04-28T09:05:18.641Z</time></trkpt><trkpt lat="44.1333317" lon="12.0041017"><ele>246.0</ele><time>2026-04-28T09:05:21.641Z</time></trkpt><trkpt lat="44.133265" lon="12.0040833"><ele>246.0</ele><time>2026-04-28T09:05:24.64Z</time></trkpt><trkpt lat="44.1331917" lon="12.0040717"><ele>246.0</ele><time>2026-04-28T09:05:27.641Z</time></trkpt><trkpt lat="44.1331067" lon="12.0040633"><ele>247.14285714285717</ele><time>2026-04-28T09:05:30.641Z</time></trkpt><trkpt lat="44.1330317" lon="12.0040583"><ele>248.28571428571428</ele><time>2026-04-28T09:05:33.64Z</time></trkpt><trkpt lat="44.13296" lon="12.0040567"><ele>249.42857142857144</ele><time>2026-04-28T09:05:36.641Z</time></trkpt><trkpt lat="44.132895" lon="12.00405"><ele>250.57142857142858</ele><time>2026-04-28T09:05:39.64Z</time></trkpt><trkpt lat="44.1328117" lon="12.0040317"><ele>251.71428571428572</ele><time>2026-04-28T09:05:43.64Z</time></trkpt><trkpt lat="44.1327317" lon="12.0040233"><ele>252.85714285714286</ele><time>2026-04-28T09:05:46.641Z</time></trkpt><trkpt lat="44.1326617" lon="12.0040317"><ele>254.0</ele><time>2026-04-28T09:05:49.641Z</time></trkpt><trkpt lat="44.1325817" lon="12.004025"><ele>254.0</ele><time>2026-04-28T09:05:52.641Z</time></trkpt><trkpt lat="44.1325" lon="12.0040183"><ele>254.0</ele><time>2026-04-28T09:05:55.641Z</time></trkpt><trkpt lat="44.132415" lon="12.0040133"><ele>254.0</ele><time>2026-04-28T09:05:58.64Z</time></trkpt><trkpt lat="44.132345" lon="12.004005"><ele>254.0</ele><time>2026-04-28T09:06:01.641Z</time></trkpt><trkpt lat="44.13228" lon="12.0039967"><ele>254.0</ele><time>2026-04-28T09:06:04.641Z</time></trkpt><trkpt lat="44.1322083" lon="12.003995"><ele>254.0</ele><time>2026-04-28T09:06:07.641Z</time></trkpt><trkpt lat="44.13214" lon="12.0039917"><ele>254.0</ele><time>2026-04-28T09:06:10.64Z</time></trkpt><trkpt lat="44.1320533" lon="12.0039917"><ele>254.33333333333334</ele><time>2026-04-28T09:06:13.641Z</time></trkpt><trkpt lat="44.1319867" lon="12.0039917"><ele>254.66666666666669</ele><time>2026-04-28T09:06:16.641Z</time></trkpt><trkpt lat="44.131915" lon="12.0039933"><ele>255.0</ele><time>2026-04-28T09:06:19.641Z</time></trkpt><trkpt lat="44.131835" lon="12.003985"><ele>255.33333333333331</ele><time>2026-04-28T09:06:22.64Z</time></trkpt><trkpt lat="44.131755" lon="12.0039917"><ele>255.66666666666666</ele><time>2026-04-28T09:06:25.64Z</time></trkpt><trkpt lat="44.1316717" lon="12.0039817"><ele>256.0</ele><time>2026-04-28T09:06:28.64Z</time></trkpt><trkpt lat="44.1315883" lon="12.0039733"><ele>257.0</ele><time>2026-04-28T09:06:32.641Z</time></trkpt><trkpt lat="44.1315167" lon="12.0039733"><ele>258.0</ele><time>2026-04-28T09:06:35.64Z</time></trkpt><trkpt lat="44.1314467" lon="12.00397"><ele>259.0</ele><time>2026-04-28T09:06:38.64Z</time></trkpt><trkpt lat="44.1313767" lon="12.003975"><ele>260.0</ele><time>2026-04-28T09:06:41.641Z</time></trkpt><trkpt lat="44.131305" lon="12.003965"><ele>261.0</ele><time>2026-04-28T09:06:45.641Z</time></trkpt><trkpt lat="44.1312367" lon="12.003965"><ele>262.0</ele><time>2026-04-28T09:06:49.641Z</time></trkpt><trkpt lat="44.1311733" lon="12.0039667"><ele>263.0</ele><time>2026-04-28T09:06:53.641Z</time></trkpt><trkpt lat="44.1311" lon="12.00397"><ele>263.0</ele><time>2026-04-28T09:06:57.64Z</time></trkpt><trkpt lat="44.1310317" lon="12.0039633"><ele>263.0</ele><time>2026-04-28T09:07:02.641Z</time></trkpt><trkpt lat="44.1309617" lon="12.00395"><ele>263.0</ele><time>2026-04-28T09:07:07.64Z</time></trkpt><trkpt lat="44.130895" lon="12.00395"><ele>263.0</ele><time>2026-04-28T09:07:11.641Z</time></trkpt><trkpt lat="44.1308283" lon="12.003955"><ele>263.0</ele><time>2026-04-28T09:07:14.641Z</time></trkpt><trkpt lat="44.1307583" lon="12.0039567"><ele>263.0</ele><time>2026-04-28T09:07:17.641Z</time></trkpt><trkpt lat="44.1306833" lon="12.0039517"><ele>263.0</ele><time>2026-04-28T09:07:20.64Z</time></trkpt><trkpt lat="44.130605" lon="12.0039217"><ele>264.1666666666667</ele><time>2026-04-28T09:07:25.64Z</time></trkpt><trkpt lat="44.130525" lon="12.0039067"><ele>265.33333333333337</ele><time>2026-04-28T09:07:30.64Z</time></trkpt><trkpt lat="44.1304483" lon="12.0038833"><ele>266.5</ele><time>2026-04-28T09:07:34.641Z</time></trkpt><trkpt lat="44.1303717" lon="12.0038683"><ele>267.6666666666667</ele><time>2026-04-28T09:07:37.64Z</time></trkpt><trkpt lat="44.1302817" lon="12.00386"><ele>268.8333333333333</ele><time>2026-04-28T09:07:40.64Z</time></trkpt><trkpt lat="44.1302167" lon="12.0038333"><ele>270.0</ele><time>2026-04-28T09:07:43.641Z</time></trkpt><trkpt lat="44.1301317" lon="12.0038017"><ele>270.0</ele><time>2026-04-28T09:07:46.64Z</time></trkpt><trkpt lat="44.1300433" lon="12.00377"><ele>270.0</ele><time>2026-04-28T09:07:49.64Z</time></trkpt><trkpt lat="44.12998" lon="12.0037417"><ele>270.0</ele><time>2026-04-28T09:07:51.64Z</time></trkpt><trkpt lat="44.1299167" lon="12.0037233"><ele>270.0</ele><time>2026-04-28T09:07:53.64Z</time></trkpt><trkpt lat="44.129835" lon="12.0036867"><ele>270.0</ele><time>2026-04-28T09:07:56.641Z</time></trkpt><trkpt lat="44.1297733" lon="12.0036517"><ele>270.0</ele><time>2026-04-28T09:07:58.641Z</time></trkpt><trkpt lat="44.1297033" lon="12.003625"><ele>270.0</ele><time>2026-04-28T09:08:00.641Z</time></trkpt><trkpt lat="44.1296067" lon="12.003565"><ele>270.6666666666667</ele><time>2026-04-28T09:08:02.641Z</time></trkpt><trkpt lat="44.1295" lon="12.00348"><ele>271.3333333333333</ele><time>2026-04-28T09:08:04.64Z</time></trkpt><trkpt lat="44.1294367" lon="12.0034467"><ele>272.0</ele><time>2026-04-28T09:08:05.641Z</time></trkpt><trkpt lat="44.1293783" lon="12.003395"><ele>272.66666666666663</ele><time>2026-04-28T09:08:06.641Z</time></trkpt><trkpt lat="44.1293183" lon="12.0033517"><ele>273.3333333333333</ele><time>2026-04-28T09:08:07.641Z</time></trkpt><trkpt lat="44.1292583" lon="12.0033133"><ele>274.0</ele><time>2026-04-28T09:08:08.64Z</time></trkpt><trkpt lat="44.1291533" lon="12.003245"><ele>274.0</ele><time>2026-04-28T09:08:10.641Z</time></trkpt><trkpt lat="44.129065" lon="12.0031917"><ele>274.0</ele><time>2026-04-28T09:08:12.641Z</time></trkpt><trkpt lat="44.1290033" lon="12.003155"><ele>274.0</ele><time>2026-04-28T09:08:14.641Z</time></trkpt><trkpt lat="44.1289267" lon="12.003105"><ele>274.0</ele><time>2026-04-28T09:08:17.641Z</time></trkpt><trkpt lat="44.128865" lon="12.003055"><ele>274.0</ele><time>2026-04-28T09:08:20.641Z</time></trkpt><trkpt lat="44.1288133" lon="12.0030033"><ele>274.0</ele><time>2026-04-28T09:08:23.64Z</time></trkpt><trkpt lat="44.1287483" lon="12.0029483"><ele>276.14285714285717</ele><time>2026-04-28T09:08:28.64Z</time></trkpt><trkpt lat="44.1286817" lon="12.0029033"><ele>278.2857142857143</ele><time>2026-04-28T09:08:32.64Z</time></trkpt><trkpt lat="44.1286317" lon="12.0028367"><ele>280.42857142857144</ele><time>2026-04-28T09:08:36.64Z</time></trkpt><trkpt lat="44.1285733" lon="12.0027733"><ele>282.57142857142856</ele><time>2026-04-28T09:08:40.64Z</time></trkpt><trkpt lat="44.1285017" lon="12.0027133"><ele>284.7142857142857</ele><time>2026-04-28T09:08:44.64Z</time></trkpt><trkpt lat="44.1284467" lon="12.00267"><ele>286.8571428571429</ele><time>2026-04-28T09:08:47.641Z</time></trkpt><trkpt lat="44.1283883" lon="12.0026117"><ele>289.0</ele><time>2026-04-28T09:08:51.64Z</time></trkpt><trkpt lat="44.12829" lon="12.00255"><ele>289.42857142857144</ele><time>2026-04-28T09:08:57.64Z</time></trkpt><trkpt lat="44.128225" lon="12.0025267"><ele>289.85714285714283</ele><time>2026-04-28T09:09:01.641Z</time></trkpt><trkpt lat="44.1281617" lon="12.002495"><ele>290.2857142857143</ele><time>2026-04-28T09:09:04.641Z</time></trkpt><trkpt lat="44.1280883" lon="12.0024583"><ele>290.7142857142857</ele><time>2026-04-28T09:09:07.64Z</time></trkpt><trkpt lat="44.1280333" lon="12.0024017"><ele>291.14285714285717</ele><time>2026-04-28T09:09:10.64Z</time></trkpt><trkpt lat="44.1279883" lon="12.002305"><ele>291.57142857142856</ele><time>2026-04-28T09:09:14.641Z</time></trkpt><trkpt lat="44.1279367" lon="12.002225"><ele>292.0</ele><time>2026-04-28T09:09:17.641Z</time></trkpt><trkpt lat="44.1278867" lon="12.002145"><ele>292.0</ele><time>2026-04-28T09:09:20.64Z</time></trkpt><trkpt lat="44.127835" lon="12.0020583"><ele>292.0</ele><time>2026-04-28T09:09:23.641Z</time></trkpt><trkpt lat="44.1277933" lon="12.00197"><ele>292.0</ele><time>2026-04-28T09:09:26.64Z</time></trkpt><trkpt lat="44.1277617" lon="12.0018933"><ele>292.0</ele><time>2026-04-28T09:09:29.641Z</time></trkpt><trkpt lat="44.12773" lon="12.0018067"><ele>292.0</ele><time>2026-04-28T09:09:32.64Z</time></trkpt><trkpt lat="44.1277" lon="12.0017167"><ele>292.0</ele><time>2026-04-28T09:09:35.64Z</time></trkpt><trkpt lat="44.1276583" lon="12.001645"><ele>292.0</ele><time>2026-04-28T09:09:38.641Z</time></trkpt><trkpt lat="44.1276117" lon="12.0015833"><ele>291.7142857142857</ele><time>2026-04-28T09:09:41.641Z</time></trkpt><trkpt lat="44.127565" lon="12.00151"><ele>291.42857142857144</ele><time>2026-04-28T09:09:45.64Z</time></trkpt><trkpt lat="44.127515" lon="12.0014417"><ele>291.14285714285717</ele><time>2026-04-28T09:09:48.64Z</time></trkpt><trkpt lat="44.12746" lon="12.0013867"><ele>290.8571428571429</ele><time>2026-04-28T09:09:51.641Z</time></trkpt><trkpt lat="44.1274067" lon="12.00132"><ele>290.5714285714286</ele><time>2026-04-28T09:09:54.641Z</time></trkpt><trkpt lat="44.1273567" lon="12.00124"><ele>290.2857142857143</ele><time>2026-04-28T09:09:58.641Z</time></trkpt><trkpt lat="44.127295" lon="12.00116"><ele>290.0</ele><time>2026-04-28T09:10:02.641Z</time></trkpt><trkpt lat="44.1272483" lon="12.001095"><ele>290.0</ele><time>2026-04-28T09:10:05.641Z</time></trkpt><trkpt lat="44.1272017" lon="12.001025"><ele>290.0</ele><time>2026-04-28T09:10:08.641Z</time></trkpt><trkpt lat="44.1271517" lon="12.0009467"><ele>290.0</ele><time>2026-04-28T09:10:12.641Z</time></trkpt><trkpt lat="44.1271017" lon="12.000875"><ele>290.0</ele><time>2026-04-28T09:10:15.641Z</time></trkpt><trkpt lat="44.127075" lon="12.0007883"><ele>290.0</ele><time>2026-04-28T09:10:18.641Z</time></trkpt><trkpt lat="44.1270417" lon="12.0006833"><ele>290.0</ele><time>2026-04-28T09:10:21.641Z</time></trkpt><trkpt lat="44.1270067" lon="12.0006083"><ele>290.0</ele><time>2026-04-28T09:10:23.64Z</time></trkpt><trkpt lat="44.12697" lon="12.0005367"><ele>290.2857142857143</ele><time>2026-04-28T09:10:25.64Z</time></trkpt><trkpt lat="44.1269283" lon="12.0004633"><ele>290.5714285714286</ele><time>2026-04-28T09:10:27.641Z</time></trkpt><trkpt lat="44.126885" lon="12.0003917"><ele>290.8571428571429</ele><time>2026-04-28T09:10:29.641Z</time></trkpt><trkpt lat="44.12683" lon="12.0003183"><ele>291.14285714285717</ele><time>2026-04-28T09:10:31.64Z</time></trkpt><trkpt lat="44.126765" lon="12.0002617"><ele>291.42857142857144</ele><time>2026-04-28T09:10:33.641Z</time></trkpt><trkpt lat="44.126715" lon="12.0002017"><ele>291.7142857142857</ele><time>2026-04-28T09:10:35.641Z</time></trkpt><trkpt lat="44.12676" lon="12.0002783"><ele>292.0</ele><time>2026-04-28T09:10:46.641Z</time></trkpt><trkpt lat="44.126815" lon="12.0003383"><ele>292.0</ele><time>2026-04-28T09:10:50.64Z</time></trkpt><trkpt lat="44.12687" lon="12.0004033"><ele>292.0</ele><time>2026-04-28T09:10:54.64Z</time></trkpt><trkpt lat="44.1269017" lon="12.00049"><ele>292.0</ele><time>2026-04-28T09:10:58.64Z</time></trkpt><trkpt lat="44.1269517" lon="12.00058"><ele>292.0</ele><time>2026-04-28T09:11:01.64Z</time></trkpt><trkpt lat="44.1270033" lon="12.0006383"><ele>292.0</ele><time>2026-04-28T09:11:04.64Z</time></trkpt><trkpt lat="44.1274383" lon="12.0008017"><ele>292.0</ele><time>2026-04-28T09:11:33.144Z</time></trkpt><trkpt lat="44.1271717" lon="12.000715"><ele>292.0</ele><time>2026-04-28T09:11:37.658Z</time></trkpt><trkpt lat="44.127015" lon="12.0007383"><ele>292.0</ele><time>2026-04-28T09:11:58.643Z</time></trkpt><trkpt lat="44.1270033" lon="12.0006433"><ele>292.0</ele><time>2026-04-28T09:12:22.643Z</time></trkpt><trkpt lat="44.1269583" lon="12.0005433"><ele>292.0</ele><time>2026-04-28T09:12:26.644Z</time></trkpt><trkpt lat="44.12692" lon="12.0004717"><ele>292.0</ele><time>2026-04-28T09:12:29.643Z</time></trkpt><trkpt lat="44.1268817" lon="12.000375"><ele>292.0</ele><time>2026-04-28T09:12:33.643Z</time></trkpt><trkpt lat="44.1268483" lon="12.0003"><ele>292.0</ele><time>2026-04-28T09:12:36.644Z</time></trkpt><trkpt lat="44.1268" lon="12.0002383"><ele>292.0</ele><time>2026-04-28T09:12:39.644Z</time></trkpt><trkpt lat="44.126745" lon="12.0001833"><ele>292.0</ele><time>2026-04-28T09:12:42.644Z</time></trkpt><trkpt lat="44.1266767" lon="12.0001483"><ele>292.0</ele><time>2026-04-28T09:12:45.644Z</time></trkpt><trkpt lat="44.12661" lon="12.0001083"><ele>292.0</ele><time>2026-04-28T09:12:48.644Z</time></trkpt><trkpt lat="44.126545" lon="12.0000767"><ele>292.0</ele><time>2026-04-28T09:12:51.644Z</time></trkpt><trkpt lat="44.12647" lon="12.00005"><ele>292.0</ele><time>2026-04-28T09:12:54.644Z</time></trkpt><trkpt lat="44.1263883" lon="12.0000267"><ele>292.0</ele><time>2026-04-28T09:12:57.643Z</time></trkpt><trkpt lat="44.126305" lon="12.0"><ele>292.0</ele><time>2026-04-28T09:13:00.643Z</time></trkpt><trkpt lat="44.126215" lon="11.9999717"><ele>292.5</ele><time>2026-04-28T09:13:03.643Z</time></trkpt><trkpt lat="44.1261517" lon="11.99995"><ele>293.0</ele><time>2026-04-28T09:13:05.643Z</time></trkpt><trkpt lat="44.1260883" lon="11.9999267"><ele>293.5</ele><time>2026-04-28T09:13:07.644Z</time></trkpt><trkpt lat="44.125995" lon="11.9999033"><ele>294.0</ele><time>2026-04-28T09:13:10.643Z</time></trkpt><trkpt lat="44.1259267" lon="11.9999033"><ele>294.5</ele><time>2026-04-28T09:13:12.644Z</time></trkpt><trkpt lat="44.125845" lon="11.999905"><ele>295.0</ele><time>2026-04-28T09:13:14.644Z</time></trkpt><trkpt lat="44.1257567" lon="11.99991"><ele>294.5</ele><time>2026-04-28T09:13:16.644Z</time></trkpt><trkpt lat="44.1256733" lon="11.999915"><ele>294.0</ele><time>2026-04-28T09:13:18.643Z</time></trkpt><trkpt lat="44.1255883" lon="11.9998933"><ele>293.5</ele><time>2026-04-28T09:13:20.643Z</time></trkpt><trkpt lat="44.1255183" lon="11.99989"><ele>293.0</ele><time>2026-04-28T09:13:22.644Z</time></trkpt><trkpt lat="44.1254533" lon="11.9998667"><ele>292.5</ele><time>2026-04-28T09:13:24.644Z</time></trkpt><trkpt lat="44.1253833" lon="11.9998367"><ele>292.0</ele><time>2026-04-28T09:13:26.644Z</time></trkpt><trkpt lat="44.125315" lon="11.9997983"><ele>292.0</ele><time>2026-04-28T09:13:28.644Z</time></trkpt><trkpt lat="44.1252467" lon="11.999765"><ele>292.0</ele><time>2026-04-28T09:13:30.644Z</time></trkpt><trkpt lat="44.12518" lon="11.99974"><ele>292.0</ele><time>2026-04-28T09:13:32.643Z</time></trkpt><trkpt lat="44.12512" lon="11.9997017"><ele>292.0</ele><time>2026-04-28T09:13:34.643Z</time></trkpt><trkpt lat="44.1250617" lon="11.9996617"><ele>292.0</ele><time>2026-04-28T09:13:37.644Z</time></trkpt><trkpt lat="44.1249617" lon="11.9996033"><ele>292.0</ele><time>2026-04-28T09:13:40.644Z</time></trkpt><trkpt lat="44.1248933" lon="11.999555"><ele>292.0</ele><time>2026-04-28T09:13:42.644Z</time></trkpt><trkpt lat="44.1248267" lon="11.9995183"><ele>292.0</ele><time>2026-04-28T09:13:45.644Z</time></trkpt><trkpt lat="44.1247633" lon="11.9995067"><ele>292.0</ele><time>2026-04-28T09:13:48.644Z</time></trkpt><trkpt lat="44.12483" lon="11.9995383"><ele>292.0</ele><time>2026-04-28T09:13:53.643Z</time></trkpt><trkpt lat="44.1248933" lon="11.9995767"><ele>292.0</ele><time>2026-04-28T09:13:57.644Z</time></trkpt><trkpt lat="44.1249483" lon="11.9996283"><ele>292.0</ele><time>2026-04-28T09:14:01.644Z</time></trkpt><trkpt lat="44.12504" lon="11.9996367"><ele>292.0</ele><time>2026-04-28T09:17:02.644Z</time></trkpt><trkpt lat="44.12509" lon="11.9997067"><ele>292.0</ele><time>2026-04-28T09:17:13.643Z</time></trkpt><trkpt lat="44.125025" lon="11.9996267"><ele>292.0</ele><time>2026-04-28T09:17:23.642Z</time></trkpt><trkpt lat="44.124955" lon="11.9995683"><ele>292.0</ele><time>2026-04-28T09:17:25.643Z</time></trkpt><trkpt lat="44.1248733" lon="11.9995117"><ele>292.0</ele><time>2026-04-28T09:17:27.643Z</time></trkpt><trkpt lat="44.124765" lon="11.9994533"><ele>292.0</ele><time>2026-04-28T09:17:29.643Z</time></trkpt><trkpt lat="44.124655" lon="11.9993833"><ele>291.8</ele><time>2026-04-28T09:17:31.643Z</time></trkpt><trkpt lat="44.124545" lon="11.9993033"><ele>291.6</ele><time>2026-04-28T09:17:33.643Z</time></trkpt><trkpt lat="44.1244433" lon="11.999225"><ele>291.40000000000003</ele><time>2026-04-28T09:17:35.642Z</time></trkpt><trkpt lat="44.1243517" lon="11.999155"><ele>291.2</ele><time>2026-04-28T09:17:37.642Z</time></trkpt><trkpt lat="44.1242683" lon="11.99909"><ele>291.0</ele><time>2026-04-28T09:17:39.643Z</time></trkpt><trkpt lat="44.1241983" lon="11.999035"><ele>291.0</ele><time>2026-04-28T09:17:41.642Z</time></trkpt><trkpt lat="44.124135" lon="11.9989883"><ele>291.0</ele><time>2026-04-28T09:17:43.642Z</time></trkpt><trkpt lat="44.124075" lon="11.99894"><ele>291.0</ele><time>2026-04-28T09:17:45.642Z</time></trkpt><trkpt lat="44.1240117" lon="11.9989"><ele>291.0</ele><time>2026-04-28T09:17:47.642Z</time></trkpt><trkpt lat="44.1239517" lon="11.9988633"><ele>291.0</ele><time>2026-04-28T09:17:49.642Z</time></trkpt><trkpt lat="44.1238817" lon="11.9988117"><ele>291.0</ele><time>2026-04-28T09:17:52.643Z</time></trkpt><trkpt lat="44.1238067" lon="11.9987567"><ele>291.0</ele><time>2026-04-28T09:17:55.643Z</time></trkpt><trkpt lat="44.1237417" lon="11.9987133"><ele>291.7142857142857</ele><time>2026-04-28T09:17:58.642Z</time></trkpt><trkpt lat="44.1236733" lon="11.9986733"><ele>292.4285714285714</ele><time>2026-04-28T09:18:01.643Z</time></trkpt><trkpt lat="44.1236067" lon="11.9986467"><ele>293.1428571428571</ele><time>2026-04-28T09:18:05.643Z</time></trkpt><trkpt lat="44.1235433" lon="11.998625"><ele>293.85714285714283</ele><time>2026-04-28T09:18:09.642Z</time></trkpt><trkpt lat="44.1234783" lon="11.99862"><ele>294.57142857142856</ele><time>2026-04-28T09:18:13.643Z</time></trkpt><trkpt lat="44.123405" lon="11.9986067"><ele>295.2857142857143</ele><time>2026-04-28T09:18:18.643Z</time></trkpt><trkpt lat="44.12334" lon="11.9985967"><ele>296.0</ele><time>2026-04-28T09:18:23.642Z</time></trkpt><trkpt lat="44.123265" lon="11.9986067"><ele>296.8571428571429</ele><time>2026-04-28T09:18:28.643Z</time></trkpt><trkpt lat="44.1231833" lon="11.9986067"><ele>297.7142857142857</ele><time>2026-04-28T09:18:32.642Z</time></trkpt><trkpt lat="44.1231067" lon="11.998605"><ele>298.57142857142856</ele><time>2026-04-28T09:18:36.642Z</time></trkpt><trkpt lat="44.12303" lon="11.9985917"><ele>299.42857142857144</ele><time>2026-04-28T09:18:40.642Z</time></trkpt><trkpt lat="44.1229567" lon="11.9986017"><ele>300.2857142857143</ele><time>2026-04-28T09:18:44.643Z</time></trkpt><trkpt lat="44.1228933" lon="11.9985883"><ele>301.14285714285717</ele><time>2026-04-28T09:18:48.642Z</time></trkpt><trkpt lat="44.1228283" lon="11.9985783"><ele>302.0</ele><time>2026-04-28T09:18:52.643Z</time></trkpt><trkpt lat="44.1227567" lon="11.9985567"><ele>302.00000000000006</ele><time>2026-04-28T09:18:56.643Z</time></trkpt><trkpt lat="44.1226867" lon="11.9985267"><ele>302.0</ele><time>2026-04-28T09:19:00.642Z</time></trkpt><trkpt lat="44.1226217" lon="11.99849"><ele>302.0</ele><time>2026-04-28T09:19:04.642Z</time></trkpt><trkpt lat="44.12256" lon="11.998445"><ele>302.0</ele><time>2026-04-28T09:19:09.643Z</time></trkpt><trkpt lat="44.1225033" lon="11.9983767"><ele>302.0</ele><time>2026-04-28T09:19:14.643Z</time></trkpt><trkpt lat="44.1224517" lon="11.9982967"><ele>302.00000000000006</ele><time>2026-04-28T09:19:19.643Z</time></trkpt><trkpt lat="44.1224083" lon="11.998225"><ele>302.0</ele><time>2026-04-28T09:19:23.642Z</time></trkpt><trkpt lat="44.122375" lon="11.9981417"><ele>305.00000000000006</ele><time>2026-04-28T09:19:28.643Z</time></trkpt><trkpt lat="44.122355" lon="11.9980567"><ele>308.0</ele><time>2026-04-28T09:19:33.643Z</time></trkpt><trkpt lat="44.12234" lon="11.9979583"><ele>311.0</ele><time>2026-04-28T09:19:38.642Z</time></trkpt><trkpt lat="44.1223333" lon="11.9978567"><ele>314.0</ele><time>2026-04-28T09:19:43.643Z</time></trkpt><trkpt lat="44.1223317" lon="11.99776"><ele>317.0</ele><time>2026-04-28T09:19:48.643Z</time></trkpt><trkpt lat="44.1223283" lon="11.9976517"><ele>320.00000000000006</ele><time>2026-04-28T09:19:53.643Z</time></trkpt><trkpt lat="44.1223283" lon="11.9975467"><ele>323.0</ele><time>2026-04-28T09:19:58.643Z</time></trkpt><trkpt lat="44.1223183" lon="11.9974467"><ele>323.8571428571429</ele><time>2026-04-28T09:20:03.643Z</time></trkpt><trkpt lat="44.1222833" lon="11.99736"><ele>324.7142857142857</ele><time>2026-04-28T09:20:08.642Z</time></trkpt><trkpt lat="44.1222467" lon="11.997265"><ele>325.57142857142856</ele><time>2026-04-28T09:20:12.643Z</time></trkpt><trkpt lat="44.1222017" lon="11.997195"><ele>326.42857142857144</ele><time>2026-04-28T09:20:16.643Z</time></trkpt><trkpt lat="44.1221433" lon="11.9971317"><ele>327.2857142857143</ele><time>2026-04-28T09:20:22.643Z</time></trkpt><trkpt lat="44.1220767" lon="11.9971267"><ele>328.14285714285717</ele><time>2026-04-28T09:20:27.643Z</time></trkpt><trkpt lat="44.1220133" lon="11.9971333"><ele>329.0</ele><time>2026-04-28T09:20:31.643Z</time></trkpt><trkpt lat="44.12195" lon="11.9971467"><ele>329.0</ele><time>2026-04-28T09:20:35.643Z</time></trkpt><trkpt lat="44.1218833" lon="11.9971583"><ele>329.0</ele><time>2026-04-28T09:20:39.642Z</time></trkpt><trkpt lat="44.1218217" lon="11.9971767"><ele>329.0</ele><time>2026-04-28T09:20:43.643Z</time></trkpt><trkpt lat="44.12176" lon="11.9971967"><ele>329.0</ele><time>2026-04-28T09:20:47.643Z</time></trkpt><trkpt lat="44.1216933" lon="11.997215"><ele>329.0</ele><time>2026-04-28T09:20:51.642Z</time></trkpt><trkpt lat="44.1216233" lon="11.99723"><ele>329.0</ele><time>2026-04-28T09:20:55.643Z</time></trkpt><trkpt lat="44.12156" lon="11.9972467"><ele>329.0</ele><time>2026-04-28T09:20:59.643Z</time></trkpt><trkpt lat="44.1214817" lon="11.9972583"><ele>330.85714285714283</ele><time>2026-04-28T09:21:04.642Z</time></trkpt><trkpt lat="44.1214133" lon="11.9972733"><ele>332.7142857142857</ele><time>2026-04-28T09:21:08.643Z</time></trkpt><trkpt lat="44.1213467" lon="11.9972883"><ele>334.57142857142856</ele><time>2026-04-28T09:21:12.643Z</time></trkpt><trkpt lat="44.1212767" lon="11.9972983"><ele>336.42857142857144</ele><time>2026-04-28T09:21:18.643Z</time></trkpt><trkpt lat="44.121205" lon="11.997305"><ele>338.2857142857143</ele><time>2026-04-28T09:21:23.643Z</time></trkpt><trkpt lat="44.12114" lon="11.997325"><ele>340.1428571428571</ele><time>2026-04-28T09:21:27.642Z</time></trkpt><trkpt lat="44.1210683" lon="11.9973483"><ele>342.0</ele><time>2026-04-28T09:21:31.642Z</time></trkpt><trkpt lat="44.1210033" lon="11.9973683"><ele>342.0</ele><time>2026-04-28T09:21:35.642Z</time></trkpt><trkpt lat="44.1209317" lon="11.9973967"><ele>342.0</ele><time>2026-04-28T09:21:39.643Z</time></trkpt><trkpt lat="44.12086" lon="11.9974067"><ele>342.0</ele><time>2026-04-28T09:21:43.643Z</time></trkpt><trkpt lat="44.12078" lon="11.99741"><ele>342.0</ele><time>2026-04-28T09:21:47.642Z</time></trkpt><trkpt lat="44.12071" lon="11.9974117"><ele>342.0</ele><time>2026-04-28T09:21:50.643Z</time></trkpt><trkpt lat="44.12063" lon="11.997405"><ele>342.0</ele><time>2026-04-28T09:21:53.643Z</time></trkpt><trkpt lat="44.120555" lon="11.997395"><ele>342.99999999999994</ele><time>2026-04-28T09:21:56.642Z</time></trkpt><trkpt lat="44.12049" lon="11.9973817"><ele>344.0</ele><time>2026-04-28T09:21:59.643Z</time></trkpt><trkpt lat="44.1204117" lon="11.9973683"><ele>345.0</ele><time>2026-04-28T09:22:03.643Z</time></trkpt><trkpt lat="44.1203317" lon="11.99736"><ele>346.0</ele><time>2026-04-28T09:22:07.643Z</time></trkpt><trkpt lat="44.12026" lon="11.9973417"><ele>347.0</ele><time>2026-04-28T09:22:11.642Z</time></trkpt><trkpt lat="44.1201883" lon="11.9973283"><ele>347.99999999999994</ele><time>2026-04-28T09:22:15.642Z</time></trkpt><trkpt lat="44.1201183" lon="11.9973217"><ele>349.0</ele><time>2026-04-28T09:22:20.643Z</time></trkpt><trkpt lat="44.1200417" lon="11.99731"><ele>348.99999999999994</ele><time>2026-04-28T09:22:27.642Z</time></trkpt><trkpt lat="44.1199767" lon="11.9973333"><ele>349.0</ele><time>2026-04-28T09:22:30.642Z</time></trkpt><trkpt lat="44.1199033" lon="11.99735"><ele>349.0</ele><time>2026-04-28T09:22:34.642Z</time></trkpt><trkpt lat="44.1198283" lon="11.9973567"><ele>349.0</ele><time>2026-04-28T09:22:38.642Z</time></trkpt><trkpt lat="44.119765" lon="11.9973483"><ele>349.0</ele><time>2026-04-28T09:22:41.643Z</time></trkpt><trkpt lat="44.1196867" lon="11.9973267"><ele>348.99999999999994</ele><time>2026-04-28T09:22:45.642Z</time></trkpt><trkpt lat="44.1196267" lon="11.997285"><ele>349.0</ele><time>2026-04-28T09:22:48.643Z</time></trkpt><trkpt lat="44.1195467" lon="11.9972483"><ele>349.8333333333333</ele><time>2026-04-28T09:22:51.643Z</time></trkpt><trkpt lat="44.11947" lon="11.9972133"><ele>350.66666666666663</ele><time>2026-04-28T09:22:54.643Z</time></trkpt><trkpt lat="44.11938" lon="11.99718"><ele>351.5</ele><time>2026-04-28T09:22:58.643Z</time></trkpt><trkpt lat="44.11929" lon="11.9971867"><ele>352.3333333333333</ele><time>2026-04-28T09:23:01.642Z</time></trkpt><trkpt lat="44.1192133" lon="11.99721"><ele>353.1666666666667</ele><time>2026-04-28T09:23:03.642Z</time></trkpt><trkpt lat="44.1191533" lon="11.9972417"><ele>354.0</ele><time>2026-04-28T09:23:05.643Z</time></trkpt><trkpt lat="44.1190783" lon="11.9972983"><ele>354.14285714285717</ele><time>2026-04-28T09:23:08.642Z</time></trkpt><trkpt lat="44.11902" lon="11.9973483"><ele>354.2857142857143</ele><time>2026-04-28T09:23:10.643Z</time></trkpt><trkpt lat="44.1189483" lon="11.9974033"><ele>354.42857142857144</ele><time>2026-04-28T09:23:12.643Z</time></trkpt><trkpt lat="44.11888" lon="11.9974583"><ele>354.57142857142856</ele><time>2026-04-28T09:23:14.643Z</time></trkpt><trkpt lat="44.1188217" lon="11.9975033"><ele>354.7142857142857</ele><time>2026-04-28T09:23:16.643Z</time></trkpt><trkpt lat="44.1187633" lon="11.99755"><ele>354.85714285714283</ele><time>2026-04-28T09:23:18.642Z</time></trkpt><trkpt lat="44.11871" lon="11.99761"><ele>355.0</ele><time>2026-04-28T09:23:20.643Z</time></trkpt><trkpt lat="44.11865" lon="11.9976717"><ele>355.0</ele><time>2026-04-28T09:23:22.642Z</time></trkpt><trkpt lat="44.11858" lon="11.9977367"><ele>355.0</ele><time>2026-04-28T09:23:24.643Z</time></trkpt><trkpt lat="44.1185117" lon="11.9978083"><ele>355.0</ele><time>2026-04-28T09:23:26.643Z</time></trkpt><trkpt lat="44.1184433" lon="11.9978717"><ele>355.0</ele><time>2026-04-28T09:23:28.642Z</time></trkpt><trkpt lat="44.11837" lon="11.997945"><ele>355.0</ele><time>2026-04-28T09:23:30.643Z</time></trkpt><trkpt lat="44.118295" lon="11.99802"><ele>355.0</ele><time>2026-04-28T09:23:32.642Z</time></trkpt><trkpt lat="44.1182033" lon="11.9981017"><ele>355.3333333333333</ele><time>2026-04-28T09:23:34.643Z</time></trkpt><trkpt lat="44.118105" lon="11.9981583"><ele>355.66666666666663</ele><time>2026-04-28T09:23:36.643Z</time></trkpt><trkpt lat="44.1180117" lon="11.998185"><ele>356.0</ele><time>2026-04-28T09:23:38.643Z</time></trkpt><trkpt lat="44.1179367" lon="11.9981967"><ele>356.3333333333333</ele><time>2026-04-28T09:23:40.643Z</time></trkpt><trkpt lat="44.1178733" lon="11.998205"><ele>356.6666666666667</ele><time>2026-04-28T09:23:42.642Z</time></trkpt><trkpt lat="44.1178033" lon="11.9982117"><ele>357.0</ele><time>2026-04-28T09:23:44.642Z</time></trkpt><trkpt lat="44.1177367" lon="11.9982117"><ele>357.0</ele><time>2026-04-28T09:23:46.643Z</time></trkpt><trkpt lat="44.1176283" lon="11.998235"><ele>357.0</ele><time>2026-04-28T09:23:49.643Z</time></trkpt><trkpt lat="44.117525" lon="11.9982333"><ele>357.0</ele><time>2026-04-28T09:23:51.642Z</time></trkpt><trkpt lat="44.1174517" lon="11.998245"><ele>357.0</ele><time>2026-04-28T09:23:52.642Z</time></trkpt><trkpt lat="44.1173433" lon="11.9982467"><ele>357.0</ele><time>2026-04-28T09:23:54.643Z</time></trkpt><trkpt lat="44.1172517" lon="11.9982417"><ele>356.40000000000003</ele><time>2026-04-28T09:23:56.643Z</time></trkpt><trkpt lat="44.1171667" lon="11.9982483"><ele>355.8</ele><time>2026-04-28T09:23:58.643Z</time></trkpt><trkpt lat="44.1170633" lon="11.9982567"><ele>355.2</ele><time>2026-04-28T09:24:00.643Z</time></trkpt><trkpt lat="44.116955" lon="11.9982633"><ele>354.6</ele><time>2026-04-28T09:24:02.643Z</time></trkpt><trkpt lat="44.1168883" lon="11.99827"><ele>354.0</ele><time>2026-04-28T09:24:03.643Z</time></trkpt><trkpt lat="44.1167967" lon="11.9982883"><ele>354.0</ele><time>2026-04-28T09:24:05.643Z</time></trkpt><trkpt lat="44.11669" lon="11.9983167"><ele>354.0</ele><time>2026-04-28T09:24:07.643Z</time></trkpt><trkpt lat="44.11663" lon="11.998345"><ele>354.0</ele><time>2026-04-28T09:24:08.642Z</time></trkpt><trkpt lat="44.116515" lon="11.9984217"><ele>354.0</ele><time>2026-04-28T09:24:10.643Z</time></trkpt><trkpt lat="44.1164583" lon="11.998465"><ele>354.0</ele><time>2026-04-28T09:24:11.642Z</time></trkpt><trkpt lat="44.1163583" lon="11.9985533"><ele>354.0</ele><time>2026-04-28T09:24:13.643Z</time></trkpt><trkpt lat="44.1162517" lon="11.998655"><ele>354.0</ele><time>2026-04-28T09:24:15.643Z</time></trkpt><trkpt lat="44.1161967" lon="11.9987083"><ele>354.0</ele><time>2026-04-28T09:24:16.642Z</time></trkpt><trkpt lat="44.1161367" lon="11.9987667"><ele>354.0</ele><time>2026-04-28T09:24:17.643Z</time></trkpt><trkpt lat="44.1160817" lon="11.9988267"><ele>354.0</ele><time>2026-04-28T09:24:18.642Z</time></trkpt><trkpt lat="44.116025" lon="11.9988833"><ele>354.0</ele><time>2026-04-28T09:24:19.643Z</time></trkpt><trkpt lat="44.115965" lon="11.9989467"><ele>354.0</ele><time>2026-04-28T09:24:20.642Z</time></trkpt><trkpt lat="44.1158983" lon="11.9990083"><ele>354.0</ele><time>2026-04-28T09:24:21.643Z</time></trkpt><trkpt lat="44.115825" lon="11.9990717"><ele>354.0</ele><time>2026-04-28T09:24:22.643Z</time></trkpt><trkpt lat="44.1157467" lon="11.999135"><ele>354.0</ele><time>2026-04-28T09:24:23.642Z</time></trkpt><trkpt lat="44.115665" lon="11.9991933"><ele>354.0</ele><time>2026-04-28T09:24:24.642Z</time></trkpt><trkpt lat="44.1155767" lon="11.9992417"><ele>354.0</ele><time>2026-04-28T09:24:25.643Z</time></trkpt><trkpt lat="44.1154867" lon="11.9992917"><ele>354.2</ele><time>2026-04-28T09:24:26.643Z</time></trkpt><trkpt lat="44.1153983" lon="11.9993417"><ele>354.4</ele><time>2026-04-28T09:24:27.642Z</time></trkpt><trkpt lat="44.11531" lon="11.9993917"><ele>354.6</ele><time>2026-04-28T09:24:28.643Z</time></trkpt><trkpt lat="44.1152267" lon="11.9994383"><ele>354.8</ele><time>2026-04-28T09:24:29.642Z</time></trkpt><trkpt lat="44.1151433" lon="11.9994933"><ele>355.0</ele><time>2026-04-28T09:24:30.643Z</time></trkpt><trkpt lat="44.1150617" lon="11.999555"><ele>355.0</ele><time>2026-04-28T09:24:31.642Z</time></trkpt><trkpt lat="44.1149867" lon="11.999615"><ele>355.0</ele><time>2026-04-28T09:24:32.642Z</time></trkpt><trkpt lat="44.11492" lon="11.9996733"><ele>355.0</ele><time>2026-04-28T09:24:33.643Z</time></trkpt><trkpt lat="44.114865" lon="11.9997283"><ele>355.0</ele><time>2026-04-28T09:24:34.642Z</time></trkpt><trkpt lat="44.114785" lon="11.9998183"><ele>355.0</ele><time>2026-04-28T09:24:36.643Z</time></trkpt><trkpt lat="44.11474" lon="11.9999017"><ele>355.0</ele><time>2026-04-28T09:24:38.643Z</time></trkpt><trkpt lat="44.1146867" lon="11.999995"><ele>353.5</ele><time>2026-04-28T09:24:40.643Z</time></trkpt><trkpt lat="44.11465" lon="12.0001033"><ele>352.0</ele><time>2026-04-28T09:24:43.642Z</time></trkpt><trkpt lat="44.11464" lon="12.0002017"><ele>350.5</ele><time>2026-04-28T09:24:45.642Z</time></trkpt><trkpt lat="44.11464" lon="12.0003033"><ele>349.0</ele><time>2026-04-28T09:24:47.643Z</time></trkpt><trkpt lat="44.1146367" lon="12.0004067"><ele>347.5</ele><time>2026-04-28T09:24:49.643Z</time></trkpt><trkpt lat="44.1146433" lon="12.0005167"><ele>346.0</ele><time>2026-04-28T09:24:51.643Z</time></trkpt><trkpt lat="44.1146517" lon="12.00063"><ele>346.0</ele><time>2026-04-28T09:24:53.642Z</time></trkpt><trkpt lat="44.1146633" lon="12.0007433"><ele>346.0</ele><time>2026-04-28T09:24:55.643Z</time></trkpt><trkpt lat="44.114685" lon="12.0008483"><ele>346.0</ele><time>2026-04-28T09:24:57.642Z</time></trkpt><trkpt lat="44.1147183" lon="12.00095"><ele>346.0</ele><time>2026-04-28T09:24:59.643Z</time></trkpt><trkpt lat="44.1147517" lon="12.001045"><ele>346.0</ele><time>2026-04-28T09:25:01.643Z</time></trkpt><trkpt lat="44.1147717" lon="12.0011367"><ele>346.0</ele><time>2026-04-28T09:25:03.643Z</time></trkpt><trkpt lat="44.1147933" lon="12.0012667"><ele>345.0</ele><time>2026-04-28T09:25:06.643Z</time></trkpt><trkpt lat="44.1148" lon="12.0013667"><ele>344.0</ele><time>2026-04-28T09:25:08.643Z</time></trkpt><trkpt lat="44.1147883" lon="12.00149"><ele>343.0</ele><time>2026-04-28T09:25:11.642Z</time></trkpt><trkpt lat="44.1147733" lon="12.0015983"><ele>342.0</ele><time>2026-04-28T09:25:14.643Z</time></trkpt><trkpt lat="44.114755" lon="12.001685"><ele>341.0</ele><time>2026-04-28T09:25:16.642Z</time></trkpt><trkpt lat="44.1147183" lon="12.0017967"><ele>340.0</ele><time>2026-04-28T09:25:19.643Z</time></trkpt><trkpt lat="44.11469" lon="12.0018917"><ele>340.0</ele><time>2026-04-28T09:25:21.643Z</time></trkpt><trkpt lat="44.1146783" lon="12.001985"><ele>340.0</ele><time>2026-04-28T09:25:23.642Z</time></trkpt><trkpt lat="44.11466" lon="12.002115"><ele>340.0</ele><time>2026-04-28T09:25:26.642Z</time></trkpt><trkpt lat="44.1146533" lon="12.0022067"><ele>340.0</ele><time>2026-04-28T09:25:28.643Z</time></trkpt><trkpt lat="44.1146517" lon="12.00231"><ele>340.0</ele><time>2026-04-28T09:25:30.643Z</time></trkpt><trkpt lat="44.1146517" lon="12.0024183"><ele>340.0</ele><time>2026-04-28T09:25:32.643Z</time></trkpt><trkpt lat="44.1146567" lon="12.0025267"><ele>340.3333333333333</ele><time>2026-04-28T09:25:34.643Z</time></trkpt><trkpt lat="44.1146533" lon="12.0026233"><ele>340.66666666666663</ele><time>2026-04-28T09:25:36.642Z</time></trkpt><trkpt lat="44.114655" lon="12.0027333"><ele>341.0</ele><time>2026-04-28T09:25:38.643Z</time></trkpt><trkpt lat="44.11466" lon="12.0028333"><ele>341.3333333333333</ele><time>2026-04-28T09:25:40.643Z</time></trkpt><trkpt lat="44.1146733" lon="12.0029667"><ele>341.6666666666667</ele><time>2026-04-28T09:25:42.643Z</time></trkpt><trkpt lat="44.1146817" lon="12.0030717"><ele>342.0</ele><time>2026-04-28T09:25:44.643Z</time></trkpt><trkpt lat="44.1146683" lon="12.00318"><ele>342.0</ele><time>2026-04-28T09:25:46.642Z</time></trkpt><trkpt lat="44.1146633" lon="12.0033"><ele>342.0</ele><time>2026-04-28T09:25:48.642Z</time></trkpt><trkpt lat="44.1146583" lon="12.0034183"><ele>342.0</ele><time>2026-04-28T09:25:50.643Z</time></trkpt><trkpt lat="44.1146617" lon="12.0035517"><ele>342.0</ele><time>2026-04-28T09:25:52.642Z</time></trkpt><trkpt lat="44.1146683" lon="12.0036967"><ele>342.0</ele><time>2026-04-28T09:25:54.643Z</time></trkpt><trkpt lat="44.1146733" lon="12.0038617"><ele>343.5</ele><time>2026-04-28T09:25:56.643Z</time></trkpt><trkpt lat="44.1146767" lon="12.0039533"><ele>345.0</ele><time>2026-04-28T09:25:57.643Z</time></trkpt><trkpt lat="44.1146783" lon="12.0040467"><ele>346.5</ele><time>2026-04-28T09:25:58.643Z</time></trkpt><trkpt lat="44.1146817" lon="12.0041483"><ele>348.0</ele><time>2026-04-28T09:25:59.643Z</time></trkpt><trkpt lat="44.11468" lon="12.00426"><ele>349.5</ele><time>2026-04-28T09:26:00.643Z</time></trkpt><trkpt lat="44.1146833" lon="12.00438"><ele>351.0</ele><time>2026-04-28T09:26:01.642Z</time></trkpt><trkpt lat="44.1146883" lon="12.0044983"><ele>352.00000000000006</ele><time>2026-04-28T09:26:02.642Z</time></trkpt><trkpt lat="44.1146917" lon="12.0046167"><ele>353.0</ele><time>2026-04-28T09:26:03.642Z</time></trkpt><trkpt lat="44.1146933" lon="12.0047217"><ele>354.0</ele><time>2026-04-28T09:26:04.643Z</time></trkpt><trkpt lat="44.114695" lon="12.00482"><ele>355.0</ele><time>2026-04-28T09:26:05.642Z</time></trkpt><trkpt lat="44.114695" lon="12.0049133"><ele>356.0</ele><time>2026-04-28T09:26:06.643Z</time></trkpt><trkpt lat="44.114695" lon="12.005005"><ele>357.00000000000006</ele><time>2026-04-28T09:26:07.642Z</time></trkpt><trkpt lat="44.1146967" lon="12.005095"><ele>358.0</ele><time>2026-04-28T09:26:08.643Z</time></trkpt><trkpt lat="44.1146983" lon="12.0051833"><ele>358.59999999999997</ele><time>2026-04-28T09:26:09.643Z</time></trkpt><trkpt lat="44.114705" lon="12.005325"><ele>359.2</ele><time>2026-04-28T09:26:11.642Z</time></trkpt><trkpt lat="44.1147067" lon="12.00549"><ele>359.8</ele><time>2026-04-28T09:26:13.642Z</time></trkpt><trkpt lat="44.1147067" lon="12.0055783"><ele>360.4</ele><time>2026-04-28T09:26:14.643Z</time></trkpt><trkpt lat="44.11471" lon="12.0057367"><ele>361.0</ele><time>2026-04-28T09:26:16.643Z</time></trkpt><trkpt lat="44.114715" lon="12.005905"><ele>362.6</ele><time>2026-04-28T09:26:18.643Z</time></trkpt><trkpt lat="44.11472" lon="12.006055"><ele>364.20000000000005</ele><time>2026-04-28T09:26:20.642Z</time></trkpt><trkpt lat="44.114715" lon="12.0061983"><ele>365.79999999999995</ele><time>2026-04-28T09:26:22.642Z</time></trkpt><trkpt lat="44.1147183" lon="12.00634"><ele>367.4</ele><time>2026-04-28T09:26:24.642Z</time></trkpt><trkpt lat="44.114715" lon="12.0064517"><ele>369.0</ele><time>2026-04-28T09:26:26.643Z</time></trkpt><trkpt lat="44.1147083" lon="12.0065517"><ele>369.4</ele><time>2026-04-28T09:26:28.643Z</time></trkpt><trkpt lat="44.114705" lon="12.0066617"><ele>369.79999999999995</ele><time>2026-04-28T09:26:30.642Z</time></trkpt><trkpt lat="44.1147067" lon="12.0067933"><ele>370.20000000000005</ele><time>2026-04-28T09:26:32.642Z</time></trkpt><trkpt lat="44.1147067" lon="12.0069267"><ele>370.6</ele><time>2026-04-28T09:26:34.642Z</time></trkpt><trkpt lat="44.1147167" lon="12.00706"><ele>371.0</ele><time>2026-04-28T09:26:36.642Z</time></trkpt><trkpt lat="44.114725" lon="12.0072"><ele>371.0</ele><time>2026-04-28T09:26:38.643Z</time></trkpt><trkpt lat="44.1147133" lon="12.00735"><ele>371.0</ele><time>2026-04-28T09:26:40.642Z</time></trkpt><trkpt lat="44.114675" lon="12.0074983"><ele>371.0</ele><time>2026-04-28T09:26:42.642Z</time></trkpt><trkpt lat="44.114645" lon="12.0075767"><ele>371.0</ele><time>2026-04-28T09:26:43.643Z</time></trkpt><trkpt lat="44.1145567" lon="12.0077"><ele>371.0</ele><time>2026-04-28T09:26:45.642Z</time></trkpt><trkpt lat="44.114445" lon="12.0077867"><ele>371.14285714285717</ele><time>2026-04-28T09:26:47.643Z</time></trkpt><trkpt lat="44.1143817" lon="12.0078333"><ele>371.2857142857143</ele><time>2026-04-28T09:26:48.643Z</time></trkpt><trkpt lat="44.1143167" lon="12.0078817"><ele>371.42857142857144</ele><time>2026-04-28T09:26:49.642Z</time></trkpt><trkpt lat="44.1142533" lon="12.0079317"><ele>371.57142857142856</ele><time>2026-04-28T09:26:50.642Z</time></trkpt><trkpt lat="44.1141967" lon="12.0079883"><ele>371.7142857142857</ele><time>2026-04-28T09:26:51.643Z</time></trkpt><trkpt lat="44.1141433" lon="12.0080517"><ele>371.8571428571429</ele><time>2026-04-28T09:26:52.642Z</time></trkpt><trkpt lat="44.1140917" lon="12.008115"><ele>372.0</ele><time>2026-04-28T09:26:53.643Z</time></trkpt><trkpt lat="44.114045" lon="12.0081867"><ele>372.0</ele><time>2026-04-28T09:26:54.643Z</time></trkpt><trkpt lat="44.1140017" lon="12.0082617"><ele>372.0</ele><time>2026-04-28T09:26:55.643Z</time></trkpt><trkpt lat="44.1139583" lon="12.008345"><ele>372.0</ele><time>2026-04-28T09:26:56.643Z</time></trkpt><trkpt lat="44.1139117" lon="12.0084333"><ele>372.0</ele><time>2026-04-28T09:26:57.643Z</time></trkpt><trkpt lat="44.1138617" lon="12.008525"><ele>372.0</ele><time>2026-04-28T09:26:58.642Z</time></trkpt><trkpt lat="44.1138067" lon="12.008625"><ele>372.0</ele><time>2026-04-28T09:26:59.642Z</time></trkpt><trkpt lat="44.1137533" lon="12.008725"><ele>370.5</ele><time>2026-04-28T09:27:00.643Z</time></trkpt><trkpt lat="44.1137017" lon="12.008815"><ele>369.0</ele><time>2026-04-28T09:27:01.643Z</time></trkpt><trkpt lat="44.1136533" lon="12.0089133"><ele>367.5</ele><time>2026-04-28T09:27:02.643Z</time></trkpt><trkpt lat="44.1136167" lon="12.0090233"><ele>366.0</ele><time>2026-04-28T09:27:03.643Z</time></trkpt><trkpt lat="44.1135833" lon="12.0091383"><ele>364.5</ele><time>2026-04-28T09:27:04.643Z</time></trkpt><trkpt lat="44.1135533" lon="12.009245"><ele>363.0</ele><time>2026-04-28T09:27:05.642Z</time></trkpt><trkpt lat="44.11352" lon="12.0093717"><ele>361.4</ele><time>2026-04-28T09:27:06.643Z</time></trkpt><trkpt lat="44.1134917" lon="12.0094933"><ele>359.79999999999995</ele><time>2026-04-28T09:27:07.642Z</time></trkpt><trkpt lat="44.1134617" lon="12.0096167"><ele>358.2</ele><time>2026-04-28T09:27:08.642Z</time></trkpt><trkpt lat="44.113435" lon="12.00974"><ele>356.6</ele><time>2026-04-28T09:27:09.643Z</time></trkpt><trkpt lat="44.11342" lon="12.0098783"><ele>355.0</ele><time>2026-04-28T09:27:10.642Z</time></trkpt><trkpt lat="44.1134267" lon="12.010005"><ele>354.2</ele><time>2026-04-28T09:27:11.643Z</time></trkpt><trkpt lat="44.1134533" lon="12.0101217"><ele>353.4</ele><time>2026-04-28T09:27:12.643Z</time></trkpt><trkpt lat="44.1135017" lon="12.01023"><ele>352.6</ele><time>2026-04-28T09:27:13.643Z</time></trkpt><trkpt lat="44.11357" lon="12.01032"><ele>351.8</ele><time>2026-04-28T09:27:14.642Z</time></trkpt><trkpt lat="44.11364" lon="12.0104183"><ele>351.0</ele><time>2026-04-28T09:27:15.642Z</time></trkpt><trkpt lat="44.1136967" lon="12.0105167"><ele>351.0</ele><time>2026-04-28T09:27:16.642Z</time></trkpt><trkpt lat="44.1137433" lon="12.0106267"><ele>351.0</ele><time>2026-04-28T09:27:17.642Z</time></trkpt><trkpt lat="44.1137567" lon="12.0107433"><ele>351.0</ele><time>2026-04-28T09:27:18.643Z</time></trkpt><trkpt lat="44.1137367" lon="12.0108617"><ele>351.0</ele><time>2026-04-28T09:27:19.643Z</time></trkpt><trkpt lat="44.1137233" lon="12.01099"><ele>351.0</ele><time>2026-04-28T09:27:20.642Z</time></trkpt><trkpt lat="44.1136983" lon="12.0111"><ele>351.0</ele><time>2026-04-28T09:27:21.642Z</time></trkpt><trkpt lat="44.1136867" lon="12.0112117"><ele>351.42857142857144</ele><time>2026-04-28T09:27:22.643Z</time></trkpt><trkpt lat="44.11369" lon="12.0113017"><ele>351.8571428571429</ele><time>2026-04-28T09:27:23.642Z</time></trkpt><trkpt lat="44.1137167" lon="12.0113917"><ele>352.28571428571433</ele><time>2026-04-28T09:27:24.642Z</time></trkpt><trkpt lat="44.1137517" lon="12.0114667"><ele>352.7142857142857</ele><time>2026-04-28T09:27:25.643Z</time></trkpt><trkpt lat="44.113805" lon="12.011525"><ele>353.1428571428571</ele><time>2026-04-28T09:27:26.643Z</time></trkpt><trkpt lat="44.1138733" lon="12.0115583"><ele>353.5714285714286</ele><time>2026-04-28T09:27:27.642Z</time></trkpt><trkpt lat="44.1139467" lon="12.01158"><ele>354.0</ele><time>2026-04-28T09:27:28.642Z</time></trkpt><trkpt lat="44.1140167" lon="12.0115883"><ele>352.2</ele><time>2026-04-28T09:27:29.643Z</time></trkpt><trkpt lat="44.1140883" lon="12.0115717"><ele>350.4</ele><time>2026-04-28T09:27:30.643Z</time></trkpt><trkpt lat="44.1141517" lon="12.0115517"><ele>348.6</ele><time>2026-04-28T09:27:31.643Z</time></trkpt><trkpt lat="44.11427" lon="12.0115383"><ele>346.8</ele><time>2026-04-28T09:27:33.642Z</time></trkpt><trkpt lat="44.1143633" lon="12.0116233"><ele>345.0</ele><time>2026-04-28T09:27:35.643Z</time></trkpt><trkpt lat="44.1144" lon="12.011745"><ele>345.0</ele><time>2026-04-28T09:27:37.642Z</time></trkpt><trkpt lat="44.1144167" lon="12.0118817"><ele>345.0</ele><time>2026-04-28T09:27:39.643Z</time></trkpt><trkpt lat="44.1144383" lon="12.0120333"><ele>345.0</ele><time>2026-04-28T09:27:41.642Z</time></trkpt><trkpt lat="44.114465" lon="12.0121817"><ele>345.0</ele><time>2026-04-28T09:27:43.643Z</time></trkpt><trkpt lat="44.1144867" lon="12.0122667"><ele>345.0</ele><time>2026-04-28T09:27:44.643Z</time></trkpt><trkpt lat="44.11452" lon="12.01242"><ele>346.0</ele><time>2026-04-28T09:27:46.643Z</time></trkpt><trkpt lat="44.11455" lon="12.01255"><ele>347.0</ele><time>2026-04-28T09:27:48.642Z</time></trkpt><trkpt lat="44.1145733" lon="12.0126717"><ele>348.0</ele><time>2026-04-28T09:27:50.642Z</time></trkpt><trkpt lat="44.1145917" lon="12.0127967"><ele>349.0</ele><time>2026-04-28T09:27:52.642Z</time></trkpt><trkpt lat="44.1146067" lon="12.0129217"><ele>350.0</ele><time>2026-04-28T09:27:54.642Z</time></trkpt><trkpt lat="44.11463" lon="12.01305"><ele>350.0</ele><time>2026-04-28T09:27:56.642Z</time></trkpt><trkpt lat="44.11465" lon="12.0131733"><ele>350.0</ele><time>2026-04-28T09:27:58.642Z</time></trkpt><trkpt lat="44.1146683" lon="12.0133067"><ele>350.0</ele><time>2026-04-28T09:28:00.643Z</time></trkpt><trkpt lat="44.114685" lon="12.0134317"><ele>350.0</ele><time>2026-04-28T09:28:02.643Z</time></trkpt><trkpt lat="44.114705" lon="12.0135717"><ele>350.0</ele><time>2026-04-28T09:28:04.643Z</time></trkpt><trkpt lat="44.11474" lon="12.0137367"><ele>350.0</ele><time>2026-04-28T09:28:06.642Z</time></trkpt><trkpt lat="44.1147717" lon="12.01382"><ele>350.0</ele><time>2026-04-28T09:28:07.642Z</time></trkpt><trkpt lat="44.11481" lon="12.0138967"><ele>350.0</ele><time>2026-04-28T09:28:08.643Z</time></trkpt><trkpt lat="44.11486" lon="12.0139783"><ele>350.0</ele><time>2026-04-28T09:28:09.643Z</time></trkpt><trkpt lat="44.1149167" lon="12.0140467"><ele>350.0</ele><time>2026-04-28T09:28:10.642Z</time></trkpt><trkpt lat="44.1149817" lon="12.014115"><ele>350.0</ele><time>2026-04-28T09:28:11.642Z</time></trkpt><trkpt lat="44.1150567" lon="12.014185"><ele>346.6</ele><time>2026-04-28T09:28:12.643Z</time></trkpt><trkpt lat="44.115135" lon="12.0142533"><ele>343.2</ele><time>2026-04-28T09:28:13.642Z</time></trkpt><trkpt lat="44.1152167" lon="12.0143367"><ele>339.79999999999995</ele><time>2026-04-28T09:28:14.642Z</time></trkpt><trkpt lat="44.1152933" lon="12.0144133"><ele>336.4</ele><time>2026-04-28T09:28:15.643Z</time></trkpt><trkpt lat="44.1153767" lon="12.0144933"><ele>333.0</ele><time>2026-04-28T09:28:16.643Z</time></trkpt><trkpt lat="44.1154533" lon="12.01457"><ele>333.0</ele><time>2026-04-28T09:28:17.642Z</time></trkpt><trkpt lat="44.1155333" lon="12.0146483"><ele>333.0</ele><time>2026-04-28T09:28:18.643Z</time></trkpt><trkpt lat="44.115615" lon="12.014725"><ele>333.0</ele><time>2026-04-28T09:28:19.643Z</time></trkpt><trkpt lat="44.1156917" lon="12.0148"><ele>333.0</ele><time>2026-04-28T09:28:20.643Z</time></trkpt><trkpt lat="44.11577" lon="12.01487"><ele>333.0</ele><time>2026-04-28T09:28:21.643Z</time></trkpt><trkpt lat="44.1158517" lon="12.0149367"><ele>331.2</ele><time>2026-04-28T09:28:22.642Z</time></trkpt><trkpt lat="44.1159267" lon="12.0150117"><ele>329.4</ele><time>2026-04-28T09:28:23.642Z</time></trkpt><trkpt lat="44.1160017" lon="12.0150817"><ele>327.59999999999997</ele><time>2026-04-28T09:28:24.642Z</time></trkpt><trkpt lat="44.1160783" lon="12.01515"><ele>325.79999999999995</ele><time>2026-04-28T09:28:25.642Z</time></trkpt><trkpt lat="44.1161533" lon="12.0152183"><ele>324.0</ele><time>2026-04-28T09:28:26.642Z</time></trkpt><trkpt lat="44.1162283" lon="12.01529"><ele>324.0</ele><time>2026-04-28T09:28:27.643Z</time></trkpt><trkpt lat="44.1162983" lon="12.01536"><ele>324.0</ele><time>2026-04-28T09:28:28.642Z</time></trkpt><trkpt lat="44.1163733" lon="12.0154333"><ele>324.0</ele><time>2026-04-28T09:28:29.643Z</time></trkpt><trkpt lat="44.116445" lon="12.0155067"><ele>324.0</ele><time>2026-04-28T09:28:30.642Z</time></trkpt><trkpt lat="44.1165167" lon="12.01558"><ele>324.0</ele><time>2026-04-28T09:28:31.643Z</time></trkpt><trkpt lat="44.11659" lon="12.01565"><ele>324.0</ele><time>2026-04-28T09:28:32.643Z</time></trkpt><trkpt lat="44.11666" lon="12.01571"><ele>324.3333333333333</ele><time>2026-04-28T09:28:33.643Z</time></trkpt><trkpt lat="44.1167333" lon="12.0157583"><ele>324.6666666666667</ele><time>2026-04-28T09:28:34.642Z</time></trkpt><trkpt lat="44.1168133" lon="12.0157833"><ele>325.0</ele><time>2026-04-28T09:28:35.643Z</time></trkpt><trkpt lat="44.1168917" lon="12.015795"><ele>325.33333333333337</ele><time>2026-04-28T09:28:36.642Z</time></trkpt><trkpt lat="44.1169583" lon="12.0157883"><ele>325.6666666666667</ele><time>2026-04-28T09:28:37.642Z</time></trkpt><trkpt lat="44.1170317" lon="12.0157517"><ele>326.0</ele><time>2026-04-28T09:28:38.642Z</time></trkpt><trkpt lat="44.117105" lon="12.0156883"><ele>326.0</ele><time>2026-04-28T09:28:39.643Z</time></trkpt><trkpt lat="44.1171783" lon="12.0156167"><ele>326.0</ele><time>2026-04-28T09:28:40.642Z</time></trkpt><trkpt lat="44.1172567" lon="12.01554"><ele>326.0</ele><time>2026-04-28T09:28:41.643Z</time></trkpt><trkpt lat="44.1173383" lon="12.0154583"><ele>326.0</ele><time>2026-04-28T09:28:42.643Z</time></trkpt><trkpt lat="44.1174167" lon="12.0153783"><ele>326.0</ele><time>2026-04-28T09:28:43.643Z</time></trkpt><trkpt lat="44.1174917" lon="12.0153"><ele>323.83333333333337</ele><time>2026-04-28T09:28:44.643Z</time></trkpt><trkpt lat="44.1175683" lon="12.0152233"><ele>321.6666666666667</ele><time>2026-04-28T09:28:45.643Z</time></trkpt><trkpt lat="44.1176417" lon="12.0151483"><ele>319.5</ele><time>2026-04-28T09:28:46.642Z</time></trkpt><trkpt lat="44.117715" lon="12.0150917"><ele>317.3333333333333</ele><time>2026-04-28T09:28:47.642Z</time></trkpt><trkpt lat="44.1177883" lon="12.0150583"><ele>315.16666666666663</ele><time>2026-04-28T09:28:48.642Z</time></trkpt><trkpt lat="44.1178633" lon="12.0150517"><ele>313.0</ele><time>2026-04-28T09:28:49.641Z</time></trkpt><trkpt lat="44.1179383" lon="12.0150833"><ele>313.0</ele><time>2026-04-28T09:28:50.642Z</time></trkpt><trkpt lat="44.1180217" lon="12.0151367"><ele>313.0</ele><time>2026-04-28T09:28:51.642Z</time></trkpt><trkpt lat="44.1181033" lon="12.01522"><ele>313.0</ele><time>2026-04-28T09:28:52.642Z</time></trkpt><trkpt lat="44.118185" lon="12.0153133"><ele>313.0</ele><time>2026-04-28T09:28:53.642Z</time></trkpt><trkpt lat="44.1182717" lon="12.0154083"><ele>313.0</ele><time>2026-04-28T09:28:54.642Z</time></trkpt><trkpt lat="44.1183617" lon="12.0154967"><ele>309.5</ele><time>2026-04-28T09:28:55.642Z</time></trkpt><trkpt lat="44.1184567" lon="12.0155833"><ele>306.0</ele><time>2026-04-28T09:28:56.641Z</time></trkpt><trkpt lat="44.1185517" lon="12.0156783"><ele>302.5</ele><time>2026-04-28T09:28:57.641Z</time></trkpt><trkpt lat="44.1186417" lon="12.0157717"><ele>299.0</ele><time>2026-04-28T09:28:58.641Z</time></trkpt><trkpt lat="44.1187317" lon="12.01586"><ele>299.0</ele><time>2026-04-28T09:28:59.641Z</time></trkpt><trkpt lat="44.118825" lon="12.0159467"><ele>299.0</ele><time>2026-04-28T09:29:00.642Z</time></trkpt><trkpt lat="44.118905" lon="12.0160267"><ele>299.0</ele><time>2026-04-28T09:29:01.641Z</time></trkpt><trkpt lat="44.1189817" lon="12.0161117"><ele>299.0</ele><time>2026-04-28T09:29:02.642Z</time></trkpt><trkpt lat="44.1190533" lon="12.016205"><ele>299.0</ele><time>2026-04-28T09:29:03.641Z</time></trkpt><trkpt lat="44.1191117" lon="12.01632"><ele>296.2</ele><time>2026-04-28T09:29:04.641Z</time></trkpt><trkpt lat="44.1191617" lon="12.0164533"><ele>293.4</ele><time>2026-04-28T09:29:05.641Z</time></trkpt><trkpt lat="44.1192033" lon="12.0165867"><ele>290.6</ele><time>2026-04-28T09:29:06.642Z</time></trkpt><trkpt lat="44.119245" lon="12.0167167"><ele>287.8</ele><time>2026-04-28T09:29:07.641Z</time></trkpt><trkpt lat="44.1192967" lon="12.01686"><ele>285.0</ele><time>2026-04-28T09:29:08.642Z</time></trkpt><trkpt lat="44.1193533" lon="12.0169817"><ele>284.8</ele><time>2026-04-28T09:29:09.641Z</time></trkpt><trkpt lat="44.11942" lon="12.017085"><ele>284.6</ele><time>2026-04-28T09:29:10.642Z</time></trkpt><trkpt lat="44.1194983" lon="12.0171667"><ele>284.4</ele><time>2026-04-28T09:29:11.642Z</time></trkpt><trkpt lat="44.1196" lon="12.0172483"><ele>284.2</ele><time>2026-04-28T09:29:12.642Z</time></trkpt><trkpt lat="44.1196917" lon="12.01731"><ele>284.0</ele><time>2026-04-28T09:29:13.642Z</time></trkpt><trkpt lat="44.1197883" lon="12.0173783"><ele>284.0</ele><time>2026-04-28T09:29:14.642Z</time></trkpt><trkpt lat="44.1198833" lon="12.017435"><ele>284.0</ele><time>2026-04-28T09:29:15.642Z</time></trkpt><trkpt lat="44.1199817" lon="12.0175017"><ele>284.0</ele><time>2026-04-28T09:29:16.642Z</time></trkpt><trkpt lat="44.1200717" lon="12.0175567"><ele>284.0</ele><time>2026-04-28T09:29:17.641Z</time></trkpt><trkpt lat="44.1201567" lon="12.01761"><ele>284.0</ele><time>2026-04-28T09:29:18.641Z</time></trkpt><trkpt lat="44.1202367" lon="12.0176617"><ele>282.5</ele><time>2026-04-28T09:29:19.641Z</time></trkpt><trkpt lat="44.1203217" lon="12.017715"><ele>281.0</ele><time>2026-04-28T09:29:20.642Z</time></trkpt><trkpt lat="44.1204" lon="12.0177633"><ele>279.5</ele><time>2026-04-28T09:29:21.641Z</time></trkpt><trkpt lat="44.1204683" lon="12.0178183"><ele>278.0</ele><time>2026-04-28T09:29:22.642Z</time></trkpt><trkpt lat="44.12054" lon="12.0178717"><ele>276.5</ele><time>2026-04-28T09:29:23.642Z</time></trkpt><trkpt lat="44.12061" lon="12.017915"><ele>275.0</ele><time>2026-04-28T09:29:24.641Z</time></trkpt><trkpt lat="44.1206733" lon="12.0179583"><ele>275.5</ele><time>2026-04-28T09:29:25.642Z</time></trkpt><trkpt lat="44.1207367" lon="12.0179983"><ele>276.0</ele><time>2026-04-28T09:29:26.641Z</time></trkpt><trkpt lat="44.1208" lon="12.01804"><ele>276.5</ele><time>2026-04-28T09:29:27.642Z</time></trkpt><trkpt lat="44.1208633" lon="12.018075"><ele>277.0</ele><time>2026-04-28T09:29:28.642Z</time></trkpt><trkpt lat="44.1209717" lon="12.0181333"><ele>277.5</ele><time>2026-04-28T09:29:30.641Z</time></trkpt><trkpt lat="44.1210733" lon="12.0181933"><ele>278.0</ele><time>2026-04-28T09:29:32.641Z</time></trkpt><trkpt lat="44.1211683" lon="12.018255"><ele>278.0</ele><time>2026-04-28T09:29:34.641Z</time></trkpt><trkpt lat="44.121265" lon="12.01832"><ele>278.0</ele><time>2026-04-28T09:29:36.641Z</time></trkpt><trkpt lat="44.1213767" lon="12.0183717"><ele>278.0</ele><time>2026-04-28T09:29:38.642Z</time></trkpt><trkpt lat="44.1214833" lon="12.01842"><ele>278.0</ele><time>2026-04-28T09:29:40.642Z</time></trkpt><trkpt lat="44.121595" lon="12.018475"><ele>278.0</ele><time>2026-04-28T09:29:42.641Z</time></trkpt><trkpt lat="44.121655" lon="12.0185167"><ele>278.0</ele><time>2026-04-28T09:29:43.641Z</time></trkpt><trkpt lat="44.1217133" lon="12.0185633"><ele>278.0</ele><time>2026-04-28T09:29:44.641Z</time></trkpt><trkpt lat="44.12177" lon="12.0186117"><ele>278.0</ele><time>2026-04-28T09:29:45.641Z</time></trkpt><trkpt lat="44.1218233" lon="12.0186717"><ele>278.0</ele><time>2026-04-28T09:29:46.642Z</time></trkpt><trkpt lat="44.1218767" lon="12.0187317"><ele>278.0</ele><time>2026-04-28T09:29:47.641Z</time></trkpt><trkpt lat="44.121925" lon="12.0187967"><ele>278.0</ele><time>2026-04-28T09:29:48.642Z</time></trkpt><trkpt lat="44.121975" lon="12.0188733"><ele>278.0</ele><time>2026-04-28T09:29:49.641Z</time></trkpt><trkpt lat="44.1220283" lon="12.0189567"><ele>278.0</ele><time>2026-04-28T09:29:50.642Z</time></trkpt><trkpt lat="44.122085" lon="12.0190383"><ele>278.0</ele><time>2026-04-28T09:29:51.642Z</time></trkpt><trkpt lat="44.122145" lon="12.0191233"><ele>278.0</ele><time>2026-04-28T09:29:52.642Z</time></trkpt><trkpt lat="44.122205" lon="12.019215"><ele>278.0</ele><time>2026-04-28T09:29:53.642Z</time></trkpt><trkpt lat="44.122265" lon="12.0192933"><ele>278.0</ele><time>2026-04-28T09:29:54.642Z</time></trkpt><trkpt lat="44.1223217" lon="12.0193783"><ele>277.0</ele><time>2026-04-28T09:29:55.642Z</time></trkpt><trkpt lat="44.1223767" lon="12.019465"><ele>276.0</ele><time>2026-04-28T09:29:56.642Z</time></trkpt><trkpt lat="44.1224317" lon="12.01955"><ele>275.0</ele><time>2026-04-28T09:29:57.642Z</time></trkpt><trkpt lat="44.1224867" lon="12.019625"><ele>274.0</ele><time>2026-04-28T09:29:58.642Z</time></trkpt><trkpt lat="44.12254" lon="12.0197033"><ele>273.0</ele><time>2026-04-28T09:29:59.642Z</time></trkpt><trkpt lat="44.1225883" lon="12.019785"><ele>272.0</ele><time>2026-04-28T09:30:00.642Z</time></trkpt><trkpt lat="44.1226383" lon="12.01986"><ele>272.0</ele><time>2026-04-28T09:30:01.642Z</time></trkpt><trkpt lat="44.122685" lon="12.0199383"><ele>272.0</ele><time>2026-04-28T09:30:02.641Z</time></trkpt><trkpt lat="44.1227267" lon="12.0200083"><ele>272.0</ele><time>2026-04-28T09:30:03.641Z</time></trkpt><trkpt lat="44.1228017" lon="12.0201183"><ele>272.0</ele><time>2026-04-28T09:30:05.642Z</time></trkpt><trkpt lat="44.1228633" lon="12.0202133"><ele>272.0</ele><time>2026-04-28T09:30:07.642Z</time></trkpt><trkpt lat="44.1229183" lon="12.0203017"><ele>272.0</ele><time>2026-04-28T09:30:09.642Z</time></trkpt><trkpt lat="44.1229567" lon="12.0203717"><ele>272.2</ele><time>2026-04-28T09:30:11.642Z</time></trkpt><trkpt lat="44.1230233" lon="12.0204483"><ele>272.4</ele><time>2026-04-28T09:30:14.642Z</time></trkpt><trkpt lat="44.1230733" lon="12.0205083"><ele>272.6</ele><time>2026-04-28T09:30:17.641Z</time></trkpt><trkpt lat="44.123115" lon="12.0205817"><ele>272.8</ele><time>2026-04-28T09:30:20.642Z</time></trkpt><trkpt lat="44.123225" lon="12.02072"><ele>273.0</ele><time>2026-04-28T09:30:38.642Z</time></trkpt><trkpt lat="44.1232933" lon="12.0208217"><ele>274.1666666666667</ele><time>2026-04-28T09:30:46.641Z</time></trkpt><trkpt lat="44.1233433" lon="12.020925"><ele>275.3333333333333</ele><time>2026-04-28T09:30:49.641Z</time></trkpt><trkpt lat="44.1233833" lon="12.0209933"><ele>276.5</ele><time>2026-04-28T09:30:51.642Z</time></trkpt><trkpt lat="44.1234367" lon="12.02109"><ele>277.66666666666663</ele><time>2026-04-28T09:30:54.641Z</time></trkpt><trkpt lat="44.123465" lon="12.0211717"><ele>278.8333333333333</ele><time>2026-04-28T09:30:56.642Z</time></trkpt><trkpt lat="44.1234983" lon="12.0212583"><ele>280.0</ele><time>2026-04-28T09:30:58.642Z</time></trkpt><trkpt lat="44.1235267" lon="12.0213567"><ele>280.0</ele><time>2026-04-28T09:31:00.641Z</time></trkpt><trkpt lat="44.123565" lon="12.0214717"><ele>280.0</ele><time>2026-04-28T09:31:02.642Z</time></trkpt><trkpt lat="44.123605" lon="12.02159"><ele>280.0</ele><time>2026-04-28T09:31:04.641Z</time></trkpt><trkpt lat="44.1236517" lon="12.0217083"><ele>280.0</ele><time>2026-04-28T09:31:06.642Z</time></trkpt><trkpt lat="44.1236967" lon="12.02182"><ele>280.0</ele><time>2026-04-28T09:31:08.642Z</time></trkpt><trkpt lat="44.1237467" lon="12.0219333"><ele>279.3333333333333</ele><time>2026-04-28T09:31:10.641Z</time></trkpt><trkpt lat="44.1237867" lon="12.0220417"><ele>278.66666666666663</ele><time>2026-04-28T09:31:12.641Z</time></trkpt><trkpt lat="44.12382" lon="12.02214"><ele>278.0</ele><time>2026-04-28T09:31:14.641Z</time></trkpt><trkpt lat="44.1238633" lon="12.0222333"><ele>277.3333333333333</ele><time>2026-04-28T09:31:16.642Z</time></trkpt><trkpt lat="44.1239" lon="12.022325"><ele>276.6666666666667</ele><time>2026-04-28T09:31:18.641Z</time></trkpt><trkpt lat="44.1239333" lon="12.0224167"><ele>276.0</ele><time>2026-04-28T09:31:20.641Z</time></trkpt><trkpt lat="44.12397" lon="12.0225283"><ele>276.3333333333333</ele><time>2026-04-28T09:31:22.641Z</time></trkpt><trkpt lat="44.124005" lon="12.02263"><ele>276.6666666666667</ele><time>2026-04-28T09:31:24.641Z</time></trkpt><trkpt lat="44.1240367" lon="12.0227267"><ele>277.0</ele><time>2026-04-28T09:31:26.642Z</time></trkpt><trkpt lat="44.1240717" lon="12.0228267"><ele>277.33333333333337</ele><time>2026-04-28T09:31:28.642Z</time></trkpt><trkpt lat="44.124105" lon="12.0229267"><ele>277.6666666666667</ele><time>2026-04-28T09:31:30.641Z</time></trkpt><trkpt lat="44.12414" lon="12.023035"><ele>278.0</ele><time>2026-04-28T09:31:32.642Z</time></trkpt><trkpt lat="44.1241717" lon="12.0231433"><ele>278.0</ele><time>2026-04-28T09:31:34.642Z</time></trkpt><trkpt lat="44.12421" lon="12.0232567"><ele>278.0</ele><time>2026-04-28T09:31:36.641Z</time></trkpt><trkpt lat="44.1242483" lon="12.02338"><ele>278.0</ele><time>2026-04-28T09:31:38.642Z</time></trkpt><trkpt lat="44.12428" lon="12.02351"><ele>278.0</ele><time>2026-04-28T09:31:40.641Z</time></trkpt><trkpt lat="44.1243117" lon="12.0236583"><ele>278.0</ele><time>2026-04-28T09:31:42.642Z</time></trkpt><trkpt lat="44.1243317" lon="12.0237433"><ele>277.33333333333337</ele><time>2026-04-28T09:31:43.642Z</time></trkpt><trkpt lat="44.1243583" lon="12.0238367"><ele>276.6666666666667</ele><time>2026-04-28T09:31:44.642Z</time></trkpt><trkpt lat="44.124385" lon="12.0239367"><ele>276.0</ele><time>2026-04-28T09:31:45.642Z</time></trkpt><trkpt lat="44.1244167" lon="12.0240433"><ele>275.3333333333333</ele><time>2026-04-28T09:31:46.642Z</time></trkpt><trkpt lat="44.1244467" lon="12.0241567"><ele>274.66666666666663</ele><time>2026-04-28T09:31:47.641Z</time></trkpt><trkpt lat="44.12448" lon="12.0242733"><ele>274.0</ele><time>2026-04-28T09:31:48.642Z</time></trkpt><trkpt lat="44.1245117" lon="12.0244033"><ele>272.8</ele><time>2026-04-28T09:31:49.642Z</time></trkpt><trkpt lat="44.1245467" lon="12.024535"><ele>271.59999999999997</ele><time>2026-04-28T09:31:50.642Z</time></trkpt><trkpt lat="44.1245833" lon="12.0246667"><ele>270.4</ele><time>2026-04-28T09:31:51.642Z</time></trkpt><trkpt lat="44.1246217" lon="12.0248017"><ele>269.2</ele><time>2026-04-28T09:31:52.641Z</time></trkpt><trkpt lat="44.1246617" lon="12.024935"><ele>268.0</ele><time>2026-04-28T09:31:53.642Z</time></trkpt><trkpt lat="44.1247067" lon="12.025085"><ele>265.5</ele><time>2026-04-28T09:31:54.641Z</time></trkpt><trkpt lat="44.12475" lon="12.0252283"><ele>263.0</ele><time>2026-04-28T09:31:55.642Z</time></trkpt><trkpt lat="44.1247867" lon="12.0253767"><ele>260.5</ele><time>2026-04-28T09:31:56.641Z</time></trkpt><trkpt lat="44.1248333" lon="12.0255267"><ele>258.0</ele><time>2026-04-28T09:31:57.642Z</time></trkpt><trkpt lat="44.1248833" lon="12.0256833"><ele>258.5</ele><time>2026-04-28T09:31:58.642Z</time></trkpt><trkpt lat="44.1249317" lon="12.025825"><ele>259.0</ele><time>2026-04-28T09:31:59.642Z</time></trkpt><trkpt lat="44.1249967" lon="12.0259733"><ele>259.5</ele><time>2026-04-28T09:32:00.642Z</time></trkpt><trkpt lat="44.12506" lon="12.0261083"><ele>260.0</ele><time>2026-04-28T09:32:01.641Z</time></trkpt><trkpt lat="44.125125" lon="12.0262333"><ele>260.0</ele><time>2026-04-28T09:32:02.642Z</time></trkpt><trkpt lat="44.12519" lon="12.0263633"><ele>260.0</ele><time>2026-04-28T09:32:03.642Z</time></trkpt><trkpt lat="44.125255" lon="12.0264867"><ele>260.0</ele><time>2026-04-28T09:32:04.642Z</time></trkpt><trkpt lat="44.1253167" lon="12.0266083"><ele>260.0</ele><time>2026-04-28T09:32:05.642Z</time></trkpt><trkpt lat="44.1253783" lon="12.0267267"><ele>260.0</ele><time>2026-04-28T09:32:06.642Z</time></trkpt><trkpt lat="44.1254433" lon="12.026845"><ele>258.6</ele><time>2026-04-28T09:32:07.641Z</time></trkpt><trkpt lat="44.1254983" lon="12.0269633"><ele>257.2</ele><time>2026-04-28T09:32:08.642Z</time></trkpt><trkpt lat="44.125555" lon="12.0270833"><ele>255.8</ele><time>2026-04-28T09:32:09.642Z</time></trkpt><trkpt lat="44.1256133" lon="12.0272033"><ele>254.4</ele><time>2026-04-28T09:32:10.641Z</time></trkpt><trkpt lat="44.1256617" lon="12.027335"><ele>253.0</ele><time>2026-04-28T09:32:11.641Z</time></trkpt><trkpt lat="44.1257083" lon="12.0274683"><ele>253.4</ele><time>2026-04-28T09:32:12.642Z</time></trkpt><trkpt lat="44.1257533" lon="12.0276067"><ele>253.8</ele><time>2026-04-28T09:32:13.642Z</time></trkpt><trkpt lat="44.1257867" lon="12.02774"><ele>254.2</ele><time>2026-04-28T09:32:14.641Z</time></trkpt><trkpt lat="44.1258233" lon="12.0278667"><ele>254.6</ele><time>2026-04-28T09:32:15.641Z</time></trkpt><trkpt lat="44.1258617" lon="12.027995"><ele>255.0</ele><time>2026-04-28T09:32:16.642Z</time></trkpt><trkpt lat="44.1258933" lon="12.0281183"><ele>255.0</ele><time>2026-04-28T09:32:17.642Z</time></trkpt><trkpt lat="44.1259267" lon="12.0282417"><ele>255.0</ele><time>2026-04-28T09:32:18.641Z</time></trkpt><trkpt lat="44.1259483" lon="12.028365"><ele>255.0</ele><time>2026-04-28T09:32:19.642Z</time></trkpt><trkpt lat="44.1259683" lon="12.0284867"><ele>255.0</ele><time>2026-04-28T09:32:20.641Z</time></trkpt><trkpt lat="44.1259883" lon="12.0286033"><ele>255.0</ele><time>2026-04-28T09:32:21.641Z</time></trkpt><trkpt lat="44.12601" lon="12.02872"><ele>255.0</ele><time>2026-04-28T09:32:22.641Z</time></trkpt><trkpt lat="44.126025" lon="12.02884"><ele>254.0</ele><time>2026-04-28T09:32:23.642Z</time></trkpt><trkpt lat="44.1260317" lon="12.0289533"><ele>253.0</ele><time>2026-04-28T09:32:24.642Z</time></trkpt><trkpt lat="44.1260317" lon="12.0290633"><ele>252.0</ele><time>2026-04-28T09:32:25.642Z</time></trkpt><trkpt lat="44.1260267" lon="12.0291667"><ele>251.0</ele><time>2026-04-28T09:32:26.642Z</time></trkpt><trkpt lat="44.12602" lon="12.02927"><ele>250.0</ele><time>2026-04-28T09:32:27.642Z</time></trkpt><trkpt lat="44.1260133" lon="12.0293733"><ele>249.0</ele><time>2026-04-28T09:32:28.641Z</time></trkpt><trkpt lat="44.1260067" lon="12.0294733"><ele>248.83333333333334</ele><time>2026-04-28T09:32:29.642Z</time></trkpt><trkpt lat="44.125995" lon="12.0295733"><ele>248.66666666666669</ele><time>2026-04-28T09:32:30.642Z</time></trkpt><trkpt lat="44.1259833" lon="12.0296833"><ele>248.5</ele><time>2026-04-28T09:32:31.642Z</time></trkpt><trkpt lat="44.1259717" lon="12.0297883"><ele>248.33333333333334</ele><time>2026-04-28T09:32:32.642Z</time></trkpt><trkpt lat="44.125955" lon="12.029895"><ele>248.16666666666669</ele><time>2026-04-28T09:32:33.642Z</time></trkpt><trkpt lat="44.12594" lon="12.03"><ele>248.0</ele><time>2026-04-28T09:32:34.642Z</time></trkpt><trkpt lat="44.125925" lon="12.0301083"><ele>248.0</ele><time>2026-04-28T09:32:35.641Z</time></trkpt><trkpt lat="44.1259133" lon="12.0302167"><ele>248.0</ele><time>2026-04-28T09:32:36.641Z</time></trkpt><trkpt lat="44.1258983" lon="12.0303367"><ele>248.0</ele><time>2026-04-28T09:32:37.642Z</time></trkpt><trkpt lat="44.1258767" lon="12.0304583"><ele>248.0</ele><time>2026-04-28T09:32:38.642Z</time></trkpt><trkpt lat="44.1258533" lon="12.03059"><ele>248.0</ele><time>2026-04-28T09:32:39.642Z</time></trkpt><trkpt lat="44.1258383" lon="12.0307333"><ele>247.8</ele><time>2026-04-28T09:32:40.642Z</time></trkpt><trkpt lat="44.125825" lon="12.0308933"><ele>247.60000000000002</ele><time>2026-04-28T09:32:41.642Z</time></trkpt><trkpt lat="44.1258117" lon="12.0310483"><ele>247.39999999999998</ele><time>2026-04-28T09:32:42.642Z</time></trkpt><trkpt lat="44.1257983" lon="12.0312"><ele>247.2</ele><time>2026-04-28T09:32:43.642Z</time></trkpt><trkpt lat="44.125785" lon="12.0313517"><ele>247.0</ele><time>2026-04-28T09:32:44.642Z</time></trkpt><trkpt lat="44.12577" lon="12.031495"><ele>246.0</ele><time>2026-04-28T09:32:45.642Z</time></trkpt><trkpt lat="44.12576" lon="12.0316417"><ele>245.0</ele><time>2026-04-28T09:32:46.641Z</time></trkpt><trkpt lat="44.12576" lon="12.03178"><ele>244.0</ele><time>2026-04-28T09:32:47.641Z</time></trkpt><trkpt lat="44.1257733" lon="12.0319"><ele>243.0</ele><time>2026-04-28T09:32:48.642Z</time></trkpt><trkpt lat="44.1258017" lon="12.03201"><ele>242.0</ele><time>2026-04-28T09:32:49.641Z</time></trkpt><trkpt lat="44.1258483" lon="12.0321133"><ele>242.0</ele><time>2026-04-28T09:32:50.642Z</time></trkpt><trkpt lat="44.125915" lon="12.0322067"><ele>242.0</ele><time>2026-04-28T09:32:51.642Z</time></trkpt><trkpt lat="44.1259867" lon="12.0322783"><ele>242.0</ele><time>2026-04-28T09:32:52.642Z</time></trkpt><trkpt lat="44.126065" lon="12.0323283"><ele>242.0</ele><time>2026-04-28T09:32:53.641Z</time></trkpt><trkpt lat="44.1261567" lon="12.0323633"><ele>242.0</ele><time>2026-04-28T09:32:54.641Z</time></trkpt><trkpt lat="44.126255" lon="12.0323883"><ele>242.0</ele><time>2026-04-28T09:32:55.642Z</time></trkpt><trkpt lat="44.126365" lon="12.0324067"><ele>242.0</ele><time>2026-04-28T09:32:56.642Z</time></trkpt><trkpt lat="44.1264667" lon="12.0323967"><ele>242.0</ele><time>2026-04-28T09:32:57.642Z</time></trkpt><trkpt lat="44.126575" lon="12.032395"><ele>242.0</ele><time>2026-04-28T09:32:58.642Z</time></trkpt><trkpt lat="44.1266833" lon="12.0323983"><ele>242.0</ele><time>2026-04-28T09:32:59.642Z</time></trkpt><trkpt lat="44.1267917" lon="12.032415"><ele>242.39999999999998</ele><time>2026-04-28T09:33:00.641Z</time></trkpt><trkpt lat="44.1268967" lon="12.03244"><ele>242.79999999999998</ele><time>2026-04-28T09:33:01.641Z</time></trkpt><trkpt lat="44.127005" lon="12.0324767"><ele>243.2</ele><time>2026-04-28T09:33:02.642Z</time></trkpt><trkpt lat="44.1271033" lon="12.0325367"><ele>243.6</ele><time>2026-04-28T09:33:03.642Z</time></trkpt><trkpt lat="44.127205" lon="12.0326083"><ele>244.0</ele><time>2026-04-28T09:33:04.641Z</time></trkpt><trkpt lat="44.127305" lon="12.0326833"><ele>241.75</ele><time>2026-04-28T09:33:05.642Z</time></trkpt><trkpt lat="44.1274133" lon="12.0327567"><ele>239.5</ele><time>2026-04-28T09:33:06.642Z</time></trkpt><trkpt lat="44.12751" lon="12.032835"><ele>237.25</ele><time>2026-04-28T09:33:07.642Z</time></trkpt><trkpt lat="44.1276133" lon="12.0329183"><ele>235.0</ele><time>2026-04-28T09:33:08.642Z</time></trkpt><trkpt lat="44.127715" lon="12.0330017"><ele>235.0</ele><time>2026-04-28T09:33:09.642Z</time></trkpt><trkpt lat="44.1278183" lon="12.0330883"><ele>235.0</ele><time>2026-04-28T09:33:10.642Z</time></trkpt><trkpt lat="44.1279283" lon="12.0331733"><ele>235.0</ele><time>2026-04-28T09:33:11.642Z</time></trkpt><trkpt lat="44.128045" lon="12.0332667"><ele>235.0</ele><time>2026-04-28T09:33:12.641Z</time></trkpt><trkpt lat="44.1281467" lon="12.0333467"><ele>233.0</ele><time>2026-04-28T09:33:13.642Z</time></trkpt><trkpt lat="44.1282533" lon="12.03341"><ele>231.0</ele><time>2026-04-28T09:33:14.642Z</time></trkpt><trkpt lat="44.1283517" lon="12.0334617"><ele>229.0</ele><time>2026-04-28T09:33:15.641Z</time></trkpt><trkpt lat="44.12844" lon="12.0335"><ele>227.0</ele><time>2026-04-28T09:33:16.642Z</time></trkpt><trkpt lat="44.1285283" lon="12.0335383"><ele>225.0</ele><time>2026-04-28T09:33:17.641Z</time></trkpt><trkpt lat="44.128605" lon="12.0335667"><ele>225.0</ele><time>2026-04-28T09:33:18.642Z</time></trkpt><trkpt lat="44.1286783" lon="12.0336017"><ele>225.0</ele><time>2026-04-28T09:33:19.642Z</time></trkpt><trkpt lat="44.1287433" lon="12.0336417"><ele>225.0</ele><time>2026-04-28T09:33:20.642Z</time></trkpt><trkpt lat="44.1287867" lon="12.0337067"><ele>225.0</ele><time>2026-04-28T09:33:21.642Z</time></trkpt><trkpt lat="44.1288167" lon="12.03379"><ele>225.0</ele><time>2026-04-28T09:33:22.642Z</time></trkpt><trkpt lat="44.1288183" lon="12.033885"><ele>225.0</ele><time>2026-04-28T09:33:23.641Z</time></trkpt><trkpt lat="44.1287383" lon="12.0340033"><ele>225.0</ele><time>2026-04-28T09:33:25.641Z</time></trkpt><trkpt lat="44.12862" lon="12.034015"><ele>225.0</ele><time>2026-04-28T09:33:27.641Z</time></trkpt><trkpt lat="44.1285533" lon="12.0340133"><ele>225.0</ele><time>2026-04-28T09:33:28.642Z</time></trkpt><trkpt lat="44.1284867" lon="12.0340217"><ele>225.0</ele><time>2026-04-28T09:33:29.641Z</time></trkpt><trkpt lat="44.1284217" lon="12.0340367"><ele>225.0</ele><time>2026-04-28T09:33:30.641Z</time></trkpt><trkpt lat="44.1282983" lon="12.0340717"><ele>225.0</ele><time>2026-04-28T09:33:32.642Z</time></trkpt><trkpt lat="44.128175" lon="12.03411"><ele>225.2</ele><time>2026-04-28T09:33:34.641Z</time></trkpt><trkpt lat="44.1281083" lon="12.0341333"><ele>225.4</ele><time>2026-04-28T09:33:35.642Z</time></trkpt><trkpt lat="44.1279967" lon="12.0341867"><ele>225.60000000000002</ele><time>2026-04-28T09:33:37.641Z</time></trkpt><trkpt lat="44.1278967" lon="12.0342067"><ele>225.8</ele><time>2026-04-28T09:33:39.641Z</time></trkpt><trkpt lat="44.1278117" lon="12.034235"><ele>226.0</ele><time>2026-04-28T09:33:41.642Z</time></trkpt><trkpt lat="44.12774" lon="12.0342867"><ele>224.0</ele><time>2026-04-28T09:33:43.642Z</time></trkpt><trkpt lat="44.127645" lon="12.0343167"><ele>222.00000000000003</ele><time>2026-04-28T09:33:45.642Z</time></trkpt><trkpt lat="44.1275433" lon="12.0343667"><ele>220.00000000000003</ele><time>2026-04-28T09:33:47.642Z</time></trkpt><trkpt lat="44.1274317" lon="12.0344633"><ele>218.0</ele><time>2026-04-28T09:33:49.641Z</time></trkpt><trkpt lat="44.1273767" lon="12.03452"><ele>216.0</ele><time>2026-04-28T09:33:50.642Z</time></trkpt><trkpt lat="44.1273233" lon="12.0345867"><ele>216.0</ele><time>2026-04-28T09:33:51.642Z</time></trkpt><trkpt lat="44.1272683" lon="12.034655"><ele>216.0</ele><time>2026-04-28T09:33:52.641Z</time></trkpt><trkpt lat="44.1272017" lon="12.0347283"><ele>216.0</ele><time>2026-04-28T09:33:53.641Z</time></trkpt><trkpt lat="44.1271367" lon="12.0347983"><ele>216.0</ele><time>2026-04-28T09:33:54.641Z</time></trkpt><trkpt lat="44.127075" lon="12.0348617"><ele>216.0</ele><time>2026-04-28T09:33:55.641Z</time></trkpt><trkpt lat="44.1270133" lon="12.0349233"><ele>216.0</ele><time>2026-04-28T09:33:56.641Z</time></trkpt><trkpt lat="44.1269483" lon="12.03499"><ele>215.0</ele><time>2026-04-28T09:33:57.642Z</time></trkpt><trkpt lat="44.12688" lon="12.035055"><ele>214.0</ele><time>2026-04-28T09:33:58.642Z</time></trkpt><trkpt lat="44.1268067" lon="12.035125"><ele>213.0</ele><time>2026-04-28T09:33:59.642Z</time></trkpt><trkpt lat="44.1267333" lon="12.0351967"><ele>212.0</ele><time>2026-04-28T09:34:00.642Z</time></trkpt><trkpt lat="44.1266667" lon="12.0352717"><ele>211.0</ele><time>2026-04-28T09:34:01.641Z</time></trkpt><trkpt lat="44.1265917" lon="12.0353433"><ele>210.0</ele><time>2026-04-28T09:34:02.641Z</time></trkpt><trkpt lat="44.1265117" lon="12.0354217"><ele>210.0</ele><time>2026-04-28T09:34:03.641Z</time></trkpt><trkpt lat="44.12643" lon="12.0354967"><ele>210.0</ele><time>2026-04-28T09:34:04.641Z</time></trkpt><trkpt lat="44.1263433" lon="12.0355817"><ele>210.0</ele><time>2026-04-28T09:34:05.641Z</time></trkpt><trkpt lat="44.1262567" lon="12.0356667"><ele>210.0</ele><time>2026-04-28T09:34:06.642Z</time></trkpt><trkpt lat="44.12617" lon="12.0357483"><ele>210.0</ele><time>2026-04-28T09:34:07.641Z</time></trkpt><trkpt lat="44.1260783" lon="12.0358333"><ele>208.4</ele><time>2026-04-28T09:34:08.642Z</time></trkpt><trkpt lat="44.125985" lon="12.035915"><ele>206.8</ele><time>2026-04-28T09:34:09.641Z</time></trkpt><trkpt lat="44.12589" lon="12.0359883"><ele>205.2</ele><time>2026-04-28T09:34:10.641Z</time></trkpt><trkpt lat="44.1257933" lon="12.036055"><ele>203.6</ele><time>2026-04-28T09:34:11.642Z</time></trkpt><trkpt lat="44.125695" lon="12.03612"><ele>202.0</ele><time>2026-04-28T09:34:12.642Z</time></trkpt><trkpt lat="44.125595" lon="12.03619"><ele>200.8</ele><time>2026-04-28T09:34:13.641Z</time></trkpt><trkpt lat="44.1254967" lon="12.03625"><ele>199.6</ele><time>2026-04-28T09:34:14.642Z</time></trkpt><trkpt lat="44.125395" lon="12.03632"><ele>198.4</ele><time>2026-04-28T09:34:15.641Z</time></trkpt><trkpt lat="44.1253017" lon="12.0363833"><ele>197.20000000000002</ele><time>2026-04-28T09:34:16.641Z</time></trkpt><trkpt lat="44.125205" lon="12.036455"><ele>196.0</ele><time>2026-04-28T09:34:17.642Z</time></trkpt><trkpt lat="44.125115" lon="12.0365383"><ele>196.0</ele><time>2026-04-28T09:34:18.642Z</time></trkpt><trkpt lat="44.1250267" lon="12.0366333"><ele>196.0</ele><time>2026-04-28T09:34:19.641Z</time></trkpt><trkpt lat="44.12494" lon="12.0367283"><ele>196.0</ele><time>2026-04-28T09:34:20.641Z</time></trkpt><trkpt lat="44.12485" lon="12.0368233"><ele>196.0</ele><time>2026-04-28T09:34:21.641Z</time></trkpt><trkpt lat="44.1247633" lon="12.03692"><ele>196.0</ele><time>2026-04-28T09:34:22.641Z</time></trkpt><trkpt lat="44.1246717" lon="12.03702"><ele>191.25</ele><time>2026-04-28T09:34:23.642Z</time></trkpt><trkpt lat="44.1245767" lon="12.037125"><ele>186.5</ele><time>2026-04-28T09:34:24.642Z</time></trkpt><trkpt lat="44.1244817" lon="12.0372333"><ele>181.75</ele><time>2026-04-28T09:34:25.641Z</time></trkpt><trkpt lat="44.12438" lon="12.0373417"><ele>177.0</ele><time>2026-04-28T09:34:26.641Z</time></trkpt><trkpt lat="44.1242817" lon="12.0374633"><ele>177.75</ele><time>2026-04-28T09:34:27.642Z</time></trkpt><trkpt lat="44.124185" lon="12.0375817"><ele>178.5</ele><time>2026-04-28T09:34:28.642Z</time></trkpt><trkpt lat="44.1240983" lon="12.037715"><ele>179.25</ele><time>2026-04-28T09:34:29.642Z</time></trkpt><trkpt lat="44.1240183" lon="12.0378483"><ele>180.0</ele><time>2026-04-28T09:34:30.642Z</time></trkpt><trkpt lat="44.1239433" lon="12.0379983"><ele>176.5</ele><time>2026-04-28T09:34:31.641Z</time></trkpt><trkpt lat="44.123865" lon="12.0381433"><ele>173.0</ele><time>2026-04-28T09:34:32.641Z</time></trkpt><trkpt lat="44.123795" lon="12.038295"><ele>169.5</ele><time>2026-04-28T09:34:33.641Z</time></trkpt><trkpt lat="44.123725" lon="12.0384517"><ele>166.0</ele><time>2026-04-28T09:34:34.642Z</time></trkpt><trkpt lat="44.1236567" lon="12.0386133"><ele>166.0</ele><time>2026-04-28T09:34:35.642Z</time></trkpt><trkpt lat="44.1235933" lon="12.038765"><ele>166.0</ele><time>2026-04-28T09:34:36.642Z</time></trkpt><trkpt lat="44.123535" lon="12.03893"><ele>166.0</ele><time>2026-04-28T09:34:37.642Z</time></trkpt><trkpt lat="44.1234833" lon="12.0390783"><ele>166.0</ele><time>2026-04-28T09:34:38.642Z</time></trkpt><trkpt lat="44.123435" lon="12.039225"><ele>167.20000000000002</ele><time>2026-04-28T09:34:39.641Z</time></trkpt><trkpt lat="44.1233917" lon="12.0393583"><ele>168.4</ele><time>2026-04-28T09:34:40.642Z</time></trkpt><trkpt lat="44.1233433" lon="12.0394883"><ele>169.6</ele><time>2026-04-28T09:34:41.642Z</time></trkpt><trkpt lat="44.1232983" lon="12.0396217"><ele>170.8</ele><time>2026-04-28T09:34:42.641Z</time></trkpt><trkpt lat="44.1232533" lon="12.039745"><ele>172.0</ele><time>2026-04-28T09:34:43.642Z</time></trkpt><trkpt lat="44.1232083" lon="12.0398733"><ele>169.4</ele><time>2026-04-28T09:34:44.642Z</time></trkpt><trkpt lat="44.1231683" lon="12.039985"><ele>166.79999999999998</ele><time>2026-04-28T09:34:45.642Z</time></trkpt><trkpt lat="44.1231267" lon="12.0401"><ele>164.2</ele><time>2026-04-28T09:34:46.641Z</time></trkpt><trkpt lat="44.1230867" lon="12.040215"><ele>161.6</ele><time>2026-04-28T09:34:47.642Z</time></trkpt><trkpt lat="44.1230483" lon="12.0403383"><ele>159.0</ele><time>2026-04-28T09:34:48.642Z</time></trkpt><trkpt lat="44.1230117" lon="12.0404667"><ele>159.0</ele><time>2026-04-28T09:34:49.641Z</time></trkpt><trkpt lat="44.1229767" lon="12.0405917"><ele>159.0</ele><time>2026-04-28T09:34:50.642Z</time></trkpt><trkpt lat="44.12294" lon="12.040715"><ele>159.0</ele><time>2026-04-28T09:34:51.642Z</time></trkpt><trkpt lat="44.122905" lon="12.0408333"><ele>159.0</ele><time>2026-04-28T09:34:52.642Z</time></trkpt><trkpt lat="44.1228717" lon="12.0409617"><ele>159.0</ele><time>2026-04-28T09:34:53.641Z</time></trkpt><trkpt lat="44.122845" lon="12.0410933"><ele>160.0</ele><time>2026-04-28T09:34:54.641Z</time></trkpt><trkpt lat="44.12283" lon="12.0412383"><ele>161.0</ele><time>2026-04-28T09:34:55.642Z</time></trkpt><trkpt lat="44.1228067" lon="12.041375"><ele>162.0</ele><time>2026-04-28T09:34:56.642Z</time></trkpt><trkpt lat="44.1227817" lon="12.0415133"><ele>163.0</ele><time>2026-04-28T09:34:57.641Z</time></trkpt><trkpt lat="44.1227483" lon="12.0416517"><ele>164.0</ele><time>2026-04-28T09:34:58.641Z</time></trkpt><trkpt lat="44.1227217" lon="12.0417867"><ele>164.2</ele><time>2026-04-28T09:34:59.642Z</time></trkpt><trkpt lat="44.1226933" lon="12.041935"><ele>164.39999999999998</ele><time>2026-04-28T09:35:00.642Z</time></trkpt><trkpt lat="44.1226617" lon="12.042085"><ele>164.6</ele><time>2026-04-28T09:35:01.642Z</time></trkpt><trkpt lat="44.122625" lon="12.042235"><ele>164.8</ele><time>2026-04-28T09:35:02.642Z</time></trkpt><trkpt lat="44.12259" lon="12.0423783"><ele>165.0</ele><time>2026-04-28T09:35:03.641Z</time></trkpt><trkpt lat="44.12255" lon="12.042535"><ele>165.0</ele><time>2026-04-28T09:35:04.642Z</time></trkpt><trkpt lat="44.122515" lon="12.0426867"><ele>165.0</ele><time>2026-04-28T09:35:05.641Z</time></trkpt><trkpt lat="44.12248" lon="12.0428383"><ele>165.0</ele><time>2026-04-28T09:35:06.642Z</time></trkpt><trkpt lat="44.1224433" lon="12.0429917"><ele>165.0</ele><time>2026-04-28T09:35:07.642Z</time></trkpt><trkpt lat="44.1224133" lon="12.043145"><ele>159.75</ele><time>2026-04-28T09:35:08.641Z</time></trkpt><trkpt lat="44.1223833" lon="12.0433083"><ele>154.5</ele><time>2026-04-28T09:35:09.641Z</time></trkpt><trkpt lat="44.1223433" lon="12.0434617"><ele>149.25</ele><time>2026-04-28T09:35:10.642Z</time></trkpt><trkpt lat="44.1223133" lon="12.043635"><ele>144.0</ele><time>2026-04-28T09:35:11.642Z</time></trkpt><trkpt lat="44.1222817" lon="12.04378"><ele>144.0</ele><time>2026-04-28T09:35:12.641Z</time></trkpt><trkpt lat="44.1222533" lon="12.0439067"><ele>144.0</ele><time>2026-04-28T09:35:13.642Z</time></trkpt><trkpt lat="44.1222267" lon="12.0440483"><ele>144.0</ele><time>2026-04-28T09:35:14.641Z</time></trkpt><trkpt lat="44.1221933" lon="12.0441883"><ele>144.0</ele><time>2026-04-28T09:35:15.641Z</time></trkpt><trkpt lat="44.1221617" lon="12.0443317"><ele>144.0</ele><time>2026-04-28T09:35:16.641Z</time></trkpt><trkpt lat="44.12213" lon="12.0444733"><ele>145.5</ele><time>2026-04-28T09:35:17.642Z</time></trkpt><trkpt lat="44.1221067" lon="12.0446233"><ele>147.0</ele><time>2026-04-28T09:35:18.641Z</time></trkpt><trkpt lat="44.1220783" lon="12.0447733"><ele>148.5</ele><time>2026-04-28T09:35:19.642Z</time></trkpt><trkpt lat="44.1220483" lon="12.0449333"><ele>150.0</ele><time>2026-04-28T09:35:20.641Z</time></trkpt><trkpt lat="44.12202" lon="12.0450967"><ele>151.25</ele><time>2026-04-28T09:35:21.641Z</time></trkpt><trkpt lat="44.1219967" lon="12.0452633"><ele>152.5</ele><time>2026-04-28T09:35:22.642Z</time></trkpt><trkpt lat="44.1219817" lon="12.0454233"><ele>153.75</ele><time>2026-04-28T09:35:23.642Z</time></trkpt><trkpt lat="44.1219917" lon="12.0455817"><ele>155.0</ele><time>2026-04-28T09:35:24.642Z</time></trkpt><trkpt lat="44.12202" lon="12.0457233"><ele>154.5</ele><time>2026-04-28T09:35:25.641Z</time></trkpt><trkpt lat="44.1220567" lon="12.0458733"><ele>154.0</ele><time>2026-04-28T09:35:26.641Z</time></trkpt><trkpt lat="44.1220967" lon="12.0460183"><ele>153.5</ele><time>2026-04-28T09:35:27.642Z</time></trkpt><trkpt lat="44.1221433" lon="12.0461683"><ele>153.0</ele><time>2026-04-28T09:35:28.641Z</time></trkpt><trkpt lat="44.1222" lon="12.04631"><ele>153.0</ele><time>2026-04-28T09:35:29.642Z</time></trkpt><trkpt lat="44.122265" lon="12.0464483"><ele>153.0</ele><time>2026-04-28T09:35:30.641Z</time></trkpt><trkpt lat="44.1223317" lon="12.046585"><ele>153.0</ele><time>2026-04-28T09:35:31.642Z</time></trkpt><trkpt lat="44.1223917" lon="12.0467117"><ele>153.0</ele><time>2026-04-28T09:35:32.641Z</time></trkpt><trkpt lat="44.1224617" lon="12.0468467"><ele>151.6</ele><time>2026-04-28T09:35:33.641Z</time></trkpt><trkpt lat="44.1225233" lon="12.0469783"><ele>150.20000000000002</ele><time>2026-04-28T09:35:34.641Z</time></trkpt><trkpt lat="44.1225783" lon="12.047105"><ele>148.8</ele><time>2026-04-28T09:35:35.642Z</time></trkpt><trkpt lat="44.122635" lon="12.0472483"><ele>147.4</ele><time>2026-04-28T09:35:36.641Z</time></trkpt><trkpt lat="44.1226867" lon="12.04738"><ele>146.0</ele><time>2026-04-28T09:35:37.641Z</time></trkpt><trkpt lat="44.12274" lon="12.047515"><ele>145.8</ele><time>2026-04-28T09:35:38.642Z</time></trkpt><trkpt lat="44.1227783" lon="12.0476467"><ele>145.6</ele><time>2026-04-28T09:35:39.642Z</time></trkpt><trkpt lat="44.1228017" lon="12.04778"><ele>145.4</ele><time>2026-04-28T09:35:40.641Z</time></trkpt><trkpt lat="44.1228217" lon="12.0479267"><ele>145.2</ele><time>2026-04-28T09:35:41.641Z</time></trkpt><trkpt lat="44.12282" lon="12.0480667"><ele>145.0</ele><time>2026-04-28T09:35:42.641Z</time></trkpt><trkpt lat="44.1228083" lon="12.048205"><ele>144.66666666666669</ele><time>2026-04-28T09:35:43.641Z</time></trkpt><trkpt lat="44.1227917" lon="12.0483317"><ele>144.33333333333334</ele><time>2026-04-28T09:35:44.641Z</time></trkpt><trkpt lat="44.1227633" lon="12.048445"><ele>144.0</ele><time>2026-04-28T09:35:45.642Z</time></trkpt><trkpt lat="44.12273" lon="12.048555"><ele>143.66666666666666</ele><time>2026-04-28T09:35:46.641Z</time></trkpt><trkpt lat="44.1226983" lon="12.0486717"><ele>143.33333333333331</ele><time>2026-04-28T09:35:47.641Z</time></trkpt><trkpt lat="44.1226667" lon="12.0487767"><ele>143.0</ele><time>2026-04-28T09:35:48.642Z</time></trkpt><trkpt lat="44.122635" lon="12.0488783"><ele>142.99999999999997</ele><time>2026-04-28T09:35:49.641Z</time></trkpt><trkpt lat="44.1225983" lon="12.048975"><ele>143.0</ele><time>2026-04-28T09:35:50.642Z</time></trkpt><trkpt lat="44.1225667" lon="12.0490683"><ele>143.0</ele><time>2026-04-28T09:35:51.642Z</time></trkpt><trkpt lat="44.122535" lon="12.049165"><ele>143.0</ele><time>2026-04-28T09:35:52.642Z</time></trkpt><trkpt lat="44.1225" lon="12.0492533"><ele>143.0</ele><time>2026-04-28T09:35:53.642Z</time></trkpt><trkpt lat="44.1224633" lon="12.0493333"><ele>142.99999999999997</ele><time>2026-04-28T09:35:54.642Z</time></trkpt><trkpt lat="44.1224267" lon="12.0494133"><ele>143.0</ele><time>2026-04-28T09:35:55.642Z</time></trkpt><trkpt lat="44.1223483" lon="12.0495583"><ele>143.28571428571428</ele><time>2026-04-28T09:35:57.642Z</time></trkpt><trkpt lat="44.122305" lon="12.04963"><ele>143.57142857142856</ele><time>2026-04-28T09:35:58.642Z</time></trkpt><trkpt lat="44.1222633" lon="12.0496967"><ele>143.85714285714286</ele><time>2026-04-28T09:35:59.641Z</time></trkpt><trkpt lat="44.122225" lon="12.0497683"><ele>144.14285714285714</ele><time>2026-04-28T09:36:00.642Z</time></trkpt><trkpt lat="44.1221833" lon="12.04984"><ele>144.42857142857144</ele><time>2026-04-28T09:36:01.642Z</time></trkpt><trkpt lat="44.1221417" lon="12.0499117"><ele>144.71428571428572</ele><time>2026-04-28T09:36:02.642Z</time></trkpt><trkpt lat="44.122065" lon="12.0500417"><ele>145.0</ele><time>2026-04-28T09:36:04.642Z</time></trkpt><trkpt lat="44.121995" lon="12.0501833"><ele>145.0</ele><time>2026-04-28T09:36:06.641Z</time></trkpt><trkpt lat="44.12196" lon="12.0502683"><ele>145.0</ele><time>2026-04-28T09:36:07.642Z</time></trkpt><trkpt lat="44.1219117" lon="12.0504317"><ele>145.0</ele><time>2026-04-28T09:36:09.642Z</time></trkpt><trkpt lat="44.12189" lon="12.0505983"><ele>145.0</ele><time>2026-04-28T09:36:11.641Z</time></trkpt><trkpt lat="44.121875" lon="12.050785"><ele>144.71428571428572</ele><time>2026-04-28T09:36:13.641Z</time></trkpt><trkpt lat="44.1218667" lon="12.0508817"><ele>144.42857142857144</ele><time>2026-04-28T09:36:14.641Z</time></trkpt><trkpt lat="44.1218583" lon="12.05098"><ele>144.14285714285714</ele><time>2026-04-28T09:36:15.642Z</time></trkpt><trkpt lat="44.1218517" lon="12.0510783"><ele>143.85714285714286</ele><time>2026-04-28T09:36:16.641Z</time></trkpt><trkpt lat="44.12184" lon="12.0511683"><ele>143.57142857142856</ele><time>2026-04-28T09:36:17.642Z</time></trkpt><trkpt lat="44.1218267" lon="12.0512583"><ele>143.28571428571428</ele><time>2026-04-28T09:36:18.642Z</time></trkpt><trkpt lat="44.1218183" lon="12.0513533"><ele>143.0</ele><time>2026-04-28T09:36:19.642Z</time></trkpt><trkpt lat="44.1218083" lon="12.0514517"><ele>142.99999999999997</ele><time>2026-04-28T09:36:20.641Z</time></trkpt><trkpt lat="44.1217983" lon="12.0515483"><ele>143.0</ele><time>2026-04-28T09:36:21.642Z</time></trkpt><trkpt lat="44.1217967" lon="12.0516383"><ele>143.0</ele><time>2026-04-28T09:36:22.641Z</time></trkpt><trkpt lat="44.1217883" lon="12.05173"><ele>143.0</ele><time>2026-04-28T09:36:23.641Z</time></trkpt><trkpt lat="44.1217817" lon="12.0518283"><ele>143.0</ele><time>2026-04-28T09:36:24.642Z</time></trkpt><trkpt lat="44.1217717" lon="12.0519233"><ele>142.99999999999997</ele><time>2026-04-28T09:36:25.642Z</time></trkpt><trkpt lat="44.1217617" lon="12.052015"><ele>143.0</ele><time>2026-04-28T09:36:26.641Z</time></trkpt><trkpt lat="44.1217533" lon="12.052115"><ele>142.7142857142857</ele><time>2026-04-28T09:36:27.641Z</time></trkpt><trkpt lat="44.121745" lon="12.0522133"><ele>142.42857142857142</ele><time>2026-04-28T09:36:28.642Z</time></trkpt><trkpt lat="44.1217417" lon="12.05231"><ele>142.14285714285714</ele><time>2026-04-28T09:36:29.641Z</time></trkpt><trkpt lat="44.121745" lon="12.0524117"><ele>141.85714285714283</ele><time>2026-04-28T09:36:30.642Z</time></trkpt><trkpt lat="44.1217533" lon="12.0525217"><ele>141.57142857142856</ele><time>2026-04-28T09:36:31.642Z</time></trkpt><trkpt lat="44.1217633" lon="12.0526167"><ele>141.28571428571428</ele><time>2026-04-28T09:36:32.641Z</time></trkpt><trkpt lat="44.12178" lon="12.052715"><ele>141.0</ele><time>2026-04-28T09:36:33.641Z</time></trkpt><trkpt lat="44.1217983" lon="12.0528067"><ele>140.85714285714286</ele><time>2026-04-28T09:36:34.641Z</time></trkpt><trkpt lat="44.1218233" lon="12.0528967"><ele>140.71428571428572</ele><time>2026-04-28T09:36:35.641Z</time></trkpt><trkpt lat="44.1218583" lon="12.0529883"><ele>140.57142857142856</ele><time>2026-04-28T09:36:36.641Z</time></trkpt><trkpt lat="44.1219033" lon="12.0530833"><ele>140.42857142857144</ele><time>2026-04-28T09:36:37.641Z</time></trkpt><trkpt lat="44.1219467" lon="12.0531633"><ele>140.28571428571428</ele><time>2026-04-28T09:36:38.642Z</time></trkpt><trkpt lat="44.1219917" lon="12.0532417"><ele>140.14285714285714</ele><time>2026-04-28T09:36:39.642Z</time></trkpt><trkpt lat="44.1220383" lon="12.0533183"><ele>140.0</ele><time>2026-04-28T09:36:40.641Z</time></trkpt><trkpt lat="44.1220817" lon="12.0533833"><ele>139.71428571428572</ele><time>2026-04-28T09:36:41.642Z</time></trkpt><trkpt lat="44.1221233" lon="12.0534683"><ele>139.42857142857144</ele><time>2026-04-28T09:36:42.641Z</time></trkpt><trkpt lat="44.12217" lon="12.0535483"><ele>139.14285714285714</ele><time>2026-04-28T09:36:43.642Z</time></trkpt><trkpt lat="44.1222167" lon="12.0536267"><ele>138.85714285714286</ele><time>2026-04-28T09:36:44.642Z</time></trkpt><trkpt lat="44.1222617" lon="12.0537033"><ele>138.57142857142858</ele><time>2026-04-28T09:36:45.641Z</time></trkpt><trkpt lat="44.1223083" lon="12.0537783"><ele>138.28571428571428</ele><time>2026-04-28T09:36:46.642Z</time></trkpt><trkpt lat="44.1223567" lon="12.0538617"><ele>138.0</ele><time>2026-04-28T09:36:47.642Z</time></trkpt><trkpt lat="44.1224083" lon="12.0539483"><ele>137.83333333333334</ele><time>2026-04-28T09:36:48.641Z</time></trkpt><trkpt lat="44.1224583" lon="12.0540283"><ele>137.66666666666666</ele><time>2026-04-28T09:36:49.641Z</time></trkpt><trkpt lat="44.1225083" lon="12.0541183"><ele>137.5</ele><time>2026-04-28T09:36:50.642Z</time></trkpt><trkpt lat="44.1225533" lon="12.054215"><ele>137.33333333333331</ele><time>2026-04-28T09:36:51.642Z</time></trkpt><trkpt lat="44.1226067" lon="12.0543183"><ele>137.16666666666666</ele><time>2026-04-28T09:36:52.641Z</time></trkpt><trkpt lat="44.1226583" lon="12.0544233"><ele>137.0</ele><time>2026-04-28T09:36:53.641Z</time></trkpt><trkpt lat="44.1227083" lon="12.0545233"><ele>136.5</ele><time>2026-04-28T09:36:54.641Z</time></trkpt><trkpt lat="44.1227633" lon="12.05462"><ele>136.0</ele><time>2026-04-28T09:36:55.642Z</time></trkpt><trkpt lat="44.1228167" lon="12.0547117"><ele>135.5</ele><time>2026-04-28T09:36:56.641Z</time></trkpt><trkpt lat="44.122875" lon="12.0548"><ele>135.0</ele><time>2026-04-28T09:36:57.642Z</time></trkpt><trkpt lat="44.1229433" lon="12.0548783"><ele>134.5</ele><time>2026-04-28T09:36:58.642Z</time></trkpt><trkpt lat="44.1230217" lon="12.05493"><ele>134.0</ele><time>2026-04-28T09:36:59.641Z</time></trkpt><trkpt lat="44.1231" lon="12.05496"><ele>133.66666666666666</ele><time>2026-04-28T09:37:00.642Z</time></trkpt><trkpt lat="44.12318" lon="12.0549583"><ele>133.33333333333331</ele><time>2026-04-28T09:37:01.641Z</time></trkpt><trkpt lat="44.1232483" lon="12.0549183"><ele>133.0</ele><time>2026-04-28T09:37:02.641Z</time></trkpt><trkpt lat="44.1233067" lon="12.054855"><ele>132.66666666666666</ele><time>2026-04-28T09:37:03.642Z</time></trkpt><trkpt lat="44.1233633" lon="12.0547833"><ele>132.33333333333334</ele><time>2026-04-28T09:37:04.641Z</time></trkpt><trkpt lat="44.12342" lon="12.0547017"><ele>132.0</ele><time>2026-04-28T09:37:05.641Z</time></trkpt><trkpt lat="44.1234833" lon="12.0546267"><ele>132.0</ele><time>2026-04-28T09:37:06.642Z</time></trkpt><trkpt lat="44.1235533" lon="12.05457"><ele>132.0</ele><time>2026-04-28T09:37:07.641Z</time></trkpt><trkpt lat="44.1236283" lon="12.0545383"><ele>132.0</ele><time>2026-04-28T09:37:08.642Z</time></trkpt><trkpt lat="44.12371" lon="12.0545317"><ele>132.0</ele><time>2026-04-28T09:37:09.642Z</time></trkpt><trkpt lat="44.1237933" lon="12.0545467"><ele>132.0</ele><time>2026-04-28T09:37:10.642Z</time></trkpt><trkpt lat="44.1238783" lon="12.0545767"><ele>132.0</ele><time>2026-04-28T09:37:11.642Z</time></trkpt><trkpt lat="44.12396" lon="12.05462"><ele>132.0</ele><time>2026-04-28T09:37:12.642Z</time></trkpt><trkpt lat="44.1240483" lon="12.05466"><ele>132.0</ele><time>2026-04-28T09:37:13.642Z</time></trkpt><trkpt lat="44.1241283" lon="12.0546967"><ele>132.0</ele><time>2026-04-28T09:37:14.641Z</time></trkpt><trkpt lat="44.1242067" lon="12.0547217"><ele>132.0</ele><time>2026-04-28T09:37:15.642Z</time></trkpt><trkpt lat="44.12428" lon="12.05473"><ele>132.0</ele><time>2026-04-28T09:37:16.642Z</time></trkpt><trkpt lat="44.1243467" lon="12.0547067"><ele>132.0</ele><time>2026-04-28T09:37:17.641Z</time></trkpt><trkpt lat="44.1244117" lon="12.05466"><ele>130.66666666666666</ele><time>2026-04-28T09:37:18.642Z</time></trkpt><trkpt lat="44.1244667" lon="12.0545983"><ele>129.33333333333334</ele><time>2026-04-28T09:37:19.641Z</time></trkpt><trkpt lat="44.1245067" lon="12.0545167"><ele>128.0</ele><time>2026-04-28T09:37:20.641Z</time></trkpt><trkpt lat="44.1245467" lon="12.054425"><ele>126.66666666666667</ele><time>2026-04-28T09:37:21.642Z</time></trkpt><trkpt lat="44.124595" lon="12.0543417"><ele>125.33333333333334</ele><time>2026-04-28T09:37:22.642Z</time></trkpt><trkpt lat="44.12466" lon="12.05427"><ele>124.0</ele><time>2026-04-28T09:37:23.641Z</time></trkpt><trkpt lat="44.1247317" lon="12.0542217"><ele>124.00000000000001</ele><time>2026-04-28T09:37:24.642Z</time></trkpt><trkpt lat="44.1248117" lon="12.0541983"><ele>124.0</ele><time>2026-04-28T09:37:25.642Z</time></trkpt><trkpt lat="44.12489" lon="12.05422"><ele>124.0</ele><time>2026-04-28T09:37:26.642Z</time></trkpt><trkpt lat="44.124975" lon="12.0542367"><ele>124.0</ele><time>2026-04-28T09:37:27.641Z</time></trkpt><trkpt lat="44.1250533" lon="12.0542733"><ele>124.00000000000001</ele><time>2026-04-28T09:37:28.641Z</time></trkpt><trkpt lat="44.1251283" lon="12.0543233"><ele>124.0</ele><time>2026-04-28T09:37:29.642Z</time></trkpt><trkpt lat="44.1251917" lon="12.0543917"><ele>122.6</ele><time>2026-04-28T09:37:30.641Z</time></trkpt><trkpt lat="44.125265" lon="12.0544767"><ele>121.2</ele><time>2026-04-28T09:37:31.641Z</time></trkpt><trkpt lat="44.1253383" lon="12.0545533"><ele>119.79999999999998</ele><time>2026-04-28T09:37:32.642Z</time></trkpt><trkpt lat="44.1254233" lon="12.05464"><ele>118.39999999999999</ele><time>2026-04-28T09:37:33.641Z</time></trkpt><trkpt lat="44.125495" lon="12.0547217"><ele>117.0</ele><time>2026-04-28T09:37:34.641Z</time></trkpt><trkpt lat="44.125575" lon="12.054785"><ele>117.0</ele><time>2026-04-28T09:37:35.641Z</time></trkpt><trkpt lat="44.1256433" lon="12.05485"><ele>117.0</ele><time>2026-04-28T09:37:36.642Z</time></trkpt><trkpt lat="44.12571" lon="12.054915"><ele>117.0</ele><time>2026-04-28T09:37:37.642Z</time></trkpt><trkpt lat="44.1257717" lon="12.0549817"><ele>117.0</ele><time>2026-04-28T09:37:38.641Z</time></trkpt><trkpt lat="44.12583" lon="12.0550467"><ele>117.0</ele><time>2026-04-28T09:37:39.642Z</time></trkpt><trkpt lat="44.1258783" lon="12.05513"><ele>117.0</ele><time>2026-04-28T09:37:40.642Z</time></trkpt><trkpt lat="44.1259233" lon="12.0552183"><ele>115.5</ele><time>2026-04-28T09:37:41.642Z</time></trkpt><trkpt lat="44.1259633" lon="12.05531"><ele>114.0</ele><time>2026-04-28T09:37:42.642Z</time></trkpt><trkpt lat="44.1260033" lon="12.05541"><ele>112.5</ele><time>2026-04-28T09:37:43.642Z</time></trkpt><trkpt lat="44.1260333" lon="12.05551"><ele>111.0</ele><time>2026-04-28T09:37:44.642Z</time></trkpt><trkpt lat="44.1260667" lon="12.0556133"><ele>109.5</ele><time>2026-04-28T09:37:45.641Z</time></trkpt><trkpt lat="44.1260933" lon="12.055725"><ele>108.0</ele><time>2026-04-28T09:37:46.641Z</time></trkpt><trkpt lat="44.1261217" lon="12.055835"><ele>106.0</ele><time>2026-04-28T09:37:47.642Z</time></trkpt><trkpt lat="44.12615" lon="12.0559483"><ele>104.00000000000001</ele><time>2026-04-28T09:37:48.642Z</time></trkpt><trkpt lat="44.1261817" lon="12.05607"><ele>102.0</ele><time>2026-04-28T09:37:49.642Z</time></trkpt><trkpt lat="44.1262133" lon="12.05619"><ele>100.0</ele><time>2026-04-28T09:37:50.642Z</time></trkpt><trkpt lat="44.1262433" lon="12.0563083"><ele>98.0</ele><time>2026-04-28T09:37:51.641Z</time></trkpt><trkpt lat="44.1262717" lon="12.05643"><ele>98.0</ele><time>2026-04-28T09:37:52.642Z</time></trkpt><trkpt lat="44.1263067" lon="12.0565567"><ele>98.0</ele><time>2026-04-28T09:37:53.641Z</time></trkpt><trkpt lat="44.1263383" lon="12.056675"><ele>98.0</ele><time>2026-04-28T09:37:54.642Z</time></trkpt><trkpt lat="44.1263733" lon="12.0567967"><ele>98.0</ele><time>2026-04-28T09:37:55.642Z</time></trkpt><trkpt lat="44.126415" lon="12.0569133"><ele>98.0</ele><time>2026-04-28T09:37:56.642Z</time></trkpt><trkpt lat="44.126465" lon="12.0570267"><ele>98.80000000000001</ele><time>2026-04-28T09:37:57.641Z</time></trkpt><trkpt lat="44.1265217" lon="12.0571283"><ele>99.6</ele><time>2026-04-28T09:37:58.642Z</time></trkpt><trkpt lat="44.1265867" lon="12.0572283"><ele>100.4</ele><time>2026-04-28T09:37:59.641Z</time></trkpt><trkpt lat="44.12666" lon="12.0573117"><ele>101.19999999999999</ele><time>2026-04-28T09:38:00.642Z</time></trkpt><trkpt lat="44.1267383" lon="12.0573783"><ele>102.0</ele><time>2026-04-28T09:38:01.641Z</time></trkpt><trkpt lat="44.1268167" lon="12.05744"><ele>99.66666666666667</ele><time>2026-04-28T09:38:02.642Z</time></trkpt><trkpt lat="44.1268983" lon="12.0574917"><ele>97.33333333333333</ele><time>2026-04-28T09:38:03.642Z</time></trkpt><trkpt lat="44.12698" lon="12.0575383"><ele>95.0</ele><time>2026-04-28T09:38:04.641Z</time></trkpt><trkpt lat="44.1270633" lon="12.05757"><ele>92.66666666666666</ele><time>2026-04-28T09:38:05.642Z</time></trkpt><trkpt lat="44.1271533" lon="12.0576083"><ele>90.33333333333333</ele><time>2026-04-28T09:38:06.641Z</time></trkpt><trkpt lat="44.127235" lon="12.0576467"><ele>88.0</ele><time>2026-04-28T09:38:07.641Z</time></trkpt><trkpt lat="44.1273117" lon="12.0576783"><ele>88.0</ele><time>2026-04-28T09:38:08.641Z</time></trkpt><trkpt lat="44.1273883" lon="12.0577283"><ele>88.0</ele><time>2026-04-28T09:38:09.641Z</time></trkpt><trkpt lat="44.1274667" lon="12.0577833"><ele>88.0</ele><time>2026-04-28T09:38:10.641Z</time></trkpt><trkpt lat="44.1275267" lon="12.0578617"><ele>88.0</ele><time>2026-04-28T09:38:11.641Z</time></trkpt><trkpt lat="44.1275817" lon="12.0579533"><ele>88.0</ele><time>2026-04-28T09:38:12.642Z</time></trkpt><trkpt lat="44.1276367" lon="12.0580533"><ele>88.0</ele><time>2026-04-28T09:38:13.642Z</time></trkpt><trkpt lat="44.1276867" lon="12.0581417"><ele>89.0</ele><time>2026-04-28T09:38:14.641Z</time></trkpt><trkpt lat="44.1277283" lon="12.0582217"><ele>90.0</ele><time>2026-04-28T09:38:15.641Z</time></trkpt><trkpt lat="44.1277633" lon="12.058295"><ele>91.0</ele><time>2026-04-28T09:38:16.642Z</time></trkpt><trkpt lat="44.1278233" lon="12.0584133"><ele>92.0</ele><time>2026-04-28T09:38:18.641Z</time></trkpt><trkpt lat="44.12787" lon="12.0585067"><ele>93.0</ele><time>2026-04-28T09:38:20.642Z</time></trkpt><trkpt lat="44.127905" lon="12.0585983"><ele>94.0</ele><time>2026-04-28T09:38:23.642Z</time></trkpt><trkpt lat="44.1278983" lon="12.0586883"><ele>90.75</ele><time>2026-04-28T09:38:26.641Z</time></trkpt><trkpt lat="44.12788" lon="12.058785"><ele>87.5</ele><time>2026-04-28T09:38:30.641Z</time></trkpt><trkpt lat="44.1278983" lon="12.0589183"><ele>84.25</ele><time>2026-04-28T09:38:43.642Z</time></trkpt><trkpt lat="44.1281167" lon="12.05915"><ele>81.0</ele><time>2026-04-28T09:38:55.562Z</time></trkpt><trkpt lat="44.1280317" lon="12.0590167"><ele>81.0</ele><time>2026-04-28T09:38:59.642Z</time></trkpt><trkpt lat="44.1280917" lon="12.05907"><ele>81.0</ele><time>2026-04-28T09:39:08.641Z</time></trkpt><trkpt lat="44.1281733" lon="12.05909"><ele>81.0</ele><time>2026-04-28T09:39:12.642Z</time></trkpt><trkpt lat="44.1282483" lon="12.0591183"><ele>81.0</ele><time>2026-04-28T09:39:15.642Z</time></trkpt><trkpt lat="44.128335" lon="12.0591417"><ele>81.0</ele><time>2026-04-28T09:39:18.642Z</time></trkpt><trkpt lat="44.1283967" lon="12.0591667"><ele>81.0</ele><time>2026-04-28T09:39:20.641Z</time></trkpt><trkpt lat="44.1284683" lon="12.0592017"><ele>80.33333333333333</ele><time>2026-04-28T09:39:22.642Z</time></trkpt><trkpt lat="44.1285517" lon="12.0592417"><ele>79.66666666666667</ele><time>2026-04-28T09:39:24.642Z</time></trkpt><trkpt lat="44.12863" lon="12.0592767"><ele>79.0</ele><time>2026-04-28T09:39:26.641Z</time></trkpt><trkpt lat="44.1287083" lon="12.0593117"><ele>78.33333333333334</ele><time>2026-04-28T09:39:28.641Z</time></trkpt><trkpt lat="44.1287983" lon="12.0593483"><ele>77.66666666666667</ele><time>2026-04-28T09:39:30.642Z</time></trkpt><trkpt lat="44.128895" lon="12.0593817"><ele>77.0</ele><time>2026-04-28T09:39:32.641Z</time></trkpt><trkpt lat="44.1290017" lon="12.059405"><ele>77.6</ele><time>2026-04-28T09:39:34.641Z</time></trkpt><trkpt lat="44.12911" lon="12.0594283"><ele>78.2</ele><time>2026-04-28T09:39:36.641Z</time></trkpt><trkpt lat="44.1292317" lon="12.0594517"><ele>78.8</ele><time>2026-04-28T09:39:38.641Z</time></trkpt><trkpt lat="44.129295" lon="12.0594617"><ele>79.4</ele><time>2026-04-28T09:39:39.64Z</time></trkpt><trkpt lat="44.1294217" lon="12.05949"><ele>80.0</ele><time>2026-04-28T09:39:41.641Z</time></trkpt><trkpt lat="44.1294883" lon="12.0595067"><ele>80.0</ele><time>2026-04-28T09:39:42.64Z</time></trkpt><trkpt lat="44.1295533" lon="12.05952"><ele>80.0</ele><time>2026-04-28T09:39:43.641Z</time></trkpt><trkpt lat="44.12962" lon="12.0595417"><ele>80.0</ele><time>2026-04-28T09:39:44.641Z</time></trkpt><trkpt lat="44.1296883" lon="12.05956"><ele>80.0</ele><time>2026-04-28T09:39:45.641Z</time></trkpt><trkpt lat="44.12976" lon="12.0595783"><ele>80.0</ele><time>2026-04-28T09:39:46.64Z</time></trkpt><trkpt lat="44.1298333" lon="12.0595917"><ele>80.0</ele><time>2026-04-28T09:39:47.64Z</time></trkpt><trkpt lat="44.12991" lon="12.0596067"><ele>80.0</ele><time>2026-04-28T09:39:48.64Z</time></trkpt><trkpt lat="44.1299867" lon="12.05962"><ele>78.83333333333334</ele><time>2026-04-28T09:39:49.64Z</time></trkpt><trkpt lat="44.1300617" lon="12.059635"><ele>77.66666666666667</ele><time>2026-04-28T09:39:50.64Z</time></trkpt><trkpt lat="44.13014" lon="12.0596533"><ele>76.5</ele><time>2026-04-28T09:39:51.64Z</time></trkpt><trkpt lat="44.1302183" lon="12.0596733"><ele>75.33333333333333</ele><time>2026-04-28T09:39:52.641Z</time></trkpt><trkpt lat="44.1303" lon="12.05969"><ele>74.16666666666666</ele><time>2026-04-28T09:39:53.64Z</time></trkpt><trkpt lat="44.1303883" lon="12.0597067"><ele>73.0</ele><time>2026-04-28T09:39:54.64Z</time></trkpt><trkpt lat="44.13047" lon="12.05973"><ele>73.0</ele><time>2026-04-28T09:39:55.64Z</time></trkpt><trkpt lat="44.130555" lon="12.0597567"><ele>73.0</ele><time>2026-04-28T09:39:56.641Z</time></trkpt><trkpt lat="44.13064" lon="12.0597783"><ele>73.0</ele><time>2026-04-28T09:39:57.64Z</time></trkpt><trkpt lat="44.1307233" lon="12.0598033"><ele>73.0</ele><time>2026-04-28T09:39:58.641Z</time></trkpt><trkpt lat="44.13081" lon="12.0598283"><ele>73.0</ele><time>2026-04-28T09:39:59.64Z</time></trkpt><trkpt lat="44.130895" lon="12.0598467"><ele>73.0</ele><time>2026-04-28T09:40:00.641Z</time></trkpt><trkpt lat="44.1309867" lon="12.0598617"><ele>71.8</ele><time>2026-04-28T09:40:01.641Z</time></trkpt><trkpt lat="44.13108" lon="12.05988"><ele>70.6</ele><time>2026-04-28T09:40:02.641Z</time></trkpt><trkpt lat="44.1311767" lon="12.0599"><ele>69.4</ele><time>2026-04-28T09:40:03.641Z</time></trkpt><trkpt lat="44.1312717" lon="12.059925"><ele>68.2</ele><time>2026-04-28T09:40:04.64Z</time></trkpt><trkpt lat="44.13137" lon="12.05995"><ele>67.0</ele><time>2026-04-28T09:40:05.641Z</time></trkpt><trkpt lat="44.131465" lon="12.0599633"><ele>66.4</ele><time>2026-04-28T09:40:06.641Z</time></trkpt><trkpt lat="44.1315617" lon="12.0599817"><ele>65.80000000000001</ele><time>2026-04-28T09:40:07.641Z</time></trkpt><trkpt lat="44.1316567" lon="12.06001"><ele>65.2</ele><time>2026-04-28T09:40:08.641Z</time></trkpt><trkpt lat="44.1317567" lon="12.0600333"><ele>64.60000000000001</ele><time>2026-04-28T09:40:09.64Z</time></trkpt><trkpt lat="44.1318567" lon="12.0600567"><ele>64.0</ele><time>2026-04-28T09:40:10.641Z</time></trkpt><trkpt lat="44.1319533" lon="12.060075"><ele>64.0</ele><time>2026-04-28T09:40:11.641Z</time></trkpt><trkpt lat="44.132045" lon="12.0600933"><ele>64.0</ele><time>2026-04-28T09:40:12.641Z</time></trkpt><trkpt lat="44.132135" lon="12.060105"><ele>64.0</ele><time>2026-04-28T09:40:13.64Z</time></trkpt><trkpt lat="44.13224" lon="12.0601367"><ele>64.0</ele><time>2026-04-28T09:40:14.641Z</time></trkpt><trkpt lat="44.1323417" lon="12.0601683"><ele>64.0</ele><time>2026-04-28T09:40:15.64Z</time></trkpt><trkpt lat="44.1324417" lon="12.0602"><ele>63.6</ele><time>2026-04-28T09:40:16.641Z</time></trkpt><trkpt lat="44.1325383" lon="12.0602283"><ele>63.2</ele><time>2026-04-28T09:40:17.64Z</time></trkpt><trkpt lat="44.132635" lon="12.0602533"><ele>62.800000000000004</ele><time>2026-04-28T09:40:18.641Z</time></trkpt><trkpt lat="44.1327267" lon="12.0602833"><ele>62.400000000000006</ele><time>2026-04-28T09:40:19.641Z</time></trkpt><trkpt lat="44.13282" lon="12.0603117"><ele>62.0</ele><time>2026-04-28T09:40:20.641Z</time></trkpt><trkpt lat="44.1329033" lon="12.0603367"><ele>62.00000000000001</ele><time>2026-04-28T09:40:21.641Z</time></trkpt><trkpt lat="44.132985" lon="12.0603733"><ele>62.0</ele><time>2026-04-28T09:40:22.64Z</time></trkpt><trkpt lat="44.1330617" lon="12.0604167"><ele>62.0</ele><time>2026-04-28T09:40:23.641Z</time></trkpt><trkpt lat="44.13314" lon="12.06046"><ele>62.0</ele><time>2026-04-28T09:40:24.64Z</time></trkpt><trkpt lat="44.133215" lon="12.06051"><ele>62.00000000000001</ele><time>2026-04-28T09:40:25.641Z</time></trkpt><trkpt lat="44.13329" lon="12.0605667"><ele>62.0</ele><time>2026-04-28T09:40:26.641Z</time></trkpt><trkpt lat="44.1333617" lon="12.0606283"><ele>61.16666666666667</ele><time>2026-04-28T09:40:27.64Z</time></trkpt><trkpt lat="44.1334317" lon="12.0606883"><ele>60.333333333333336</ele><time>2026-04-28T09:40:28.64Z</time></trkpt><trkpt lat="44.1334967" lon="12.0607533"><ele>59.5</ele><time>2026-04-28T09:40:29.64Z</time></trkpt><trkpt lat="44.1335567" lon="12.0608167"><ele>58.66666666666667</ele><time>2026-04-28T09:40:30.641Z</time></trkpt><trkpt lat="44.1336117" lon="12.06087"><ele>57.833333333333336</ele><time>2026-04-28T09:40:31.64Z</time></trkpt><trkpt lat="44.133695" lon="12.0609683"><ele>57.0</ele><time>2026-04-28T09:40:33.64Z</time></trkpt><trkpt lat="44.13375" lon="12.06106"><ele>56.833333333333336</ele><time>2026-04-28T09:40:35.641Z</time></trkpt><trkpt lat="44.1337833" lon="12.0611567"><ele>56.66666666666667</ele><time>2026-04-28T09:40:37.641Z</time></trkpt><trkpt lat="44.1337783" lon="12.0612867"><ele>56.5</ele><time>2026-04-28T09:40:40.641Z</time></trkpt><trkpt lat="44.1337967" lon="12.0613867"><ele>56.333333333333336</ele><time>2026-04-28T09:40:42.641Z</time></trkpt><trkpt lat="44.1338183" lon="12.0614717"><ele>56.16666666666667</ele><time>2026-04-28T09:40:44.641Z</time></trkpt><trkpt lat="44.1338717" lon="12.0615467"><ele>56.0</ele><time>2026-04-28T09:40:46.64Z</time></trkpt><trkpt lat="44.1339367" lon="12.0616133"><ele>55.8</ele><time>2026-04-28T09:40:48.641Z</time></trkpt><trkpt lat="44.1339883" lon="12.0616983"><ele>55.599999999999994</ele><time>2026-04-28T09:40:50.641Z</time></trkpt><trkpt lat="44.1340217" lon="12.0618"><ele>55.4</ele><time>2026-04-28T09:40:52.641Z</time></trkpt><trkpt lat="44.134065" lon="12.06196"><ele>55.2</ele><time>2026-04-28T09:40:55.64Z</time></trkpt><trkpt lat="44.13409" lon="12.06207"><ele>55.0</ele><time>2026-04-28T09:40:57.64Z</time></trkpt><trkpt lat="44.134115" lon="12.0621933"><ele>54.49999999999999</ele><time>2026-04-28T09:40:59.641Z</time></trkpt><trkpt lat="44.13414" lon="12.062305"><ele>54.0</ele><time>2026-04-28T09:41:01.641Z</time></trkpt><trkpt lat="44.1341633" lon="12.0624"><ele>53.5</ele><time>2026-04-28T09:41:03.641Z</time></trkpt><trkpt lat="44.134185" lon="12.0625083"><ele>53.0</ele><time>2026-04-28T09:41:05.64Z</time></trkpt><trkpt lat="44.13419" lon="12.062615"><ele>52.49999999999999</ele><time>2026-04-28T09:41:07.64Z</time></trkpt><trkpt lat="44.1341733" lon="12.062705"><ele>52.0</ele><time>2026-04-28T09:41:09.641Z</time></trkpt><trkpt lat="44.134145" lon="12.06282"><ele>51.666666666666664</ele><time>2026-04-28T09:41:12.641Z</time></trkpt><trkpt lat="44.1341483" lon="12.0629167"><ele>51.33333333333333</ele><time>2026-04-28T09:41:14.641Z</time></trkpt><trkpt lat="44.1341867" lon="12.0630033"><ele>51.0</ele><time>2026-04-28T09:41:16.64Z</time></trkpt><trkpt lat="44.134255" lon="12.0630817"><ele>50.66666666666667</ele><time>2026-04-28T09:41:18.64Z</time></trkpt><trkpt lat="44.1343317" lon="12.0631567"><ele>50.333333333333336</ele><time>2026-04-28T09:41:20.641Z</time></trkpt><trkpt lat="44.134395" lon="12.063225"><ele>50.0</ele><time>2026-04-28T09:41:22.641Z</time></trkpt><trkpt lat="44.1344483" lon="12.0632983"><ele>50.00000000000001</ele><time>2026-04-28T09:41:24.641Z</time></trkpt><trkpt lat="44.134495" lon="12.0633733"><ele>50.0</ele><time>2026-04-28T09:41:26.641Z</time></trkpt><trkpt lat="44.1345433" lon="12.0634517"><ele>50.0</ele><time>2026-04-28T09:41:28.641Z</time></trkpt><trkpt lat="44.1345883" lon="12.06353"><ele>50.0</ele><time>2026-04-28T09:41:30.641Z</time></trkpt><trkpt lat="44.1346383" lon="12.0636083"><ele>50.0</ele><time>2026-04-28T09:41:32.64Z</time></trkpt><trkpt lat="44.1346883" lon="12.063685"><ele>50.00000000000001</ele><time>2026-04-28T09:41:34.641Z</time></trkpt><trkpt lat="44.134735" lon="12.0637533"><ele>50.0</ele><time>2026-04-28T09:41:36.641Z</time></trkpt><trkpt lat="44.1347883" lon="12.063825"><ele>50.00000000000001</ele><time>2026-04-28T09:41:38.641Z</time></trkpt><trkpt lat="44.1348417" lon="12.06389"><ele>50.0</ele><time>2026-04-28T09:41:40.641Z</time></trkpt><trkpt lat="44.1348967" lon="12.0639517"><ele>50.0</ele><time>2026-04-28T09:41:42.641Z</time></trkpt><trkpt lat="44.1349567" lon="12.0640183"><ele>50.0</ele><time>2026-04-28T09:41:44.64Z</time></trkpt><trkpt lat="44.135015" lon="12.0640867"><ele>50.00000000000001</ele><time>2026-04-28T09:41:46.641Z</time></trkpt><trkpt lat="44.1350817" lon="12.06416"><ele>50.0</ele><time>2026-04-28T09:41:48.641Z</time></trkpt><trkpt lat="44.1351417" lon="12.06423"><ele>49.66666666666667</ele><time>2026-04-28T09:41:50.641Z</time></trkpt><trkpt lat="44.1352033" lon="12.064295"><ele>49.333333333333336</ele><time>2026-04-28T09:41:52.641Z</time></trkpt><trkpt lat="44.1352683" lon="12.06437"><ele>49.0</ele><time>2026-04-28T09:41:54.641Z</time></trkpt><trkpt lat="44.135335" lon="12.06444"><ele>48.66666666666667</ele><time>2026-04-28T09:41:56.64Z</time></trkpt><trkpt lat="44.135405" lon="12.0645183"><ele>48.333333333333336</ele><time>2026-04-28T09:41:58.641Z</time></trkpt><trkpt lat="44.135475" lon="12.0645867"><ele>48.0</ele><time>2026-04-28T09:42:00.641Z</time></trkpt><trkpt lat="44.1355433" lon="12.06465"><ele>48.0</ele><time>2026-04-28T09:42:02.641Z</time></trkpt><trkpt lat="44.1356133" lon="12.0647183"><ele>48.0</ele><time>2026-04-28T09:42:04.64Z</time></trkpt><trkpt lat="44.135685" lon="12.0647883"><ele>48.0</ele><time>2026-04-28T09:42:06.641Z</time></trkpt><trkpt lat="44.1357667" lon="12.0648667"><ele>48.0</ele><time>2026-04-28T09:42:08.64Z</time></trkpt><trkpt lat="44.1358483" lon="12.0649483"><ele>48.0</ele><time>2026-04-28T09:42:10.64Z</time></trkpt><trkpt lat="44.1359333" lon="12.06503"><ele>48.0</ele><time>2026-04-28T09:42:12.641Z</time></trkpt><trkpt lat="44.1360183" lon="12.0651133"><ele>48.0</ele><time>2026-04-28T09:42:14.641Z</time></trkpt><trkpt lat="44.136105" lon="12.06519"><ele>48.0</ele><time>2026-04-28T09:42:16.64Z</time></trkpt><trkpt lat="44.1361983" lon="12.0652633"><ele>48.0</ele><time>2026-04-28T09:42:18.64Z</time></trkpt><trkpt lat="44.1362967" lon="12.0653483"><ele>48.0</ele><time>2026-04-28T09:42:20.641Z</time></trkpt><trkpt lat="44.1363867" lon="12.065425"><ele>48.0</ele><time>2026-04-28T09:42:22.64Z</time></trkpt><trkpt lat="44.1364767" lon="12.0654883"><ele>48.0</ele><time>2026-04-28T09:42:24.641Z</time></trkpt><trkpt lat="44.1365683" lon="12.06556"><ele>48.0</ele><time>2026-04-28T09:42:26.64Z</time></trkpt><trkpt lat="44.1366683" lon="12.0656317"><ele>48.0</ele><time>2026-04-28T09:42:28.64Z</time></trkpt><trkpt lat="44.1367733" lon="12.0656983"><ele>48.0</ele><time>2026-04-28T09:42:30.64Z</time></trkpt><trkpt lat="44.1368717" lon="12.0657633"><ele>48.0</ele><time>2026-04-28T09:42:32.64Z</time></trkpt><trkpt lat="44.1369667" lon="12.0658217"><ele>48.0</ele><time>2026-04-28T09:42:34.64Z</time></trkpt><trkpt lat="44.13706" lon="12.0658817"><ele>48.0</ele><time>2026-04-28T09:42:36.64Z</time></trkpt><trkpt lat="44.1371567" lon="12.065935"><ele>48.0</ele><time>2026-04-28T09:42:38.64Z</time></trkpt><trkpt lat="44.1372583" lon="12.0659883"><ele>48.0</ele><time>2026-04-28T09:42:40.641Z</time></trkpt><trkpt lat="44.1373633" lon="12.0660517"><ele>48.5</ele><time>2026-04-28T09:42:42.64Z</time></trkpt><trkpt lat="44.1374667" lon="12.0661067"><ele>49.0</ele><time>2026-04-28T09:42:44.641Z</time></trkpt><trkpt lat="44.1375733" lon="12.06616"><ele>49.5</ele><time>2026-04-28T09:42:46.641Z</time></trkpt><trkpt lat="44.13768" lon="12.066215"><ele>50.0</ele><time>2026-04-28T09:42:48.641Z</time></trkpt><trkpt lat="44.1377917" lon="12.0662617"><ele>50.0</ele><time>2026-04-28T09:42:50.641Z</time></trkpt><trkpt lat="44.137905" lon="12.066315"><ele>50.0</ele><time>2026-04-28T09:42:52.64Z</time></trkpt><trkpt lat="44.1380183" lon="12.0663667"><ele>50.0</ele><time>2026-04-28T09:42:54.64Z</time></trkpt><trkpt lat="44.1381317" lon="12.0664183"><ele>50.0</ele><time>2026-04-28T09:42:56.641Z</time></trkpt><trkpt lat="44.1382467" lon="12.0664717"><ele>50.0</ele><time>2026-04-28T09:42:58.641Z</time></trkpt><trkpt lat="44.1383633" lon="12.06653"><ele>50.0</ele><time>2026-04-28T09:43:00.641Z</time></trkpt><trkpt lat="44.138475" lon="12.0665917"><ele>50.0</ele><time>2026-04-28T09:43:02.641Z</time></trkpt><trkpt lat="44.138585" lon="12.0666483"><ele>50.0</ele><time>2026-04-28T09:43:04.641Z</time></trkpt><trkpt lat="44.138645" lon="12.0666767"><ele>50.0</ele><time>2026-04-28T09:43:05.64Z</time></trkpt><trkpt lat="44.13876" lon="12.0667267"><ele>49.833333333333336</ele><time>2026-04-28T09:43:07.64Z</time></trkpt><trkpt lat="44.1388767" lon="12.0667833"><ele>49.66666666666667</ele><time>2026-04-28T09:43:09.641Z</time></trkpt><trkpt lat="44.1389983" lon="12.0668317"><ele>49.5</ele><time>2026-04-28T09:43:11.64Z</time></trkpt><trkpt lat="44.13906" lon="12.0668583"><ele>49.33333333333333</ele><time>2026-04-28T09:43:12.641Z</time></trkpt><trkpt lat="44.1391217" lon="12.066885"><ele>49.166666666666664</ele><time>2026-04-28T09:43:13.641Z</time></trkpt><trkpt lat="44.1391867" lon="12.0669167"><ele>49.0</ele><time>2026-04-28T09:43:14.64Z</time></trkpt><trkpt lat="44.1392483" lon="12.066945"><ele>49.0</ele><time>2026-04-28T09:43:15.64Z</time></trkpt><trkpt lat="44.1393617" lon="12.067"><ele>49.0</ele><time>2026-04-28T09:43:17.64Z</time></trkpt><trkpt lat="44.1394817" lon="12.06706"><ele>49.0</ele><time>2026-04-28T09:43:19.64Z</time></trkpt><trkpt lat="44.139545" lon="12.06709"><ele>49.0</ele><time>2026-04-28T09:43:20.641Z</time></trkpt><trkpt lat="44.1396083" lon="12.0671167"><ele>49.0</ele><time>2026-04-28T09:43:21.641Z</time></trkpt><trkpt lat="44.1397233" lon="12.0671683"><ele>48.99999999999999</ele><time>2026-04-28T09:43:23.641Z</time></trkpt><trkpt lat="44.139785" lon="12.0671983"><ele>49.0</ele><time>2026-04-28T09:43:24.641Z</time></trkpt><trkpt lat="44.1398983" lon="12.0672567"><ele>49.0</ele><time>2026-04-28T09:43:26.64Z</time></trkpt><trkpt lat="44.1399583" lon="12.0672833"><ele>49.0</ele><time>2026-04-28T09:43:27.641Z</time></trkpt><trkpt lat="44.1400183" lon="12.0673167"><ele>48.99999999999999</ele><time>2026-04-28T09:43:28.64Z</time></trkpt><trkpt lat="44.14008" lon="12.067345"><ele>49.0</ele><time>2026-04-28T09:43:29.64Z</time></trkpt><trkpt lat="44.1401967" lon="12.0674"><ele>48.99999999999999</ele><time>2026-04-28T09:43:31.64Z</time></trkpt><trkpt lat="44.1402567" lon="12.0674317"><ele>49.0</ele><time>2026-04-28T09:43:32.641Z</time></trkpt><trkpt lat="44.1403683" lon="12.0674883"><ele>49.0</ele><time>2026-04-28T09:43:34.64Z</time></trkpt><trkpt lat="44.1404917" lon="12.0675467"><ele>49.0</ele><time>2026-04-28T09:43:36.64Z</time></trkpt><trkpt lat="44.1405567" lon="12.0675767"><ele>48.99999999999999</ele><time>2026-04-28T09:43:37.64Z</time></trkpt><trkpt lat="44.1406183" lon="12.0676033"><ele>49.0</ele><time>2026-04-28T09:43:38.64Z</time></trkpt><trkpt lat="44.1406783" lon="12.0676367"><ele>48.83333333333333</ele><time>2026-04-28T09:43:39.641Z</time></trkpt><trkpt lat="44.1407367" lon="12.0676717"><ele>48.666666666666664</ele><time>2026-04-28T09:43:40.641Z</time></trkpt><trkpt lat="44.1408" lon="12.0677017"><ele>48.5</ele><time>2026-04-28T09:43:41.641Z</time></trkpt><trkpt lat="44.1409133" lon="12.0677533"><ele>48.33333333333333</ele><time>2026-04-28T09:43:43.64Z</time></trkpt><trkpt lat="44.1410233" lon="12.06782"><ele>48.166666666666664</ele><time>2026-04-28T09:43:45.641Z</time></trkpt><trkpt lat="44.1410833" lon="12.06785"><ele>48.0</ele><time>2026-04-28T09:43:46.64Z</time></trkpt><trkpt lat="44.1411433" lon="12.0678783"><ele>48.0</ele><time>2026-04-28T09:43:47.641Z</time></trkpt><trkpt lat="44.1412033" lon="12.0679083"><ele>48.0</ele><time>2026-04-28T09:43:48.641Z</time></trkpt><trkpt lat="44.1412633" lon="12.0679383"><ele>48.0</ele><time>2026-04-28T09:43:49.64Z</time></trkpt><trkpt lat="44.1413267" lon="12.0679667"><ele>48.0</ele><time>2026-04-28T09:43:50.641Z</time></trkpt><trkpt lat="44.1413917" lon="12.0680033"><ele>48.0</ele><time>2026-04-28T09:43:51.64Z</time></trkpt><trkpt lat="44.141505" lon="12.0680717"><ele>48.0</ele><time>2026-04-28T09:43:53.64Z</time></trkpt><trkpt lat="44.1415683" lon="12.0681033"><ele>48.166666666666664</ele><time>2026-04-28T09:43:54.64Z</time></trkpt><trkpt lat="44.1416883" lon="12.0681583"><ele>48.33333333333333</ele><time>2026-04-28T09:43:56.641Z</time></trkpt><trkpt lat="44.1417483" lon="12.0681933"><ele>48.5</ele><time>2026-04-28T09:43:57.64Z</time></trkpt><trkpt lat="44.14181" lon="12.0682317"><ele>48.666666666666664</ele><time>2026-04-28T09:43:58.641Z</time></trkpt><trkpt lat="44.1418683" lon="12.0682667"><ele>48.83333333333333</ele><time>2026-04-28T09:43:59.64Z</time></trkpt><trkpt lat="44.1419267" lon="12.0683117"><ele>49.0</ele><time>2026-04-28T09:44:00.641Z</time></trkpt><trkpt lat="44.14199" lon="12.0683533"><ele>49.0</ele><time>2026-04-28T09:44:01.64Z</time></trkpt><trkpt lat="44.1420533" lon="12.06839"><ele>49.0</ele><time>2026-04-28T09:44:02.641Z</time></trkpt><trkpt lat="44.142115" lon="12.0684317"><ele>49.0</ele><time>2026-04-28T09:44:03.641Z</time></trkpt><trkpt lat="44.1421717" lon="12.0684733"><ele>49.0</ele><time>2026-04-28T09:44:04.64Z</time></trkpt><trkpt lat="44.1422317" lon="12.068515"><ele>49.0</ele><time>2026-04-28T09:44:05.64Z</time></trkpt><trkpt lat="44.14229" lon="12.068565"><ele>49.0</ele><time>2026-04-28T09:44:06.641Z</time></trkpt><trkpt lat="44.14235" lon="12.0686133"><ele>49.0</ele><time>2026-04-28T09:44:07.64Z</time></trkpt><trkpt lat="44.1424033" lon="12.0686617"><ele>49.0</ele><time>2026-04-28T09:44:08.641Z</time></trkpt><trkpt lat="44.14249" lon="12.06876"><ele>49.0</ele><time>2026-04-28T09:44:10.641Z</time></trkpt><trkpt lat="44.1425567" lon="12.0688683"><ele>49.0</ele><time>2026-04-28T09:44:12.641Z</time></trkpt><trkpt lat="44.1426333" lon="12.068995"><ele>49.0</ele><time>2026-04-28T09:44:14.64Z</time></trkpt><trkpt lat="44.142685" lon="12.06905"><ele>49.0</ele><time>2026-04-28T09:44:15.641Z</time></trkpt><trkpt lat="44.1427417" lon="12.0690917"><ele>48.99999999999999</ele><time>2026-04-28T09:44:16.64Z</time></trkpt><trkpt lat="44.1428617" lon="12.0691417"><ele>49.0</ele><time>2026-04-28T09:44:18.641Z</time></trkpt><trkpt lat="44.14292" lon="12.06918"><ele>49.0</ele><time>2026-04-28T09:44:19.641Z</time></trkpt><trkpt lat="44.1429783" lon="12.0692233"><ele>49.0</ele><time>2026-04-28T09:44:20.64Z</time></trkpt><trkpt lat="44.143035" lon="12.0692733"><ele>48.99999999999999</ele><time>2026-04-28T09:44:21.641Z</time></trkpt><trkpt lat="44.143085" lon="12.0693267"><ele>49.0</ele><time>2026-04-28T09:44:22.641Z</time></trkpt><trkpt lat="44.143185" lon="12.06944"><ele>49.0</ele><time>2026-04-28T09:44:24.641Z</time></trkpt><trkpt lat="44.1432367" lon="12.0695"><ele>49.0</ele><time>2026-04-28T09:44:25.64Z</time></trkpt><trkpt lat="44.143285" lon="12.0695617"><ele>49.0</ele><time>2026-04-28T09:44:26.641Z</time></trkpt><trkpt lat="44.143335" lon="12.069625"><ele>49.0</ele><time>2026-04-28T09:44:27.64Z</time></trkpt><trkpt lat="44.143385" lon="12.0696833"><ele>49.0</ele><time>2026-04-28T09:44:28.641Z</time></trkpt><trkpt lat="44.143435" lon="12.0697383"><ele>49.0</ele><time>2026-04-28T09:44:29.64Z</time></trkpt><trkpt lat="44.1434867" lon="12.0697983"><ele>49.0</ele><time>2026-04-28T09:44:30.641Z</time></trkpt><trkpt lat="44.14354" lon="12.0698583"><ele>49.0</ele><time>2026-04-28T09:44:31.641Z</time></trkpt><trkpt lat="44.1435933" lon="12.0699217"><ele>49.0</ele><time>2026-04-28T09:44:32.64Z</time></trkpt><trkpt lat="44.143645" lon="12.0699833"><ele>49.0</ele><time>2026-04-28T09:44:33.641Z</time></trkpt><trkpt lat="44.1436983" lon="12.07005"><ele>49.0</ele><time>2026-04-28T09:44:34.64Z</time></trkpt><trkpt lat="44.1437533" lon="12.0701117"><ele>49.0</ele><time>2026-04-28T09:44:35.641Z</time></trkpt><trkpt lat="44.1438083" lon="12.0701783"><ele>49.0</ele><time>2026-04-28T09:44:36.64Z</time></trkpt><trkpt lat="44.14386" lon="12.0702417"><ele>49.0</ele><time>2026-04-28T09:44:37.64Z</time></trkpt><trkpt lat="44.1439167" lon="12.07031"><ele>49.0</ele><time>2026-04-28T09:44:38.641Z</time></trkpt><trkpt lat="44.1439717" lon="12.0703683"><ele>49.0</ele><time>2026-04-28T09:44:39.641Z</time></trkpt><trkpt lat="44.1440267" lon="12.0704317"><ele>49.0</ele><time>2026-04-28T09:44:40.641Z</time></trkpt><trkpt lat="44.1440783" lon="12.0704933"><ele>49.0</ele><time>2026-04-28T09:44:41.64Z</time></trkpt><trkpt lat="44.1441333" lon="12.0705583"><ele>49.0</ele><time>2026-04-28T09:44:42.64Z</time></trkpt><trkpt lat="44.1441883" lon="12.0706233"><ele>49.0</ele><time>2026-04-28T09:44:43.641Z</time></trkpt><trkpt lat="44.1442433" lon="12.0706917"><ele>49.0</ele><time>2026-04-28T09:44:44.64Z</time></trkpt><trkpt lat="44.1442967" lon="12.0707533"><ele>48.83333333333333</ele><time>2026-04-28T09:44:45.641Z</time></trkpt><trkpt lat="44.1443533" lon="12.0708"><ele>48.666666666666664</ele><time>2026-04-28T09:44:46.641Z</time></trkpt><trkpt lat="44.1444017" lon="12.0708633"><ele>48.5</ele><time>2026-04-28T09:44:47.641Z</time></trkpt><trkpt lat="44.1444467" lon="12.0709267"><ele>48.33333333333333</ele><time>2026-04-28T09:44:48.641Z</time></trkpt><trkpt lat="44.1445" lon="12.07099"><ele>48.166666666666664</ele><time>2026-04-28T09:44:49.64Z</time></trkpt><trkpt lat="44.1446017" lon="12.071115"><ele>48.0</ele><time>2026-04-28T09:44:51.64Z</time></trkpt><trkpt lat="44.14466" lon="12.07118"><ele>48.0</ele><time>2026-04-28T09:44:52.641Z</time></trkpt><trkpt lat="44.1447183" lon="12.0712383"><ele>48.0</ele><time>2026-04-28T09:44:53.641Z</time></trkpt><trkpt lat="44.1447733" lon="12.071295"><ele>48.0</ele><time>2026-04-28T09:44:54.641Z</time></trkpt><trkpt lat="44.1448767" lon="12.071385"><ele>48.0</ele><time>2026-04-28T09:44:56.641Z</time></trkpt><trkpt lat="44.1449317" lon="12.0714333"><ele>48.0</ele><time>2026-04-28T09:44:57.641Z</time></trkpt><trkpt lat="44.1449917" lon="12.07148"><ele>48.0</ele><time>2026-04-28T09:44:58.641Z</time></trkpt><trkpt lat="44.14505" lon="12.0715283"><ele>48.0</ele><time>2026-04-28T09:44:59.641Z</time></trkpt><trkpt lat="44.1451117" lon="12.0715717"><ele>48.0</ele><time>2026-04-28T09:45:00.64Z</time></trkpt><trkpt lat="44.1451717" lon="12.0716083"><ele>48.0</ele><time>2026-04-28T09:45:01.64Z</time></trkpt><trkpt lat="44.1452867" lon="12.071685"><ele>48.0</ele><time>2026-04-28T09:45:03.64Z</time></trkpt><trkpt lat="44.14535" lon="12.07172"><ele>48.0</ele><time>2026-04-28T09:45:04.641Z</time></trkpt><trkpt lat="44.145415" lon="12.0717467"><ele>48.0</ele><time>2026-04-28T09:45:05.641Z</time></trkpt><trkpt lat="44.1454867" lon="12.0717717"><ele>47.71428571428571</ele><time>2026-04-28T09:45:06.641Z</time></trkpt><trkpt lat="44.1455567" lon="12.0717917"><ele>47.42857142857143</ele><time>2026-04-28T09:45:07.641Z</time></trkpt><trkpt lat="44.1456317" lon="12.0718083"><ele>47.14285714285714</ele><time>2026-04-28T09:45:08.641Z</time></trkpt><trkpt lat="44.1457017" lon="12.07182"><ele>46.857142857142854</ele><time>2026-04-28T09:45:09.64Z</time></trkpt><trkpt lat="44.1457683" lon="12.0718317"><ele>46.57142857142857</ele><time>2026-04-28T09:45:10.64Z</time></trkpt><trkpt lat="44.1458367" lon="12.0718417"><ele>46.285714285714285</ele><time>2026-04-28T09:45:11.641Z</time></trkpt><trkpt lat="44.1459083" lon="12.0718533"><ele>46.0</ele><time>2026-04-28T09:45:12.64Z</time></trkpt><trkpt lat="44.1459783" lon="12.0718717"><ele>46.0</ele><time>2026-04-28T09:45:13.641Z</time></trkpt><trkpt lat="44.1460483" lon="12.071885"><ele>46.0</ele><time>2026-04-28T09:45:14.641Z</time></trkpt><trkpt lat="44.1461783" lon="12.0719083"><ele>46.0</ele><time>2026-04-28T09:45:16.641Z</time></trkpt><trkpt lat="44.1462483" lon="12.0719317"><ele>46.0</ele><time>2026-04-28T09:45:17.641Z</time></trkpt><trkpt lat="44.1463067" lon="12.0719683"><ele>46.0</ele><time>2026-04-28T09:45:18.641Z</time></trkpt><trkpt lat="44.1463617" lon="12.0720167"><ele>46.0</ele><time>2026-04-28T09:45:19.64Z</time></trkpt><trkpt lat="44.14641" lon="12.0720783"><ele>46.0</ele><time>2026-04-28T09:45:20.641Z</time></trkpt><trkpt lat="44.1464567" lon="12.0721467"><ele>46.0</ele><time>2026-04-28T09:45:21.641Z</time></trkpt><trkpt lat="44.1465033" lon="12.0722183"><ele>46.0</ele><time>2026-04-28T09:45:22.641Z</time></trkpt><trkpt lat="44.1465567" lon="12.0722917"><ele>46.0</ele><time>2026-04-28T09:45:23.64Z</time></trkpt><trkpt lat="44.146605" lon="12.072365"><ele>46.0</ele><time>2026-04-28T09:45:24.64Z</time></trkpt><trkpt lat="44.1466483" lon="12.0724467"><ele>46.0</ele><time>2026-04-28T09:45:25.641Z</time></trkpt><trkpt lat="44.1466767" lon="12.0725383"><ele>46.0</ele><time>2026-04-28T09:45:26.641Z</time></trkpt><trkpt lat="44.1467" lon="12.072625"><ele>46.142857142857146</ele><time>2026-04-28T09:45:27.64Z</time></trkpt><trkpt lat="44.1467217" lon="12.0727117"><ele>46.285714285714285</ele><time>2026-04-28T09:45:28.641Z</time></trkpt><trkpt lat="44.1467467" lon="12.0728"><ele>46.42857142857143</ele><time>2026-04-28T09:45:29.641Z</time></trkpt><trkpt lat="44.1467733" lon="12.0728833"><ele>46.57142857142857</ele><time>2026-04-28T09:45:30.641Z</time></trkpt><trkpt lat="44.1468033" lon="12.07297"><ele>46.71428571428571</ele><time>2026-04-28T09:45:31.641Z</time></trkpt><trkpt lat="44.1468367" lon="12.0730633"><ele>46.857142857142854</ele><time>2026-04-28T09:45:32.641Z</time></trkpt><trkpt lat="44.1468733" lon="12.0731483"><ele>47.0</ele><time>2026-04-28T09:45:33.641Z</time></trkpt><trkpt lat="44.1469083" lon="12.0732383"><ele>46.83333333333333</ele><time>2026-04-28T09:45:34.64Z</time></trkpt><trkpt lat="44.1469433" lon="12.0733283"><ele>46.666666666666664</ele><time>2026-04-28T09:45:35.641Z</time></trkpt><trkpt lat="44.1469833" lon="12.07342"><ele>46.5</ele><time>2026-04-28T09:45:36.641Z</time></trkpt><trkpt lat="44.14703" lon="12.0735083"><ele>46.333333333333336</ele><time>2026-04-28T09:45:37.641Z</time></trkpt><trkpt lat="44.1470667" lon="12.0735983"><ele>46.16666666666667</ele><time>2026-04-28T09:45:38.641Z</time></trkpt><trkpt lat="44.1471033" lon="12.0736883"><ele>46.0</ele><time>2026-04-28T09:45:39.64Z</time></trkpt><trkpt lat="44.1471467" lon="12.073775"><ele>46.0</ele><time>2026-04-28T09:45:40.64Z</time></trkpt><trkpt lat="44.1471883" lon="12.0738633"><ele>46.0</ele><time>2026-04-28T09:45:41.64Z</time></trkpt><trkpt lat="44.147225" lon="12.073955"><ele>46.0</ele><time>2026-04-28T09:45:42.64Z</time></trkpt><trkpt lat="44.147255" lon="12.07404"><ele>46.0</ele><time>2026-04-28T09:45:43.641Z</time></trkpt><trkpt lat="44.1472817" lon="12.07412"><ele>46.0</ele><time>2026-04-28T09:45:44.641Z</time></trkpt><trkpt lat="44.14731" lon="12.0742017"><ele>46.0</ele><time>2026-04-28T09:45:45.641Z</time></trkpt><trkpt lat="44.1473417" lon="12.07428"><ele>46.0</ele><time>2026-04-28T09:45:46.641Z</time></trkpt><trkpt lat="44.14737" lon="12.0743633"><ele>46.0</ele><time>2026-04-28T09:45:47.641Z</time></trkpt><trkpt lat="44.1473967" lon="12.0744433"><ele>46.0</ele><time>2026-04-28T09:45:48.64Z</time></trkpt><trkpt lat="44.14742" lon="12.0745267"><ele>46.0</ele><time>2026-04-28T09:45:49.641Z</time></trkpt><trkpt lat="44.147445" lon="12.0746083"><ele>46.0</ele><time>2026-04-28T09:45:50.641Z</time></trkpt><trkpt lat="44.1474667" lon="12.074695"><ele>46.0</ele><time>2026-04-28T09:45:51.641Z</time></trkpt><trkpt lat="44.1474917" lon="12.0747817"><ele>46.0</ele><time>2026-04-28T09:45:52.641Z</time></trkpt><trkpt lat="44.1475167" lon="12.0748633"><ele>46.0</ele><time>2026-04-28T09:45:53.641Z</time></trkpt><trkpt lat="44.1475667" lon="12.0750283"><ele>46.0</ele><time>2026-04-28T09:45:55.641Z</time></trkpt><trkpt lat="44.1475917" lon="12.07511"><ele>46.0</ele><time>2026-04-28T09:45:56.64Z</time></trkpt><trkpt lat="44.1476167" lon="12.0751933"><ele>46.0</ele><time>2026-04-28T09:45:57.64Z</time></trkpt><trkpt lat="44.14764" lon="12.0752833"><ele>46.0</ele><time>2026-04-28T09:45:58.641Z</time></trkpt><trkpt lat="44.147665" lon="12.075365"><ele>46.0</ele><time>2026-04-28T09:45:59.64Z</time></trkpt><trkpt lat="44.1476917" lon="12.075445"><ele>46.0</ele><time>2026-04-28T09:46:00.64Z</time></trkpt><trkpt lat="44.147745" lon="12.0756033"><ele>46.0</ele><time>2026-04-28T09:46:02.641Z</time></trkpt><trkpt lat="44.1477717" lon="12.0756833"><ele>46.0</ele><time>2026-04-28T09:46:03.64Z</time></trkpt><trkpt lat="44.1478" lon="12.0757633"><ele>46.0</ele><time>2026-04-28T09:46:04.641Z</time></trkpt><trkpt lat="44.1478483" lon="12.0759167"><ele>46.0</ele><time>2026-04-28T09:46:06.64Z</time></trkpt><trkpt lat="44.1478767" lon="12.0760033"><ele>46.0</ele><time>2026-04-28T09:46:07.64Z</time></trkpt><trkpt lat="44.147905" lon="12.0760883"><ele>46.0</ele><time>2026-04-28T09:46:08.64Z</time></trkpt><trkpt lat="44.1479333" lon="12.0761667"><ele>46.0</ele><time>2026-04-28T09:46:09.64Z</time></trkpt><trkpt lat="44.147965" lon="12.0762567"><ele>46.0</ele><time>2026-04-28T09:46:10.64Z</time></trkpt><trkpt lat="44.1479967" lon="12.076345"><ele>46.0</ele><time>2026-04-28T09:46:11.64Z</time></trkpt><trkpt lat="44.14803" lon="12.0764267"><ele>46.0</ele><time>2026-04-28T09:46:12.64Z</time></trkpt><trkpt lat="44.1480783" lon="12.07658"><ele>46.0</ele><time>2026-04-28T09:46:14.641Z</time></trkpt><trkpt lat="44.14813" lon="12.0767533"><ele>46.0</ele><time>2026-04-28T09:46:16.641Z</time></trkpt><trkpt lat="44.1481567" lon="12.0768433"><ele>45.599999999999994</ele><time>2026-04-28T09:46:17.64Z</time></trkpt><trkpt lat="44.1481833" lon="12.0769317"><ele>45.2</ele><time>2026-04-28T09:46:18.641Z</time></trkpt><trkpt lat="44.1482383" lon="12.0770883"><ele>44.8</ele><time>2026-04-28T09:46:20.64Z</time></trkpt><trkpt lat="44.1482683" lon="12.0771817"><ele>44.400000000000006</ele><time>2026-04-28T09:46:21.64Z</time></trkpt><trkpt lat="44.1483217" lon="12.0773367"><ele>44.0</ele><time>2026-04-28T09:46:23.641Z</time></trkpt><trkpt lat="44.148355" lon="12.0774233"><ele>44.166666666666664</ele><time>2026-04-28T09:46:24.641Z</time></trkpt><trkpt lat="44.1483783" lon="12.0775067"><ele>44.33333333333333</ele><time>2026-04-28T09:46:25.641Z</time></trkpt><trkpt lat="44.1484067" lon="12.077595"><ele>44.5</ele><time>2026-04-28T09:46:26.641Z</time></trkpt><trkpt lat="44.148455" lon="12.0777617"><ele>44.666666666666664</ele><time>2026-04-28T09:46:28.64Z</time></trkpt><trkpt lat="44.148485" lon="12.0778517"><ele>44.833333333333336</ele><time>2026-04-28T09:46:29.64Z</time></trkpt><trkpt lat="44.1485183" lon="12.0779517"><ele>45.0</ele><time>2026-04-28T09:46:30.64Z</time></trkpt><trkpt lat="44.14855" lon="12.0780483"><ele>45.0</ele><time>2026-04-28T09:46:31.641Z</time></trkpt><trkpt lat="44.1485783" lon="12.0781417"><ele>45.0</ele><time>2026-04-28T09:46:32.641Z</time></trkpt><trkpt lat="44.14861" lon="12.0782383"><ele>45.0</ele><time>2026-04-28T09:46:33.641Z</time></trkpt><trkpt lat="44.1486383" lon="12.07833"><ele>45.0</ele><time>2026-04-28T09:46:34.64Z</time></trkpt><trkpt lat="44.1486733" lon="12.0784267"><ele>45.0</ele><time>2026-04-28T09:46:35.64Z</time></trkpt><trkpt lat="44.148705" lon="12.0785217"><ele>45.0</ele><time>2026-04-28T09:46:36.64Z</time></trkpt><trkpt lat="44.1487333" lon="12.0786167"><ele>45.0</ele><time>2026-04-28T09:46:37.641Z</time></trkpt><trkpt lat="44.1487633" lon="12.078695"><ele>45.0</ele><time>2026-04-28T09:46:38.64Z</time></trkpt><trkpt lat="44.1487867" lon="12.07878"><ele>45.0</ele><time>2026-04-28T09:46:39.641Z</time></trkpt><trkpt lat="44.148815" lon="12.0788667"><ele>45.0</ele><time>2026-04-28T09:46:40.641Z</time></trkpt><trkpt lat="44.1488483" lon="12.0789633"><ele>45.0</ele><time>2026-04-28T09:46:41.641Z</time></trkpt><trkpt lat="44.1488817" lon="12.07905"><ele>45.0</ele><time>2026-04-28T09:46:42.641Z</time></trkpt><trkpt lat="44.1489167" lon="12.0791383"><ele>45.0</ele><time>2026-04-28T09:46:43.64Z</time></trkpt><trkpt lat="44.1489483" lon="12.0792317"><ele>45.0</ele><time>2026-04-28T09:46:44.641Z</time></trkpt><trkpt lat="44.1489767" lon="12.0793183"><ele>44.857142857142854</ele><time>2026-04-28T09:46:45.641Z</time></trkpt><trkpt lat="44.149" lon="12.0794067"><ele>44.714285714285715</ele><time>2026-04-28T09:46:46.64Z</time></trkpt><trkpt lat="44.14903" lon="12.0794983"><ele>44.57142857142857</ele><time>2026-04-28T09:46:47.64Z</time></trkpt><trkpt lat="44.149055" lon="12.0795933"><ele>44.42857142857143</ele><time>2026-04-28T09:46:48.641Z</time></trkpt><trkpt lat="44.149085" lon="12.0796817"><ele>44.285714285714285</ele><time>2026-04-28T09:46:49.64Z</time></trkpt><trkpt lat="44.1491133" lon="12.0797717"><ele>44.142857142857146</ele><time>2026-04-28T09:46:50.64Z</time></trkpt><trkpt lat="44.1491467" lon="12.07986"><ele>44.0</ele><time>2026-04-28T09:46:51.64Z</time></trkpt><trkpt lat="44.149175" lon="12.0799517"><ele>43.85714285714286</ele><time>2026-04-28T09:46:52.64Z</time></trkpt><trkpt lat="44.1492033" lon="12.0800383"><ele>43.714285714285715</ele><time>2026-04-28T09:46:53.641Z</time></trkpt><trkpt lat="44.14923" lon="12.0801317"><ele>43.57142857142857</ele><time>2026-04-28T09:46:54.641Z</time></trkpt><trkpt lat="44.149255" lon="12.0802217"><ele>43.42857142857143</ele><time>2026-04-28T09:46:55.64Z</time></trkpt><trkpt lat="44.1492867" lon="12.0803033"><ele>43.285714285714285</ele><time>2026-04-28T09:46:56.641Z</time></trkpt><trkpt lat="44.14932" lon="12.0803883"><ele>43.142857142857146</ele><time>2026-04-28T09:46:57.64Z</time></trkpt><trkpt lat="44.14935" lon="12.080475"><ele>43.0</ele><time>2026-04-28T09:46:58.64Z</time></trkpt><trkpt lat="44.14938" lon="12.0805583"><ele>43.0</ele><time>2026-04-28T09:46:59.64Z</time></trkpt><trkpt lat="44.14941" lon="12.0806383"><ele>43.0</ele><time>2026-04-28T09:47:00.641Z</time></trkpt><trkpt lat="44.149435" lon="12.08072"><ele>43.0</ele><time>2026-04-28T09:47:01.64Z</time></trkpt><trkpt lat="44.149485" lon="12.0808917"><ele>43.0</ele><time>2026-04-28T09:47:03.64Z</time></trkpt><trkpt lat="44.1495133" lon="12.0809817"><ele>43.0</ele><time>2026-04-28T09:47:04.641Z</time></trkpt><trkpt lat="44.1495383" lon="12.0810683"><ele>43.0</ele><time>2026-04-28T09:47:05.64Z</time></trkpt><trkpt lat="44.149565" lon="12.0811583"><ele>43.00000000000001</ele><time>2026-04-28T09:47:06.641Z</time></trkpt><trkpt lat="44.1495983" lon="12.08125"><ele>43.0</ele><time>2026-04-28T09:47:07.64Z</time></trkpt><trkpt lat="44.1496267" lon="12.0813367"><ele>43.0</ele><time>2026-04-28T09:47:08.641Z</time></trkpt><trkpt lat="44.149665" lon="12.08143"><ele>43.0</ele><time>2026-04-28T09:47:09.641Z</time></trkpt><trkpt lat="44.149695" lon="12.0815217"><ele>43.0</ele><time>2026-04-28T09:47:10.641Z</time></trkpt><trkpt lat="44.14972" lon="12.08161"><ele>43.00000000000001</ele><time>2026-04-28T09:47:11.64Z</time></trkpt><trkpt lat="44.1497433" lon="12.081695"><ele>43.0</ele><time>2026-04-28T09:47:12.64Z</time></trkpt><trkpt lat="44.1497717" lon="12.0817867"><ele>43.00000000000001</ele><time>2026-04-28T09:47:13.641Z</time></trkpt><trkpt lat="44.1497967" lon="12.0818783"><ele>43.0</ele><time>2026-04-28T09:47:14.641Z</time></trkpt><trkpt lat="44.149825" lon="12.0819633"><ele>43.0</ele><time>2026-04-28T09:47:15.64Z</time></trkpt><trkpt lat="44.1498533" lon="12.0820417"><ele>43.0</ele><time>2026-04-28T09:47:16.641Z</time></trkpt><trkpt lat="44.1498833" lon="12.0821367"><ele>43.0</ele><time>2026-04-28T09:47:17.64Z</time></trkpt><trkpt lat="44.1499117" lon="12.0822183"><ele>43.00000000000001</ele><time>2026-04-28T09:47:18.641Z</time></trkpt><trkpt lat="44.1499383" lon="12.0823067"><ele>43.0</ele><time>2026-04-28T09:47:19.641Z</time></trkpt><trkpt lat="44.1499667" lon="12.0823967"><ele>42.833333333333336</ele><time>2026-04-28T09:47:20.64Z</time></trkpt><trkpt lat="44.1499933" lon="12.0824867"><ele>42.66666666666667</ele><time>2026-04-28T09:47:21.641Z</time></trkpt><trkpt lat="44.1500233" lon="12.0825717"><ele>42.5</ele><time>2026-04-28T09:47:22.64Z</time></trkpt><trkpt lat="44.1500517" lon="12.0826617"><ele>42.333333333333336</ele><time>2026-04-28T09:47:23.64Z</time></trkpt><trkpt lat="44.1500783" lon="12.0827467"><ele>42.166666666666664</ele><time>2026-04-28T09:47:24.641Z</time></trkpt><trkpt lat="44.15011" lon="12.082825"><ele>42.0</ele><time>2026-04-28T09:47:25.64Z</time></trkpt><trkpt lat="44.150155" lon="12.08299"><ele>42.0</ele><time>2026-04-28T09:47:27.64Z</time></trkpt><trkpt lat="44.15018" lon="12.083075"><ele>42.0</ele><time>2026-04-28T09:47:28.64Z</time></trkpt><trkpt lat="44.1502067" lon="12.08316"><ele>42.0</ele><time>2026-04-28T09:47:29.641Z</time></trkpt><trkpt lat="44.150235" lon="12.0832517"><ele>42.0</ele><time>2026-04-28T09:47:30.641Z</time></trkpt><trkpt lat="44.150265" lon="12.0833417"><ele>42.0</ele><time>2026-04-28T09:47:31.64Z</time></trkpt><trkpt lat="44.1502967" lon="12.08344"><ele>42.0</ele><time>2026-04-28T09:47:32.641Z</time></trkpt><trkpt lat="44.1503267" lon="12.0835333"><ele>42.0</ele><time>2026-04-28T09:47:33.641Z</time></trkpt><trkpt lat="44.1503617" lon="12.0836167"><ele>42.0</ele><time>2026-04-28T09:47:34.641Z</time></trkpt><trkpt lat="44.1503867" lon="12.0837"><ele>42.0</ele><time>2026-04-28T09:47:35.64Z</time></trkpt><trkpt lat="44.1504317" lon="12.0838567"><ele>42.0</ele><time>2026-04-28T09:47:37.64Z</time></trkpt><trkpt lat="44.1504783" lon="12.0840167"><ele>42.0</ele><time>2026-04-28T09:47:39.641Z</time></trkpt><trkpt lat="44.1505" lon="12.084105"><ele>42.0</ele><time>2026-04-28T09:47:40.64Z</time></trkpt><trkpt lat="44.150495" lon="12.0842567"><ele>42.0</ele><time>2026-04-28T09:47:42.64Z</time></trkpt><trkpt lat="44.15049" lon="12.0844183"><ele>42.0</ele><time>2026-04-28T09:47:44.64Z</time></trkpt><trkpt lat="44.15053" lon="12.0845767"><ele>42.0</ele><time>2026-04-28T09:47:46.641Z</time></trkpt><trkpt lat="44.1505683" lon="12.08465"><ele>42.0</ele><time>2026-04-28T09:47:47.64Z</time></trkpt><trkpt lat="44.15062" lon="12.0847033"><ele>42.0</ele><time>2026-04-28T09:47:48.64Z</time></trkpt><trkpt lat="44.1506817" lon="12.0847417"><ele>42.0</ele><time>2026-04-28T09:47:49.641Z</time></trkpt><trkpt lat="44.150795" lon="12.0848233"><ele>42.0</ele><time>2026-04-28T09:47:51.64Z</time></trkpt><trkpt lat="44.15088" lon="12.0849483"><ele>42.0</ele><time>2026-04-28T09:47:53.64Z</time></trkpt><trkpt lat="44.1509267" lon="12.0850267"><ele>42.0</ele><time>2026-04-28T09:47:54.64Z</time></trkpt><trkpt lat="44.15097" lon="12.0851033"><ele>42.0</ele><time>2026-04-28T09:47:55.641Z</time></trkpt><trkpt lat="44.151015" lon="12.0851767"><ele>42.0</ele><time>2026-04-28T09:47:56.641Z</time></trkpt><trkpt lat="44.151065" lon="12.0852467"><ele>42.0</ele><time>2026-04-28T09:47:57.641Z</time></trkpt><trkpt lat="44.1511033" lon="12.0853267"><ele>42.0</ele><time>2026-04-28T09:47:58.64Z</time></trkpt><trkpt lat="44.1511467" lon="12.08541"><ele>42.0</ele><time>2026-04-28T09:47:59.64Z</time></trkpt><trkpt lat="44.151195" lon="12.0854917"><ele>42.0</ele><time>2026-04-28T09:48:00.641Z</time></trkpt><trkpt lat="44.15124" lon="12.0855633"><ele>42.0</ele><time>2026-04-28T09:48:01.64Z</time></trkpt><trkpt lat="44.1512883" lon="12.08564"><ele>42.0</ele><time>2026-04-28T09:48:02.64Z</time></trkpt><trkpt lat="44.151335" lon="12.085715"><ele>42.0</ele><time>2026-04-28T09:48:03.641Z</time></trkpt><trkpt lat="44.1513767" lon="12.0857933"><ele>42.0</ele><time>2026-04-28T09:48:04.64Z</time></trkpt><trkpt lat="44.1514233" lon="12.085885"><ele>41.5</ele><time>2026-04-28T09:48:05.641Z</time></trkpt><trkpt lat="44.1514683" lon="12.0859717"><ele>41.0</ele><time>2026-04-28T09:48:06.641Z</time></trkpt><trkpt lat="44.1515217" lon="12.086055"><ele>40.5</ele><time>2026-04-28T09:48:07.641Z</time></trkpt><trkpt lat="44.1515717" lon="12.0861333"><ele>40.0</ele><time>2026-04-28T09:48:08.64Z</time></trkpt><trkpt lat="44.1516167" lon="12.0862133"><ele>39.5</ele><time>2026-04-28T09:48:09.64Z</time></trkpt><trkpt lat="44.1516633" lon="12.0862917"><ele>39.0</ele><time>2026-04-28T09:48:10.641Z</time></trkpt><trkpt lat="44.1517133" lon="12.0863767"><ele>39.0</ele><time>2026-04-28T09:48:11.641Z</time></trkpt><trkpt lat="44.1517667" lon="12.08646"><ele>39.0</ele><time>2026-04-28T09:48:12.64Z</time></trkpt><trkpt lat="44.1518217" lon="12.086545"><ele>39.0</ele><time>2026-04-28T09:48:13.641Z</time></trkpt><trkpt lat="44.151875" lon="12.086625"><ele>39.0</ele><time>2026-04-28T09:48:14.64Z</time></trkpt><trkpt lat="44.1519333" lon="12.0867033"><ele>39.0</ele><time>2026-04-28T09:48:15.64Z</time></trkpt><trkpt lat="44.1519917" lon="12.0867883"><ele>39.0</ele><time>2026-04-28T09:48:16.641Z</time></trkpt><trkpt lat="44.1520483" lon="12.0868633"><ele>38.5</ele><time>2026-04-28T09:48:17.641Z</time></trkpt><trkpt lat="44.152095" lon="12.08694"><ele>38.0</ele><time>2026-04-28T09:48:18.641Z</time></trkpt><trkpt lat="44.1521483" lon="12.08702"><ele>37.5</ele><time>2026-04-28T09:48:19.641Z</time></trkpt><trkpt lat="44.1522" lon="12.0870933"><ele>37.0</ele><time>2026-04-28T09:48:20.64Z</time></trkpt><trkpt lat="44.1522483" lon="12.087175"><ele>36.5</ele><time>2026-04-28T09:48:21.641Z</time></trkpt><trkpt lat="44.152295" lon="12.0872583"><ele>36.0</ele><time>2026-04-28T09:48:22.64Z</time></trkpt><trkpt lat="44.1523517" lon="12.0873367"><ele>36.0</ele><time>2026-04-28T09:48:23.64Z</time></trkpt><trkpt lat="44.1524067" lon="12.0874217"><ele>36.0</ele><time>2026-04-28T09:48:24.641Z</time></trkpt><trkpt lat="44.1524583" lon="12.0875117"><ele>36.0</ele><time>2026-04-28T09:48:25.641Z</time></trkpt><trkpt lat="44.15251" lon="12.08759"><ele>36.0</ele><time>2026-04-28T09:48:26.641Z</time></trkpt><trkpt lat="44.152565" lon="12.0876717"><ele>36.0</ele><time>2026-04-28T09:48:27.64Z</time></trkpt><trkpt lat="44.1526233" lon="12.087755"><ele>36.0</ele><time>2026-04-28T09:48:28.64Z</time></trkpt><trkpt lat="44.15268" lon="12.0878433"><ele>35.833333333333336</ele><time>2026-04-28T09:48:29.64Z</time></trkpt><trkpt lat="44.152735" lon="12.0879217"><ele>35.666666666666664</ele><time>2026-04-28T09:48:30.641Z</time></trkpt><trkpt lat="44.1527833" lon="12.0880033"><ele>35.5</ele><time>2026-04-28T09:48:31.64Z</time></trkpt><trkpt lat="44.1528367" lon="12.088085"><ele>35.33333333333333</ele><time>2026-04-28T09:48:32.64Z</time></trkpt><trkpt lat="44.15289" lon="12.0881633"><ele>35.166666666666664</ele><time>2026-04-28T09:48:33.641Z</time></trkpt><trkpt lat="44.1529433" lon="12.08825"><ele>35.0</ele><time>2026-04-28T09:48:34.641Z</time></trkpt><trkpt lat="44.152995" lon="12.0883383"><ele>35.0</ele><time>2026-04-28T09:48:35.641Z</time></trkpt><trkpt lat="44.1530467" lon="12.0884183"><ele>35.0</ele><time>2026-04-28T09:48:36.641Z</time></trkpt><trkpt lat="44.1530967" lon="12.088505"><ele>35.0</ele><time>2026-04-28T09:48:37.64Z</time></trkpt><trkpt lat="44.1531467" lon="12.0885917"><ele>35.0</ele><time>2026-04-28T09:48:38.641Z</time></trkpt><trkpt lat="44.1532017" lon="12.0886783"><ele>35.0</ele><time>2026-04-28T09:48:39.641Z</time></trkpt><trkpt lat="44.153255" lon="12.0887633"><ele>35.0</ele><time>2026-04-28T09:48:40.641Z</time></trkpt><trkpt lat="44.153305" lon="12.08885"><ele>34.83333333333333</ele><time>2026-04-28T09:48:41.64Z</time></trkpt><trkpt lat="44.1533567" lon="12.0889367"><ele>34.666666666666664</ele><time>2026-04-28T09:48:42.641Z</time></trkpt><trkpt lat="44.15341" lon="12.08902"><ele>34.5</ele><time>2026-04-28T09:48:43.64Z</time></trkpt><trkpt lat="44.1534567" lon="12.0891067"><ele>34.333333333333336</ele><time>2026-04-28T09:48:44.64Z</time></trkpt><trkpt lat="44.1535067" lon="12.0891917"><ele>34.16666666666667</ele><time>2026-04-28T09:48:45.641Z</time></trkpt><trkpt lat="44.1535633" lon="12.089275"><ele>34.0</ele><time>2026-04-28T09:48:46.64Z</time></trkpt><trkpt lat="44.1536183" lon="12.08935"><ele>33.66666666666667</ele><time>2026-04-28T09:48:47.641Z</time></trkpt><trkpt lat="44.15367" lon="12.0894233"><ele>33.333333333333336</ele><time>2026-04-28T09:48:48.64Z</time></trkpt><trkpt lat="44.1537217" lon="12.0894967"><ele>33.0</ele><time>2026-04-28T09:48:49.641Z</time></trkpt><trkpt lat="44.153775" lon="12.0895683"><ele>32.666666666666664</ele><time>2026-04-28T09:48:50.64Z</time></trkpt><trkpt lat="44.153825" lon="12.0896417"><ele>32.33333333333333</ele><time>2026-04-28T09:48:51.641Z</time></trkpt><trkpt lat="44.1539117" lon="12.0897783"><ele>32.0</ele><time>2026-04-28T09:48:53.641Z</time></trkpt><trkpt lat="44.153955" lon="12.08985"><ele>31.833333333333332</ele><time>2026-04-28T09:48:54.641Z</time></trkpt><trkpt lat="44.1540067" lon="12.08994"><ele>31.666666666666664</ele><time>2026-04-28T09:48:55.64Z</time></trkpt><trkpt lat="44.1540533" lon="12.09002"><ele>31.5</ele><time>2026-04-28T09:48:56.641Z</time></trkpt><trkpt lat="44.1541" lon="12.0901"><ele>31.333333333333336</ele><time>2026-04-28T09:48:57.641Z</time></trkpt><trkpt lat="44.15415" lon="12.0901667"><ele>31.166666666666668</ele><time>2026-04-28T09:48:58.641Z</time></trkpt><trkpt lat="44.1542333" lon="12.0903017"><ele>31.0</ele><time>2026-04-28T09:49:00.641Z</time></trkpt><trkpt lat="44.1542833" lon="12.0903833"><ele>31.333333333333336</ele><time>2026-04-28T09:49:01.64Z</time></trkpt><trkpt lat="44.1543317" lon="12.0904667"><ele>31.666666666666668</ele><time>2026-04-28T09:49:02.64Z</time></trkpt><trkpt lat="44.1543817" lon="12.090545"><ele>32.0</ele><time>2026-04-28T09:49:03.641Z</time></trkpt><trkpt lat="44.154435" lon="12.0906317"><ele>32.333333333333336</ele><time>2026-04-28T09:49:04.64Z</time></trkpt><trkpt lat="44.15449" lon="12.09072"><ele>32.666666666666664</ele><time>2026-04-28T09:49:05.64Z</time></trkpt><trkpt lat="44.1545417" lon="12.0907967"><ele>33.0</ele><time>2026-04-28T09:49:06.641Z</time></trkpt><trkpt lat="44.1545967" lon="12.0908767"><ele>33.14285714285714</ele><time>2026-04-28T09:49:07.641Z</time></trkpt><trkpt lat="44.15465" lon="12.0909567"><ele>33.285714285714285</ele><time>2026-04-28T09:49:08.641Z</time></trkpt><trkpt lat="44.1547017" lon="12.0910333"><ele>33.42857142857143</ele><time>2026-04-28T09:49:09.64Z</time></trkpt><trkpt lat="44.1547533" lon="12.0911167"><ele>33.57142857142857</ele><time>2026-04-28T09:49:10.64Z</time></trkpt><trkpt lat="44.1548017" lon="12.09119"><ele>33.714285714285715</ele><time>2026-04-28T09:49:11.64Z</time></trkpt><trkpt lat="44.154845" lon="12.09126"><ele>33.857142857142854</ele><time>2026-04-28T09:49:12.641Z</time></trkpt><trkpt lat="44.1549017" lon="12.0913333"><ele>34.0</ele><time>2026-04-28T09:49:13.641Z</time></trkpt><trkpt lat="44.1549483" lon="12.0913983"><ele>34.0</ele><time>2026-04-28T09:49:14.64Z</time></trkpt><trkpt lat="44.1550417" lon="12.0915267"><ele>34.0</ele><time>2026-04-28T09:49:16.641Z</time></trkpt><trkpt lat="44.1550867" lon="12.0915917"><ele>34.0</ele><time>2026-04-28T09:49:17.641Z</time></trkpt><trkpt lat="44.1551417" lon="12.0916683"><ele>34.0</ele><time>2026-04-28T09:49:18.641Z</time></trkpt><trkpt lat="44.1551967" lon="12.0917367"><ele>34.0</ele><time>2026-04-28T09:49:19.64Z</time></trkpt><trkpt lat="44.1552517" lon="12.091805"><ele>34.0</ele><time>2026-04-28T09:49:20.641Z</time></trkpt><trkpt lat="44.15531" lon="12.0918767"><ele>33.99999999999999</ele><time>2026-04-28T09:49:21.641Z</time></trkpt><trkpt lat="44.1553667" lon="12.091945"><ele>34.0</ele><time>2026-04-28T09:49:22.64Z</time></trkpt><trkpt lat="44.1554267" lon="12.0920133"><ele>34.0</ele><time>2026-04-28T09:49:23.641Z</time></trkpt><trkpt lat="44.1554817" lon="12.0920817"><ele>34.0</ele><time>2026-04-28T09:49:24.641Z</time></trkpt><trkpt lat="44.15554" lon="12.0921483"><ele>34.0</ele><time>2026-04-28T09:49:25.641Z</time></trkpt><trkpt lat="44.155595" lon="12.0922133"><ele>33.99999999999999</ele><time>2026-04-28T09:49:26.641Z</time></trkpt><trkpt lat="44.1556517" lon="12.0922733"><ele>34.0</ele><time>2026-04-28T09:49:27.641Z</time></trkpt><trkpt lat="44.1557117" lon="12.0923333"><ele>33.99999999999999</ele><time>2026-04-28T09:49:28.64Z</time></trkpt><trkpt lat="44.1557767" lon="12.0923933"><ele>34.0</ele><time>2026-04-28T09:49:29.641Z</time></trkpt><trkpt lat="44.1558367" lon="12.092455"><ele>34.0</ele><time>2026-04-28T09:49:30.64Z</time></trkpt><trkpt lat="44.1558933" lon="12.0925133"><ele>34.0</ele><time>2026-04-28T09:49:31.64Z</time></trkpt><trkpt lat="44.15595" lon="12.092575"><ele>34.0</ele><time>2026-04-28T09:49:32.641Z</time></trkpt><trkpt lat="44.1560117" lon="12.0926367"><ele>33.99999999999999</ele><time>2026-04-28T09:49:33.641Z</time></trkpt><trkpt lat="44.1560767" lon="12.092695"><ele>34.0</ele><time>2026-04-28T09:49:34.64Z</time></trkpt><trkpt lat="44.1561383" lon="12.0927517"><ele>33.99999999999999</ele><time>2026-04-28T09:49:35.641Z</time></trkpt><trkpt lat="44.1561983" lon="12.0928033"><ele>34.0</ele><time>2026-04-28T09:49:36.64Z</time></trkpt><trkpt lat="44.15626" lon="12.0928633"><ele>34.0</ele><time>2026-04-28T09:49:37.64Z</time></trkpt><trkpt lat="44.156325" lon="12.0929167"><ele>34.0</ele><time>2026-04-28T09:49:38.64Z</time></trkpt><trkpt lat="44.1563833" lon="12.0929617"><ele>34.0</ele><time>2026-04-28T09:49:39.641Z</time></trkpt><trkpt lat="44.156445" lon="12.0930067"><ele>33.99999999999999</ele><time>2026-04-28T09:49:40.64Z</time></trkpt><trkpt lat="44.1565133" lon="12.09305"><ele>34.0</ele><time>2026-04-28T09:49:41.641Z</time></trkpt><trkpt lat="44.156575" lon="12.0930933"><ele>33.66666666666667</ele><time>2026-04-28T09:49:42.641Z</time></trkpt><trkpt lat="44.15664" lon="12.0931433"><ele>33.333333333333336</ele><time>2026-04-28T09:49:43.641Z</time></trkpt><trkpt lat="44.1567117" lon="12.0931967"><ele>33.0</ele><time>2026-04-28T09:49:44.641Z</time></trkpt><trkpt lat="44.1567817" lon="12.0932467"><ele>32.666666666666664</ele><time>2026-04-28T09:49:45.64Z</time></trkpt><trkpt lat="44.1568483" lon="12.0932983"><ele>32.33333333333333</ele><time>2026-04-28T09:49:46.641Z</time></trkpt><trkpt lat="44.1569117" lon="12.0933533"><ele>32.0</ele><time>2026-04-28T09:49:47.64Z</time></trkpt><trkpt lat="44.1569733" lon="12.0934017"><ele>32.0</ele><time>2026-04-28T09:49:48.641Z</time></trkpt><trkpt lat="44.157035" lon="12.09345"><ele>31.999999999999996</ele><time>2026-04-28T09:49:49.641Z</time></trkpt><trkpt lat="44.1570983" lon="12.09349"><ele>32.0</ele><time>2026-04-28T09:49:50.64Z</time></trkpt><trkpt lat="44.15716" lon="12.0935383"><ele>32.0</ele><time>2026-04-28T09:49:51.64Z</time></trkpt><trkpt lat="44.1572217" lon="12.0935883"><ele>31.999999999999996</ele><time>2026-04-28T09:49:52.64Z</time></trkpt><trkpt lat="44.1572867" lon="12.0936417"><ele>32.0</ele><time>2026-04-28T09:49:53.64Z</time></trkpt><trkpt lat="44.1573533" lon="12.0936917"><ele>32.0</ele><time>2026-04-28T09:49:54.641Z</time></trkpt><trkpt lat="44.15742" lon="12.0937333"><ele>31.857142857142854</ele><time>2026-04-28T09:49:55.641Z</time></trkpt><trkpt lat="44.15748" lon="12.0937833"><ele>31.71428571428571</ele><time>2026-04-28T09:49:56.641Z</time></trkpt><trkpt lat="44.1575483" lon="12.093825"><ele>31.57142857142857</ele><time>2026-04-28T09:49:57.64Z</time></trkpt><trkpt lat="44.1576083" lon="12.0938717"><ele>31.42857142857143</ele><time>2026-04-28T09:49:58.64Z</time></trkpt><trkpt lat="44.1576633" lon="12.093915"><ele>31.28571428571429</ele><time>2026-04-28T09:49:59.64Z</time></trkpt><trkpt lat="44.15772" lon="12.0939583"><ele>31.142857142857146</ele><time>2026-04-28T09:50:00.64Z</time></trkpt><trkpt lat="44.1577817" lon="12.0939983"><ele>31.0</ele><time>2026-04-28T09:50:01.64Z</time></trkpt><trkpt lat="44.15785" lon="12.09404"><ele>31.0</ele><time>2026-04-28T09:50:02.64Z</time></trkpt><trkpt lat="44.1579117" lon="12.0940867"><ele>31.000000000000004</ele><time>2026-04-28T09:50:03.64Z</time></trkpt><trkpt lat="44.15797" lon="12.0941217"><ele>31.0</ele><time>2026-04-28T09:50:04.641Z</time></trkpt><trkpt lat="44.1580267" lon="12.09417"><ele>31.0</ele><time>2026-04-28T09:50:05.641Z</time></trkpt><trkpt lat="44.1580783" lon="12.0942267"><ele>31.000000000000004</ele><time>2026-04-28T09:50:06.641Z</time></trkpt><trkpt lat="44.1581383" lon="12.0942717"><ele>31.0</ele><time>2026-04-28T09:50:07.64Z</time></trkpt><trkpt lat="44.1581967" lon="12.0943183"><ele>31.0</ele><time>2026-04-28T09:50:08.64Z</time></trkpt><trkpt lat="44.158255" lon="12.094365"><ele>31.142857142857146</ele><time>2026-04-28T09:50:09.64Z</time></trkpt><trkpt lat="44.158315" lon="12.09441"><ele>31.28571428571429</ele><time>2026-04-28T09:50:10.641Z</time></trkpt><trkpt lat="44.1583783" lon="12.094455"><ele>31.42857142857143</ele><time>2026-04-28T09:50:11.64Z</time></trkpt><trkpt lat="44.1584367" lon="12.094495"><ele>31.57142857142857</ele><time>2026-04-28T09:50:12.64Z</time></trkpt><trkpt lat="44.1585017" lon="12.0945317"><ele>31.71428571428571</ele><time>2026-04-28T09:50:13.641Z</time></trkpt><trkpt lat="44.1585633" lon="12.0945717"><ele>31.857142857142854</ele><time>2026-04-28T09:50:14.641Z</time></trkpt><trkpt lat="44.1586233" lon="12.0946133"><ele>32.0</ele><time>2026-04-28T09:50:15.64Z</time></trkpt><trkpt lat="44.1586883" lon="12.0946583"><ele>31.999999999999996</ele><time>2026-04-28T09:50:16.64Z</time></trkpt><trkpt lat="44.15875" lon="12.0947033"><ele>32.0</ele><time>2026-04-28T09:50:17.641Z</time></trkpt><trkpt lat="44.1588117" lon="12.0947483"><ele>32.0</ele><time>2026-04-28T09:50:18.641Z</time></trkpt><trkpt lat="44.1588717" lon="12.0947917"><ele>32.0</ele><time>2026-04-28T09:50:19.641Z</time></trkpt><trkpt lat="44.1589333" lon="12.094835"><ele>31.999999999999996</ele><time>2026-04-28T09:50:20.64Z</time></trkpt><trkpt lat="44.1589917" lon="12.0948717"><ele>32.0</ele><time>2026-04-28T09:50:21.64Z</time></trkpt><trkpt lat="44.1591" lon="12.0949433"><ele>31.999999999999996</ele><time>2026-04-28T09:50:23.641Z</time></trkpt><trkpt lat="44.15916" lon="12.0949867"><ele>32.0</ele><time>2026-04-28T09:50:24.641Z</time></trkpt><trkpt lat="44.1592267" lon="12.09504"><ele>32.0</ele><time>2026-04-28T09:50:25.64Z</time></trkpt><trkpt lat="44.1592917" lon="12.09509"><ele>32.0</ele><time>2026-04-28T09:50:26.641Z</time></trkpt><trkpt lat="44.159355" lon="12.0951433"><ele>31.999999999999996</ele><time>2026-04-28T09:50:27.64Z</time></trkpt><trkpt lat="44.1594217" lon="12.0951967"><ele>32.0</ele><time>2026-04-28T09:50:28.641Z</time></trkpt><trkpt lat="44.1594933" lon="12.0952467"><ele>32.0</ele><time>2026-04-28T09:50:29.64Z</time></trkpt><trkpt lat="44.1595633" lon="12.0952917"><ele>31.999999999999996</ele><time>2026-04-28T09:50:30.64Z</time></trkpt><trkpt lat="44.1596267" lon="12.0953383"><ele>32.0</ele><time>2026-04-28T09:50:31.641Z</time></trkpt><trkpt lat="44.1596883" lon="12.0953867"><ele>32.0</ele><time>2026-04-28T09:50:32.64Z</time></trkpt><trkpt lat="44.1597483" lon="12.095435"><ele>31.999999999999996</ele><time>2026-04-28T09:50:33.64Z</time></trkpt><trkpt lat="44.159815" lon="12.0954883"><ele>32.0</ele><time>2026-04-28T09:50:34.64Z</time></trkpt><trkpt lat="44.15988" lon="12.0955383"><ele>32.0</ele><time>2026-04-28T09:50:35.641Z</time></trkpt><trkpt lat="44.1599417" lon="12.0955933"><ele>32.0</ele><time>2026-04-28T09:50:36.64Z</time></trkpt><trkpt lat="44.16001" lon="12.0956467"><ele>31.999999999999996</ele><time>2026-04-28T09:50:37.64Z</time></trkpt><trkpt lat="44.1600733" lon="12.0956917"><ele>32.0</ele><time>2026-04-28T09:50:38.641Z</time></trkpt><trkpt lat="44.1601383" lon="12.0957367"><ele>32.0</ele><time>2026-04-28T09:50:39.64Z</time></trkpt><trkpt lat="44.1602067" lon="12.095785"><ele>31.999999999999996</ele><time>2026-04-28T09:50:40.641Z</time></trkpt><trkpt lat="44.1602733" lon="12.09583"><ele>32.0</ele><time>2026-04-28T09:50:41.641Z</time></trkpt><trkpt lat="44.16034" lon="12.0958817"><ele>32.0</ele><time>2026-04-28T09:50:42.641Z</time></trkpt><trkpt lat="44.1604017" lon="12.0959267"><ele>32.0</ele><time>2026-04-28T09:50:43.64Z</time></trkpt><trkpt lat="44.160465" lon="12.0959833"><ele>31.999999999999996</ele><time>2026-04-28T09:50:44.641Z</time></trkpt><trkpt lat="44.160525" lon="12.09603"><ele>32.0</ele><time>2026-04-28T09:50:45.64Z</time></trkpt><trkpt lat="44.1605867" lon="12.0960783"><ele>32.0</ele><time>2026-04-28T09:50:46.641Z</time></trkpt><trkpt lat="44.16065" lon="12.096125"><ele>31.999999999999996</ele><time>2026-04-28T09:50:47.64Z</time></trkpt><trkpt lat="44.1607167" lon="12.0961683"><ele>32.0</ele><time>2026-04-28T09:50:48.641Z</time></trkpt><trkpt lat="44.16078" lon="12.0962183"><ele>32.0</ele><time>2026-04-28T09:50:49.641Z</time></trkpt><trkpt lat="44.1608417" lon="12.0962667"><ele>31.71428571428571</ele><time>2026-04-28T09:50:50.64Z</time></trkpt><trkpt lat="44.1609033" lon="12.09631"><ele>31.428571428571423</ele><time>2026-04-28T09:50:51.641Z</time></trkpt><trkpt lat="44.1609667" lon="12.0963467"><ele>31.142857142857142</ele><time>2026-04-28T09:50:52.641Z</time></trkpt><trkpt lat="44.16103" lon="12.0963917"><ele>30.857142857142854</ele><time>2026-04-28T09:50:53.64Z</time></trkpt><trkpt lat="44.1610917" lon="12.0964433"><ele>30.57142857142857</ele><time>2026-04-28T09:50:54.64Z</time></trkpt><trkpt lat="44.16115" lon="12.09649"><ele>30.285714285714285</ele><time>2026-04-28T09:50:55.64Z</time></trkpt><trkpt lat="44.1612083" lon="12.0965333"><ele>30.0</ele><time>2026-04-28T09:50:56.64Z</time></trkpt><trkpt lat="44.161265" lon="12.0965817"><ele>30.166666666666668</ele><time>2026-04-28T09:50:57.64Z</time></trkpt><trkpt lat="44.1613267" lon="12.0966333"><ele>30.333333333333336</ele><time>2026-04-28T09:50:58.641Z</time></trkpt><trkpt lat="44.16139" lon="12.0966817"><ele>30.5</ele><time>2026-04-28T09:50:59.641Z</time></trkpt><trkpt lat="44.1615083" lon="12.096755"><ele>30.666666666666668</ele><time>2026-04-28T09:51:01.641Z</time></trkpt><trkpt lat="44.16157" lon="12.0968033"><ele>30.833333333333336</ele><time>2026-04-28T09:51:02.641Z</time></trkpt><trkpt lat="44.1616317" lon="12.0968467"><ele>31.0</ele><time>2026-04-28T09:51:03.641Z</time></trkpt><trkpt lat="44.1616917" lon="12.09689"><ele>31.142857142857146</ele><time>2026-04-28T09:51:04.64Z</time></trkpt><trkpt lat="44.16175" lon="12.0969467"><ele>31.28571428571429</ele><time>2026-04-28T09:51:05.641Z</time></trkpt><trkpt lat="44.16181" lon="12.096995"><ele>31.42857142857143</ele><time>2026-04-28T09:51:06.64Z</time></trkpt><trkpt lat="44.16187" lon="12.0970383"><ele>31.57142857142857</ele><time>2026-04-28T09:51:07.641Z</time></trkpt><trkpt lat="44.16193" lon="12.0970817"><ele>31.71428571428571</ele><time>2026-04-28T09:51:08.64Z</time></trkpt><trkpt lat="44.1619967" lon="12.0971233"><ele>31.857142857142854</ele><time>2026-04-28T09:51:09.641Z</time></trkpt><trkpt lat="44.16206" lon="12.0971667"><ele>32.0</ele><time>2026-04-28T09:51:10.641Z</time></trkpt><trkpt lat="44.1621233" lon="12.0972083"><ele>32.0</ele><time>2026-04-28T09:51:11.641Z</time></trkpt><trkpt lat="44.1621883" lon="12.0972567"><ele>31.999999999999996</ele><time>2026-04-28T09:51:12.641Z</time></trkpt><trkpt lat="44.1622483" lon="12.0973033"><ele>32.0</ele><time>2026-04-28T09:51:13.64Z</time></trkpt><trkpt lat="44.1623067" lon="12.0973467"><ele>32.0</ele><time>2026-04-28T09:51:14.64Z</time></trkpt><trkpt lat="44.162365" lon="12.097395"><ele>31.999999999999996</ele><time>2026-04-28T09:51:15.641Z</time></trkpt><trkpt lat="44.1624217" lon="12.0974433"><ele>32.0</ele><time>2026-04-28T09:51:16.64Z</time></trkpt><trkpt lat="44.162475" lon="12.09749"><ele>32.0</ele><time>2026-04-28T09:51:17.64Z</time></trkpt><trkpt lat="44.1625367" lon="12.0975383"><ele>31.857142857142854</ele><time>2026-04-28T09:51:18.64Z</time></trkpt><trkpt lat="44.1625967" lon="12.097585"><ele>31.71428571428571</ele><time>2026-04-28T09:51:19.641Z</time></trkpt><trkpt lat="44.1626583" lon="12.0976317"><ele>31.57142857142857</ele><time>2026-04-28T09:51:20.641Z</time></trkpt><trkpt lat="44.16272" lon="12.0976783"><ele>31.42857142857143</ele><time>2026-04-28T09:51:21.641Z</time></trkpt><trkpt lat="44.1627783" lon="12.0977233"><ele>31.28571428571429</ele><time>2026-04-28T09:51:22.641Z</time></trkpt><trkpt lat="44.16284" lon="12.0977683"><ele>31.142857142857146</ele><time>2026-04-28T09:51:23.641Z</time></trkpt><trkpt lat="44.1629033" lon="12.0978117"><ele>31.0</ele><time>2026-04-28T09:51:24.64Z</time></trkpt><trkpt lat="44.1629633" lon="12.0978467"><ele>31.0</ele><time>2026-04-28T09:51:25.641Z</time></trkpt><trkpt lat="44.1630217" lon="12.09788"><ele>31.000000000000004</ele><time>2026-04-28T09:51:26.641Z</time></trkpt><trkpt lat="44.1630767" lon="12.097925"><ele>31.0</ele><time>2026-04-28T09:51:27.641Z</time></trkpt><trkpt lat="44.163135" lon="12.0979633"><ele>31.0</ele><time>2026-04-28T09:51:28.64Z</time></trkpt><trkpt lat="44.1631933" lon="12.0980033"><ele>31.000000000000004</ele><time>2026-04-28T09:51:29.64Z</time></trkpt><trkpt lat="44.1632567" lon="12.0980483"><ele>31.0</ele><time>2026-04-28T09:51:30.641Z</time></trkpt><trkpt lat="44.163315" lon="12.0980967"><ele>31.0</ele><time>2026-04-28T09:51:31.641Z</time></trkpt><trkpt lat="44.163375" lon="12.09814"><ele>30.857142857142858</ele><time>2026-04-28T09:51:32.641Z</time></trkpt><trkpt lat="44.1634367" lon="12.0981783"><ele>30.714285714285715</ele><time>2026-04-28T09:51:33.64Z</time></trkpt><trkpt lat="44.1634967" lon="12.0982233"><ele>30.571428571428573</ele><time>2026-04-28T09:51:34.64Z</time></trkpt><trkpt lat="44.1635567" lon="12.0982633"><ele>30.42857142857143</ele><time>2026-04-28T09:51:35.641Z</time></trkpt><trkpt lat="44.1636117" lon="12.0983083"><ele>30.285714285714285</ele><time>2026-04-28T09:51:36.641Z</time></trkpt><trkpt lat="44.1636667" lon="12.0983517"><ele>30.142857142857146</ele><time>2026-04-28T09:51:37.64Z</time></trkpt><trkpt lat="44.1637233" lon="12.0983933"><ele>30.0</ele><time>2026-04-28T09:51:38.641Z</time></trkpt><trkpt lat="44.16378" lon="12.09844"><ele>30.0</ele><time>2026-04-28T09:51:39.641Z</time></trkpt><trkpt lat="44.1638367" lon="12.0984783"><ele>30.0</ele><time>2026-04-28T09:51:40.641Z</time></trkpt><trkpt lat="44.163895" lon="12.0985183"><ele>30.0</ele><time>2026-04-28T09:51:41.641Z</time></trkpt><trkpt lat="44.1639533" lon="12.0985583"><ele>30.0</ele><time>2026-04-28T09:51:42.64Z</time></trkpt><trkpt lat="44.1640183" lon="12.0986"><ele>30.0</ele><time>2026-04-28T09:51:43.641Z</time></trkpt><trkpt lat="44.16408" lon="12.09865"><ele>30.0</ele><time>2026-04-28T09:51:44.64Z</time></trkpt><trkpt lat="44.16414" lon="12.0986917"><ele>30.0</ele><time>2026-04-28T09:51:45.641Z</time></trkpt><trkpt lat="44.1641967" lon="12.0987367"><ele>29.857142857142858</ele><time>2026-04-28T09:51:46.64Z</time></trkpt><trkpt lat="44.1642517" lon="12.0987867"><ele>29.714285714285715</ele><time>2026-04-28T09:51:47.64Z</time></trkpt><trkpt lat="44.16431" lon="12.098835"><ele>29.571428571428573</ele><time>2026-04-28T09:51:48.641Z</time></trkpt><trkpt lat="44.1643717" lon="12.09888"><ele>29.42857142857143</ele><time>2026-04-28T09:51:49.64Z</time></trkpt><trkpt lat="44.16443" lon="12.098925"><ele>29.285714285714285</ele><time>2026-04-28T09:51:50.64Z</time></trkpt><trkpt lat="44.1644933" lon="12.0989683"><ele>29.142857142857146</ele><time>2026-04-28T09:51:51.641Z</time></trkpt><trkpt lat="44.164555" lon="12.0990117"><ele>29.000000000000004</ele><time>2026-04-28T09:51:52.64Z</time></trkpt><trkpt lat="44.16462" lon="12.0990517"><ele>29.000000000000004</ele><time>2026-04-28T09:51:53.64Z</time></trkpt><trkpt lat="44.1646817" lon="12.0991"><ele>29.0</ele><time>2026-04-28T09:51:54.641Z</time></trkpt><trkpt lat="44.1647383" lon="12.099145"><ele>29.000000000000004</ele><time>2026-04-28T09:51:55.641Z</time></trkpt><trkpt lat="44.1647967" lon="12.0991883"><ele>29.000000000000004</ele><time>2026-04-28T09:51:56.64Z</time></trkpt><trkpt lat="44.1648583" lon="12.0992267"><ele>29.0</ele><time>2026-04-28T09:51:57.64Z</time></trkpt><trkpt lat="44.16492" lon="12.0992667"><ele>29.000000000000004</ele><time>2026-04-28T09:51:58.64Z</time></trkpt><trkpt lat="44.1649833" lon="12.0993083"><ele>29.000000000000004</ele><time>2026-04-28T09:51:59.64Z</time></trkpt><trkpt lat="44.1650467" lon="12.09935"><ele>29.000000000000004</ele><time>2026-04-28T09:52:00.64Z</time></trkpt><trkpt lat="44.1651067" lon="12.0993933"><ele>29.0</ele><time>2026-04-28T09:52:01.641Z</time></trkpt><trkpt lat="44.165165" lon="12.0994333"><ele>29.000000000000004</ele><time>2026-04-28T09:52:02.64Z</time></trkpt><trkpt lat="44.165225" lon="12.0994717"><ele>29.000000000000004</ele><time>2026-04-28T09:52:03.641Z</time></trkpt><trkpt lat="44.165285" lon="12.0995133"><ele>29.0</ele><time>2026-04-28T09:52:04.641Z</time></trkpt><trkpt lat="44.1653433" lon="12.099555"><ele>29.000000000000004</ele><time>2026-04-28T09:52:05.64Z</time></trkpt><trkpt lat="44.1654" lon="12.099595"><ele>29.000000000000004</ele><time>2026-04-28T09:52:06.64Z</time></trkpt><trkpt lat="44.1654567" lon="12.0996333"><ele>29.000000000000004</ele><time>2026-04-28T09:52:07.641Z</time></trkpt><trkpt lat="44.165515" lon="12.099675"><ele>29.0</ele><time>2026-04-28T09:52:08.641Z</time></trkpt><trkpt lat="44.1655767" lon="12.0997183"><ele>29.000000000000004</ele><time>2026-04-28T09:52:09.641Z</time></trkpt><trkpt lat="44.1656383" lon="12.0997633"><ele>29.000000000000004</ele><time>2026-04-28T09:52:10.641Z</time></trkpt><trkpt lat="44.1657" lon="12.099805"><ele>29.0</ele><time>2026-04-28T09:52:11.64Z</time></trkpt><trkpt lat="44.16576" lon="12.099845"><ele>29.000000000000004</ele><time>2026-04-28T09:52:12.641Z</time></trkpt><trkpt lat="44.16582" lon="12.0998883"><ele>29.000000000000004</ele><time>2026-04-28T09:52:13.64Z</time></trkpt><trkpt lat="44.1658833" lon="12.0999317"><ele>29.666666666666664</ele><time>2026-04-28T09:52:14.641Z</time></trkpt><trkpt lat="44.165945" lon="12.099975"><ele>30.333333333333332</ele><time>2026-04-28T09:52:15.641Z</time></trkpt><trkpt lat="44.1660033" lon="12.100015"><ele>31.0</ele><time>2026-04-28T09:52:16.641Z</time></trkpt><trkpt lat="44.16606" lon="12.1000567"><ele>31.666666666666664</ele><time>2026-04-28T09:52:17.641Z</time></trkpt><trkpt lat="44.1661717" lon="12.1001317"><ele>32.333333333333336</ele><time>2026-04-28T09:52:19.64Z</time></trkpt><trkpt lat="44.16628" lon="12.1002033"><ele>33.0</ele><time>2026-04-28T09:52:21.64Z</time></trkpt><trkpt lat="44.1663733" lon="12.100275"><ele>33.0</ele><time>2026-04-28T09:52:23.641Z</time></trkpt><trkpt lat="44.16645" lon="12.100325"><ele>33.0</ele><time>2026-04-28T09:52:25.641Z</time></trkpt><trkpt lat="44.1664983" lon="12.1003983"><ele>33.0</ele><time>2026-04-28T09:52:27.64Z</time></trkpt><trkpt lat="44.166515" lon="12.1005233"><ele>33.0</ele><time>2026-04-28T09:52:30.64Z</time></trkpt><trkpt lat="44.1665483" lon="12.1006317"><ele>33.0</ele><time>2026-04-28T09:52:32.64Z</time></trkpt><trkpt lat="44.16662" lon="12.10073"><ele>33.0</ele><time>2026-04-28T09:52:34.641Z</time></trkpt><trkpt lat="44.16673" lon="12.100785"><ele>33.42857142857143</ele><time>2026-04-28T09:52:36.64Z</time></trkpt><trkpt lat="44.1667967" lon="12.1008133"><ele>33.85714285714286</ele><time>2026-04-28T09:52:37.641Z</time></trkpt><trkpt lat="44.1668617" lon="12.100835"><ele>34.28571428571429</ele><time>2026-04-28T09:52:38.641Z</time></trkpt><trkpt lat="44.166925" lon="12.1008583"><ele>34.714285714285715</ele><time>2026-04-28T09:52:39.64Z</time></trkpt><trkpt lat="44.166985" lon="12.1008883"><ele>35.142857142857146</ele><time>2026-04-28T09:52:40.641Z</time></trkpt><trkpt lat="44.1670417" lon="12.1009267"><ele>35.57142857142858</ele><time>2026-04-28T09:52:41.641Z</time></trkpt><trkpt lat="44.1671433" lon="12.101005"><ele>36.0</ele><time>2026-04-28T09:52:43.641Z</time></trkpt><trkpt lat="44.1672367" lon="12.1010883"><ele>36.0</ele><time>2026-04-28T09:52:45.641Z</time></trkpt><trkpt lat="44.167325" lon="12.1011483"><ele>36.0</ele><time>2026-04-28T09:52:47.641Z</time></trkpt><trkpt lat="44.1674017" lon="12.101225"><ele>36.0</ele><time>2026-04-28T09:52:49.64Z</time></trkpt><trkpt lat="44.1674783" lon="12.1013067"><ele>36.0</ele><time>2026-04-28T09:52:51.64Z</time></trkpt><trkpt lat="44.1675467" lon="12.1013917"><ele>36.0</ele><time>2026-04-28T09:52:53.641Z</time></trkpt><trkpt lat="44.1676183" lon="12.1014867"><ele>36.0</ele><time>2026-04-28T09:52:55.64Z</time></trkpt><trkpt lat="44.1676983" lon="12.1015917"><ele>36.0</ele><time>2026-04-28T09:52:57.641Z</time></trkpt><trkpt lat="44.16778" lon="12.1016883"><ele>36.0</ele><time>2026-04-28T09:52:59.64Z</time></trkpt><trkpt lat="44.1678617" lon="12.1017867"><ele>36.0</ele><time>2026-04-28T09:53:01.641Z</time></trkpt><trkpt lat="44.1679317" lon="12.10188"><ele>36.0</ele><time>2026-04-28T09:53:03.64Z</time></trkpt><trkpt lat="44.1679983" lon="12.10199"><ele>36.0</ele><time>2026-04-28T09:53:05.641Z</time></trkpt><trkpt lat="44.1680717" lon="12.1020917"><ele>36.0</ele><time>2026-04-28T09:53:07.641Z</time></trkpt><trkpt lat="44.1681583" lon="12.1021817"><ele>36.0</ele><time>2026-04-28T09:53:09.641Z</time></trkpt><trkpt lat="44.168235" lon="12.1022783"><ele>36.0</ele><time>2026-04-28T09:53:11.641Z</time></trkpt><trkpt lat="44.16832" lon="12.102385"><ele>36.0</ele><time>2026-04-28T09:53:13.641Z</time></trkpt><trkpt lat="44.1684083" lon="12.1024983"><ele>36.2</ele><time>2026-04-28T09:53:15.64Z</time></trkpt><trkpt lat="44.1684933" lon="12.1026083"><ele>36.400000000000006</ele><time>2026-04-28T09:53:17.641Z</time></trkpt><trkpt lat="44.16858" lon="12.10271"><ele>36.6</ele><time>2026-04-28T09:53:19.641Z</time></trkpt><trkpt lat="44.168665" lon="12.102815"><ele>36.800000000000004</ele><time>2026-04-28T09:53:21.641Z</time></trkpt><trkpt lat="44.1687383" lon="12.1029183"><ele>37.0</ele><time>2026-04-28T09:53:23.64Z</time></trkpt><trkpt lat="44.1688267" lon="12.1030283"><ele>37.0</ele><time>2026-04-28T09:53:25.64Z</time></trkpt><trkpt lat="44.1689167" lon="12.1031417"><ele>37.0</ele><time>2026-04-28T09:53:27.64Z</time></trkpt><trkpt lat="44.1689933" lon="12.1032467"><ele>37.0</ele><time>2026-04-28T09:53:29.641Z</time></trkpt><trkpt lat="44.1690767" lon="12.1033617"><ele>37.0</ele><time>2026-04-28T09:53:31.641Z</time></trkpt><trkpt lat="44.1691667" lon="12.1034767"><ele>37.0</ele><time>2026-04-28T09:53:33.641Z</time></trkpt><trkpt lat="44.1692517" lon="12.1035817"><ele>37.0</ele><time>2026-04-28T09:53:35.64Z</time></trkpt><trkpt lat="44.1693433" lon="12.10368"><ele>37.0</ele><time>2026-04-28T09:53:37.641Z</time></trkpt><trkpt lat="44.1694433" lon="12.1037833"><ele>37.0</ele><time>2026-04-28T09:53:39.64Z</time></trkpt><trkpt lat="44.16954" lon="12.10389"><ele>37.0</ele><time>2026-04-28T09:53:41.641Z</time></trkpt><trkpt lat="44.1696383" lon="12.103985"><ele>37.0</ele><time>2026-04-28T09:53:43.64Z</time></trkpt><trkpt lat="44.1697383" lon="12.1040783"><ele>37.0</ele><time>2026-04-28T09:53:45.64Z</time></trkpt><trkpt lat="44.16984" lon="12.1041617"><ele>37.0</ele><time>2026-04-28T09:53:47.641Z</time></trkpt><trkpt lat="44.1699533" lon="12.1042483"><ele>36.85714285714286</ele><time>2026-04-28T09:53:49.64Z</time></trkpt><trkpt lat="44.17001" lon="12.1042883"><ele>36.714285714285715</ele><time>2026-04-28T09:53:50.641Z</time></trkpt><trkpt lat="44.1700667" lon="12.1043283"><ele>36.57142857142857</ele><time>2026-04-28T09:53:51.64Z</time></trkpt><trkpt lat="44.1701267" lon="12.1043683"><ele>36.42857142857143</ele><time>2026-04-28T09:53:52.64Z</time></trkpt><trkpt lat="44.1701883" lon="12.10441"><ele>36.285714285714285</ele><time>2026-04-28T09:53:53.641Z</time></trkpt><trkpt lat="44.1702517" lon="12.104445"><ele>36.142857142857146</ele><time>2026-04-28T09:53:54.64Z</time></trkpt><trkpt lat="44.1703167" lon="12.1044817"><ele>36.0</ele><time>2026-04-28T09:53:55.64Z</time></trkpt><trkpt lat="44.17044" lon="12.104535"><ele>36.0</ele><time>2026-04-28T09:53:57.641Z</time></trkpt><trkpt lat="44.170555" lon="12.1045867"><ele>36.0</ele><time>2026-04-28T09:53:59.641Z</time></trkpt><trkpt lat="44.1706717" lon="12.1046483"><ele>36.0</ele><time>2026-04-28T09:54:01.641Z</time></trkpt><trkpt lat="44.1707333" lon="12.104675"><ele>36.0</ele><time>2026-04-28T09:54:02.641Z</time></trkpt><trkpt lat="44.1707933" lon="12.1047083"><ele>36.0</ele><time>2026-04-28T09:54:03.641Z</time></trkpt><trkpt lat="44.1708867" lon="12.1047867"><ele>35.75</ele><time>2026-04-28T09:54:05.64Z</time></trkpt><trkpt lat="44.170955" lon="12.104895"><ele>35.5</ele><time>2026-04-28T09:54:07.641Z</time></trkpt><trkpt lat="44.171025" lon="12.10503"><ele>35.25</ele><time>2026-04-28T09:54:09.64Z</time></trkpt><trkpt lat="44.17109" lon="12.1051717"><ele>35.0</ele><time>2026-04-28T09:54:11.64Z</time></trkpt><trkpt lat="44.1711117" lon="12.1053367"><ele>35.0</ele><time>2026-04-28T09:54:13.64Z</time></trkpt><trkpt lat="44.171115" lon="12.105425"><ele>35.0</ele><time>2026-04-28T09:54:14.64Z</time></trkpt><trkpt lat="44.1711183" lon="12.1055183"><ele>35.0</ele><time>2026-04-28T09:54:15.641Z</time></trkpt><trkpt lat="44.171125" lon="12.1056617"><ele>35.0</ele><time>2026-04-28T09:54:17.64Z</time></trkpt><trkpt lat="44.1711533" lon="12.1058233"><ele>35.0</ele><time>2026-04-28T09:54:19.64Z</time></trkpt><trkpt lat="44.1711817" lon="12.1059117"><ele>35.0</ele><time>2026-04-28T09:54:20.64Z</time></trkpt><trkpt lat="44.1712383" lon="12.1060717"><ele>35.0</ele><time>2026-04-28T09:54:22.64Z</time></trkpt><trkpt lat="44.1712783" lon="12.1061467"><ele>35.0</ele><time>2026-04-28T09:54:23.639Z</time></trkpt><trkpt lat="44.1713267" lon="12.106205"><ele>35.0</ele><time>2026-04-28T09:54:24.64Z</time></trkpt><trkpt lat="44.171375" lon="12.1062667"><ele>35.0</ele><time>2026-04-28T09:54:25.639Z</time></trkpt><trkpt lat="44.17143" lon="12.1063317"><ele>35.0</ele><time>2026-04-28T09:54:26.64Z</time></trkpt><trkpt lat="44.1714817" lon="12.1063917"><ele>35.0</ele><time>2026-04-28T09:54:27.639Z</time></trkpt><trkpt lat="44.1715333" lon="12.1064617"><ele>35.0</ele><time>2026-04-28T09:54:28.64Z</time></trkpt><trkpt lat="44.171625" lon="12.1065883"><ele>35.0</ele><time>2026-04-28T09:54:30.639Z</time></trkpt><trkpt lat="44.17167" lon="12.10665"><ele>35.0</ele><time>2026-04-28T09:54:31.64Z</time></trkpt><trkpt lat="44.17175" lon="12.1067717"><ele>35.0</ele><time>2026-04-28T09:54:33.64Z</time></trkpt><trkpt lat="44.1718283" lon="12.106885"><ele>35.0</ele><time>2026-04-28T09:54:35.64Z</time></trkpt><trkpt lat="44.17187" lon="12.1069583"><ele>35.0</ele><time>2026-04-28T09:54:36.639Z</time></trkpt><trkpt lat="44.1719167" lon="12.1070183"><ele>35.0</ele><time>2026-04-28T09:54:37.64Z</time></trkpt><trkpt lat="44.171965" lon="12.1070767"><ele>35.0</ele><time>2026-04-28T09:54:38.639Z</time></trkpt><trkpt lat="44.17206" lon="12.1071617"><ele>35.0</ele><time>2026-04-28T09:54:40.64Z</time></trkpt><trkpt lat="44.1721517" lon="12.10728"><ele>35.0</ele><time>2026-04-28T09:54:42.64Z</time></trkpt><trkpt lat="44.1722367" lon="12.1073817"><ele>35.0</ele><time>2026-04-28T09:54:44.639Z</time></trkpt><trkpt lat="44.1722817" lon="12.1074433"><ele>35.0</ele><time>2026-04-28T09:54:45.64Z</time></trkpt><trkpt lat="44.1723317" lon="12.1075117"><ele>34.8</ele><time>2026-04-28T09:54:46.64Z</time></trkpt><trkpt lat="44.17238" lon="12.1075767"><ele>34.6</ele><time>2026-04-28T09:54:47.639Z</time></trkpt><trkpt lat="44.17247" lon="12.1077117"><ele>34.4</ele><time>2026-04-28T09:54:49.64Z</time></trkpt><trkpt lat="44.172555" lon="12.107835"><ele>34.2</ele><time>2026-04-28T09:54:51.64Z</time></trkpt><trkpt lat="44.1726067" lon="12.1079033"><ele>34.0</ele><time>2026-04-28T09:54:52.64Z</time></trkpt><trkpt lat="44.1726567" lon="12.1079633"><ele>34.0</ele><time>2026-04-28T09:54:53.64Z</time></trkpt><trkpt lat="44.17275" lon="12.1080767"><ele>34.0</ele><time>2026-04-28T09:54:55.64Z</time></trkpt><trkpt lat="44.1728283" lon="12.10817"><ele>34.0</ele><time>2026-04-28T09:54:57.639Z</time></trkpt><trkpt lat="44.1729033" lon="12.10825"><ele>34.0</ele><time>2026-04-28T09:54:59.64Z</time></trkpt><trkpt lat="44.1729817" lon="12.1083167"><ele>34.0</ele><time>2026-04-28T09:55:01.64Z</time></trkpt><trkpt lat="44.1730683" lon="12.10842"><ele>34.25</ele><time>2026-04-28T09:55:03.64Z</time></trkpt><trkpt lat="44.173155" lon="12.1085783"><ele>34.5</ele><time>2026-04-28T09:55:05.64Z</time></trkpt><trkpt lat="44.1732033" lon="12.1086583"><ele>34.75</ele><time>2026-04-28T09:55:06.639Z</time></trkpt><trkpt lat="44.1732767" lon="12.1087767"><ele>35.0</ele><time>2026-04-28T09:55:08.64Z</time></trkpt><trkpt lat="44.1733633" lon="12.1088967"><ele>35.0</ele><time>2026-04-28T09:55:10.639Z</time></trkpt><trkpt lat="44.173415" lon="12.1089633"><ele>35.0</ele><time>2026-04-28T09:55:11.639Z</time></trkpt><trkpt lat="44.1734733" lon="12.1090333"><ele>35.0</ele><time>2026-04-28T09:55:12.639Z</time></trkpt><trkpt lat="44.173525" lon="12.1091017"><ele>35.0</ele><time>2026-04-28T09:55:13.639Z</time></trkpt><trkpt lat="44.17357" lon="12.10917"><ele>35.0</ele><time>2026-04-28T09:55:14.64Z</time></trkpt><trkpt lat="44.173655" lon="12.10929"><ele>35.0</ele><time>2026-04-28T09:55:16.639Z</time></trkpt><trkpt lat="44.1737467" lon="12.1094033"><ele>35.0</ele><time>2026-04-28T09:55:18.64Z</time></trkpt><trkpt lat="44.1738267" lon="12.1095183"><ele>35.0</ele><time>2026-04-28T09:55:20.639Z</time></trkpt><trkpt lat="44.1739117" lon="12.10963"><ele>35.0</ele><time>2026-04-28T09:55:22.639Z</time></trkpt><trkpt lat="44.1739983" lon="12.109735"><ele>35.0</ele><time>2026-04-28T09:55:24.64Z</time></trkpt><trkpt lat="44.17408" lon="12.109835"><ele>35.0</ele><time>2026-04-28T09:55:26.64Z</time></trkpt><trkpt lat="44.174165" lon="12.1099317"><ele>35.0</ele><time>2026-04-28T09:55:28.64Z</time></trkpt><trkpt lat="44.174215" lon="12.1099867"><ele>35.0</ele><time>2026-04-28T09:55:29.64Z</time></trkpt><trkpt lat="44.1742683" lon="12.1100767"><ele>35.0</ele><time>2026-04-28T09:55:30.639Z</time></trkpt><trkpt lat="44.1743567" lon="12.1101833"><ele>35.0</ele><time>2026-04-28T09:55:32.639Z</time></trkpt><trkpt lat="44.1744383" lon="12.1102967"><ele>35.0</ele><time>2026-04-28T09:55:34.639Z</time></trkpt><trkpt lat="44.1745233" lon="12.1104033"><ele>35.0</ele><time>2026-04-28T09:55:36.64Z</time></trkpt><trkpt lat="44.174605" lon="12.110525"><ele>35.0</ele><time>2026-04-28T09:55:38.64Z</time></trkpt><trkpt lat="44.1747" lon="12.11064"><ele>35.0</ele><time>2026-04-28T09:55:40.64Z</time></trkpt><trkpt lat="44.1747933" lon="12.1107533"><ele>35.142857142857146</ele><time>2026-04-28T09:55:42.64Z</time></trkpt><trkpt lat="44.174845" lon="12.1108167"><ele>35.285714285714285</ele><time>2026-04-28T09:55:43.639Z</time></trkpt><trkpt lat="44.174895" lon="12.110895"><ele>35.42857142857143</ele><time>2026-04-28T09:55:44.639Z</time></trkpt><trkpt lat="44.1749417" lon="12.11096"><ele>35.57142857142857</ele><time>2026-04-28T09:55:45.639Z</time></trkpt><trkpt lat="44.1749883" lon="12.1110217"><ele>35.714285714285715</ele><time>2026-04-28T09:55:46.64Z</time></trkpt><trkpt lat="44.1750333" lon="12.1110833"><ele>35.85714285714286</ele><time>2026-04-28T09:55:47.64Z</time></trkpt><trkpt lat="44.17508" lon="12.111145"><ele>36.0</ele><time>2026-04-28T09:55:48.639Z</time></trkpt><trkpt lat="44.1751283" lon="12.1112083"><ele>35.833333333333336</ele><time>2026-04-28T09:55:49.64Z</time></trkpt><trkpt lat="44.17522" lon="12.1113283"><ele>35.666666666666664</ele><time>2026-04-28T09:55:51.639Z</time></trkpt><trkpt lat="44.1752667" lon="12.1113967"><ele>35.5</ele><time>2026-04-28T09:55:52.639Z</time></trkpt><trkpt lat="44.1753167" lon="12.111465"><ele>35.33333333333333</ele><time>2026-04-28T09:55:53.639Z</time></trkpt><trkpt lat="44.1753617" lon="12.11153"><ele>35.166666666666664</ele><time>2026-04-28T09:55:54.639Z</time></trkpt><trkpt lat="44.1754367" lon="12.1116567"><ele>35.0</ele><time>2026-04-28T09:55:56.639Z</time></trkpt><trkpt lat="44.1755117" lon="12.1118033"><ele>35.0</ele><time>2026-04-28T09:55:58.639Z</time></trkpt><trkpt lat="44.1755767" lon="12.11196"><ele>35.0</ele><time>2026-04-28T09:56:00.639Z</time></trkpt><trkpt lat="44.1756117" lon="12.1120433"><ele>35.0</ele><time>2026-04-28T09:56:01.639Z</time></trkpt><trkpt lat="44.1756417" lon="12.1121283"><ele>35.0</ele><time>2026-04-28T09:56:02.64Z</time></trkpt><trkpt lat="44.1756783" lon="12.112225"><ele>35.0</ele><time>2026-04-28T09:56:03.64Z</time></trkpt><trkpt lat="44.17571" lon="12.1123017"><ele>35.0</ele><time>2026-04-28T09:56:04.639Z</time></trkpt><trkpt lat="44.1757467" lon="12.1123817"><ele>34.83333333333333</ele><time>2026-04-28T09:56:05.64Z</time></trkpt><trkpt lat="44.1758067" lon="12.11254"><ele>34.666666666666664</ele><time>2026-04-28T09:56:07.64Z</time></trkpt><trkpt lat="44.1758367" lon="12.11263"><ele>34.5</ele><time>2026-04-28T09:56:08.639Z</time></trkpt><trkpt lat="44.175865" lon="12.1127217"><ele>34.333333333333336</ele><time>2026-04-28T09:56:09.64Z</time></trkpt><trkpt lat="44.1758967" lon="12.1128167"><ele>34.16666666666667</ele><time>2026-04-28T09:56:10.64Z</time></trkpt><trkpt lat="44.1759283" lon="12.112915"><ele>34.0</ele><time>2026-04-28T09:56:11.64Z</time></trkpt><trkpt lat="44.17596" lon="12.1130133"><ele>33.99999999999999</ele><time>2026-04-28T09:56:12.64Z</time></trkpt><trkpt lat="44.1759967" lon="12.11312"><ele>34.0</ele><time>2026-04-28T09:56:13.64Z</time></trkpt><trkpt lat="44.1760267" lon="12.113215"><ele>34.0</ele><time>2026-04-28T09:56:14.639Z</time></trkpt><trkpt lat="44.1760517" lon="12.1132983"><ele>34.0</ele><time>2026-04-28T09:56:15.64Z</time></trkpt><trkpt lat="44.1760783" lon="12.1133867"><ele>34.0</ele><time>2026-04-28T09:56:16.64Z</time></trkpt><trkpt lat="44.1761" lon="12.1134733"><ele>33.99999999999999</ele><time>2026-04-28T09:56:17.639Z</time></trkpt><trkpt lat="44.1761233" lon="12.11356"><ele>34.0</ele><time>2026-04-28T09:56:18.64Z</time></trkpt><trkpt lat="44.1761533" lon="12.113645"><ele>33.833333333333336</ele><time>2026-04-28T09:56:19.639Z</time></trkpt><trkpt lat="44.176185" lon="12.11373"><ele>33.66666666666667</ele><time>2026-04-28T09:56:20.64Z</time></trkpt><trkpt lat="44.1762133" lon="12.1138167"><ele>33.5</ele><time>2026-04-28T09:56:21.64Z</time></trkpt><trkpt lat="44.1762417" lon="12.1139083"><ele>33.333333333333336</ele><time>2026-04-28T09:56:22.64Z</time></trkpt><trkpt lat="44.17627" lon="12.1139967"><ele>33.166666666666664</ele><time>2026-04-28T09:56:23.639Z</time></trkpt><trkpt lat="44.1762967" lon="12.1140783"><ele>33.0</ele><time>2026-04-28T09:56:24.64Z</time></trkpt><trkpt lat="44.1763367" lon="12.1142283"><ele>32.75</ele><time>2026-04-28T09:56:26.64Z</time></trkpt><trkpt lat="44.1763717" lon="12.114385"><ele>32.5</ele><time>2026-04-28T09:56:28.639Z</time></trkpt><trkpt lat="44.176405" lon="12.1145517"><ele>32.25</ele><time>2026-04-28T09:56:30.639Z</time></trkpt><trkpt lat="44.176445" lon="12.1147183"><ele>32.0</ele><time>2026-04-28T09:56:32.64Z</time></trkpt><trkpt lat="44.1764883" lon="12.114875"><ele>32.2</ele><time>2026-04-28T09:56:34.64Z</time></trkpt><trkpt lat="44.176545" lon="12.1150283"><ele>32.400000000000006</ele><time>2026-04-28T09:56:36.639Z</time></trkpt><trkpt lat="44.176605" lon="12.1151633"><ele>32.599999999999994</ele><time>2026-04-28T09:56:38.64Z</time></trkpt><trkpt lat="44.1766283" lon="12.1152783"><ele>32.8</ele><time>2026-04-28T09:56:40.64Z</time></trkpt><trkpt lat="44.176655" lon="12.1153783"><ele>33.0</ele><time>2026-04-28T09:56:42.639Z</time></trkpt><trkpt lat="44.176695" lon="12.1155217"><ele>33.0</ele><time>2026-04-28T09:56:44.639Z</time></trkpt><trkpt lat="44.176715" lon="12.1156217"><ele>33.0</ele><time>2026-04-28T09:56:45.639Z</time></trkpt><trkpt lat="44.1767383" lon="12.1157117"><ele>33.0</ele><time>2026-04-28T09:56:46.64Z</time></trkpt><trkpt lat="44.1767633" lon="12.1158067"><ele>33.0</ele><time>2026-04-28T09:56:47.64Z</time></trkpt><trkpt lat="44.1767917" lon="12.1159033"><ele>33.0</ele><time>2026-04-28T09:56:48.64Z</time></trkpt><trkpt lat="44.1768167" lon="12.1159933"><ele>33.0</ele><time>2026-04-28T09:56:49.639Z</time></trkpt><trkpt lat="44.176845" lon="12.1160833"><ele>33.0</ele><time>2026-04-28T09:56:50.64Z</time></trkpt><trkpt lat="44.1768717" lon="12.1161783"><ele>33.0</ele><time>2026-04-28T09:56:51.64Z</time></trkpt><trkpt lat="44.1769033" lon="12.1162667"><ele>33.0</ele><time>2026-04-28T09:56:52.639Z</time></trkpt><trkpt lat="44.1769333" lon="12.1163583"><ele>33.0</ele><time>2026-04-28T09:56:53.64Z</time></trkpt><trkpt lat="44.1769633" lon="12.11646"><ele>33.0</ele><time>2026-04-28T09:56:54.639Z</time></trkpt><trkpt lat="44.17699" lon="12.1165483"><ele>33.0</ele><time>2026-04-28T09:56:55.64Z</time></trkpt><trkpt lat="44.17702" lon="12.1166367"><ele>33.0</ele><time>2026-04-28T09:56:56.639Z</time></trkpt><trkpt lat="44.1770517" lon="12.11672"><ele>33.0</ele><time>2026-04-28T09:56:57.64Z</time></trkpt><trkpt lat="44.177085" lon="12.1168117"><ele>33.0</ele><time>2026-04-28T09:56:58.64Z</time></trkpt><trkpt lat="44.1771217" lon="12.1169033"><ele>33.0</ele><time>2026-04-28T09:56:59.64Z</time></trkpt><trkpt lat="44.17716" lon="12.1169933"><ele>33.0</ele><time>2026-04-28T09:57:00.64Z</time></trkpt><trkpt lat="44.177195" lon="12.11707"><ele>33.0</ele><time>2026-04-28T09:57:01.64Z</time></trkpt><trkpt lat="44.17723" lon="12.1171467"><ele>33.0</ele><time>2026-04-28T09:57:02.639Z</time></trkpt><trkpt lat="44.1772683" lon="12.1172233"><ele>33.0</ele><time>2026-04-28T09:57:03.64Z</time></trkpt><trkpt lat="44.1773083" lon="12.1173"><ele>33.0</ele><time>2026-04-28T09:57:04.64Z</time></trkpt><trkpt lat="44.17735" lon="12.1173833"><ele>32.8</ele><time>2026-04-28T09:57:05.639Z</time></trkpt><trkpt lat="44.177395" lon="12.117475"><ele>32.599999999999994</ele><time>2026-04-28T09:57:06.639Z</time></trkpt><trkpt lat="44.17744" lon="12.11756"><ele>32.400000000000006</ele><time>2026-04-28T09:57:07.64Z</time></trkpt><trkpt lat="44.1774783" lon="12.1176367"><ele>32.2</ele><time>2026-04-28T09:57:08.64Z</time></trkpt><trkpt lat="44.177555" lon="12.1177717"><ele>32.0</ele><time>2026-04-28T09:57:10.64Z</time></trkpt><trkpt lat="44.1776433" lon="12.11791"><ele>32.0</ele><time>2026-04-28T09:57:12.64Z</time></trkpt><trkpt lat="44.17773" lon="12.11805"><ele>32.0</ele><time>2026-04-28T09:57:14.64Z</time></trkpt><trkpt lat="44.177775" lon="12.1181167"><ele>32.0</ele><time>2026-04-28T09:57:15.64Z</time></trkpt><trkpt lat="44.1778217" lon="12.1181883"><ele>32.0</ele><time>2026-04-28T09:57:16.639Z</time></trkpt><trkpt lat="44.1779033" lon="12.118315"><ele>32.0</ele><time>2026-04-28T09:57:18.639Z</time></trkpt><trkpt lat="44.1779533" lon="12.1183867"><ele>32.14285714285714</ele><time>2026-04-28T09:57:19.639Z</time></trkpt><trkpt lat="44.178" lon="12.1184533"><ele>32.285714285714285</ele><time>2026-04-28T09:57:20.639Z</time></trkpt><trkpt lat="44.1780483" lon="12.11852"><ele>32.42857142857143</ele><time>2026-04-28T09:57:21.64Z</time></trkpt><trkpt lat="44.1780983" lon="12.11858"><ele>32.57142857142857</ele><time>2026-04-28T09:57:22.639Z</time></trkpt><trkpt lat="44.1781483" lon="12.118635"><ele>32.714285714285715</ele><time>2026-04-28T09:57:23.64Z</time></trkpt><trkpt lat="44.1782383" lon="12.118735"><ele>32.857142857142854</ele><time>2026-04-28T09:57:25.64Z</time></trkpt><trkpt lat="44.1782933" lon="12.1187917"><ele>33.0</ele><time>2026-04-28T09:57:26.64Z</time></trkpt><trkpt lat="44.1783483" lon="12.1188467"><ele>33.0</ele><time>2026-04-28T09:57:27.639Z</time></trkpt><trkpt lat="44.178405" lon="12.1189017"><ele>33.0</ele><time>2026-04-28T09:57:28.639Z</time></trkpt><trkpt lat="44.178465" lon="12.118955"><ele>33.0</ele><time>2026-04-28T09:57:29.64Z</time></trkpt><trkpt lat="44.1785233" lon="12.119005"><ele>33.0</ele><time>2026-04-28T09:57:30.64Z</time></trkpt><trkpt lat="44.17858" lon="12.1190583"><ele>33.0</ele><time>2026-04-28T09:57:31.639Z</time></trkpt><trkpt lat="44.178635" lon="12.1191133"><ele>33.0</ele><time>2026-04-28T09:57:32.639Z</time></trkpt><trkpt lat="44.1786917" lon="12.1191717"><ele>33.0</ele><time>2026-04-28T09:57:33.639Z</time></trkpt><trkpt lat="44.1787533" lon="12.1192317"><ele>33.0</ele><time>2026-04-28T09:57:34.64Z</time></trkpt><trkpt lat="44.1788133" lon="12.1192917"><ele>33.0</ele><time>2026-04-28T09:57:35.64Z</time></trkpt><trkpt lat="44.17887" lon="12.1193417"><ele>33.0</ele><time>2026-04-28T09:57:36.64Z</time></trkpt><trkpt lat="44.17898" lon="12.11944"><ele>33.0</ele><time>2026-04-28T09:57:38.64Z</time></trkpt><trkpt lat="44.179035" lon="12.119485"><ele>33.0</ele><time>2026-04-28T09:57:39.639Z</time></trkpt><trkpt lat="44.17909" lon="12.11953"><ele>33.0</ele><time>2026-04-28T09:57:40.639Z</time></trkpt><trkpt lat="44.179145" lon="12.119575"><ele>33.0</ele><time>2026-04-28T09:57:41.64Z</time></trkpt><trkpt lat="44.179245" lon="12.1196583"><ele>33.0</ele><time>2026-04-28T09:57:43.64Z</time></trkpt><trkpt lat="44.1793567" lon="12.11973"><ele>33.0</ele><time>2026-04-28T09:57:45.64Z</time></trkpt><trkpt lat="44.1794517" lon="12.1197933"><ele>33.0</ele><time>2026-04-28T09:57:47.639Z</time></trkpt><trkpt lat="44.17954" lon="12.1198483"><ele>33.0</ele><time>2026-04-28T09:57:49.64Z</time></trkpt><trkpt lat="44.1796367" lon="12.1199217"><ele>33.0</ele><time>2026-04-28T09:57:51.64Z</time></trkpt><trkpt lat="44.179725" lon="12.1199833"><ele>33.0</ele><time>2026-04-28T09:57:53.64Z</time></trkpt><trkpt lat="44.1798183" lon="12.1200683"><ele>33.0</ele><time>2026-04-28T09:57:55.64Z</time></trkpt><trkpt lat="44.1799117" lon="12.120145"><ele>33.0</ele><time>2026-04-28T09:57:57.64Z</time></trkpt><trkpt lat="44.1800217" lon="12.12024"><ele>33.0</ele><time>2026-04-28T09:57:59.639Z</time></trkpt><trkpt lat="44.180075" lon="12.1202967"><ele>32.833333333333336</ele><time>2026-04-28T09:58:00.64Z</time></trkpt><trkpt lat="44.1801233" lon="12.120355"><ele>32.666666666666664</ele><time>2026-04-28T09:58:01.639Z</time></trkpt><trkpt lat="44.1801683" lon="12.1204233"><ele>32.5</ele><time>2026-04-28T09:58:02.639Z</time></trkpt><trkpt lat="44.1802317" lon="12.12054"><ele>32.33333333333333</ele><time>2026-04-28T09:58:04.64Z</time></trkpt><trkpt lat="44.1802833" lon="12.120615"><ele>32.166666666666664</ele><time>2026-04-28T09:58:05.64Z</time></trkpt><trkpt lat="44.1803933" lon="12.12066"><ele>32.0</ele><time>2026-04-28T09:58:07.64Z</time></trkpt><trkpt lat="44.1805067" lon="12.12069"><ele>32.0</ele><time>2026-04-28T09:58:09.64Z</time></trkpt><trkpt lat="44.18061" lon="12.1207417"><ele>32.0</ele><time>2026-04-28T09:58:11.64Z</time></trkpt><trkpt lat="44.1807167" lon="12.1208167"><ele>32.0</ele><time>2026-04-28T09:58:13.639Z</time></trkpt><trkpt lat="44.180825" lon="12.1209033"><ele>32.0</ele><time>2026-04-28T09:58:15.64Z</time></trkpt><trkpt lat="44.1808817" lon="12.120945"><ele>32.0</ele><time>2026-04-28T09:58:16.639Z</time></trkpt><trkpt lat="44.1809383" lon="12.1209867"><ele>32.166666666666664</ele><time>2026-04-28T09:58:17.639Z</time></trkpt><trkpt lat="44.1809917" lon="12.1210333"><ele>32.33333333333333</ele><time>2026-04-28T09:58:18.64Z</time></trkpt><trkpt lat="44.1810483" lon="12.1210783"><ele>32.5</ele><time>2026-04-28T09:58:19.639Z</time></trkpt><trkpt lat="44.1811117" lon="12.1211233"><ele>32.666666666666664</ele><time>2026-04-28T09:58:20.64Z</time></trkpt><trkpt lat="44.1811683" lon="12.1211667"><ele>32.833333333333336</ele><time>2026-04-28T09:58:21.64Z</time></trkpt><trkpt lat="44.1812817" lon="12.1212467"><ele>33.0</ele><time>2026-04-28T09:58:23.639Z</time></trkpt><trkpt lat="44.181385" lon="12.1213217"><ele>33.0</ele><time>2026-04-28T09:58:25.64Z</time></trkpt><trkpt lat="44.181495" lon="12.121415"><ele>33.0</ele><time>2026-04-28T09:58:27.64Z</time></trkpt><trkpt lat="44.181555" lon="12.1214583"><ele>33.0</ele><time>2026-04-28T09:58:28.64Z</time></trkpt><trkpt lat="44.1816533" lon="12.1215317"><ele>33.0</ele><time>2026-04-28T09:58:30.639Z</time></trkpt><trkpt lat="44.1817433" lon="12.1215967"><ele>33.0</ele><time>2026-04-28T09:58:32.64Z</time></trkpt><trkpt lat="44.1818283" lon="12.1216617"><ele>32.833333333333336</ele><time>2026-04-28T09:58:34.64Z</time></trkpt><trkpt lat="44.18192" lon="12.1217417"><ele>32.666666666666664</ele><time>2026-04-28T09:58:36.639Z</time></trkpt><trkpt lat="44.1820033" lon="12.1218033"><ele>32.5</ele><time>2026-04-28T09:58:38.64Z</time></trkpt><trkpt lat="44.18207" lon="12.12185"><ele>32.33333333333333</ele><time>2026-04-28T09:58:40.639Z</time></trkpt><trkpt lat="44.1821317" lon="12.1218883"><ele>32.166666666666664</ele><time>2026-04-28T09:58:43.639Z</time></trkpt><trkpt lat="44.1821083" lon="12.1219733"><ele>32.0</ele><time>2026-04-28T09:58:50.64Z</time></trkpt><trkpt lat="44.1820883" lon="12.1220633"><ele>31.999999999999996</ele><time>2026-04-28T09:58:55.64Z</time></trkpt><trkpt lat="44.182145" lon="12.1222"><ele>32.0</ele><time>2026-04-28T09:58:57.639Z</time></trkpt><trkpt lat="44.1821167" lon="12.1222867"><ele>32.0</ele><time>2026-04-28T09:59:00.64Z</time></trkpt><trkpt lat="44.1820767" lon="12.1223983"><ele>32.0</ele><time>2026-04-28T09:59:03.639Z</time></trkpt><trkpt lat="44.182015" lon="12.1224967"><ele>31.999999999999996</ele><time>2026-04-28T09:59:06.639Z</time></trkpt><trkpt lat="44.181975" lon="12.1225817"><ele>32.0</ele><time>2026-04-28T09:59:08.64Z</time></trkpt><trkpt lat="44.181925" lon="12.1226733"><ele>31.8</ele><time>2026-04-28T09:59:10.64Z</time></trkpt><trkpt lat="44.1818767" lon="12.122785"><ele>31.6</ele><time>2026-04-28T09:59:12.64Z</time></trkpt><trkpt lat="44.1818333" lon="12.1229217"><ele>31.400000000000002</ele><time>2026-04-28T09:59:14.639Z</time></trkpt><trkpt lat="44.181785" lon="12.12307"><ele>31.200000000000003</ele><time>2026-04-28T09:59:16.639Z</time></trkpt><trkpt lat="44.18175" lon="12.1232233"><ele>31.0</ele><time>2026-04-28T09:59:18.639Z</time></trkpt><trkpt lat="44.1817117" lon="12.1233683"><ele>30.8</ele><time>2026-04-28T09:59:20.639Z</time></trkpt><trkpt lat="44.1816717" lon="12.123505"><ele>30.6</ele><time>2026-04-28T09:59:22.64Z</time></trkpt><trkpt lat="44.1816217" lon="12.1236233"><ele>30.4</ele><time>2026-04-28T09:59:24.64Z</time></trkpt><trkpt lat="44.181555" lon="12.12371"><ele>30.2</ele><time>2026-04-28T09:59:26.639Z</time></trkpt><trkpt lat="44.18149" lon="12.1238033"><ele>30.0</ele><time>2026-04-28T09:59:28.64Z</time></trkpt><trkpt lat="44.181455" lon="12.1238917"><ele>30.0</ele><time>2026-04-28T09:59:30.64Z</time></trkpt><trkpt lat="44.1814333" lon="12.123975"><ele>30.0</ele><time>2026-04-28T09:59:32.64Z</time></trkpt><trkpt lat="44.1814217" lon="12.1240717"><ele>30.0</ele><time>2026-04-28T09:59:34.639Z</time></trkpt><trkpt lat="44.1814167" lon="12.1241733"><ele>30.0</ele><time>2026-04-28T09:59:36.64Z</time></trkpt><trkpt lat="44.1814017" lon="12.1242833"><ele>30.0</ele><time>2026-04-28T09:59:38.639Z</time></trkpt><trkpt lat="44.1813767" lon="12.1243983"><ele>30.0</ele><time>2026-04-28T09:59:40.639Z</time></trkpt><trkpt lat="44.1813533" lon="12.1245117"><ele>30.0</ele><time>2026-04-28T09:59:42.64Z</time></trkpt><trkpt lat="44.181325" lon="12.1246267"><ele>30.0</ele><time>2026-04-28T09:59:44.64Z</time></trkpt><trkpt lat="44.1812917" lon="12.1247417"><ele>30.0</ele><time>2026-04-28T09:59:46.639Z</time></trkpt><trkpt lat="44.1812583" lon="12.1248633"><ele>30.0</ele><time>2026-04-28T09:59:48.64Z</time></trkpt><trkpt lat="44.1812267" lon="12.1249917"><ele>30.0</ele><time>2026-04-28T09:59:50.639Z</time></trkpt><trkpt lat="44.1811883" lon="12.1251117"><ele>30.0</ele><time>2026-04-28T09:59:52.64Z</time></trkpt><trkpt lat="44.1811467" lon="12.1252367"><ele>30.0</ele><time>2026-04-28T09:59:54.639Z</time></trkpt><trkpt lat="44.1811083" lon="12.12536"><ele>30.0</ele><time>2026-04-28T09:59:56.64Z</time></trkpt><trkpt lat="44.1810717" lon="12.12549"><ele>30.0</ele><time>2026-04-28T09:59:58.639Z</time></trkpt><trkpt lat="44.18103" lon="12.1256083"><ele>30.0</ele><time>2026-04-28T10:00:00.639Z</time></trkpt><trkpt lat="44.1809883" lon="12.125705"><ele>29.833333333333332</ele><time>2026-04-28T10:00:02.64Z</time></trkpt><trkpt lat="44.1809583" lon="12.125815"><ele>29.666666666666664</ele><time>2026-04-28T10:00:04.64Z</time></trkpt><trkpt lat="44.1809217" lon="12.1259217"><ele>29.5</ele><time>2026-04-28T10:00:06.64Z</time></trkpt><trkpt lat="44.18089" lon="12.126025"><ele>29.333333333333332</ele><time>2026-04-28T10:00:08.64Z</time></trkpt><trkpt lat="44.1808633" lon="12.1261167"><ele>29.166666666666664</ele><time>2026-04-28T10:00:10.64Z</time></trkpt><trkpt lat="44.180855" lon="12.1262183"><ele>29.0</ele><time>2026-04-28T10:00:12.639Z</time></trkpt><trkpt lat="44.1809067" lon="12.1262983"><ele>29.0</ele><time>2026-04-28T10:00:14.64Z</time></trkpt><trkpt lat="44.1809933" lon="12.126375"><ele>29.0</ele><time>2026-04-28T10:00:16.639Z</time></trkpt><trkpt lat="44.1810883" lon="12.126465"><ele>29.0</ele><time>2026-04-28T10:00:18.64Z</time></trkpt><trkpt lat="44.181175" lon="12.1265333"><ele>29.0</ele><time>2026-04-28T10:00:20.64Z</time></trkpt><trkpt lat="44.1812467" lon="12.12658"><ele>29.0</ele><time>2026-04-28T10:00:22.64Z</time></trkpt><trkpt lat="44.1813183" lon="12.1266217"><ele>29.000000000000004</ele><time>2026-04-28T10:00:24.64Z</time></trkpt><trkpt lat="44.1813883" lon="12.1266567"><ele>29.0</ele><time>2026-04-28T10:00:26.639Z</time></trkpt><trkpt lat="44.1814583" lon="12.1266983"><ele>29.000000000000004</ele><time>2026-04-28T10:00:28.64Z</time></trkpt><trkpt lat="44.1815283" lon="12.12673"><ele>29.000000000000004</ele><time>2026-04-28T10:00:30.64Z</time></trkpt><trkpt lat="44.1815917" lon="12.1267517"><ele>29.0</ele><time>2026-04-28T10:00:32.64Z</time></trkpt><trkpt lat="44.1816433" lon="12.1268283"><ele>29.000000000000004</ele><time>2026-04-28T10:00:35.64Z</time></trkpt><trkpt lat="44.181695" lon="12.1268833"><ele>29.000000000000004</ele><time>2026-04-28T10:00:37.64Z</time></trkpt><trkpt lat="44.1817683" lon="12.12692"><ele>28.833333333333332</ele><time>2026-04-28T10:00:39.639Z</time></trkpt><trkpt lat="44.18185" lon="12.126955"><ele>28.666666666666664</ele><time>2026-04-28T10:00:41.639Z</time></trkpt><trkpt lat="44.1819267" lon="12.1269933"><ele>28.5</ele><time>2026-04-28T10:00:43.639Z</time></trkpt><trkpt lat="44.1819933" lon="12.1270333"><ele>28.333333333333336</ele><time>2026-04-28T10:00:45.64Z</time></trkpt><trkpt lat="44.1821017" lon="12.1271017"><ele>28.166666666666668</ele><time>2026-04-28T10:00:48.64Z</time></trkpt><trkpt lat="44.1821717" lon="12.1271583"><ele>28.0</ele><time>2026-04-28T10:00:50.639Z</time></trkpt><trkpt lat="44.182245" lon="12.127205"><ele>28.0</ele><time>2026-04-28T10:00:52.64Z</time></trkpt><trkpt lat="44.1823" lon="12.1272567"><ele>28.0</ele><time>2026-04-28T10:00:54.64Z</time></trkpt><trkpt lat="44.1822717" lon="12.127365"><ele>28.0</ele><time>2026-04-28T10:00:59.639Z</time></trkpt><trkpt lat="44.1822017" lon="12.1274117"><ele>28.0</ele><time>2026-04-28T10:01:03.64Z</time></trkpt><trkpt lat="44.1821383" lon="12.1274583"><ele>28.0</ele><time>2026-04-28T10:01:08.64Z</time></trkpt><trkpt lat="44.18206" lon="12.1275"><ele>28.0</ele><time>2026-04-28T10:01:10.639Z</time></trkpt><trkpt lat="44.1819983" lon="12.1275283"><ele>28.0</ele><time>2026-04-28T10:01:11.639Z</time></trkpt><trkpt lat="44.1818933" lon="12.1276"><ele>28.4</ele><time>2026-04-28T10:01:13.639Z</time></trkpt><trkpt lat="44.1818333" lon="12.1276383"><ele>28.799999999999997</ele><time>2026-04-28T10:01:14.64Z</time></trkpt><trkpt lat="44.1817483" lon="12.127715"><ele>29.2</ele><time>2026-04-28T10:01:16.64Z</time></trkpt><trkpt lat="44.1816733" lon="12.1278033"><ele>29.6</ele><time>2026-04-28T10:01:18.64Z</time></trkpt><trkpt lat="44.1816117" lon="12.1279083"><ele>30.0</ele><time>2026-04-28T10:01:20.64Z</time></trkpt><trkpt lat="44.1815483" lon="12.12802"><ele>29.833333333333332</ele><time>2026-04-28T10:01:22.639Z</time></trkpt><trkpt lat="44.1814917" lon="12.12811"><ele>29.666666666666664</ele><time>2026-04-28T10:01:24.64Z</time></trkpt><trkpt lat="44.18144" lon="12.1282067"><ele>29.5</ele><time>2026-04-28T10:01:26.64Z</time></trkpt><trkpt lat="44.181395" lon="12.12831"><ele>29.333333333333332</ele><time>2026-04-28T10:01:28.64Z</time></trkpt><trkpt lat="44.181355" lon="12.1284083"><ele>29.166666666666664</ele><time>2026-04-28T10:01:30.639Z</time></trkpt><trkpt lat="44.1813117" lon="12.1285"><ele>29.0</ele><time>2026-04-28T10:01:32.64Z</time></trkpt><trkpt lat="44.181265" lon="12.1286017"><ele>28.999999999999996</ele><time>2026-04-28T10:01:34.639Z</time></trkpt><trkpt lat="44.1812233" lon="12.128725"><ele>29.0</ele><time>2026-04-28T10:01:36.64Z</time></trkpt><trkpt lat="44.18118" lon="12.1288217"><ele>29.0</ele><time>2026-04-28T10:01:38.64Z</time></trkpt><trkpt lat="44.1811417" lon="12.1289217"><ele>29.0</ele><time>2026-04-28T10:01:40.64Z</time></trkpt><trkpt lat="44.181105" lon="12.1290233"><ele>28.999999999999996</ele><time>2026-04-28T10:01:42.64Z</time></trkpt><trkpt lat="44.18106" lon="12.12911"><ele>29.0</ele><time>2026-04-28T10:01:44.639Z</time></trkpt><trkpt lat="44.18101" lon="12.1292117"><ele>28.833333333333332</ele><time>2026-04-28T10:01:46.64Z</time></trkpt><trkpt lat="44.18096" lon="12.1293067"><ele>28.666666666666664</ele><time>2026-04-28T10:01:48.639Z</time></trkpt><trkpt lat="44.18091" lon="12.1293983"><ele>28.5</ele><time>2026-04-28T10:01:50.64Z</time></trkpt><trkpt lat="44.18086" lon="12.1294933"><ele>28.333333333333336</ele><time>2026-04-28T10:01:52.639Z</time></trkpt><trkpt lat="44.180815" lon="12.1295883"><ele>28.166666666666668</ele><time>2026-04-28T10:01:54.64Z</time></trkpt><trkpt lat="44.1807733" lon="12.1296783"><ele>28.0</ele><time>2026-04-28T10:01:56.64Z</time></trkpt><trkpt lat="44.1807367" lon="12.129765"><ele>28.000000000000004</ele><time>2026-04-28T10:01:58.64Z</time></trkpt><trkpt lat="44.1807033" lon="12.1298533"><ele>28.0</ele><time>2026-04-28T10:02:00.64Z</time></trkpt><trkpt lat="44.1806583" lon="12.1299617"><ele>28.0</ele><time>2026-04-28T10:02:03.639Z</time></trkpt><trkpt lat="44.18061" lon="12.1300667"><ele>28.0</ele><time>2026-04-28T10:02:06.64Z</time></trkpt><trkpt lat="44.18056" lon="12.13016"><ele>28.000000000000004</ele><time>2026-04-28T10:02:09.639Z</time></trkpt><trkpt lat="44.1805117" lon="12.1302617"><ele>28.0</ele><time>2026-04-28T10:02:12.64Z</time></trkpt><trkpt lat="44.1804733" lon="12.1303717"><ele>28.166666666666668</ele><time>2026-04-28T10:02:15.639Z</time></trkpt><trkpt lat="44.180445" lon="12.1304767"><ele>28.333333333333336</ele><time>2026-04-28T10:02:18.639Z</time></trkpt><trkpt lat="44.180425" lon="12.1305817"><ele>28.5</ele><time>2026-04-28T10:02:21.639Z</time></trkpt><trkpt lat="44.180405" lon="12.1307017"><ele>28.666666666666664</ele><time>2026-04-28T10:02:23.639Z</time></trkpt><trkpt lat="44.18039" lon="12.1308433"><ele>28.833333333333332</ele><time>2026-04-28T10:02:26.64Z</time></trkpt><trkpt lat="44.1803867" lon="12.130975"><ele>29.0</ele><time>2026-04-28T10:02:28.639Z</time></trkpt><trkpt lat="44.1803733" lon="12.13109"><ele>28.999999999999996</ele><time>2026-04-28T10:02:30.64Z</time></trkpt><trkpt lat="44.1804183" lon="12.131225"><ele>29.0</ele><time>2026-04-28T10:02:32.64Z</time></trkpt><trkpt lat="44.1803933" lon="12.13132"><ele>29.0</ele><time>2026-04-28T10:02:35.64Z</time></trkpt><trkpt lat="44.18039" lon="12.1314367"><ele>29.0</ele><time>2026-04-28T10:02:38.64Z</time></trkpt><trkpt lat="44.1803717" lon="12.1315417"><ele>28.999999999999996</ele><time>2026-04-28T10:02:41.639Z</time></trkpt><trkpt lat="44.1803683" lon="12.1316567"><ele>29.0</ele><time>2026-04-28T10:02:43.64Z</time></trkpt><trkpt lat="44.1803617" lon="12.1317717"><ele>28.999999999999996</ele><time>2026-04-28T10:02:45.64Z</time></trkpt><trkpt lat="44.180345" lon="12.1318833"><ele>29.0</ele><time>2026-04-28T10:02:47.64Z</time></trkpt><trkpt lat="44.1803233" lon="12.1320033"><ele>29.0</ele><time>2026-04-28T10:02:49.64Z</time></trkpt><trkpt lat="44.1803017" lon="12.1321383"><ele>29.0</ele><time>2026-04-28T10:02:51.639Z</time></trkpt><trkpt lat="44.1802867" lon="12.1322433"><ele>28.999999999999996</ele><time>2026-04-28T10:02:53.639Z</time></trkpt><trkpt lat="44.1802717" lon="12.1323683"><ele>29.0</ele><time>2026-04-28T10:02:56.639Z</time></trkpt><trkpt lat="44.180255" lon="12.1325067"><ele>28.666666666666664</ele><time>2026-04-28T10:02:59.64Z</time></trkpt><trkpt lat="44.18025" lon="12.1326233"><ele>28.333333333333332</ele><time>2026-04-28T10:03:01.64Z</time></trkpt><trkpt lat="44.1802533" lon="12.1327433"><ele>28.0</ele><time>2026-04-28T10:03:03.639Z</time></trkpt><trkpt lat="44.180255" lon="12.1328483"><ele>27.666666666666664</ele><time>2026-04-28T10:03:05.64Z</time></trkpt><trkpt lat="44.18026" lon="12.132955"><ele>27.333333333333332</ele><time>2026-04-28T10:03:07.64Z</time></trkpt><trkpt lat="44.1802783" lon="12.1330483"><ele>27.0</ele><time>2026-04-28T10:03:09.639Z</time></trkpt><trkpt lat="44.1803133" lon="12.1331617"><ele>27.200000000000003</ele><time>2026-04-28T10:03:12.639Z</time></trkpt><trkpt lat="44.1803267" lon="12.1332483"><ele>27.400000000000002</ele><time>2026-04-28T10:03:16.64Z</time></trkpt><trkpt lat="44.1802983" lon="12.1333283"><ele>27.599999999999998</ele><time>2026-04-28T10:03:23.639Z</time></trkpt><trkpt lat="44.180325" lon="12.133435"><ele>27.799999999999997</ele><time>2026-04-28T10:03:26.64Z</time></trkpt><trkpt lat="44.1803783" lon="12.1336367"><ele>28.0</ele><time>2026-04-28T10:03:38.64Z</time></trkpt><trkpt lat="44.18037" lon="12.1337883"><ele>28.000000000000004</ele><time>2026-04-28T10:04:54.639Z</time></trkpt><trkpt lat="44.1803917" lon="12.1336917"><ele>28.0</ele><time>2026-04-28T10:06:03.64Z</time></trkpt><trkpt lat="44.1803833" lon="12.1335783"><ele>28.0</ele><time>2026-04-28T10:06:09.639Z</time></trkpt><trkpt lat="44.1803483" lon="12.1334867"><ele>28.0</ele><time>2026-04-28T10:06:13.64Z</time></trkpt><trkpt lat="44.1803317" lon="12.1333767"><ele>28.000000000000004</ele><time>2026-04-28T10:06:16.64Z</time></trkpt><trkpt lat="44.18033" lon="12.1332683"><ele>28.0</ele><time>2026-04-28T10:06:18.639Z</time></trkpt><trkpt lat="44.1803383" lon="12.1331333"><ele>27.75</ele><time>2026-04-28T10:06:20.64Z</time></trkpt><trkpt lat="44.180335" lon="12.1329833"><ele>27.5</ele><time>2026-04-28T10:06:22.639Z</time></trkpt><trkpt lat="44.1803383" lon="12.1328233"><ele>27.25</ele><time>2026-04-28T10:06:24.639Z</time></trkpt><trkpt lat="44.1803417" lon="12.1326667"><ele>27.0</ele><time>2026-04-28T10:06:26.64Z</time></trkpt><trkpt lat="44.1803617" lon="12.1325033"><ele>27.400000000000002</ele><time>2026-04-28T10:06:28.64Z</time></trkpt><trkpt lat="44.1803967" lon="12.1323433"><ele>27.800000000000004</ele><time>2026-04-28T10:06:30.639Z</time></trkpt><trkpt lat="44.1804367" lon="12.1322017"><ele>28.2</ele><time>2026-04-28T10:06:32.639Z</time></trkpt><trkpt lat="44.1804667" lon="12.1320517"><ele>28.6</ele><time>2026-04-28T10:06:34.639Z</time></trkpt><trkpt lat="44.1804933" lon="12.1319117"><ele>29.0</ele><time>2026-04-28T10:06:36.64Z</time></trkpt><trkpt lat="44.1805183" lon="12.1317783"><ele>28.999999999999996</ele><time>2026-04-28T10:06:38.639Z</time></trkpt><trkpt lat="44.1805333" lon="12.1316617"><ele>29.0</ele><time>2026-04-28T10:06:41.64Z</time></trkpt><trkpt lat="44.180535" lon="12.13154"><ele>29.0</ele><time>2026-04-28T10:06:45.64Z</time></trkpt><trkpt lat="44.1805417" lon="12.131425"><ele>29.0</ele><time>2026-04-28T10:06:49.639Z</time></trkpt><trkpt lat="44.18054" lon="12.1313167"><ele>28.999999999999996</ele><time>2026-04-28T10:06:52.639Z</time></trkpt><trkpt lat="44.1805483" lon="12.13121"><ele>29.0</ele><time>2026-04-28T10:06:55.639Z</time></trkpt><trkpt lat="44.1805417" lon="12.1310967"><ele>28.999999999999996</ele><time>2026-04-28T10:06:59.64Z</time></trkpt><trkpt lat="44.1805533" lon="12.1310033"><ele>29.0</ele><time>2026-04-28T10:07:01.64Z</time></trkpt><trkpt lat="44.1805683" lon="12.1308883"><ele>29.0</ele><time>2026-04-28T10:07:03.64Z</time></trkpt><trkpt lat="44.1805867" lon="12.1308"><ele>29.0</ele><time>2026-04-28T10:07:05.64Z</time></trkpt><trkpt lat="44.1806133" lon="12.1307117"><ele>28.999999999999996</ele><time>2026-04-28T10:07:07.639Z</time></trkpt><trkpt lat="44.18065" lon="12.1306083"><ele>29.0</ele><time>2026-04-28T10:07:09.64Z</time></trkpt><trkpt lat="44.1807033" lon="12.1304983"><ele>28.799999999999997</ele><time>2026-04-28T10:07:11.64Z</time></trkpt><trkpt lat="44.1807583" lon="12.1304033"><ele>28.599999999999998</ele><time>2026-04-28T10:07:13.639Z</time></trkpt><trkpt lat="44.1808367" lon="12.130235"><ele>28.4</ele><time>2026-04-28T10:07:15.64Z</time></trkpt><trkpt lat="44.18088" lon="12.1301383"><ele>28.2</ele><time>2026-04-28T10:07:16.64Z</time></trkpt><trkpt lat="44.1808933" lon="12.1300167"><ele>28.0</ele><time>2026-04-28T10:07:17.639Z</time></trkpt><trkpt lat="44.1809483" lon="12.1298733"><ele>28.0</ele><time>2026-04-28T10:07:19.64Z</time></trkpt><trkpt lat="44.181005" lon="12.1297517"><ele>27.999999999999996</ele><time>2026-04-28T10:07:21.639Z</time></trkpt><trkpt lat="44.181065" lon="12.1296317"><ele>27.999999999999996</ele><time>2026-04-28T10:07:23.639Z</time></trkpt><trkpt lat="44.1811367" lon="12.1294717"><ele>28.0</ele><time>2026-04-28T10:07:25.64Z</time></trkpt><trkpt lat="44.1811767" lon="12.1293683"><ele>28.0</ele><time>2026-04-28T10:07:26.639Z</time></trkpt><trkpt lat="44.1812067" lon="12.1291483"><ele>28.2</ele><time>2026-04-28T10:07:28.64Z</time></trkpt><trkpt lat="44.1812283" lon="12.12905"><ele>28.4</ele><time>2026-04-28T10:07:29.64Z</time></trkpt><trkpt lat="44.18125" lon="12.12896"><ele>28.599999999999998</ele><time>2026-04-28T10:07:30.639Z</time></trkpt><trkpt lat="44.1812983" lon="12.1288067"><ele>28.799999999999997</ele><time>2026-04-28T10:07:32.64Z</time></trkpt><trkpt lat="44.1813417" lon="12.1286667"><ele>29.0</ele><time>2026-04-28T10:07:34.639Z</time></trkpt><trkpt lat="44.1813983" lon="12.1285133"><ele>29.0</ele><time>2026-04-28T10:07:36.639Z</time></trkpt><trkpt lat="44.1814583" lon="12.1283683"><ele>29.0</ele><time>2026-04-28T10:07:38.64Z</time></trkpt><trkpt lat="44.1815167" lon="12.1282333"><ele>29.0</ele><time>2026-04-28T10:07:40.64Z</time></trkpt><trkpt lat="44.18158" lon="12.1281067"><ele>29.0</ele><time>2026-04-28T10:07:42.639Z</time></trkpt><trkpt lat="44.1816467" lon="12.1279833"><ele>29.2</ele><time>2026-04-28T10:07:44.64Z</time></trkpt><trkpt lat="44.1817133" lon="12.1278717"><ele>29.4</ele><time>2026-04-28T10:07:46.639Z</time></trkpt><trkpt lat="44.1817867" lon="12.1277633"><ele>29.6</ele><time>2026-04-28T10:07:48.639Z</time></trkpt><trkpt lat="44.1818633" lon="12.1276767"><ele>29.8</ele><time>2026-04-28T10:07:50.639Z</time></trkpt><trkpt lat="44.1819483" lon="12.127625"><ele>30.0</ele><time>2026-04-28T10:07:52.639Z</time></trkpt><trkpt lat="44.18203" lon="12.1275817"><ele>30.0</ele><time>2026-04-28T10:07:54.64Z</time></trkpt><trkpt lat="44.1821033" lon="12.1275533"><ele>30.0</ele><time>2026-04-28T10:07:56.64Z</time></trkpt><trkpt lat="44.1821733" lon="12.1275167"><ele>30.0</ele><time>2026-04-28T10:07:58.64Z</time></trkpt><trkpt lat="44.1822433" lon="12.1274767"><ele>30.0</ele><time>2026-04-28T10:08:00.64Z</time></trkpt><trkpt lat="44.1822967" lon="12.1273967"><ele>30.0</ele><time>2026-04-28T10:08:03.639Z</time></trkpt><trkpt lat="44.1822767" lon="12.1273017"><ele>30.0</ele><time>2026-04-28T10:08:05.639Z</time></trkpt><trkpt lat="44.1822217" lon="12.1271933"><ele>29.666666666666668</ele><time>2026-04-28T10:08:07.639Z</time></trkpt><trkpt lat="44.1821467" lon="12.1271133"><ele>29.333333333333336</ele><time>2026-04-28T10:08:09.64Z</time></trkpt><trkpt lat="44.18208" lon="12.1270283"><ele>29.0</ele><time>2026-04-28T10:08:11.64Z</time></trkpt><trkpt lat="44.1820067" lon="12.1269683"><ele>28.666666666666668</ele><time>2026-04-28T10:08:13.64Z</time></trkpt><trkpt lat="44.1819333" lon="12.12691"><ele>28.333333333333336</ele><time>2026-04-28T10:08:15.64Z</time></trkpt><trkpt lat="44.1818617" lon="12.126855"><ele>28.0</ele><time>2026-04-28T10:08:17.64Z</time></trkpt><trkpt lat="44.1817833" lon="12.1268017"><ele>28.000000000000004</ele><time>2026-04-28T10:08:19.639Z</time></trkpt><trkpt lat="44.1817117" lon="12.1267417"><ele>28.0</ele><time>2026-04-28T10:08:21.64Z</time></trkpt><trkpt lat="44.1816383" lon="12.12672"><ele>28.0</ele><time>2026-04-28T10:08:23.639Z</time></trkpt><trkpt lat="44.181555" lon="12.1266917"><ele>28.0</ele><time>2026-04-28T10:08:25.64Z</time></trkpt><trkpt lat="44.18147" lon="12.1266367"><ele>28.000000000000004</ele><time>2026-04-28T10:08:27.64Z</time></trkpt><trkpt lat="44.1813733" lon="12.1265833"><ele>28.0</ele><time>2026-04-28T10:08:29.64Z</time></trkpt><trkpt lat="44.1812717" lon="12.1265367"><ele>28.2</ele><time>2026-04-28T10:08:31.64Z</time></trkpt><trkpt lat="44.1811667" lon="12.1264917"><ele>28.4</ele><time>2026-04-28T10:08:33.64Z</time></trkpt><trkpt lat="44.181065" lon="12.1264417"><ele>28.599999999999998</ele><time>2026-04-28T10:08:35.64Z</time></trkpt><trkpt lat="44.1809867" lon="12.12636"><ele>28.799999999999997</ele><time>2026-04-28T10:08:37.64Z</time></trkpt><trkpt lat="44.180975" lon="12.1262383"><ele>29.0</ele><time>2026-04-28T10:08:39.64Z</time></trkpt><trkpt lat="44.18099" lon="12.1260933"><ele>28.999999999999996</ele><time>2026-04-28T10:08:41.64Z</time></trkpt><trkpt lat="44.1810317" lon="12.1259533"><ele>29.0</ele><time>2026-04-28T10:08:43.64Z</time></trkpt><trkpt lat="44.1810583" lon="12.1258667"><ele>29.0</ele><time>2026-04-28T10:08:44.64Z</time></trkpt><trkpt lat="44.181095" lon="12.1256967"><ele>29.0</ele><time>2026-04-28T10:08:46.639Z</time></trkpt><trkpt lat="44.1811183" lon="12.12561"><ele>28.999999999999996</ele><time>2026-04-28T10:08:47.639Z</time></trkpt><trkpt lat="44.1811417" lon="12.1255267"><ele>29.0</ele><time>2026-04-28T10:08:48.639Z</time></trkpt><trkpt lat="44.1811683" lon="12.1254383"><ele>29.166666666666664</ele><time>2026-04-28T10:08:49.64Z</time></trkpt><trkpt lat="44.1811933" lon="12.125355"><ele>29.333333333333332</ele><time>2026-04-28T10:08:50.64Z</time></trkpt><trkpt lat="44.18122" lon="12.12527"><ele>29.5</ele><time>2026-04-28T10:08:51.639Z</time></trkpt><trkpt lat="44.1812683" lon="12.1251183"><ele>29.666666666666664</ele><time>2026-04-28T10:08:53.64Z</time></trkpt><trkpt lat="44.1812983" lon="12.125035"><ele>29.833333333333332</ele><time>2026-04-28T10:08:54.639Z</time></trkpt><trkpt lat="44.1813267" lon="12.1249517"><ele>30.0</ele><time>2026-04-28T10:08:55.64Z</time></trkpt><trkpt lat="44.18137" lon="12.1247917"><ele>30.0</ele><time>2026-04-28T10:08:57.64Z</time></trkpt><trkpt lat="44.1813933" lon="12.1247083"><ele>30.0</ele><time>2026-04-28T10:08:58.64Z</time></trkpt><trkpt lat="44.1814283" lon="12.1245583"><ele>30.0</ele><time>2026-04-28T10:09:00.639Z</time></trkpt><trkpt lat="44.1814467" lon="12.12442"><ele>30.0</ele><time>2026-04-28T10:09:02.64Z</time></trkpt><trkpt lat="44.18145" lon="12.1242883"><ele>30.0</ele><time>2026-04-28T10:09:04.64Z</time></trkpt><trkpt lat="44.1814617" lon="12.1241667"><ele>30.0</ele><time>2026-04-28T10:09:06.64Z</time></trkpt><trkpt lat="44.18149" lon="12.1240583"><ele>30.0</ele><time>2026-04-28T10:09:08.639Z</time></trkpt><trkpt lat="44.1815333" lon="12.1239517"><ele>30.0</ele><time>2026-04-28T10:09:10.64Z</time></trkpt><trkpt lat="44.1815983" lon="12.12382"><ele>30.0</ele><time>2026-04-28T10:09:12.639Z</time></trkpt><trkpt lat="44.1816667" lon="12.123685"><ele>30.0</ele><time>2026-04-28T10:09:14.64Z</time></trkpt><trkpt lat="44.1817283" lon="12.1235367"><ele>30.0</ele><time>2026-04-28T10:09:16.639Z</time></trkpt><trkpt lat="44.1817883" lon="12.1234"><ele>30.0</ele><time>2026-04-28T10:09:18.64Z</time></trkpt><trkpt lat="44.1818433" lon="12.1232467"><ele>30.0</ele><time>2026-04-28T10:09:20.639Z</time></trkpt><trkpt lat="44.1818967" lon="12.1230933"><ele>30.0</ele><time>2026-04-28T10:09:22.639Z</time></trkpt><trkpt lat="44.1819217" lon="12.1230033"><ele>30.0</ele><time>2026-04-28T10:09:23.64Z</time></trkpt><trkpt lat="44.181945" lon="12.1229183"><ele>30.166666666666668</ele><time>2026-04-28T10:09:24.64Z</time></trkpt><trkpt lat="44.1819717" lon="12.122835"><ele>30.333333333333336</ele><time>2026-04-28T10:09:25.639Z</time></trkpt><trkpt lat="44.1820017" lon="12.122755"><ele>30.5</ele><time>2026-04-28T10:09:26.639Z</time></trkpt><trkpt lat="44.1820483" lon="12.1226067"><ele>30.666666666666668</ele><time>2026-04-28T10:09:28.639Z</time></trkpt><trkpt lat="44.1820967" lon="12.1224717"><ele>30.833333333333336</ele><time>2026-04-28T10:09:30.639Z</time></trkpt><trkpt lat="44.1821417" lon="12.1223567"><ele>31.0</ele><time>2026-04-28T10:09:32.639Z</time></trkpt><trkpt lat="44.18218" lon="12.1222217"><ele>31.200000000000003</ele><time>2026-04-28T10:09:34.639Z</time></trkpt><trkpt lat="44.1822417" lon="12.1220917"><ele>31.400000000000002</ele><time>2026-04-28T10:09:41.64Z</time></trkpt><trkpt lat="44.1823133" lon="12.1220117"><ele>31.6</ele><time>2026-04-28T10:09:48.64Z</time></trkpt><trkpt lat="44.1823517" lon="12.1218933"><ele>31.8</ele><time>2026-04-28T10:09:51.639Z</time></trkpt><trkpt lat="44.1823683" lon="12.1217667"><ele>32.0</ele><time>2026-04-28T10:09:53.639Z</time></trkpt><trkpt lat="44.1823667" lon="12.1216183"><ele>31.8</ele><time>2026-04-28T10:09:55.639Z</time></trkpt><trkpt lat="44.1823683" lon="12.1215267"><ele>31.6</ele><time>2026-04-28T10:09:56.64Z</time></trkpt><trkpt lat="44.1823633" lon="12.1213667"><ele>31.400000000000002</ele><time>2026-04-28T10:09:58.639Z</time></trkpt><trkpt lat="44.182365" lon="12.121215"><ele>31.200000000000003</ele><time>2026-04-28T10:10:00.64Z</time></trkpt><trkpt lat="44.1823617" lon="12.121075"><ele>31.0</ele><time>2026-04-28T10:10:02.64Z</time></trkpt><trkpt lat="44.1823617" lon="12.1209767"><ele>31.000000000000004</ele><time>2026-04-28T10:10:04.64Z</time></trkpt><trkpt lat="44.1823517" lon="12.12087"><ele>31.0</ele><time>2026-04-28T10:10:07.639Z</time></trkpt><trkpt lat="44.18233" lon="12.120735"><ele>31.0</ele><time>2026-04-28T10:10:09.639Z</time></trkpt><trkpt lat="44.1822783" lon="12.1206517"><ele>31.0</ele><time>2026-04-28T10:10:11.64Z</time></trkpt><trkpt lat="44.18221" lon="12.1205783"><ele>31.000000000000004</ele><time>2026-04-28T10:10:13.64Z</time></trkpt><trkpt lat="44.1821733" lon="12.1204983"><ele>31.0</ele><time>2026-04-28T10:10:14.64Z</time></trkpt><trkpt lat="44.1820883" lon="12.12036"><ele>30.8</ele><time>2026-04-28T10:10:16.64Z</time></trkpt><trkpt lat="44.1820417" lon="12.1203"><ele>30.6</ele><time>2026-04-28T10:10:17.64Z</time></trkpt><trkpt lat="44.18199" lon="12.1202467"><ele>30.4</ele><time>2026-04-28T10:10:18.64Z</time></trkpt><trkpt lat="44.18189" lon="12.120155"><ele>30.2</ele><time>2026-04-28T10:10:20.638Z</time></trkpt><trkpt lat="44.18179" lon="12.120065"><ele>30.0</ele><time>2026-04-28T10:10:22.638Z</time></trkpt><trkpt lat="44.1816917" lon="12.1200217"><ele>30.0</ele><time>2026-04-28T10:10:24.639Z</time></trkpt><trkpt lat="44.1815883" lon="12.120005"><ele>30.0</ele><time>2026-04-28T10:10:26.639Z</time></trkpt><trkpt lat="44.1814733" lon="12.1199517"><ele>30.0</ele><time>2026-04-28T10:10:28.638Z</time></trkpt><trkpt lat="44.181415" lon="12.119915"><ele>30.0</ele><time>2026-04-28T10:10:29.639Z</time></trkpt><trkpt lat="44.1813567" lon="12.1198767"><ele>30.0</ele><time>2026-04-28T10:10:30.638Z</time></trkpt><trkpt lat="44.1812483" lon="12.1197967"><ele>30.2</ele><time>2026-04-28T10:10:32.639Z</time></trkpt><trkpt lat="44.1811483" lon="12.1197267"><ele>30.4</ele><time>2026-04-28T10:10:34.639Z</time></trkpt><trkpt lat="44.1810983" lon="12.1196317"><ele>30.6</ele><time>2026-04-28T10:10:37.639Z</time></trkpt><trkpt lat="44.1811317" lon="12.1195417"><ele>30.8</ele><time>2026-04-28T10:10:39.638Z</time></trkpt><trkpt lat="44.1811783" lon="12.119425"><ele>31.0</ele><time>2026-04-28T10:10:41.639Z</time></trkpt><trkpt lat="44.1812317" lon="12.1192733"><ele>31.0</ele><time>2026-04-28T10:10:43.639Z</time></trkpt><trkpt lat="44.1812583" lon="12.1191933"><ele>31.0</ele><time>2026-04-28T10:10:44.639Z</time></trkpt><trkpt lat="44.1813183" lon="12.11904"><ele>31.0</ele><time>2026-04-28T10:10:46.638Z</time></trkpt><trkpt lat="44.1813483" lon="12.1189617"><ele>31.0</ele><time>2026-04-28T10:10:47.639Z</time></trkpt><trkpt lat="44.181415" lon="12.1188117"><ele>31.0</ele><time>2026-04-28T10:10:49.638Z</time></trkpt><trkpt lat="44.1814883" lon="12.1186633"><ele>31.000000000000004</ele><time>2026-04-28T10:10:51.639Z</time></trkpt><trkpt lat="44.1815183" lon="12.118585"><ele>31.0</ele><time>2026-04-28T10:10:52.639Z</time></trkpt><trkpt lat="44.1815533" lon="12.1185"><ele>31.0</ele><time>2026-04-28T10:10:53.639Z</time></trkpt><trkpt lat="44.1815833" lon="12.1184183"><ele>31.0</ele><time>2026-04-28T10:10:54.638Z</time></trkpt><trkpt lat="44.181615" lon="12.1183333"><ele>31.000000000000004</ele><time>2026-04-28T10:10:55.639Z</time></trkpt><trkpt lat="44.1816683" lon="12.1181767"><ele>31.0</ele><time>2026-04-28T10:10:57.639Z</time></trkpt><trkpt lat="44.18173" lon="12.11803"><ele>31.000000000000004</ele><time>2026-04-28T10:10:59.638Z</time></trkpt><trkpt lat="44.1817667" lon="12.117955"><ele>31.0</ele><time>2026-04-28T10:11:00.639Z</time></trkpt><trkpt lat="44.1817933" lon="12.11787"><ele>31.0</ele><time>2026-04-28T10:11:01.639Z</time></trkpt><trkpt lat="44.18185" lon="12.11772"><ele>31.0</ele><time>2026-04-28T10:11:03.638Z</time></trkpt><trkpt lat="44.1818833" lon="12.117645"><ele>31.000000000000004</ele><time>2026-04-28T10:11:04.638Z</time></trkpt><trkpt lat="44.18194" lon="12.1175217"><ele>31.0</ele><time>2026-04-28T10:11:06.638Z</time></trkpt><trkpt lat="44.181955" lon="12.1174217"><ele>30.8</ele><time>2026-04-28T10:11:08.639Z</time></trkpt><trkpt lat="44.1819233" lon="12.117335"><ele>30.6</ele><time>2026-04-28T10:11:10.638Z</time></trkpt><trkpt lat="44.1818533" lon="12.117205"><ele>30.4</ele><time>2026-04-28T10:11:12.638Z</time></trkpt><trkpt lat="44.1817683" lon="12.117085"><ele>30.2</ele><time>2026-04-28T10:11:14.639Z</time></trkpt><trkpt lat="44.1817033" lon="12.1169483"><ele>30.0</ele><time>2026-04-28T10:11:16.638Z</time></trkpt><trkpt lat="44.1816567" lon="12.1167967"><ele>30.0</ele><time>2026-04-28T10:11:18.638Z</time></trkpt><trkpt lat="44.1816383" lon="12.1166433"><ele>30.0</ele><time>2026-04-28T10:11:20.639Z</time></trkpt><trkpt lat="44.1816717" lon="12.1165067"><ele>30.0</ele><time>2026-04-28T10:11:22.639Z</time></trkpt><trkpt lat="44.1817217" lon="12.1163783"><ele>30.0</ele><time>2026-04-28T10:11:24.639Z</time></trkpt><trkpt lat="44.1817633" lon="12.1162583"><ele>30.0</ele><time>2026-04-28T10:11:26.638Z</time></trkpt><trkpt lat="44.1818217" lon="12.1161183"><ele>29.833333333333332</ele><time>2026-04-28T10:11:28.639Z</time></trkpt><trkpt lat="44.1818467" lon="12.1160267"><ele>29.666666666666664</ele><time>2026-04-28T10:11:29.639Z</time></trkpt><trkpt lat="44.181875" lon="12.1159417"><ele>29.5</ele><time>2026-04-28T10:11:30.638Z</time></trkpt><trkpt lat="44.18193" lon="12.1157867"><ele>29.333333333333332</ele><time>2026-04-28T10:11:32.639Z</time></trkpt><trkpt lat="44.1819633" lon="12.1157067"><ele>29.166666666666664</ele><time>2026-04-28T10:11:33.639Z</time></trkpt><trkpt lat="44.1819983" lon="12.1156183"><ele>29.0</ele><time>2026-04-28T10:11:34.638Z</time></trkpt><trkpt lat="44.1820267" lon="12.1155383"><ele>28.71428571428572</ele><time>2026-04-28T10:11:35.639Z</time></trkpt><trkpt lat="44.1820567" lon="12.11546"><ele>28.42857142857143</ele><time>2026-04-28T10:11:36.639Z</time></trkpt><trkpt lat="44.1820933" lon="12.115375"><ele>28.142857142857146</ele><time>2026-04-28T10:11:37.639Z</time></trkpt><trkpt lat="44.1821283" lon="12.1152867"><ele>27.85714285714286</ele><time>2026-04-28T10:11:38.639Z</time></trkpt><trkpt lat="44.1821617" lon="12.1152"><ele>27.57142857142857</ele><time>2026-04-28T10:11:39.639Z</time></trkpt><trkpt lat="44.1821933" lon="12.1151083"><ele>27.285714285714285</ele><time>2026-04-28T10:11:40.638Z</time></trkpt><trkpt lat="44.1822267" lon="12.1150183"><ele>27.0</ele><time>2026-04-28T10:11:41.639Z</time></trkpt><trkpt lat="44.1822567" lon="12.114925"><ele>27.0</ele><time>2026-04-28T10:11:42.638Z</time></trkpt><trkpt lat="44.1822883" lon="12.1148333"><ele>27.0</ele><time>2026-04-28T10:11:43.638Z</time></trkpt><trkpt lat="44.1823217" lon="12.11474"><ele>27.0</ele><time>2026-04-28T10:11:44.638Z</time></trkpt><trkpt lat="44.182355" lon="12.114645"><ele>27.0</ele><time>2026-04-28T10:11:45.639Z</time></trkpt><trkpt lat="44.18239" lon="12.114545"><ele>27.0</ele><time>2026-04-28T10:11:46.638Z</time></trkpt><trkpt lat="44.1824267" lon="12.1144367"><ele>27.0</ele><time>2026-04-28T10:11:47.638Z</time></trkpt><trkpt lat="44.1824617" lon="12.1143367"><ele>27.0</ele><time>2026-04-28T10:11:48.638Z</time></trkpt><trkpt lat="44.1824967" lon="12.114245"><ele>27.0</ele><time>2026-04-28T10:11:49.638Z</time></trkpt><trkpt lat="44.1825283" lon="12.114155"><ele>27.0</ele><time>2026-04-28T10:11:50.639Z</time></trkpt><trkpt lat="44.18256" lon="12.1140717"><ele>27.0</ele><time>2026-04-28T10:11:51.639Z</time></trkpt><trkpt lat="44.18259" lon="12.1139867"><ele>27.0</ele><time>2026-04-28T10:11:52.638Z</time></trkpt><trkpt lat="44.1826183" lon="12.1139017"><ele>27.0</ele><time>2026-04-28T10:11:53.639Z</time></trkpt><trkpt lat="44.1826483" lon="12.113815"><ele>27.0</ele><time>2026-04-28T10:11:54.638Z</time></trkpt><trkpt lat="44.18268" lon="12.1137267"><ele>27.142857142857142</ele><time>2026-04-28T10:11:55.639Z</time></trkpt><trkpt lat="44.1827183" lon="12.1136433"><ele>27.285714285714285</ele><time>2026-04-28T10:11:56.639Z</time></trkpt><trkpt lat="44.1827633" lon="12.1135717"><ele>27.42857142857143</ele><time>2026-04-28T10:11:57.639Z</time></trkpt><trkpt lat="44.1828183" lon="12.1135083"><ele>27.57142857142857</ele><time>2026-04-28T10:11:58.638Z</time></trkpt><trkpt lat="44.1828833" lon="12.1134583"><ele>27.714285714285715</ele><time>2026-04-28T10:11:59.639Z</time></trkpt><trkpt lat="44.18295" lon="12.113415"><ele>27.857142857142858</ele><time>2026-04-28T10:12:00.639Z</time></trkpt><trkpt lat="44.183025" lon="12.1133817"><ele>28.0</ele><time>2026-04-28T10:12:01.638Z</time></trkpt><trkpt lat="44.1831033" lon="12.11336"><ele>28.000000000000004</ele><time>2026-04-28T10:12:02.639Z</time></trkpt><trkpt lat="44.1831833" lon="12.1133433"><ele>28.0</ele><time>2026-04-28T10:12:03.639Z</time></trkpt><trkpt lat="44.1832667" lon="12.1133233"><ele>28.0</ele><time>2026-04-28T10:12:04.638Z</time></trkpt><trkpt lat="44.1833467" lon="12.1133083"><ele>28.0</ele><time>2026-04-28T10:12:05.638Z</time></trkpt><trkpt lat="44.1834217" lon="12.1132983"><ele>28.000000000000004</ele><time>2026-04-28T10:12:06.639Z</time></trkpt><trkpt lat="44.183495" lon="12.1132867"><ele>28.0</ele><time>2026-04-28T10:12:07.638Z</time></trkpt><trkpt lat="44.183565" lon="12.1132767"><ele>28.000000000000004</ele><time>2026-04-28T10:12:08.639Z</time></trkpt><trkpt lat="44.183685" lon="12.11326"><ele>28.0</ele><time>2026-04-28T10:12:10.639Z</time></trkpt><trkpt lat="44.1837517" lon="12.11325"><ele>28.0</ele><time>2026-04-28T10:12:11.639Z</time></trkpt><trkpt lat="44.1838167" lon="12.1132417"><ele>28.0</ele><time>2026-04-28T10:12:12.638Z</time></trkpt><trkpt lat="44.1838817" lon="12.1132317"><ele>28.000000000000004</ele><time>2026-04-28T10:12:13.638Z</time></trkpt><trkpt lat="44.183945" lon="12.1132233"><ele>28.0</ele><time>2026-04-28T10:12:14.638Z</time></trkpt><trkpt lat="44.184015" lon="12.1132217"><ele>27.833333333333336</ele><time>2026-04-28T10:12:15.638Z</time></trkpt><trkpt lat="44.1840817" lon="12.1132333"><ele>27.666666666666668</ele><time>2026-04-28T10:12:16.639Z</time></trkpt><trkpt lat="44.18415" lon="12.11325"><ele>27.5</ele><time>2026-04-28T10:12:17.638Z</time></trkpt><trkpt lat="44.1842167" lon="12.11325"><ele>27.333333333333336</ele><time>2026-04-28T10:12:18.639Z</time></trkpt><trkpt lat="44.18428" lon="12.1132483"><ele>27.166666666666668</ele><time>2026-04-28T10:12:19.639Z</time></trkpt><trkpt lat="44.184395" lon="12.11328"><ele>27.0</ele><time>2026-04-28T10:12:21.638Z</time></trkpt><trkpt lat="44.1844967" lon="12.11334"><ele>27.0</ele><time>2026-04-28T10:12:23.638Z</time></trkpt><trkpt lat="44.184605" lon="12.1134217"><ele>27.000000000000004</ele><time>2026-04-28T10:12:25.639Z</time></trkpt><trkpt lat="44.1847233" lon="12.1135233"><ele>27.000000000000004</ele><time>2026-04-28T10:12:27.639Z</time></trkpt><trkpt lat="44.1847817" lon="12.113575"><ele>27.0</ele><time>2026-04-28T10:12:28.639Z</time></trkpt><trkpt lat="44.1848367" lon="12.1136217"><ele>27.0</ele><time>2026-04-28T10:12:29.638Z</time></trkpt><trkpt lat="44.1848933" lon="12.1136667"><ele>27.0</ele><time>2026-04-28T10:12:30.638Z</time></trkpt><trkpt lat="44.184985" lon="12.11374"><ele>27.000000000000004</ele><time>2026-04-28T10:12:32.639Z</time></trkpt><trkpt lat="44.1850133" lon="12.1138467"><ele>27.000000000000004</ele><time>2026-04-28T10:12:34.638Z</time></trkpt><trkpt lat="44.184985" lon="12.1139717"><ele>27.0</ele><time>2026-04-28T10:12:36.639Z</time></trkpt><trkpt lat="44.1849317" lon="12.114095"><ele>27.0</ele><time>2026-04-28T10:12:38.638Z</time></trkpt><trkpt lat="44.1848833" lon="12.1141933"><ele>27.142857142857142</ele><time>2026-04-28T10:12:40.638Z</time></trkpt><trkpt lat="44.1848617" lon="12.11429"><ele>27.285714285714285</ele><time>2026-04-28T10:12:42.638Z</time></trkpt><trkpt lat="44.1849217" lon="12.11434"><ele>27.42857142857143</ele><time>2026-04-28T10:12:45.638Z</time></trkpt><trkpt lat="44.1849917" lon="12.11439"><ele>27.57142857142857</ele><time>2026-04-28T10:12:48.639Z</time></trkpt><trkpt lat="44.185025" lon="12.11448"><ele>27.714285714285715</ele><time>2026-04-28T10:12:51.638Z</time></trkpt><trkpt lat="44.1850083" lon="12.1145867"><ele>27.857142857142858</ele><time>2026-04-28T10:12:54.638Z</time></trkpt><trkpt lat="44.1849833" lon="12.1146833"><ele>28.0</ele><time>2026-04-28T10:12:57.639Z</time></trkpt><trkpt lat="44.1849633" lon="12.1148617"><ele>28.0</ele><time>2026-04-28T10:13:15.638Z</time></trkpt><trkpt lat="44.18497" lon="12.1149617"><ele>28.0</ele><time>2026-04-28T10:13:37.639Z</time></trkpt><trkpt lat="44.184975" lon="12.1148417"><ele>28.0</ele><time>2026-04-28T10:14:00.639Z</time></trkpt><trkpt lat="44.1849333" lon="12.1151433"><ele>28.0</ele><time>2026-04-28T10:14:09.437Z</time></trkpt><trkpt lat="44.18509" lon="12.1149667"><ele>29.0</ele><time>2026-04-28T10:14:11.641Z</time></trkpt><trkpt lat="44.1850167" lon="12.1149533"><ele>29.0</ele><time>2026-04-28T10:14:21.642Z</time></trkpt></trkseg></trk></gpx>